<?xml version="1.0" encoding="UTF-8" standalone="no" ?>
<gpx xmlns="http://www.topografix.com/GPX/1/1" xmlns:xsi="http://www.w3.org/2001/XMLSchema-instance" xsi:schemaLocation="http://www.topografix.com/GPX/1/1 http://www.topografix.com/GPX/1/1/gpx.xsd" version="1.1" creator="VisuGPX - https://www.visugpx.com">
  <metadata>
    <name>Massignieu St Pierre </name>
    <desc><![CDATA[Retour à St Pierre en passant par la vélo route de Belley et Virignin ]]></desc>
  </metadata>
  <trk>
    <name><![CDATA[Massignieu St Pierre _1]]></name>
    <trkseg>
      <trkpt lat="45.76189" lon="5.77337">
        <ele>242</ele>
        <time>2017-05-26T10:36:36Z</time>
      </trkpt>
      <trkpt lat="45.76189" lon="5.77335">
        <ele>242</ele>
        <time>2017-05-26T10:36:36Z</time>
      </trkpt>
      <trkpt lat="45.7619" lon="5.77336">
        <ele>242</ele>
        <time>2017-05-26T10:36:36Z</time>
      </trkpt>
      <trkpt lat="45.7619" lon="5.77335">
        <ele>242</ele>
        <time>2017-05-26T10:36:36Z</time>
      </trkpt>
      <trkpt lat="45.7619" lon="5.77335">
        <ele>242</ele>
        <time>2017-05-26T10:36:36Z</time>
      </trkpt>
      <trkpt lat="45.76189" lon="5.77335">
        <ele>242</ele>
        <time>2017-05-26T10:36:52Z</time>
      </trkpt>
      <trkpt lat="45.76187" lon="5.77332">
        <ele>242</ele>
        <time>2017-05-26T10:36:52Z</time>
      </trkpt>
      <trkpt lat="45.76183" lon="5.77327">
        <ele>242</ele>
        <time>2017-05-26T10:36:52Z</time>
      </trkpt>
      <trkpt lat="45.7618" lon="5.77323">
        <ele>242</ele>
        <time>2017-05-26T10:36:52Z</time>
      </trkpt>
      <trkpt lat="45.76175" lon="5.77314">
        <ele>242</ele>
        <time>2017-05-26T10:38:28Z</time>
      </trkpt>
      <trkpt lat="45.76175" lon="5.77313">
        <ele>242</ele>
        <time>2017-05-26T10:38:28Z</time>
      </trkpt>
      <trkpt lat="45.76173" lon="5.77309">
        <ele>242</ele>
        <time>2017-05-26T10:38:28Z</time>
      </trkpt>
      <trkpt lat="45.7617" lon="5.77301">
        <ele>242</ele>
        <time>2017-05-26T10:38:28Z</time>
      </trkpt>
      <trkpt lat="45.76168" lon="5.77298">
        <ele>242</ele>
        <time>2017-05-26T10:38:28Z</time>
      </trkpt>
      <trkpt lat="45.76166" lon="5.77291">
        <ele>251</ele>
        <time>2017-05-26T10:38:44Z</time>
      </trkpt>
      <trkpt lat="45.76163" lon="5.77286">
        <ele>251</ele>
        <time>2017-05-26T10:38:44Z</time>
      </trkpt>
      <trkpt lat="45.76161" lon="5.77281">
        <ele>251</ele>
        <time>2017-05-26T10:38:44Z</time>
      </trkpt>
      <trkpt lat="45.7616" lon="5.77276">
        <ele>251</ele>
        <time>2017-05-26T10:38:44Z</time>
      </trkpt>
      <trkpt lat="45.76157" lon="5.7727">
        <ele>251</ele>
        <time>2017-05-26T10:39:00Z</time>
      </trkpt>
      <trkpt lat="45.76154" lon="5.77264">
        <ele>251</ele>
        <time>2017-05-26T10:39:00Z</time>
      </trkpt>
      <trkpt lat="45.76151" lon="5.77258">
        <ele>251</ele>
        <time>2017-05-26T10:39:00Z</time>
      </trkpt>
      <trkpt lat="45.76148" lon="5.77253">
        <ele>251</ele>
        <time>2017-05-26T10:39:00Z</time>
      </trkpt>
      <trkpt lat="45.76143" lon="5.77245">
        <ele>251</ele>
        <time>2017-05-26T10:39:16Z</time>
      </trkpt>
      <trkpt lat="45.76137" lon="5.77233">
        <ele>251</ele>
        <time>2017-05-26T10:39:16Z</time>
      </trkpt>
      <trkpt lat="45.76136" lon="5.77229">
        <ele>251</ele>
        <time>2017-05-26T10:39:16Z</time>
      </trkpt>
      <trkpt lat="45.76133" lon="5.77223">
        <ele>251</ele>
        <time>2017-05-26T10:39:16Z</time>
      </trkpt>
      <trkpt lat="45.76132" lon="5.77217">
        <ele>251</ele>
        <time>2017-05-26T10:39:40Z</time>
      </trkpt>
      <trkpt lat="45.76133" lon="5.77216">
        <ele>251</ele>
        <time>2017-05-26T10:39:40Z</time>
      </trkpt>
      <trkpt lat="45.76135" lon="5.77216">
        <ele>251</ele>
        <time>2017-05-26T10:39:40Z</time>
      </trkpt>
      <trkpt lat="45.76128" lon="5.77219">
        <ele>251</ele>
        <time>2017-05-26T10:39:40Z</time>
      </trkpt>
      <trkpt lat="45.7612" lon="5.77216">
        <ele>242</ele>
        <time>2017-05-26T10:39:40Z</time>
      </trkpt>
      <trkpt lat="45.76129" lon="5.77224">
        <ele>251</ele>
        <time>2017-05-26T10:39:56Z</time>
      </trkpt>
      <trkpt lat="45.76137" lon="5.77221">
        <ele>251</ele>
        <time>2017-05-26T10:39:56Z</time>
      </trkpt>
      <trkpt lat="45.76137" lon="5.77214">
        <ele>251</ele>
        <time>2017-05-26T10:39:56Z</time>
      </trkpt>
      <trkpt lat="45.76137" lon="5.77214">
        <ele>251</ele>
        <time>2017-05-26T10:39:56Z</time>
      </trkpt>
      <trkpt lat="45.76138" lon="5.77214">
        <ele>251</ele>
        <time>2017-05-26T10:40:12Z</time>
      </trkpt>
      <trkpt lat="45.76134" lon="5.77209">
        <ele>251</ele>
        <time>2017-05-26T10:40:12Z</time>
      </trkpt>
      <trkpt lat="45.76131" lon="5.77201">
        <ele>259</ele>
        <time>2017-05-26T10:40:12Z</time>
      </trkpt>
      <trkpt lat="45.76129" lon="5.77194">
        <ele>259</ele>
        <time>2017-05-26T10:40:12Z</time>
      </trkpt>
      <trkpt lat="45.76127" lon="5.77188">
        <ele>259</ele>
        <time>2017-05-26T10:40:28Z</time>
      </trkpt>
      <trkpt lat="45.76126" lon="5.77181">
        <ele>259</ele>
        <time>2017-05-26T10:40:28Z</time>
      </trkpt>
      <trkpt lat="45.76126" lon="5.7717">
        <ele>259</ele>
        <time>2017-05-26T10:40:28Z</time>
      </trkpt>
      <trkpt lat="45.76125" lon="5.77162">
        <ele>249</ele>
        <time>2017-05-26T10:40:28Z</time>
      </trkpt>
      <trkpt lat="45.76124" lon="5.77154">
        <ele>249</ele>
        <time>2017-05-26T10:40:44Z</time>
      </trkpt>
      <trkpt lat="45.76123" lon="5.77147">
        <ele>249</ele>
        <time>2017-05-26T10:40:44Z</time>
      </trkpt>
      <trkpt lat="45.76123" lon="5.7714">
        <ele>249</ele>
        <time>2017-05-26T10:40:44Z</time>
      </trkpt>
      <trkpt lat="45.76123" lon="5.77134">
        <ele>249</ele>
        <time>2017-05-26T10:40:44Z</time>
      </trkpt>
      <trkpt lat="45.76122" lon="5.77129">
        <ele>249</ele>
        <time>2017-05-26T10:41:00Z</time>
      </trkpt>
      <trkpt lat="45.76121" lon="5.77124">
        <ele>255</ele>
        <time>2017-05-26T10:41:00Z</time>
      </trkpt>
      <trkpt lat="45.7612" lon="5.77119">
        <ele>255</ele>
        <time>2017-05-26T10:41:00Z</time>
      </trkpt>
      <trkpt lat="45.76118" lon="5.77114">
        <ele>255</ele>
        <time>2017-05-26T10:41:00Z</time>
      </trkpt>
      <trkpt lat="45.76117" lon="5.77106">
        <ele>255</ele>
        <time>2017-05-26T10:41:24Z</time>
      </trkpt>
      <trkpt lat="45.76116" lon="5.77105">
        <ele>255</ele>
        <time>2017-05-26T10:41:24Z</time>
      </trkpt>
      <trkpt lat="45.76116" lon="5.77105">
        <ele>255</ele>
        <time>2017-05-26T10:41:24Z</time>
      </trkpt>
      <trkpt lat="45.76115" lon="5.77097">
        <ele>255</ele>
        <time>2017-05-26T10:41:24Z</time>
      </trkpt>
      <trkpt lat="45.76115" lon="5.77083">
        <ele>255</ele>
        <time>2017-05-26T10:41:24Z</time>
      </trkpt>
      <trkpt lat="45.76115" lon="5.77072">
        <ele>255</ele>
        <time>2017-05-26T10:41:40Z</time>
      </trkpt>
      <trkpt lat="45.76115" lon="5.77062">
        <ele>255</ele>
        <time>2017-05-26T10:41:40Z</time>
      </trkpt>
      <trkpt lat="45.76115" lon="5.77056">
        <ele>255</ele>
        <time>2017-05-26T10:41:40Z</time>
      </trkpt>
      <trkpt lat="45.76115" lon="5.77051">
        <ele>255</ele>
        <time>2017-05-26T10:41:40Z</time>
      </trkpt>
      <trkpt lat="45.76115" lon="5.77043">
        <ele>255</ele>
        <time>2017-05-26T10:41:56Z</time>
      </trkpt>
      <trkpt lat="45.76116" lon="5.77034">
        <ele>257</ele>
        <time>2017-05-26T10:41:56Z</time>
      </trkpt>
      <trkpt lat="45.76116" lon="5.77025">
        <ele>257</ele>
        <time>2017-05-26T10:41:56Z</time>
      </trkpt>
      <trkpt lat="45.76114" lon="5.77017">
        <ele>257</ele>
        <time>2017-05-26T10:41:56Z</time>
      </trkpt>
      <trkpt lat="45.76115" lon="5.77008">
        <ele>257</ele>
        <time>2017-05-26T10:42:12Z</time>
      </trkpt>
      <trkpt lat="45.76116" lon="5.77001">
        <ele>257</ele>
        <time>2017-05-26T10:42:12Z</time>
      </trkpt>
      <trkpt lat="45.76118" lon="5.76995">
        <ele>257</ele>
        <time>2017-05-26T10:42:12Z</time>
      </trkpt>
      <trkpt lat="45.7612" lon="5.76988">
        <ele>257</ele>
        <time>2017-05-26T10:42:12Z</time>
      </trkpt>
      <trkpt lat="45.76123" lon="5.76983">
        <ele>257</ele>
        <time>2017-05-26T10:42:28Z</time>
      </trkpt>
      <trkpt lat="45.76125" lon="5.76976">
        <ele>267</ele>
        <time>2017-05-26T10:42:28Z</time>
      </trkpt>
      <trkpt lat="45.76126" lon="5.76968">
        <ele>267</ele>
        <time>2017-05-26T10:42:28Z</time>
      </trkpt>
      <trkpt lat="45.76128" lon="5.7696">
        <ele>267</ele>
        <time>2017-05-26T10:42:28Z</time>
      </trkpt>
      <trkpt lat="45.7613" lon="5.76953">
        <ele>265</ele>
        <time>2017-05-26T10:42:44Z</time>
      </trkpt>
      <trkpt lat="45.7613" lon="5.76946">
        <ele>265</ele>
        <time>2017-05-26T10:42:44Z</time>
      </trkpt>
      <trkpt lat="45.76131" lon="5.76938">
        <ele>265</ele>
        <time>2017-05-26T10:42:44Z</time>
      </trkpt>
      <trkpt lat="45.76132" lon="5.7693">
        <ele>265</ele>
        <time>2017-05-26T10:42:44Z</time>
      </trkpt>
      <trkpt lat="45.76133" lon="5.76922">
        <ele>265</ele>
        <time>2017-05-26T10:43:00Z</time>
      </trkpt>
      <trkpt lat="45.76134" lon="5.76914">
        <ele>265</ele>
        <time>2017-05-26T10:43:00Z</time>
      </trkpt>
      <trkpt lat="45.76134" lon="5.76907">
        <ele>265</ele>
        <time>2017-05-26T10:43:00Z</time>
      </trkpt>
      <trkpt lat="45.76136" lon="5.769">
        <ele>265</ele>
        <time>2017-05-26T10:43:00Z</time>
      </trkpt>
      <trkpt lat="45.76138" lon="5.76894">
        <ele>265</ele>
        <time>2017-05-26T10:43:16Z</time>
      </trkpt>
      <trkpt lat="45.76139" lon="5.76887">
        <ele>265</ele>
        <time>2017-05-26T10:43:16Z</time>
      </trkpt>
      <trkpt lat="45.7614" lon="5.76882">
        <ele>265</ele>
        <time>2017-05-26T10:43:16Z</time>
      </trkpt>
      <trkpt lat="45.76142" lon="5.76874">
        <ele>260</ele>
        <time>2017-05-26T10:43:16Z</time>
      </trkpt>
      <trkpt lat="45.76144" lon="5.76867">
        <ele>260</ele>
        <time>2017-05-26T10:43:32Z</time>
      </trkpt>
      <trkpt lat="45.76145" lon="5.76861">
        <ele>260</ele>
        <time>2017-05-26T10:43:32Z</time>
      </trkpt>
      <trkpt lat="45.76146" lon="5.76854">
        <ele>260</ele>
        <time>2017-05-26T10:43:32Z</time>
      </trkpt>
      <trkpt lat="45.76147" lon="5.76847">
        <ele>260</ele>
        <time>2017-05-26T10:43:32Z</time>
      </trkpt>
      <trkpt lat="45.76148" lon="5.76842">
        <ele>260</ele>
        <time>2017-05-26T10:43:48Z</time>
      </trkpt>
      <trkpt lat="45.76149" lon="5.76835">
        <ele>260</ele>
        <time>2017-05-26T10:43:48Z</time>
      </trkpt>
      <trkpt lat="45.7615" lon="5.76827">
        <ele>260</ele>
        <time>2017-05-26T10:43:48Z</time>
      </trkpt>
      <trkpt lat="45.76151" lon="5.76819">
        <ele>260</ele>
        <time>2017-05-26T10:43:48Z</time>
      </trkpt>
      <trkpt lat="45.76153" lon="5.76811">
        <ele>260</ele>
        <time>2017-05-26T10:44:04Z</time>
      </trkpt>
      <trkpt lat="45.76155" lon="5.76803">
        <ele>260</ele>
        <time>2017-05-26T10:44:04Z</time>
      </trkpt>
      <trkpt lat="45.76156" lon="5.76795">
        <ele>260</ele>
        <time>2017-05-26T10:44:04Z</time>
      </trkpt>
      <trkpt lat="45.76159" lon="5.76788">
        <ele>256</ele>
        <time>2017-05-26T10:44:04Z</time>
      </trkpt>
      <trkpt lat="45.7616" lon="5.76782">
        <ele>256</ele>
        <time>2017-05-26T10:44:20Z</time>
      </trkpt>
      <trkpt lat="45.76161" lon="5.76774">
        <ele>256</ele>
        <time>2017-05-26T10:44:20Z</time>
      </trkpt>
      <trkpt lat="45.76164" lon="5.76769">
        <ele>256</ele>
        <time>2017-05-26T10:44:20Z</time>
      </trkpt>
      <trkpt lat="45.76168" lon="5.76765">
        <ele>256</ele>
        <time>2017-05-26T10:44:20Z</time>
      </trkpt>
      <trkpt lat="45.76171" lon="5.76761">
        <ele>256</ele>
        <time>2017-05-26T10:44:36Z</time>
      </trkpt>
      <trkpt lat="45.76172" lon="5.76761">
        <ele>256</ele>
        <time>2017-05-26T10:44:36Z</time>
      </trkpt>
      <trkpt lat="45.76177" lon="5.76756">
        <ele>256</ele>
        <time>2017-05-26T10:44:36Z</time>
      </trkpt>
      <trkpt lat="45.76183" lon="5.76752">
        <ele>256</ele>
        <time>2017-05-26T10:44:36Z</time>
      </trkpt>
      <trkpt lat="45.76188" lon="5.76748">
        <ele>256</ele>
        <time>2017-05-26T10:44:52Z</time>
      </trkpt>
      <trkpt lat="45.76194" lon="5.76743">
        <ele>256</ele>
        <time>2017-05-26T10:44:52Z</time>
      </trkpt>
      <trkpt lat="45.762" lon="5.76739">
        <ele>256</ele>
        <time>2017-05-26T10:44:52Z</time>
      </trkpt>
      <trkpt lat="45.76207" lon="5.76734">
        <ele>256</ele>
        <time>2017-05-26T10:44:52Z</time>
      </trkpt>
      <trkpt lat="45.76212" lon="5.76729">
        <ele>254</ele>
        <time>2017-05-26T10:45:08Z</time>
      </trkpt>
      <trkpt lat="45.7622" lon="5.76721">
        <ele>254</ele>
        <time>2017-05-26T10:45:08Z</time>
      </trkpt>
      <trkpt lat="45.76227" lon="5.76715">
        <ele>254</ele>
        <time>2017-05-26T10:45:08Z</time>
      </trkpt>
      <trkpt lat="45.76231" lon="5.76709">
        <ele>254</ele>
        <time>2017-05-26T10:45:08Z</time>
      </trkpt>
      <trkpt lat="45.76234" lon="5.76704">
        <ele>249</ele>
        <time>2017-05-26T10:45:24Z</time>
      </trkpt>
      <trkpt lat="45.76238" lon="5.76699">
        <ele>249</ele>
        <time>2017-05-26T10:45:24Z</time>
      </trkpt>
      <trkpt lat="45.76243" lon="5.76693">
        <ele>249</ele>
        <time>2017-05-26T10:45:24Z</time>
      </trkpt>
      <trkpt lat="45.76248" lon="5.76688">
        <ele>249</ele>
        <time>2017-05-26T10:45:24Z</time>
      </trkpt>
      <trkpt lat="45.76252" lon="5.76683">
        <ele>249</ele>
        <time>2017-05-26T10:45:40Z</time>
      </trkpt>
      <trkpt lat="45.76256" lon="5.76678">
        <ele>249</ele>
        <time>2017-05-26T10:45:40Z</time>
      </trkpt>
      <trkpt lat="45.76259" lon="5.76673">
        <ele>249</ele>
        <time>2017-05-26T10:45:40Z</time>
      </trkpt>
      <trkpt lat="45.76264" lon="5.76667">
        <ele>249</ele>
        <time>2017-05-26T10:45:40Z</time>
      </trkpt>
      <trkpt lat="45.7627" lon="5.76663">
        <ele>249</ele>
        <time>2017-05-26T10:45:56Z</time>
      </trkpt>
      <trkpt lat="45.76274" lon="5.76657">
        <ele>249</ele>
        <time>2017-05-26T10:45:56Z</time>
      </trkpt>
      <trkpt lat="45.76278" lon="5.76651">
        <ele>249</ele>
        <time>2017-05-26T10:45:56Z</time>
      </trkpt>
      <trkpt lat="45.76282" lon="5.76645">
        <ele>249</ele>
        <time>2017-05-26T10:45:56Z</time>
      </trkpt>
      <trkpt lat="45.76286" lon="5.7664">
        <ele>249</ele>
        <time>2017-05-26T10:46:12Z</time>
      </trkpt>
      <trkpt lat="45.7629" lon="5.76635">
        <ele>249</ele>
        <time>2017-05-26T10:46:12Z</time>
      </trkpt>
      <trkpt lat="45.76293" lon="5.7663">
        <ele>254</ele>
        <time>2017-05-26T10:46:12Z</time>
      </trkpt>
      <trkpt lat="45.76297" lon="5.76624">
        <ele>250</ele>
        <time>2017-05-26T10:46:12Z</time>
      </trkpt>
      <trkpt lat="45.76301" lon="5.76619">
        <ele>250</ele>
        <time>2017-05-26T10:46:28Z</time>
      </trkpt>
      <trkpt lat="45.76305" lon="5.76613">
        <ele>250</ele>
        <time>2017-05-26T10:46:28Z</time>
      </trkpt>
      <trkpt lat="45.76309" lon="5.76608">
        <ele>250</ele>
        <time>2017-05-26T10:46:28Z</time>
      </trkpt>
      <trkpt lat="45.76314" lon="5.76603">
        <ele>250</ele>
        <time>2017-05-26T10:46:28Z</time>
      </trkpt>
      <trkpt lat="45.76318" lon="5.76598">
        <ele>250</ele>
        <time>2017-05-26T10:46:44Z</time>
      </trkpt>
      <trkpt lat="45.76322" lon="5.76593">
        <ele>250</ele>
        <time>2017-05-26T10:46:44Z</time>
      </trkpt>
      <trkpt lat="45.76327" lon="5.76589">
        <ele>250</ele>
        <time>2017-05-26T10:46:44Z</time>
      </trkpt>
      <trkpt lat="45.76332" lon="5.76583">
        <ele>250</ele>
        <time>2017-05-26T10:46:44Z</time>
      </trkpt>
      <trkpt lat="45.76336" lon="5.76579">
        <ele>250</ele>
        <time>2017-05-26T10:47:00Z</time>
      </trkpt>
      <trkpt lat="45.7634" lon="5.76574">
        <ele>250</ele>
        <time>2017-05-26T10:47:00Z</time>
      </trkpt>
      <trkpt lat="45.76345" lon="5.76569">
        <ele>250</ele>
        <time>2017-05-26T10:47:00Z</time>
      </trkpt>
      <trkpt lat="45.76349" lon="5.76565">
        <ele>250</ele>
        <time>2017-05-26T10:47:00Z</time>
      </trkpt>
      <trkpt lat="45.76355" lon="5.76563">
        <ele>250</ele>
        <time>2017-05-26T10:47:16Z</time>
      </trkpt>
      <trkpt lat="45.7636" lon="5.76561">
        <ele>250</ele>
        <time>2017-05-26T10:47:16Z</time>
      </trkpt>
      <trkpt lat="45.76365" lon="5.7656">
        <ele>250</ele>
        <time>2017-05-26T10:47:16Z</time>
      </trkpt>
      <trkpt lat="45.7637" lon="5.76557">
        <ele>250</ele>
        <time>2017-05-26T10:47:16Z</time>
      </trkpt>
      <trkpt lat="45.76374" lon="5.76554">
        <ele>250</ele>
        <time>2017-05-26T10:47:32Z</time>
      </trkpt>
      <trkpt lat="45.76379" lon="5.76551">
        <ele>251</ele>
        <time>2017-05-26T10:47:32Z</time>
      </trkpt>
      <trkpt lat="45.76384" lon="5.76549">
        <ele>251</ele>
        <time>2017-05-26T10:47:32Z</time>
      </trkpt>
      <trkpt lat="45.76391" lon="5.76547">
        <ele>251</ele>
        <time>2017-05-26T10:47:32Z</time>
      </trkpt>
      <trkpt lat="45.76396" lon="5.76545">
        <ele>251</ele>
        <time>2017-05-26T10:47:48Z</time>
      </trkpt>
      <trkpt lat="45.76401" lon="5.76543">
        <ele>251</ele>
        <time>2017-05-26T10:47:48Z</time>
      </trkpt>
      <trkpt lat="45.76405" lon="5.76541">
        <ele>248</ele>
        <time>2017-05-26T10:47:48Z</time>
      </trkpt>
      <trkpt lat="45.76408" lon="5.76539">
        <ele>248</ele>
        <time>2017-05-26T10:47:48Z</time>
      </trkpt>
      <trkpt lat="45.76412" lon="5.76537">
        <ele>248</ele>
        <time>2017-05-26T10:48:04Z</time>
      </trkpt>
      <trkpt lat="45.76419" lon="5.76535">
        <ele>248</ele>
        <time>2017-05-26T10:48:04Z</time>
      </trkpt>
      <trkpt lat="45.76424" lon="5.76532">
        <ele>248</ele>
        <time>2017-05-26T10:48:04Z</time>
      </trkpt>
      <trkpt lat="45.76429" lon="5.7653">
        <ele>248</ele>
        <time>2017-05-26T10:48:04Z</time>
      </trkpt>
      <trkpt lat="45.76434" lon="5.76527">
        <ele>248</ele>
        <time>2017-05-26T10:48:20Z</time>
      </trkpt>
      <trkpt lat="45.76439" lon="5.76524">
        <ele>248</ele>
        <time>2017-05-26T10:48:20Z</time>
      </trkpt>
      <trkpt lat="45.76444" lon="5.7652">
        <ele>248</ele>
        <time>2017-05-26T10:48:20Z</time>
      </trkpt>
      <trkpt lat="45.76446" lon="5.76513">
        <ele>248</ele>
        <time>2017-05-26T10:48:20Z</time>
      </trkpt>
      <trkpt lat="45.76448" lon="5.76506">
        <ele>248</ele>
        <time>2017-05-26T10:48:36Z</time>
      </trkpt>
      <trkpt lat="45.76447" lon="5.76499">
        <ele>248</ele>
        <time>2017-05-26T10:48:36Z</time>
      </trkpt>
      <trkpt lat="45.76447" lon="5.7649">
        <ele>248</ele>
        <time>2017-05-26T10:48:36Z</time>
      </trkpt>
      <trkpt lat="45.76447" lon="5.76482">
        <ele>248</ele>
        <time>2017-05-26T10:48:36Z</time>
      </trkpt>
      <trkpt lat="45.76447" lon="5.76474">
        <ele>248</ele>
        <time>2017-05-26T10:48:52Z</time>
      </trkpt>
      <trkpt lat="45.76449" lon="5.76466">
        <ele>248</ele>
        <time>2017-05-26T10:48:52Z</time>
      </trkpt>
      <trkpt lat="45.76452" lon="5.76458">
        <ele>248</ele>
        <time>2017-05-26T10:48:52Z</time>
      </trkpt>
      <trkpt lat="45.76453" lon="5.7645">
        <ele>248</ele>
        <time>2017-05-26T10:48:52Z</time>
      </trkpt>
      <trkpt lat="45.76455" lon="5.76443">
        <ele>248</ele>
        <time>2017-05-26T10:49:08Z</time>
      </trkpt>
      <trkpt lat="45.76456" lon="5.76436">
        <ele>248</ele>
        <time>2017-05-26T10:49:08Z</time>
      </trkpt>
      <trkpt lat="45.76456" lon="5.76427">
        <ele>248</ele>
        <time>2017-05-26T10:49:08Z</time>
      </trkpt>
      <trkpt lat="45.76456" lon="5.76419">
        <ele>248</ele>
        <time>2017-05-26T10:49:08Z</time>
      </trkpt>
      <trkpt lat="45.76457" lon="5.7641">
        <ele>248</ele>
        <time>2017-05-26T10:49:24Z</time>
      </trkpt>
      <trkpt lat="45.76458" lon="5.76402">
        <ele>246</ele>
        <time>2017-05-26T10:49:24Z</time>
      </trkpt>
      <trkpt lat="45.76459" lon="5.76394">
        <ele>246</ele>
        <time>2017-05-26T10:49:24Z</time>
      </trkpt>
      <trkpt lat="45.76461" lon="5.76386">
        <ele>246</ele>
        <time>2017-05-26T10:49:24Z</time>
      </trkpt>
      <trkpt lat="45.76462" lon="5.76377">
        <ele>246</ele>
        <time>2017-05-26T10:49:40Z</time>
      </trkpt>
      <trkpt lat="45.76464" lon="5.76368">
        <ele>245</ele>
        <time>2017-05-26T10:49:40Z</time>
      </trkpt>
      <trkpt lat="45.76465" lon="5.76361">
        <ele>245</ele>
        <time>2017-05-26T10:49:40Z</time>
      </trkpt>
      <trkpt lat="45.76466" lon="5.76353">
        <ele>245</ele>
        <time>2017-05-26T10:49:40Z</time>
      </trkpt>
      <trkpt lat="45.76466" lon="5.76344">
        <ele>245</ele>
        <time>2017-05-26T10:49:56Z</time>
      </trkpt>
      <trkpt lat="45.76467" lon="5.76336">
        <ele>245</ele>
        <time>2017-05-26T10:49:56Z</time>
      </trkpt>
      <trkpt lat="45.76468" lon="5.76327">
        <ele>245</ele>
        <time>2017-05-26T10:49:56Z</time>
      </trkpt>
      <trkpt lat="45.76468" lon="5.76318">
        <ele>245</ele>
        <time>2017-05-26T10:49:56Z</time>
      </trkpt>
      <trkpt lat="45.76469" lon="5.76309">
        <ele>245</ele>
        <time>2017-05-26T10:50:12Z</time>
      </trkpt>
      <trkpt lat="45.76469" lon="5.763">
        <ele>245</ele>
        <time>2017-05-26T10:50:12Z</time>
      </trkpt>
      <trkpt lat="45.76469" lon="5.76292">
        <ele>245</ele>
        <time>2017-05-26T10:50:12Z</time>
      </trkpt>
      <trkpt lat="45.76469" lon="5.76283">
        <ele>247</ele>
        <time>2017-05-26T10:50:12Z</time>
      </trkpt>
      <trkpt lat="45.7647" lon="5.76274">
        <ele>247</ele>
        <time>2017-05-26T10:50:28Z</time>
      </trkpt>
      <trkpt lat="45.7647" lon="5.76266">
        <ele>247</ele>
        <time>2017-05-26T10:50:28Z</time>
      </trkpt>
      <trkpt lat="45.7647" lon="5.76258">
        <ele>247</ele>
        <time>2017-05-26T10:50:28Z</time>
      </trkpt>
      <trkpt lat="45.76469" lon="5.7625">
        <ele>247</ele>
        <time>2017-05-26T10:50:28Z</time>
      </trkpt>
      <trkpt lat="45.76469" lon="5.7624">
        <ele>247</ele>
        <time>2017-05-26T10:51:04Z</time>
      </trkpt>
      <trkpt lat="45.76469" lon="5.76237">
        <ele>247</ele>
        <time>2017-05-26T10:51:04Z</time>
      </trkpt>
      <trkpt lat="45.76469" lon="5.76237">
        <ele>247</ele>
        <time>2017-05-26T10:51:04Z</time>
      </trkpt>
      <trkpt lat="45.76469" lon="5.76235">
        <ele>247</ele>
        <time>2017-05-26T10:51:04Z</time>
      </trkpt>
      <trkpt lat="45.76472" lon="5.76231">
        <ele>247</ele>
        <time>2017-05-26T10:51:04Z</time>
      </trkpt>
      <trkpt lat="45.76477" lon="5.76227">
        <ele>247</ele>
        <time>2017-05-26T10:51:20Z</time>
      </trkpt>
      <trkpt lat="45.76483" lon="5.76224">
        <ele>247</ele>
        <time>2017-05-26T10:51:20Z</time>
      </trkpt>
      <trkpt lat="45.76488" lon="5.76219">
        <ele>247</ele>
        <time>2017-05-26T10:51:20Z</time>
      </trkpt>
      <trkpt lat="45.76492" lon="5.76214">
        <ele>247</ele>
        <time>2017-05-26T10:51:20Z</time>
      </trkpt>
      <trkpt lat="45.76497" lon="5.76208">
        <ele>250</ele>
        <time>2017-05-26T10:51:36Z</time>
      </trkpt>
      <trkpt lat="45.76501" lon="5.76203">
        <ele>250</ele>
        <time>2017-05-26T10:51:36Z</time>
      </trkpt>
      <trkpt lat="45.76506" lon="5.76197">
        <ele>250</ele>
        <time>2017-05-26T10:51:36Z</time>
      </trkpt>
      <trkpt lat="45.7651" lon="5.76191">
        <ele>250</ele>
        <time>2017-05-26T10:51:36Z</time>
      </trkpt>
      <trkpt lat="45.76514" lon="5.76186">
        <ele>250</ele>
        <time>2017-05-26T10:51:52Z</time>
      </trkpt>
      <trkpt lat="45.76517" lon="5.76181">
        <ele>250</ele>
        <time>2017-05-26T10:51:52Z</time>
      </trkpt>
      <trkpt lat="45.76522" lon="5.76177">
        <ele>250</ele>
        <time>2017-05-26T10:51:52Z</time>
      </trkpt>
      <trkpt lat="45.76527" lon="5.76173">
        <ele>250</ele>
        <time>2017-05-26T10:51:52Z</time>
      </trkpt>
      <trkpt lat="45.76531" lon="5.76168">
        <ele>250</ele>
        <time>2017-05-26T10:52:08Z</time>
      </trkpt>
      <trkpt lat="45.76533" lon="5.76163">
        <ele>250</ele>
        <time>2017-05-26T10:52:08Z</time>
      </trkpt>
      <trkpt lat="45.76538" lon="5.7616">
        <ele>250</ele>
        <time>2017-05-26T10:52:08Z</time>
      </trkpt>
      <trkpt lat="45.76543" lon="5.76156">
        <ele>238</ele>
        <time>2017-05-26T10:52:08Z</time>
      </trkpt>
      <trkpt lat="45.76549" lon="5.76152">
        <ele>238</ele>
        <time>2017-05-26T10:52:24Z</time>
      </trkpt>
      <trkpt lat="45.76554" lon="5.76148">
        <ele>238</ele>
        <time>2017-05-26T10:52:24Z</time>
      </trkpt>
      <trkpt lat="45.7656" lon="5.76146">
        <ele>238</ele>
        <time>2017-05-26T10:52:24Z</time>
      </trkpt>
      <trkpt lat="45.76565" lon="5.76143">
        <ele>238</ele>
        <time>2017-05-26T10:52:24Z</time>
      </trkpt>
      <trkpt lat="45.76563" lon="5.76136">
        <ele>238</ele>
        <time>2017-05-26T10:53:04Z</time>
      </trkpt>
      <trkpt lat="45.76563" lon="5.76135">
        <ele>238</ele>
        <time>2017-05-26T10:53:04Z</time>
      </trkpt>
      <trkpt lat="45.76562" lon="5.76134">
        <ele>238</ele>
        <time>2017-05-26T10:53:04Z</time>
      </trkpt>
      <trkpt lat="45.76562" lon="5.76129">
        <ele>238</ele>
        <time>2017-05-26T10:53:04Z</time>
      </trkpt>
      <trkpt lat="45.76564" lon="5.76121">
        <ele>242</ele>
        <time>2017-05-26T10:53:04Z</time>
      </trkpt>
      <trkpt lat="45.76568" lon="5.76113">
        <ele>242</ele>
        <time>2017-05-26T10:53:20Z</time>
      </trkpt>
      <trkpt lat="45.76572" lon="5.76105">
        <ele>242</ele>
        <time>2017-05-26T10:53:20Z</time>
      </trkpt>
      <trkpt lat="45.76576" lon="5.76099">
        <ele>242</ele>
        <time>2017-05-26T10:53:20Z</time>
      </trkpt>
      <trkpt lat="45.76579" lon="5.76093">
        <ele>242</ele>
        <time>2017-05-26T10:53:20Z</time>
      </trkpt>
      <trkpt lat="45.76582" lon="5.76085">
        <ele>242</ele>
        <time>2017-05-26T10:53:36Z</time>
      </trkpt>
      <trkpt lat="45.76585" lon="5.76078">
        <ele>242</ele>
        <time>2017-05-26T10:53:36Z</time>
      </trkpt>
      <trkpt lat="45.76589" lon="5.76072">
        <ele>242</ele>
        <time>2017-05-26T10:53:36Z</time>
      </trkpt>
      <trkpt lat="45.76592" lon="5.76067">
        <ele>242</ele>
        <time>2017-05-26T10:53:36Z</time>
      </trkpt>
      <trkpt lat="45.76595" lon="5.76061">
        <ele>242</ele>
        <time>2017-05-26T10:53:52Z</time>
      </trkpt>
      <trkpt lat="45.76598" lon="5.76055">
        <ele>242</ele>
        <time>2017-05-26T10:53:52Z</time>
      </trkpt>
      <trkpt lat="45.76601" lon="5.76049">
        <ele>242</ele>
        <time>2017-05-26T10:53:52Z</time>
      </trkpt>
      <trkpt lat="45.76604" lon="5.76042">
        <ele>242</ele>
        <time>2017-05-26T10:53:52Z</time>
      </trkpt>
      <trkpt lat="45.76606" lon="5.76035">
        <ele>243</ele>
        <time>2017-05-26T10:54:08Z</time>
      </trkpt>
      <trkpt lat="45.7661" lon="5.76028">
        <ele>243</ele>
        <time>2017-05-26T10:54:08Z</time>
      </trkpt>
      <trkpt lat="45.76614" lon="5.76021">
        <ele>243</ele>
        <time>2017-05-26T10:54:08Z</time>
      </trkpt>
      <trkpt lat="45.76618" lon="5.76014">
        <ele>243</ele>
        <time>2017-05-26T10:54:08Z</time>
      </trkpt>
      <trkpt lat="45.76623" lon="5.76007">
        <ele>243</ele>
        <time>2017-05-26T10:54:24Z</time>
      </trkpt>
      <trkpt lat="45.76626" lon="5.76003">
        <ele>237</ele>
        <time>2017-05-26T10:54:24Z</time>
      </trkpt>
      <trkpt lat="45.76628" lon="5.75996">
        <ele>237</ele>
        <time>2017-05-26T10:54:24Z</time>
      </trkpt>
      <trkpt lat="45.7663" lon="5.75991">
        <ele>237</ele>
        <time>2017-05-26T10:54:24Z</time>
      </trkpt>
      <trkpt lat="45.76633" lon="5.75987">
        <ele>237</ele>
        <time>2017-05-26T10:54:40Z</time>
      </trkpt>
      <trkpt lat="45.76636" lon="5.7598">
        <ele>237</ele>
        <time>2017-05-26T10:54:40Z</time>
      </trkpt>
      <trkpt lat="45.76638" lon="5.75973">
        <ele>237</ele>
        <time>2017-05-26T10:54:40Z</time>
      </trkpt>
      <trkpt lat="45.76642" lon="5.75965">
        <ele>237</ele>
        <time>2017-05-26T10:54:40Z</time>
      </trkpt>
      <trkpt lat="45.76645" lon="5.75958">
        <ele>241</ele>
        <time>2017-05-26T10:54:56Z</time>
      </trkpt>
      <trkpt lat="45.76649" lon="5.75951">
        <ele>241</ele>
        <time>2017-05-26T10:54:56Z</time>
      </trkpt>
      <trkpt lat="45.76652" lon="5.75945">
        <ele>241</ele>
        <time>2017-05-26T10:54:56Z</time>
      </trkpt>
      <trkpt lat="45.76655" lon="5.75938">
        <ele>241</ele>
        <time>2017-05-26T10:54:56Z</time>
      </trkpt>
      <trkpt lat="45.76657" lon="5.75931">
        <ele>241</ele>
        <time>2017-05-26T10:55:12Z</time>
      </trkpt>
      <trkpt lat="45.76661" lon="5.75925">
        <ele>241</ele>
        <time>2017-05-26T10:55:12Z</time>
      </trkpt>
      <trkpt lat="45.76665" lon="5.75918">
        <ele>241</ele>
        <time>2017-05-26T10:55:12Z</time>
      </trkpt>
      <trkpt lat="45.76668" lon="5.75912">
        <ele>241</ele>
        <time>2017-05-26T10:55:12Z</time>
      </trkpt>
      <trkpt lat="45.76672" lon="5.75904">
        <ele>241</ele>
        <time>2017-05-26T10:55:28Z</time>
      </trkpt>
      <trkpt lat="45.76677" lon="5.759">
        <ele>241</ele>
        <time>2017-05-26T10:55:28Z</time>
      </trkpt>
      <trkpt lat="45.7668" lon="5.75895">
        <ele>241</ele>
        <time>2017-05-26T10:55:28Z</time>
      </trkpt>
      <trkpt lat="45.76681" lon="5.75887">
        <ele>241</ele>
        <time>2017-05-26T10:55:28Z</time>
      </trkpt>
      <trkpt lat="45.76682" lon="5.75879">
        <ele>241</ele>
        <time>2017-05-26T10:55:44Z</time>
      </trkpt>
      <trkpt lat="45.76685" lon="5.7587">
        <ele>247</ele>
        <time>2017-05-26T10:55:44Z</time>
      </trkpt>
      <trkpt lat="45.76687" lon="5.75861">
        <ele>247</ele>
        <time>2017-05-26T10:55:44Z</time>
      </trkpt>
      <trkpt lat="45.76688" lon="5.75852">
        <ele>247</ele>
        <time>2017-05-26T10:55:44Z</time>
      </trkpt>
      <trkpt lat="45.76688" lon="5.75845">
        <ele>247</ele>
        <time>2017-05-26T10:56:00Z</time>
      </trkpt>
      <trkpt lat="45.7669" lon="5.75837">
        <ele>247</ele>
        <time>2017-05-26T10:56:00Z</time>
      </trkpt>
      <trkpt lat="45.7669" lon="5.75829">
        <ele>247</ele>
        <time>2017-05-26T10:56:00Z</time>
      </trkpt>
      <trkpt lat="45.76689" lon="5.75821">
        <ele>247</ele>
        <time>2017-05-26T10:56:00Z</time>
      </trkpt>
      <trkpt lat="45.76687" lon="5.75814">
        <ele>247</ele>
        <time>2017-05-26T10:56:16Z</time>
      </trkpt>
      <trkpt lat="45.76683" lon="5.75807">
        <ele>247</ele>
        <time>2017-05-26T10:56:16Z</time>
      </trkpt>
      <trkpt lat="45.7668" lon="5.758">
        <ele>247</ele>
        <time>2017-05-26T10:56:16Z</time>
      </trkpt>
      <trkpt lat="45.76678" lon="5.75791">
        <ele>252</ele>
        <time>2017-05-26T10:56:16Z</time>
      </trkpt>
      <trkpt lat="45.76676" lon="5.75788">
        <ele>252</ele>
        <time>2017-05-26T10:56:40Z</time>
      </trkpt>
      <trkpt lat="45.76677" lon="5.75784">
        <ele>252</ele>
        <time>2017-05-26T10:56:40Z</time>
      </trkpt>
      <trkpt lat="45.76681" lon="5.75784">
        <ele>252</ele>
        <time>2017-05-26T10:56:40Z</time>
      </trkpt>
      <trkpt lat="45.76679" lon="5.7578">
        <ele>252</ele>
        <time>2017-05-26T10:56:40Z</time>
      </trkpt>
      <trkpt lat="45.76676" lon="5.75769">
        <ele>252</ele>
        <time>2017-05-26T10:56:40Z</time>
      </trkpt>
      <trkpt lat="45.76663" lon="5.75759">
        <ele>252</ele>
        <time>2017-05-26T10:56:56Z</time>
      </trkpt>
      <trkpt lat="45.76657" lon="5.75748">
        <ele>252</ele>
        <time>2017-05-26T10:56:56Z</time>
      </trkpt>
      <trkpt lat="45.7665" lon="5.75741">
        <ele>252</ele>
        <time>2017-05-26T10:56:56Z</time>
      </trkpt>
      <trkpt lat="45.76643" lon="5.75739">
        <ele>252</ele>
        <time>2017-05-26T10:56:56Z</time>
      </trkpt>
      <trkpt lat="45.76637" lon="5.75734">
        <ele>252</ele>
        <time>2017-05-26T10:57:12Z</time>
      </trkpt>
      <trkpt lat="45.76632" lon="5.75731">
        <ele>252</ele>
        <time>2017-05-26T10:57:12Z</time>
      </trkpt>
      <trkpt lat="45.76625" lon="5.75728">
        <ele>270</ele>
        <time>2017-05-26T10:57:12Z</time>
      </trkpt>
      <trkpt lat="45.76617" lon="5.75725">
        <ele>270</ele>
        <time>2017-05-26T10:57:12Z</time>
      </trkpt>
      <trkpt lat="45.76612" lon="5.75724">
        <ele>270</ele>
        <time>2017-05-26T10:57:28Z</time>
      </trkpt>
      <trkpt lat="45.76608" lon="5.75723">
        <ele>270</ele>
        <time>2017-05-26T10:57:28Z</time>
      </trkpt>
      <trkpt lat="45.76602" lon="5.75721">
        <ele>270</ele>
        <time>2017-05-26T10:57:28Z</time>
      </trkpt>
      <trkpt lat="45.76595" lon="5.75719">
        <ele>270</ele>
        <time>2017-05-26T10:57:28Z</time>
      </trkpt>
      <trkpt lat="45.76588" lon="5.75719">
        <ele>270</ele>
        <time>2017-05-26T10:57:44Z</time>
      </trkpt>
      <trkpt lat="45.76583" lon="5.7572">
        <ele>270</ele>
        <time>2017-05-26T10:57:44Z</time>
      </trkpt>
      <trkpt lat="45.76577" lon="5.7572">
        <ele>270</ele>
        <time>2017-05-26T10:57:44Z</time>
      </trkpt>
      <trkpt lat="45.76572" lon="5.75722">
        <ele>270</ele>
        <time>2017-05-26T10:57:44Z</time>
      </trkpt>
      <trkpt lat="45.76567" lon="5.75722">
        <ele>270</ele>
        <time>2017-05-26T10:58:00Z</time>
      </trkpt>
      <trkpt lat="45.76561" lon="5.75719">
        <ele>270</ele>
        <time>2017-05-26T10:58:00Z</time>
      </trkpt>
      <trkpt lat="45.76556" lon="5.75715">
        <ele>270</ele>
        <time>2017-05-26T10:58:00Z</time>
      </trkpt>
      <trkpt lat="45.7655" lon="5.75712">
        <ele>270</ele>
        <time>2017-05-26T10:58:00Z</time>
      </trkpt>
      <trkpt lat="45.76545" lon="5.7571">
        <ele>270</ele>
        <time>2017-05-26T10:58:16Z</time>
      </trkpt>
      <trkpt lat="45.76538" lon="5.75703">
        <ele>257</ele>
        <time>2017-05-26T10:58:16Z</time>
      </trkpt>
      <trkpt lat="45.76532" lon="5.757">
        <ele>257</ele>
        <time>2017-05-26T10:58:16Z</time>
      </trkpt>
      <trkpt lat="45.76525" lon="5.75698">
        <ele>257</ele>
        <time>2017-05-26T10:58:16Z</time>
      </trkpt>
      <trkpt lat="45.76519" lon="5.75695">
        <ele>257</ele>
        <time>2017-05-26T10:58:32Z</time>
      </trkpt>
      <trkpt lat="45.76514" lon="5.75691">
        <ele>257</ele>
        <time>2017-05-26T10:58:32Z</time>
      </trkpt>
      <trkpt lat="45.76509" lon="5.75686">
        <ele>257</ele>
        <time>2017-05-26T10:58:32Z</time>
      </trkpt>
      <trkpt lat="45.76504" lon="5.7568">
        <ele>257</ele>
        <time>2017-05-26T10:58:32Z</time>
      </trkpt>
      <trkpt lat="45.765" lon="5.75676">
        <ele>257</ele>
        <time>2017-05-26T10:58:48Z</time>
      </trkpt>
      <trkpt lat="45.76496" lon="5.75671">
        <ele>257</ele>
        <time>2017-05-26T10:58:48Z</time>
      </trkpt>
      <trkpt lat="45.76492" lon="5.75665">
        <ele>257</ele>
        <time>2017-05-26T10:58:48Z</time>
      </trkpt>
      <trkpt lat="45.76491" lon="5.75657">
        <ele>257</ele>
        <time>2017-05-26T10:58:48Z</time>
      </trkpt>
      <trkpt lat="45.76497" lon="5.7565">
        <ele>257</ele>
        <time>2017-05-26T10:59:16Z</time>
      </trkpt>
      <trkpt lat="45.76498" lon="5.7565">
        <ele>257</ele>
        <time>2017-05-26T10:59:16Z</time>
      </trkpt>
      <trkpt lat="45.76499" lon="5.7565">
        <ele>257</ele>
        <time>2017-05-26T10:59:16Z</time>
      </trkpt>
      <trkpt lat="45.76502" lon="5.75646">
        <ele>257</ele>
        <time>2017-05-26T10:59:16Z</time>
      </trkpt>
      <trkpt lat="45.76504" lon="5.75638">
        <ele>257</ele>
        <time>2017-05-26T10:59:16Z</time>
      </trkpt>
      <trkpt lat="45.76505" lon="5.75629">
        <ele>257</ele>
        <time>2017-05-26T10:59:32Z</time>
      </trkpt>
      <trkpt lat="45.76505" lon="5.75622">
        <ele>249</ele>
        <time>2017-05-26T10:59:32Z</time>
      </trkpt>
      <trkpt lat="45.76505" lon="5.75613">
        <ele>249</ele>
        <time>2017-05-26T10:59:32Z</time>
      </trkpt>
      <trkpt lat="45.76506" lon="5.75603">
        <ele>249</ele>
        <time>2017-05-26T10:59:32Z</time>
      </trkpt>
      <trkpt lat="45.76507" lon="5.75594">
        <ele>249</ele>
        <time>2017-05-26T10:59:48Z</time>
      </trkpt>
      <trkpt lat="45.76507" lon="5.75586">
        <ele>249</ele>
        <time>2017-05-26T10:59:48Z</time>
      </trkpt>
      <trkpt lat="45.76508" lon="5.75578">
        <ele>249</ele>
        <time>2017-05-26T10:59:48Z</time>
      </trkpt>
      <trkpt lat="45.76511" lon="5.75569">
        <ele>249</ele>
        <time>2017-05-26T10:59:48Z</time>
      </trkpt>
      <trkpt lat="45.76514" lon="5.75561">
        <ele>249</ele>
        <time>2017-05-26T11:00:04Z</time>
      </trkpt>
      <trkpt lat="45.76517" lon="5.75553">
        <ele>249</ele>
        <time>2017-05-26T11:00:04Z</time>
      </trkpt>
      <trkpt lat="45.7652" lon="5.75545">
        <ele>249</ele>
        <time>2017-05-26T11:00:04Z</time>
      </trkpt>
      <trkpt lat="45.76522" lon="5.75537">
        <ele>231</ele>
        <time>2017-05-26T11:00:04Z</time>
      </trkpt>
      <trkpt lat="45.76524" lon="5.75529">
        <ele>231</ele>
        <time>2017-05-26T11:00:20Z</time>
      </trkpt>
      <trkpt lat="45.76527" lon="5.75518">
        <ele>231</ele>
        <time>2017-05-26T11:00:20Z</time>
      </trkpt>
      <trkpt lat="45.76531" lon="5.75504">
        <ele>231</ele>
        <time>2017-05-26T11:00:20Z</time>
      </trkpt>
      <trkpt lat="45.76536" lon="5.7549">
        <ele>231</ele>
        <time>2017-05-26T11:00:20Z</time>
      </trkpt>
      <trkpt lat="45.76539" lon="5.75481">
        <ele>231</ele>
        <time>2017-05-26T11:00:36Z</time>
      </trkpt>
      <trkpt lat="45.76542" lon="5.75472">
        <ele>231</ele>
        <time>2017-05-26T11:00:36Z</time>
      </trkpt>
      <trkpt lat="45.76544" lon="5.75463">
        <ele>231</ele>
        <time>2017-05-26T11:00:36Z</time>
      </trkpt>
      <trkpt lat="45.76547" lon="5.75454">
        <ele>244</ele>
        <time>2017-05-26T11:00:36Z</time>
      </trkpt>
      <trkpt lat="45.7655" lon="5.75447">
        <ele>244</ele>
        <time>2017-05-26T11:00:52Z</time>
      </trkpt>
      <trkpt lat="45.76552" lon="5.7544">
        <ele>244</ele>
        <time>2017-05-26T11:00:52Z</time>
      </trkpt>
      <trkpt lat="45.76556" lon="5.75435">
        <ele>244</ele>
        <time>2017-05-26T11:00:52Z</time>
      </trkpt>
      <trkpt lat="45.76559" lon="5.75429">
        <ele>244</ele>
        <time>2017-05-26T11:00:52Z</time>
      </trkpt>
      <trkpt lat="45.76562" lon="5.75424">
        <ele>244</ele>
        <time>2017-05-26T11:01:08Z</time>
      </trkpt>
      <trkpt lat="45.76565" lon="5.7542">
        <ele>244</ele>
        <time>2017-05-26T11:01:08Z</time>
      </trkpt>
      <trkpt lat="45.76569" lon="5.75415">
        <ele>244</ele>
        <time>2017-05-26T11:01:08Z</time>
      </trkpt>
      <trkpt lat="45.76575" lon="5.75409">
        <ele>244</ele>
        <time>2017-05-26T11:01:08Z</time>
      </trkpt>
      <trkpt lat="45.7658" lon="5.75405">
        <ele>244</ele>
        <time>2017-05-26T11:01:24Z</time>
      </trkpt>
      <trkpt lat="45.76585" lon="5.75405">
        <ele>244</ele>
        <time>2017-05-26T11:01:24Z</time>
      </trkpt>
      <trkpt lat="45.76591" lon="5.75406">
        <ele>244</ele>
        <time>2017-05-26T11:01:24Z</time>
      </trkpt>
      <trkpt lat="45.76595" lon="5.75409">
        <ele>244</ele>
        <time>2017-05-26T11:01:24Z</time>
      </trkpt>
      <trkpt lat="45.76598" lon="5.75412">
        <ele>244</ele>
        <time>2017-05-26T11:01:40Z</time>
      </trkpt>
      <trkpt lat="45.76601" lon="5.75415">
        <ele>244</ele>
        <time>2017-05-26T11:01:40Z</time>
      </trkpt>
      <trkpt lat="45.76606" lon="5.75418">
        <ele>244</ele>
        <time>2017-05-26T11:01:40Z</time>
      </trkpt>
      <trkpt lat="45.76613" lon="5.75421">
        <ele>244</ele>
        <time>2017-05-26T11:01:40Z</time>
      </trkpt>
      <trkpt lat="45.7662" lon="5.75422">
        <ele>244</ele>
        <time>2017-05-26T11:01:56Z</time>
      </trkpt>
      <trkpt lat="45.76625" lon="5.75423">
        <ele>250</ele>
        <time>2017-05-26T11:01:56Z</time>
      </trkpt>
      <trkpt lat="45.76631" lon="5.75426">
        <ele>250</ele>
        <time>2017-05-26T11:01:56Z</time>
      </trkpt>
      <trkpt lat="45.76636" lon="5.75428">
        <ele>250</ele>
        <time>2017-05-26T11:01:56Z</time>
      </trkpt>
      <trkpt lat="45.76642" lon="5.7543">
        <ele>250</ele>
        <time>2017-05-26T11:02:12Z</time>
      </trkpt>
      <trkpt lat="45.7665" lon="5.75434">
        <ele>250</ele>
        <time>2017-05-26T11:02:12Z</time>
      </trkpt>
      <trkpt lat="45.76653" lon="5.75436">
        <ele>250</ele>
        <time>2017-05-26T11:02:12Z</time>
      </trkpt>
      <trkpt lat="45.76657" lon="5.75438">
        <ele>250</ele>
        <time>2017-05-26T11:02:12Z</time>
      </trkpt>
      <trkpt lat="45.76655" lon="5.75441">
        <ele>250</ele>
        <time>2017-05-26T11:02:28Z</time>
      </trkpt>
      <trkpt lat="45.76651" lon="5.7544">
        <ele>250</ele>
        <time>2017-05-26T11:02:28Z</time>
      </trkpt>
      <trkpt lat="45.76645" lon="5.75438">
        <ele>250</ele>
        <time>2017-05-26T11:02:28Z</time>
      </trkpt>
      <trkpt lat="45.76641" lon="5.75436">
        <ele>250</ele>
        <time>2017-05-26T11:02:28Z</time>
      </trkpt>
      <trkpt lat="45.76636" lon="5.75435">
        <ele>250</ele>
        <time>2017-05-26T11:02:44Z</time>
      </trkpt>
      <trkpt lat="45.76632" lon="5.75433">
        <ele>250</ele>
        <time>2017-05-26T11:02:44Z</time>
      </trkpt>
      <trkpt lat="45.76627" lon="5.75433">
        <ele>250</ele>
        <time>2017-05-26T11:02:44Z</time>
      </trkpt>
      <trkpt lat="45.76624" lon="5.75435">
        <ele>244</ele>
        <time>2017-05-26T11:02:44Z</time>
      </trkpt>
      <trkpt lat="45.7662" lon="5.75436">
        <ele>244</ele>
        <time>2017-05-26T11:03:00Z</time>
      </trkpt>
      <trkpt lat="45.76616" lon="5.75434">
        <ele>244</ele>
        <time>2017-05-26T11:03:00Z</time>
      </trkpt>
      <trkpt lat="45.76612" lon="5.75436">
        <ele>244</ele>
        <time>2017-05-26T11:03:00Z</time>
      </trkpt>
      <trkpt lat="45.76607" lon="5.75438">
        <ele>244</ele>
        <time>2017-05-26T11:03:00Z</time>
      </trkpt>
      <trkpt lat="45.76601" lon="5.7544">
        <ele>244</ele>
        <time>2017-05-26T11:03:16Z</time>
      </trkpt>
      <trkpt lat="45.76597" lon="5.75444">
        <ele>244</ele>
        <time>2017-05-26T11:03:16Z</time>
      </trkpt>
      <trkpt lat="45.76592" lon="5.75448">
        <ele>244</ele>
        <time>2017-05-26T11:03:16Z</time>
      </trkpt>
      <trkpt lat="45.76586" lon="5.75452">
        <ele>244</ele>
        <time>2017-05-26T11:03:16Z</time>
      </trkpt>
      <trkpt lat="45.76574" lon="5.75459">
        <ele>231</ele>
        <time>2017-05-26T11:03:44Z</time>
      </trkpt>
      <trkpt lat="45.76567" lon="5.75462">
        <ele>231</ele>
        <time>2017-05-26T11:03:44Z</time>
      </trkpt>
      <trkpt lat="45.7656" lon="5.75467">
        <ele>231</ele>
        <time>2017-05-26T11:03:44Z</time>
      </trkpt>
      <trkpt lat="45.76553" lon="5.75469">
        <ele>231</ele>
        <time>2017-05-26T11:03:44Z</time>
      </trkpt>
      <trkpt lat="45.76548" lon="5.75467">
        <ele>231</ele>
        <time>2017-05-26T11:03:44Z</time>
      </trkpt>
      <trkpt lat="45.76546" lon="5.75461">
        <ele>231</ele>
        <time>2017-05-26T11:04:00Z</time>
      </trkpt>
      <trkpt lat="45.76544" lon="5.75453">
        <ele>244</ele>
        <time>2017-05-26T11:04:00Z</time>
      </trkpt>
      <trkpt lat="45.7654" lon="5.75446">
        <ele>237</ele>
        <time>2017-05-26T11:04:00Z</time>
      </trkpt>
      <trkpt lat="45.76537" lon="5.75439">
        <ele>237</ele>
        <time>2017-05-26T11:04:00Z</time>
      </trkpt>
      <trkpt lat="45.76537" lon="5.75424">
        <ele>237</ele>
        <time>2017-05-26T11:04:32Z</time>
      </trkpt>
      <trkpt lat="45.76537" lon="5.75423">
        <ele>237</ele>
        <time>2017-05-26T11:04:32Z</time>
      </trkpt>
      <trkpt lat="45.76537" lon="5.75417">
        <ele>237</ele>
        <time>2017-05-26T11:04:32Z</time>
      </trkpt>
      <trkpt lat="45.76537" lon="5.75407">
        <ele>237</ele>
        <time>2017-05-26T11:04:32Z</time>
      </trkpt>
      <trkpt lat="45.76535" lon="5.75398">
        <ele>237</ele>
        <time>2017-05-26T11:04:32Z</time>
      </trkpt>
      <trkpt lat="45.76533" lon="5.75391">
        <ele>237</ele>
        <time>2017-05-26T11:04:48Z</time>
      </trkpt>
      <trkpt lat="45.76529" lon="5.75386">
        <ele>237</ele>
        <time>2017-05-26T11:04:48Z</time>
      </trkpt>
      <trkpt lat="45.76525" lon="5.75382">
        <ele>237</ele>
        <time>2017-05-26T11:04:48Z</time>
      </trkpt>
      <trkpt lat="45.7652" lon="5.75377">
        <ele>237</ele>
        <time>2017-05-26T11:04:48Z</time>
      </trkpt>
      <trkpt lat="45.76516" lon="5.75372">
        <ele>249</ele>
        <time>2017-05-26T11:05:04Z</time>
      </trkpt>
      <trkpt lat="45.76512" lon="5.75368">
        <ele>249</ele>
        <time>2017-05-26T11:05:04Z</time>
      </trkpt>
      <trkpt lat="45.76507" lon="5.75364">
        <ele>249</ele>
        <time>2017-05-26T11:05:04Z</time>
      </trkpt>
      <trkpt lat="45.76503" lon="5.75358">
        <ele>249</ele>
        <time>2017-05-26T11:05:04Z</time>
      </trkpt>
      <trkpt lat="45.76499" lon="5.75351">
        <ele>249</ele>
        <time>2017-05-26T11:05:20Z</time>
      </trkpt>
      <trkpt lat="45.76496" lon="5.75344">
        <ele>249</ele>
        <time>2017-05-26T11:05:20Z</time>
      </trkpt>
      <trkpt lat="45.76493" lon="5.75338">
        <ele>249</ele>
        <time>2017-05-26T11:05:20Z</time>
      </trkpt>
      <trkpt lat="45.76491" lon="5.75332">
        <ele>249</ele>
        <time>2017-05-26T11:05:20Z</time>
      </trkpt>
      <trkpt lat="45.76489" lon="5.75325">
        <ele>249</ele>
        <time>2017-05-26T11:05:36Z</time>
      </trkpt>
      <trkpt lat="45.76488" lon="5.75318">
        <ele>249</ele>
        <time>2017-05-26T11:05:36Z</time>
      </trkpt>
      <trkpt lat="45.76488" lon="5.75311">
        <ele>249</ele>
        <time>2017-05-26T11:05:36Z</time>
      </trkpt>
      <trkpt lat="45.76488" lon="5.75303">
        <ele>249</ele>
        <time>2017-05-26T11:05:36Z</time>
      </trkpt>
      <trkpt lat="45.76487" lon="5.75294">
        <ele>249</ele>
        <time>2017-05-26T11:05:52Z</time>
      </trkpt>
      <trkpt lat="45.76487" lon="5.75285">
        <ele>257</ele>
        <time>2017-05-26T11:05:52Z</time>
      </trkpt>
      <trkpt lat="45.76486" lon="5.75272">
        <ele>257</ele>
        <time>2017-05-26T11:05:52Z</time>
      </trkpt>
      <trkpt lat="45.76483" lon="5.75263">
        <ele>257</ele>
        <time>2017-05-26T11:05:52Z</time>
      </trkpt>
      <trkpt lat="45.76479" lon="5.75256">
        <ele>257</ele>
        <time>2017-05-26T11:06:08Z</time>
      </trkpt>
      <trkpt lat="45.76475" lon="5.75248">
        <ele>257</ele>
        <time>2017-05-26T11:06:08Z</time>
      </trkpt>
      <trkpt lat="45.76472" lon="5.75241">
        <ele>257</ele>
        <time>2017-05-26T11:06:08Z</time>
      </trkpt>
      <trkpt lat="45.76469" lon="5.75234">
        <ele>257</ele>
        <time>2017-05-26T11:06:08Z</time>
      </trkpt>
      <trkpt lat="45.76467" lon="5.75227">
        <ele>257</ele>
        <time>2017-05-26T11:06:24Z</time>
      </trkpt>
      <trkpt lat="45.76464" lon="5.7522">
        <ele>257</ele>
        <time>2017-05-26T11:06:24Z</time>
      </trkpt>
      <trkpt lat="45.76462" lon="5.75214">
        <ele>257</ele>
        <time>2017-05-26T11:06:24Z</time>
      </trkpt>
      <trkpt lat="45.7646" lon="5.75207">
        <ele>256</ele>
        <time>2017-05-26T11:06:24Z</time>
      </trkpt>
      <trkpt lat="45.76458" lon="5.75199">
        <ele>243</ele>
        <time>2017-05-26T11:06:40Z</time>
      </trkpt>
      <trkpt lat="45.76456" lon="5.75191">
        <ele>243</ele>
        <time>2017-05-26T11:06:40Z</time>
      </trkpt>
      <trkpt lat="45.76454" lon="5.75183">
        <ele>243</ele>
        <time>2017-05-26T11:06:40Z</time>
      </trkpt>
      <trkpt lat="45.76452" lon="5.75175">
        <ele>243</ele>
        <time>2017-05-26T11:06:40Z</time>
      </trkpt>
      <trkpt lat="45.7645" lon="5.75167">
        <ele>243</ele>
        <time>2017-05-26T11:06:56Z</time>
      </trkpt>
      <trkpt lat="45.76447" lon="5.75159">
        <ele>243</ele>
        <time>2017-05-26T11:06:56Z</time>
      </trkpt>
      <trkpt lat="45.76445" lon="5.75152">
        <ele>243</ele>
        <time>2017-05-26T11:06:56Z</time>
      </trkpt>
      <trkpt lat="45.76443" lon="5.75145">
        <ele>243</ele>
        <time>2017-05-26T11:06:56Z</time>
      </trkpt>
      <trkpt lat="45.76442" lon="5.75137">
        <ele>243</ele>
        <time>2017-05-26T11:07:12Z</time>
      </trkpt>
      <trkpt lat="45.7644" lon="5.75128">
        <ele>243</ele>
        <time>2017-05-26T11:07:12Z</time>
      </trkpt>
      <trkpt lat="45.76438" lon="5.75119">
        <ele>247</ele>
        <time>2017-05-26T11:07:12Z</time>
      </trkpt>
      <trkpt lat="45.76437" lon="5.7511">
        <ele>247</ele>
        <time>2017-05-26T11:07:12Z</time>
      </trkpt>
      <trkpt lat="45.76435" lon="5.75102">
        <ele>247</ele>
        <time>2017-05-26T11:07:28Z</time>
      </trkpt>
      <trkpt lat="45.76434" lon="5.75094">
        <ele>247</ele>
        <time>2017-05-26T11:07:28Z</time>
      </trkpt>
      <trkpt lat="45.76432" lon="5.75087">
        <ele>247</ele>
        <time>2017-05-26T11:07:28Z</time>
      </trkpt>
      <trkpt lat="45.7643" lon="5.7508">
        <ele>247</ele>
        <time>2017-05-26T11:07:28Z</time>
      </trkpt>
      <trkpt lat="45.76428" lon="5.75074">
        <ele>247</ele>
        <time>2017-05-26T11:07:44Z</time>
      </trkpt>
      <trkpt lat="45.76425" lon="5.75065">
        <ele>247</ele>
        <time>2017-05-26T11:07:44Z</time>
      </trkpt>
      <trkpt lat="45.76423" lon="5.75056">
        <ele>247</ele>
        <time>2017-05-26T11:07:44Z</time>
      </trkpt>
      <trkpt lat="45.76421" lon="5.75046">
        <ele>247</ele>
        <time>2017-05-26T11:07:44Z</time>
      </trkpt>
      <trkpt lat="45.7642" lon="5.75036">
        <ele>249</ele>
        <time>2017-05-26T11:08:00Z</time>
      </trkpt>
      <trkpt lat="45.76417" lon="5.75028">
        <ele>249</ele>
        <time>2017-05-26T11:08:00Z</time>
      </trkpt>
      <trkpt lat="45.76414" lon="5.75015">
        <ele>249</ele>
        <time>2017-05-26T11:08:00Z</time>
      </trkpt>
      <trkpt lat="45.76412" lon="5.75004">
        <ele>249</ele>
        <time>2017-05-26T11:08:00Z</time>
      </trkpt>
      <trkpt lat="45.7641" lon="5.74995">
        <ele>249</ele>
        <time>2017-05-26T11:08:16Z</time>
      </trkpt>
      <trkpt lat="45.76407" lon="5.7499">
        <ele>249</ele>
        <time>2017-05-26T11:08:16Z</time>
      </trkpt>
      <trkpt lat="45.76403" lon="5.74984">
        <ele>249</ele>
        <time>2017-05-26T11:08:16Z</time>
      </trkpt>
      <trkpt lat="45.76403" lon="5.74977">
        <ele>249</ele>
        <time>2017-05-26T11:08:16Z</time>
      </trkpt>
      <trkpt lat="45.76403" lon="5.7497">
        <ele>249</ele>
        <time>2017-05-26T11:08:32Z</time>
      </trkpt>
      <trkpt lat="45.76403" lon="5.74962">
        <ele>249</ele>
        <time>2017-05-26T11:08:32Z</time>
      </trkpt>
      <trkpt lat="45.76405" lon="5.74955">
        <ele>242</ele>
        <time>2017-05-26T11:08:32Z</time>
      </trkpt>
      <trkpt lat="45.76409" lon="5.74944">
        <ele>242</ele>
        <time>2017-05-26T11:08:32Z</time>
      </trkpt>
      <trkpt lat="45.76414" lon="5.74936">
        <ele>242</ele>
        <time>2017-05-26T11:08:48Z</time>
      </trkpt>
      <trkpt lat="45.76419" lon="5.7493">
        <ele>242</ele>
        <time>2017-05-26T11:08:48Z</time>
      </trkpt>
      <trkpt lat="45.76419" lon="5.74925">
        <ele>242</ele>
        <time>2017-05-26T11:08:48Z</time>
      </trkpt>
      <trkpt lat="45.76419" lon="5.74916">
        <ele>242</ele>
        <time>2017-05-26T11:08:48Z</time>
      </trkpt>
      <trkpt lat="45.76419" lon="5.74908">
        <ele>242</ele>
        <time>2017-05-26T11:09:04Z</time>
      </trkpt>
      <trkpt lat="45.7642" lon="5.74898">
        <ele>242</ele>
        <time>2017-05-26T11:09:04Z</time>
      </trkpt>
      <trkpt lat="45.76421" lon="5.74887">
        <ele>242</ele>
        <time>2017-05-26T11:09:04Z</time>
      </trkpt>
      <trkpt lat="45.76422" lon="5.74877">
        <ele>242</ele>
        <time>2017-05-26T11:09:04Z</time>
      </trkpt>
      <trkpt lat="45.76423" lon="5.74867">
        <ele>246</ele>
        <time>2017-05-26T11:09:20Z</time>
      </trkpt>
      <trkpt lat="45.76423" lon="5.74859">
        <ele>246</ele>
        <time>2017-05-26T11:09:20Z</time>
      </trkpt>
      <trkpt lat="45.76423" lon="5.74851">
        <ele>246</ele>
        <time>2017-05-26T11:09:20Z</time>
      </trkpt>
      <trkpt lat="45.76424" lon="5.74844">
        <ele>246</ele>
        <time>2017-05-26T11:09:20Z</time>
      </trkpt>
      <trkpt lat="45.76424" lon="5.74835">
        <ele>246</ele>
        <time>2017-05-26T11:09:36Z</time>
      </trkpt>
      <trkpt lat="45.76423" lon="5.74827">
        <ele>246</ele>
        <time>2017-05-26T11:09:36Z</time>
      </trkpt>
      <trkpt lat="45.76423" lon="5.74819">
        <ele>246</ele>
        <time>2017-05-26T11:09:36Z</time>
      </trkpt>
      <trkpt lat="45.76421" lon="5.74812">
        <ele>246</ele>
        <time>2017-05-26T11:09:36Z</time>
      </trkpt>
      <trkpt lat="45.76419" lon="5.74804">
        <ele>246</ele>
        <time>2017-05-26T11:09:52Z</time>
      </trkpt>
      <trkpt lat="45.76417" lon="5.74798">
        <ele>246</ele>
        <time>2017-05-26T11:09:52Z</time>
      </trkpt>
      <trkpt lat="45.76415" lon="5.74792">
        <ele>246</ele>
        <time>2017-05-26T11:09:52Z</time>
      </trkpt>
      <trkpt lat="45.76414" lon="5.74785">
        <ele>246</ele>
        <time>2017-05-26T11:09:52Z</time>
      </trkpt>
      <trkpt lat="45.76413" lon="5.74779">
        <ele>246</ele>
        <time>2017-05-26T11:10:08Z</time>
      </trkpt>
      <trkpt lat="45.76412" lon="5.74773">
        <ele>246</ele>
        <time>2017-05-26T11:10:08Z</time>
      </trkpt>
      <trkpt lat="45.76409" lon="5.74766">
        <ele>246</ele>
        <time>2017-05-26T11:10:08Z</time>
      </trkpt>
      <trkpt lat="45.76407" lon="5.74759">
        <ele>246</ele>
        <time>2017-05-26T11:10:08Z</time>
      </trkpt>
      <trkpt lat="45.76405" lon="5.74751">
        <ele>246</ele>
        <time>2017-05-26T11:10:24Z</time>
      </trkpt>
      <trkpt lat="45.76403" lon="5.74743">
        <ele>246</ele>
        <time>2017-05-26T11:10:24Z</time>
      </trkpt>
      <trkpt lat="45.764" lon="5.74736">
        <ele>246</ele>
        <time>2017-05-26T11:10:24Z</time>
      </trkpt>
      <trkpt lat="45.76398" lon="5.74728">
        <ele>246</ele>
        <time>2017-05-26T11:10:24Z</time>
      </trkpt>
      <trkpt lat="45.76395" lon="5.74719">
        <ele>246</ele>
        <time>2017-05-26T11:10:40Z</time>
      </trkpt>
      <trkpt lat="45.76392" lon="5.7471">
        <ele>246</ele>
        <time>2017-05-26T11:10:40Z</time>
      </trkpt>
      <trkpt lat="45.76388" lon="5.74703">
        <ele>252</ele>
        <time>2017-05-26T11:10:40Z</time>
      </trkpt>
      <trkpt lat="45.76384" lon="5.74696">
        <ele>252</ele>
        <time>2017-05-26T11:10:40Z</time>
      </trkpt>
      <trkpt lat="45.7638" lon="5.74689">
        <ele>252</ele>
        <time>2017-05-26T11:10:56Z</time>
      </trkpt>
      <trkpt lat="45.76377" lon="5.74682">
        <ele>252</ele>
        <time>2017-05-26T11:10:56Z</time>
      </trkpt>
      <trkpt lat="45.76373" lon="5.74675">
        <ele>243</ele>
        <time>2017-05-26T11:10:56Z</time>
      </trkpt>
      <trkpt lat="45.7637" lon="5.74668">
        <ele>243</ele>
        <time>2017-05-26T11:10:56Z</time>
      </trkpt>
      <trkpt lat="45.76367" lon="5.74661">
        <ele>243</ele>
        <time>2017-05-26T11:11:12Z</time>
      </trkpt>
      <trkpt lat="45.76363" lon="5.74655">
        <ele>243</ele>
        <time>2017-05-26T11:11:12Z</time>
      </trkpt>
      <trkpt lat="45.7636" lon="5.74647">
        <ele>243</ele>
        <time>2017-05-26T11:11:12Z</time>
      </trkpt>
      <trkpt lat="45.76356" lon="5.74637">
        <ele>243</ele>
        <time>2017-05-26T11:11:12Z</time>
      </trkpt>
      <trkpt lat="45.76352" lon="5.74629">
        <ele>243</ele>
        <time>2017-05-26T11:11:28Z</time>
      </trkpt>
      <trkpt lat="45.76349" lon="5.74623">
        <ele>247</ele>
        <time>2017-05-26T11:11:28Z</time>
      </trkpt>
      <trkpt lat="45.76345" lon="5.74616">
        <ele>247</ele>
        <time>2017-05-26T11:11:28Z</time>
      </trkpt>
      <trkpt lat="45.76342" lon="5.74609">
        <ele>247</ele>
        <time>2017-05-26T11:11:28Z</time>
      </trkpt>
      <trkpt lat="45.76339" lon="5.74605">
        <ele>247</ele>
        <time>2017-05-26T11:11:44Z</time>
      </trkpt>
      <trkpt lat="45.76332" lon="5.74595">
        <ele>247</ele>
        <time>2017-05-26T11:11:44Z</time>
      </trkpt>
      <trkpt lat="45.76328" lon="5.74589">
        <ele>247</ele>
        <time>2017-05-26T11:11:44Z</time>
      </trkpt>
      <trkpt lat="45.76324" lon="5.74584">
        <ele>247</ele>
        <time>2017-05-26T11:11:44Z</time>
      </trkpt>
      <trkpt lat="45.76319" lon="5.74578">
        <ele>247</ele>
        <time>2017-05-26T11:12:00Z</time>
      </trkpt>
      <trkpt lat="45.76315" lon="5.74573">
        <ele>247</ele>
        <time>2017-05-26T11:12:00Z</time>
      </trkpt>
      <trkpt lat="45.76309" lon="5.74565">
        <ele>247</ele>
        <time>2017-05-26T11:12:00Z</time>
      </trkpt>
      <trkpt lat="45.76304" lon="5.7456">
        <ele>247</ele>
        <time>2017-05-26T11:12:00Z</time>
      </trkpt>
      <trkpt lat="45.76299" lon="5.74557">
        <ele>247</ele>
        <time>2017-05-26T11:12:16Z</time>
      </trkpt>
      <trkpt lat="45.76295" lon="5.74552">
        <ele>247</ele>
        <time>2017-05-26T11:12:16Z</time>
      </trkpt>
      <trkpt lat="45.7629" lon="5.74546">
        <ele>239</ele>
        <time>2017-05-26T11:12:16Z</time>
      </trkpt>
      <trkpt lat="45.76285" lon="5.74541">
        <ele>243</ele>
        <time>2017-05-26T11:12:16Z</time>
      </trkpt>
      <trkpt lat="45.76279" lon="5.74535">
        <ele>243</ele>
        <time>2017-05-26T11:12:32Z</time>
      </trkpt>
      <trkpt lat="45.76274" lon="5.7453">
        <ele>243</ele>
        <time>2017-05-26T11:12:32Z</time>
      </trkpt>
      <trkpt lat="45.7627" lon="5.74525">
        <ele>243</ele>
        <time>2017-05-26T11:12:32Z</time>
      </trkpt>
      <trkpt lat="45.76265" lon="5.74521">
        <ele>243</ele>
        <time>2017-05-26T11:12:32Z</time>
      </trkpt>
      <trkpt lat="45.7626" lon="5.74517">
        <ele>243</ele>
        <time>2017-05-26T11:12:48Z</time>
      </trkpt>
      <trkpt lat="45.76255" lon="5.74513">
        <ele>243</ele>
        <time>2017-05-26T11:12:48Z</time>
      </trkpt>
      <trkpt lat="45.7625" lon="5.74508">
        <ele>243</ele>
        <time>2017-05-26T11:12:48Z</time>
      </trkpt>
      <trkpt lat="45.76245" lon="5.74502">
        <ele>243</ele>
        <time>2017-05-26T11:12:48Z</time>
      </trkpt>
      <trkpt lat="45.76239" lon="5.74498">
        <ele>243</ele>
        <time>2017-05-26T11:13:04Z</time>
      </trkpt>
      <trkpt lat="45.76234" lon="5.74495">
        <ele>243</ele>
        <time>2017-05-26T11:13:04Z</time>
      </trkpt>
      <trkpt lat="45.76229" lon="5.74491">
        <ele>243</ele>
        <time>2017-05-26T11:13:04Z</time>
      </trkpt>
      <trkpt lat="45.76223" lon="5.74487">
        <ele>243</ele>
        <time>2017-05-26T11:13:04Z</time>
      </trkpt>
      <trkpt lat="45.76217" lon="5.74481">
        <ele>243</ele>
        <time>2017-05-26T11:13:20Z</time>
      </trkpt>
      <trkpt lat="45.76212" lon="5.74476">
        <ele>243</ele>
        <time>2017-05-26T11:13:20Z</time>
      </trkpt>
      <trkpt lat="45.76207" lon="5.74471">
        <ele>239</ele>
        <time>2017-05-26T11:13:20Z</time>
      </trkpt>
      <trkpt lat="45.76202" lon="5.74465">
        <ele>239</ele>
        <time>2017-05-26T11:13:20Z</time>
      </trkpt>
      <trkpt lat="45.76197" lon="5.7446">
        <ele>239</ele>
        <time>2017-05-26T11:13:36Z</time>
      </trkpt>
      <trkpt lat="45.76193" lon="5.74455">
        <ele>241</ele>
        <time>2017-05-26T11:13:36Z</time>
      </trkpt>
      <trkpt lat="45.76188" lon="5.74449">
        <ele>241</ele>
        <time>2017-05-26T11:13:36Z</time>
      </trkpt>
      <trkpt lat="45.76184" lon="5.74445">
        <ele>241</ele>
        <time>2017-05-26T11:13:36Z</time>
      </trkpt>
      <trkpt lat="45.76181" lon="5.74439">
        <ele>241</ele>
        <time>2017-05-26T11:13:52Z</time>
      </trkpt>
      <trkpt lat="45.76177" lon="5.74433">
        <ele>241</ele>
        <time>2017-05-26T11:13:52Z</time>
      </trkpt>
      <trkpt lat="45.76173" lon="5.74428">
        <ele>241</ele>
        <time>2017-05-26T11:13:52Z</time>
      </trkpt>
      <trkpt lat="45.76169" lon="5.74423">
        <ele>241</ele>
        <time>2017-05-26T11:13:52Z</time>
      </trkpt>
      <trkpt lat="45.76165" lon="5.74417">
        <ele>241</ele>
        <time>2017-05-26T11:14:08Z</time>
      </trkpt>
      <trkpt lat="45.7616" lon="5.74411">
        <ele>241</ele>
        <time>2017-05-26T11:14:08Z</time>
      </trkpt>
      <trkpt lat="45.76156" lon="5.74405">
        <ele>241</ele>
        <time>2017-05-26T11:14:08Z</time>
      </trkpt>
      <trkpt lat="45.76151" lon="5.74398">
        <ele>241</ele>
        <time>2017-05-26T11:14:08Z</time>
      </trkpt>
      <trkpt lat="45.76147" lon="5.74394">
        <ele>241</ele>
        <time>2017-05-26T11:14:24Z</time>
      </trkpt>
      <trkpt lat="45.76142" lon="5.7439">
        <ele>241</ele>
        <time>2017-05-26T11:14:24Z</time>
      </trkpt>
      <trkpt lat="45.76138" lon="5.74385">
        <ele>241</ele>
        <time>2017-05-26T11:14:24Z</time>
      </trkpt>
      <trkpt lat="45.76134" lon="5.74379">
        <ele>241</ele>
        <time>2017-05-26T11:14:24Z</time>
      </trkpt>
      <trkpt lat="45.76129" lon="5.74374">
        <ele>243</ele>
        <time>2017-05-26T11:14:40Z</time>
      </trkpt>
      <trkpt lat="45.76124" lon="5.74371">
        <ele>241</ele>
        <time>2017-05-26T11:14:40Z</time>
      </trkpt>
      <trkpt lat="45.76119" lon="5.74368">
        <ele>241</ele>
        <time>2017-05-26T11:14:40Z</time>
      </trkpt>
      <trkpt lat="45.76115" lon="5.74362">
        <ele>241</ele>
        <time>2017-05-26T11:14:40Z</time>
      </trkpt>
      <trkpt lat="45.76111" lon="5.74356">
        <ele>241</ele>
        <time>2017-05-26T11:14:56Z</time>
      </trkpt>
      <trkpt lat="45.76107" lon="5.7435">
        <ele>241</ele>
        <time>2017-05-26T11:14:56Z</time>
      </trkpt>
      <trkpt lat="45.76103" lon="5.74344">
        <ele>241</ele>
        <time>2017-05-26T11:14:56Z</time>
      </trkpt>
      <trkpt lat="45.76099" lon="5.7434">
        <ele>241</ele>
        <time>2017-05-26T11:14:56Z</time>
      </trkpt>
      <trkpt lat="45.76094" lon="5.74336">
        <ele>241</ele>
        <time>2017-05-26T11:15:12Z</time>
      </trkpt>
      <trkpt lat="45.76091" lon="5.74331">
        <ele>241</ele>
        <time>2017-05-26T11:15:12Z</time>
      </trkpt>
      <trkpt lat="45.76087" lon="5.74325">
        <ele>241</ele>
        <time>2017-05-26T11:15:12Z</time>
      </trkpt>
      <trkpt lat="45.76084" lon="5.74318">
        <ele>241</ele>
        <time>2017-05-26T11:15:12Z</time>
      </trkpt>
      <trkpt lat="45.7608" lon="5.74311">
        <ele>241</ele>
        <time>2017-05-26T11:15:28Z</time>
      </trkpt>
      <trkpt lat="45.76077" lon="5.74303">
        <ele>241</ele>
        <time>2017-05-26T11:15:28Z</time>
      </trkpt>
      <trkpt lat="45.76074" lon="5.74296">
        <ele>241</ele>
        <time>2017-05-26T11:15:28Z</time>
      </trkpt>
      <trkpt lat="45.7607" lon="5.74289">
        <ele>241</ele>
        <time>2017-05-26T11:15:28Z</time>
      </trkpt>
      <trkpt lat="45.76069" lon="5.74283">
        <ele>241</ele>
        <time>2017-05-26T11:15:44Z</time>
      </trkpt>
      <trkpt lat="45.76066" lon="5.74275">
        <ele>241</ele>
        <time>2017-05-26T11:15:44Z</time>
      </trkpt>
      <trkpt lat="45.76064" lon="5.74267">
        <ele>241</ele>
        <time>2017-05-26T11:15:44Z</time>
      </trkpt>
      <trkpt lat="45.76062" lon="5.7426">
        <ele>241</ele>
        <time>2017-05-26T11:15:44Z</time>
      </trkpt>
      <trkpt lat="45.76063" lon="5.74249">
        <ele>241</ele>
        <time>2017-05-26T11:16:16Z</time>
      </trkpt>
      <trkpt lat="45.76063" lon="5.74248">
        <ele>241</ele>
        <time>2017-05-26T11:16:16Z</time>
      </trkpt>
      <trkpt lat="45.76063" lon="5.74248">
        <ele>241</ele>
        <time>2017-05-26T11:16:16Z</time>
      </trkpt>
      <trkpt lat="45.76063" lon="5.74247">
        <ele>241</ele>
        <time>2017-05-26T11:16:16Z</time>
      </trkpt>
      <trkpt lat="45.76061" lon="5.74241">
        <ele>241</ele>
        <time>2017-05-26T11:16:16Z</time>
      </trkpt>
      <trkpt lat="45.7606" lon="5.74235">
        <ele>241</ele>
        <time>2017-05-26T11:16:32Z</time>
      </trkpt>
      <trkpt lat="45.76059" lon="5.7423">
        <ele>241</ele>
        <time>2017-05-26T11:16:32Z</time>
      </trkpt>
      <trkpt lat="45.76058" lon="5.74223">
        <ele>241</ele>
        <time>2017-05-26T11:16:32Z</time>
      </trkpt>
      <trkpt lat="45.76057" lon="5.74213">
        <ele>241</ele>
        <time>2017-05-26T11:16:32Z</time>
      </trkpt>
      <trkpt lat="45.76054" lon="5.74204">
        <ele>243</ele>
        <time>2017-05-26T11:16:48Z</time>
      </trkpt>
      <trkpt lat="45.76052" lon="5.74195">
        <ele>243</ele>
        <time>2017-05-26T11:16:48Z</time>
      </trkpt>
      <trkpt lat="45.7605" lon="5.74188">
        <ele>243</ele>
        <time>2017-05-26T11:16:48Z</time>
      </trkpt>
      <trkpt lat="45.76049" lon="5.7418">
        <ele>243</ele>
        <time>2017-05-26T11:16:48Z</time>
      </trkpt>
      <trkpt lat="45.76048" lon="5.74172">
        <ele>243</ele>
        <time>2017-05-26T11:17:04Z</time>
      </trkpt>
      <trkpt lat="45.76047" lon="5.74165">
        <ele>243</ele>
        <time>2017-05-26T11:17:04Z</time>
      </trkpt>
      <trkpt lat="45.76046" lon="5.74158">
        <ele>243</ele>
        <time>2017-05-26T11:17:04Z</time>
      </trkpt>
      <trkpt lat="45.76044" lon="5.74152">
        <ele>243</ele>
        <time>2017-05-26T11:17:04Z</time>
      </trkpt>
      <trkpt lat="45.76042" lon="5.74145">
        <ele>243</ele>
        <time>2017-05-26T11:17:20Z</time>
      </trkpt>
      <trkpt lat="45.7604" lon="5.74136">
        <ele>243</ele>
        <time>2017-05-26T11:17:20Z</time>
      </trkpt>
      <trkpt lat="45.76039" lon="5.74126">
        <ele>243</ele>
        <time>2017-05-26T11:17:20Z</time>
      </trkpt>
      <trkpt lat="45.76038" lon="5.74117">
        <ele>243</ele>
        <time>2017-05-26T11:17:20Z</time>
      </trkpt>
      <trkpt lat="45.76036" lon="5.74108">
        <ele>243</ele>
        <time>2017-05-26T11:17:36Z</time>
      </trkpt>
      <trkpt lat="45.76035" lon="5.74099">
        <ele>243</ele>
        <time>2017-05-26T11:17:36Z</time>
      </trkpt>
      <trkpt lat="45.76032" lon="5.7409">
        <ele>243</ele>
        <time>2017-05-26T11:17:36Z</time>
      </trkpt>
      <trkpt lat="45.76028" lon="5.74081">
        <ele>243</ele>
        <time>2017-05-26T11:17:36Z</time>
      </trkpt>
      <trkpt lat="45.76026" lon="5.74072">
        <ele>243</ele>
        <time>2017-05-26T11:17:52Z</time>
      </trkpt>
      <trkpt lat="45.76023" lon="5.74064">
        <ele>243</ele>
        <time>2017-05-26T11:17:52Z</time>
      </trkpt>
      <trkpt lat="45.76021" lon="5.74055">
        <ele>243</ele>
        <time>2017-05-26T11:17:52Z</time>
      </trkpt>
      <trkpt lat="45.76018" lon="5.74048">
        <ele>243</ele>
        <time>2017-05-26T11:17:52Z</time>
      </trkpt>
      <trkpt lat="45.76015" lon="5.74041">
        <ele>241</ele>
        <time>2017-05-26T11:18:08Z</time>
      </trkpt>
      <trkpt lat="45.76012" lon="5.74032">
        <ele>241</ele>
        <time>2017-05-26T11:18:08Z</time>
      </trkpt>
      <trkpt lat="45.7601" lon="5.74024">
        <ele>241</ele>
        <time>2017-05-26T11:18:08Z</time>
      </trkpt>
      <trkpt lat="45.76006" lon="5.74016">
        <ele>241</ele>
        <time>2017-05-26T11:18:08Z</time>
      </trkpt>
      <trkpt lat="45.76004" lon="5.74009">
        <ele>241</ele>
        <time>2017-05-26T11:18:24Z</time>
      </trkpt>
      <trkpt lat="45.76001" lon="5.74002">
        <ele>241</ele>
        <time>2017-05-26T11:18:24Z</time>
      </trkpt>
      <trkpt lat="45.75997" lon="5.7399">
        <ele>241</ele>
        <time>2017-05-26T11:18:24Z</time>
      </trkpt>
      <trkpt lat="45.75995" lon="5.73982">
        <ele>241</ele>
        <time>2017-05-26T11:18:24Z</time>
      </trkpt>
      <trkpt lat="45.75993" lon="5.73975">
        <ele>241</ele>
        <time>2017-05-26T11:18:40Z</time>
      </trkpt>
      <trkpt lat="45.7599" lon="5.73968">
        <ele>241</ele>
        <time>2017-05-26T11:18:40Z</time>
      </trkpt>
      <trkpt lat="45.75988" lon="5.7396">
        <ele>241</ele>
        <time>2017-05-26T11:18:40Z</time>
      </trkpt>
      <trkpt lat="45.75986" lon="5.73952">
        <ele>244</ele>
        <time>2017-05-26T11:18:40Z</time>
      </trkpt>
      <trkpt lat="45.75983" lon="5.73943">
        <ele>244</ele>
        <time>2017-05-26T11:18:56Z</time>
      </trkpt>
      <trkpt lat="45.75981" lon="5.73932">
        <ele>244</ele>
        <time>2017-05-26T11:18:56Z</time>
      </trkpt>
      <trkpt lat="45.75978" lon="5.73921">
        <ele>244</ele>
        <time>2017-05-26T11:18:56Z</time>
      </trkpt>
      <trkpt lat="45.75977" lon="5.73912">
        <ele>244</ele>
        <time>2017-05-26T11:18:56Z</time>
      </trkpt>
      <trkpt lat="45.75976" lon="5.73905">
        <ele>244</ele>
        <time>2017-05-26T11:19:12Z</time>
      </trkpt>
      <trkpt lat="45.75974" lon="5.73897">
        <ele>244</ele>
        <time>2017-05-26T11:19:12Z</time>
      </trkpt>
      <trkpt lat="45.75974" lon="5.7389">
        <ele>244</ele>
        <time>2017-05-26T11:19:12Z</time>
      </trkpt>
      <trkpt lat="45.75973" lon="5.73882">
        <ele>244</ele>
        <time>2017-05-26T11:19:12Z</time>
      </trkpt>
      <trkpt lat="45.75973" lon="5.73874">
        <ele>248</ele>
        <time>2017-05-26T11:19:28Z</time>
      </trkpt>
      <trkpt lat="45.75972" lon="5.73867">
        <ele>248</ele>
        <time>2017-05-26T11:19:28Z</time>
      </trkpt>
      <trkpt lat="45.75971" lon="5.73859">
        <ele>248</ele>
        <time>2017-05-26T11:19:28Z</time>
      </trkpt>
      <trkpt lat="45.7597" lon="5.7385">
        <ele>248</ele>
        <time>2017-05-26T11:19:28Z</time>
      </trkpt>
      <trkpt lat="45.75968" lon="5.73841">
        <ele>248</ele>
        <time>2017-05-26T11:19:44Z</time>
      </trkpt>
      <trkpt lat="45.75967" lon="5.73833">
        <ele>248</ele>
        <time>2017-05-26T11:19:44Z</time>
      </trkpt>
      <trkpt lat="45.75965" lon="5.73825">
        <ele>248</ele>
        <time>2017-05-26T11:19:44Z</time>
      </trkpt>
      <trkpt lat="45.75964" lon="5.73817">
        <ele>248</ele>
        <time>2017-05-26T11:19:44Z</time>
      </trkpt>
      <trkpt lat="45.75965" lon="5.73813">
        <ele>248</ele>
        <time>2017-05-26T11:20:00Z</time>
      </trkpt>
      <trkpt lat="45.75968" lon="5.73811">
        <ele>248</ele>
        <time>2017-05-26T11:20:00Z</time>
      </trkpt>
      <trkpt lat="45.75972" lon="5.73798">
        <ele>248</ele>
        <time>2017-05-26T11:20:00Z</time>
      </trkpt>
      <trkpt lat="45.7597" lon="5.73777">
        <ele>248</ele>
        <time>2017-05-26T11:20:00Z</time>
      </trkpt>
      <trkpt lat="45.75968" lon="5.73753">
        <ele>248</ele>
        <time>2017-05-26T11:20:16Z</time>
      </trkpt>
      <trkpt lat="45.75968" lon="5.73725">
        <ele>248</ele>
        <time>2017-05-26T11:20:16Z</time>
      </trkpt>
      <trkpt lat="45.75971" lon="5.73694">
        <ele>246</ele>
        <time>2017-05-26T11:20:16Z</time>
      </trkpt>
      <trkpt lat="45.75975" lon="5.73664">
        <ele>246</ele>
        <time>2017-05-26T11:20:16Z</time>
      </trkpt>
      <trkpt lat="45.75978" lon="5.73633">
        <ele>246</ele>
        <time>2017-05-26T11:20:32Z</time>
      </trkpt>
      <trkpt lat="45.75981" lon="5.73602">
        <ele>243</ele>
        <time>2017-05-26T11:20:32Z</time>
      </trkpt>
      <trkpt lat="45.75985" lon="5.73568">
        <ele>243</ele>
        <time>2017-05-26T11:20:32Z</time>
      </trkpt>
      <trkpt lat="45.75991" lon="5.73537">
        <ele>239</ele>
        <time>2017-05-26T11:20:32Z</time>
      </trkpt>
      <trkpt lat="45.75997" lon="5.73504">
        <ele>239</ele>
        <time>2017-05-26T11:20:48Z</time>
      </trkpt>
      <trkpt lat="45.76004" lon="5.73472">
        <ele>239</ele>
        <time>2017-05-26T11:20:48Z</time>
      </trkpt>
      <trkpt lat="45.76011" lon="5.7344">
        <ele>239</ele>
        <time>2017-05-26T11:20:48Z</time>
      </trkpt>
      <trkpt lat="45.76019" lon="5.73414">
        <ele>239</ele>
        <time>2017-05-26T11:20:48Z</time>
      </trkpt>
      <trkpt lat="45.76027" lon="5.7339">
        <ele>239</ele>
        <time>2017-05-26T11:21:04Z</time>
      </trkpt>
      <trkpt lat="45.76027" lon="5.73379">
        <ele>239</ele>
        <time>2017-05-26T11:21:04Z</time>
      </trkpt>
      <trkpt lat="45.76026" lon="5.73371">
        <ele>239</ele>
        <time>2017-05-26T11:21:04Z</time>
      </trkpt>
      <trkpt lat="45.76026" lon="5.73365">
        <ele>239</ele>
        <time>2017-05-26T11:21:04Z</time>
      </trkpt>
      <trkpt lat="45.76029" lon="5.73359">
        <ele>239</ele>
        <time>2017-05-26T11:21:20Z</time>
      </trkpt>
      <trkpt lat="45.76032" lon="5.73352">
        <ele>239</ele>
        <time>2017-05-26T11:21:20Z</time>
      </trkpt>
      <trkpt lat="45.76035" lon="5.73344">
        <ele>239</ele>
        <time>2017-05-26T11:21:20Z</time>
      </trkpt>
      <trkpt lat="45.76039" lon="5.73337">
        <ele>239</ele>
        <time>2017-05-26T11:21:20Z</time>
      </trkpt>
      <trkpt lat="45.76041" lon="5.73329">
        <ele>239</ele>
        <time>2017-05-26T11:21:36Z</time>
      </trkpt>
      <trkpt lat="45.76041" lon="5.73321">
        <ele>239</ele>
        <time>2017-05-26T11:21:36Z</time>
      </trkpt>
      <trkpt lat="45.76044" lon="5.73314">
        <ele>246</ele>
        <time>2017-05-26T11:21:36Z</time>
      </trkpt>
      <trkpt lat="45.76047" lon="5.73308">
        <ele>246</ele>
        <time>2017-05-26T11:21:36Z</time>
      </trkpt>
      <trkpt lat="45.76049" lon="5.73301">
        <ele>246</ele>
        <time>2017-05-26T11:21:52Z</time>
      </trkpt>
      <trkpt lat="45.76052" lon="5.73292">
        <ele>246</ele>
        <time>2017-05-26T11:21:52Z</time>
      </trkpt>
      <trkpt lat="45.76056" lon="5.73283">
        <ele>243</ele>
        <time>2017-05-26T11:21:52Z</time>
      </trkpt>
      <trkpt lat="45.7606" lon="5.73275">
        <ele>243</ele>
        <time>2017-05-26T11:21:52Z</time>
      </trkpt>
      <trkpt lat="45.76062" lon="5.73268">
        <ele>243</ele>
        <time>2017-05-26T11:22:08Z</time>
      </trkpt>
      <trkpt lat="45.76066" lon="5.7326">
        <ele>243</ele>
        <time>2017-05-26T11:22:08Z</time>
      </trkpt>
      <trkpt lat="45.76069" lon="5.73254">
        <ele>243</ele>
        <time>2017-05-26T11:22:08Z</time>
      </trkpt>
      <trkpt lat="45.76073" lon="5.73245">
        <ele>243</ele>
        <time>2017-05-26T11:22:08Z</time>
      </trkpt>
      <trkpt lat="45.76076" lon="5.73233">
        <ele>243</ele>
        <time>2017-05-26T11:22:24Z</time>
      </trkpt>
      <trkpt lat="45.76079" lon="5.73226">
        <ele>243</ele>
        <time>2017-05-26T11:22:24Z</time>
      </trkpt>
      <trkpt lat="45.7608" lon="5.7322">
        <ele>243</ele>
        <time>2017-05-26T11:22:24Z</time>
      </trkpt>
      <trkpt lat="45.76081" lon="5.73213">
        <ele>243</ele>
        <time>2017-05-26T11:22:24Z</time>
      </trkpt>
      <trkpt lat="45.76081" lon="5.73205">
        <ele>243</ele>
        <time>2017-05-26T11:22:40Z</time>
      </trkpt>
      <trkpt lat="45.76082" lon="5.73197">
        <ele>243</ele>
        <time>2017-05-26T11:22:40Z</time>
      </trkpt>
      <trkpt lat="45.76085" lon="5.73189">
        <ele>243</ele>
        <time>2017-05-26T11:22:40Z</time>
      </trkpt>
      <trkpt lat="45.76089" lon="5.73181">
        <ele>243</ele>
        <time>2017-05-26T11:22:40Z</time>
      </trkpt>
      <trkpt lat="45.76092" lon="5.73172">
        <ele>243</ele>
        <time>2017-05-26T11:22:56Z</time>
      </trkpt>
      <trkpt lat="45.76095" lon="5.73164">
        <ele>243</ele>
        <time>2017-05-26T11:22:56Z</time>
      </trkpt>
      <trkpt lat="45.76097" lon="5.73157">
        <ele>243</ele>
        <time>2017-05-26T11:22:56Z</time>
      </trkpt>
      <trkpt lat="45.761" lon="5.7315">
        <ele>243</ele>
        <time>2017-05-26T11:22:56Z</time>
      </trkpt>
      <trkpt lat="45.76103" lon="5.73142">
        <ele>243</ele>
        <time>2017-05-26T11:23:12Z</time>
      </trkpt>
      <trkpt lat="45.76104" lon="5.73134">
        <ele>243</ele>
        <time>2017-05-26T11:23:12Z</time>
      </trkpt>
      <trkpt lat="45.76106" lon="5.73126">
        <ele>243</ele>
        <time>2017-05-26T11:23:12Z</time>
      </trkpt>
      <trkpt lat="45.76108" lon="5.73119">
        <ele>241</ele>
        <time>2017-05-26T11:23:12Z</time>
      </trkpt>
      <trkpt lat="45.76109" lon="5.73112">
        <ele>241</ele>
        <time>2017-05-26T11:23:28Z</time>
      </trkpt>
      <trkpt lat="45.7611" lon="5.73104">
        <ele>241</ele>
        <time>2017-05-26T11:23:28Z</time>
      </trkpt>
      <trkpt lat="45.76112" lon="5.73097">
        <ele>241</ele>
        <time>2017-05-26T11:23:28Z</time>
      </trkpt>
      <trkpt lat="45.76112" lon="5.73088">
        <ele>241</ele>
        <time>2017-05-26T11:23:28Z</time>
      </trkpt>
      <trkpt lat="45.76112" lon="5.73078">
        <ele>241</ele>
        <time>2017-05-26T11:23:44Z</time>
      </trkpt>
      <trkpt lat="45.76111" lon="5.73071">
        <ele>241</ele>
        <time>2017-05-26T11:23:44Z</time>
      </trkpt>
      <trkpt lat="45.7611" lon="5.73064">
        <ele>241</ele>
        <time>2017-05-26T11:23:44Z</time>
      </trkpt>
      <trkpt lat="45.7611" lon="5.73057">
        <ele>241</ele>
        <time>2017-05-26T11:23:44Z</time>
      </trkpt>
      <trkpt lat="45.7611" lon="5.73049">
        <ele>241</ele>
        <time>2017-05-26T11:24:00Z</time>
      </trkpt>
      <trkpt lat="45.76109" lon="5.73041">
        <ele>241</ele>
        <time>2017-05-26T11:24:00Z</time>
      </trkpt>
      <trkpt lat="45.76109" lon="5.73033">
        <ele>241</ele>
        <time>2017-05-26T11:24:00Z</time>
      </trkpt>
      <trkpt lat="45.7611" lon="5.73024">
        <ele>241</ele>
        <time>2017-05-26T11:24:00Z</time>
      </trkpt>
      <trkpt lat="45.76111" lon="5.73015">
        <ele>241</ele>
        <time>2017-05-26T11:24:16Z</time>
      </trkpt>
      <trkpt lat="45.76114" lon="5.73007">
        <ele>241</ele>
        <time>2017-05-26T11:24:16Z</time>
      </trkpt>
      <trkpt lat="45.76116" lon="5.72998">
        <ele>241</ele>
        <time>2017-05-26T11:24:16Z</time>
      </trkpt>
      <trkpt lat="45.76117" lon="5.72989">
        <ele>241</ele>
        <time>2017-05-26T11:24:16Z</time>
      </trkpt>
      <trkpt lat="45.76119" lon="5.72982">
        <ele>241</ele>
        <time>2017-05-26T11:24:32Z</time>
      </trkpt>
      <trkpt lat="45.76121" lon="5.72974">
        <ele>241</ele>
        <time>2017-05-26T11:24:32Z</time>
      </trkpt>
      <trkpt lat="45.76123" lon="5.72967">
        <ele>241</ele>
        <time>2017-05-26T11:24:32Z</time>
      </trkpt>
      <trkpt lat="45.76127" lon="5.72959">
        <ele>261</ele>
        <time>2017-05-26T11:24:32Z</time>
      </trkpt>
      <trkpt lat="45.7613" lon="5.72953">
        <ele>246</ele>
        <time>2017-05-26T11:24:48Z</time>
      </trkpt>
      <trkpt lat="45.76131" lon="5.72945">
        <ele>246</ele>
        <time>2017-05-26T11:24:48Z</time>
      </trkpt>
      <trkpt lat="45.76134" lon="5.72937">
        <ele>246</ele>
        <time>2017-05-26T11:24:48Z</time>
      </trkpt>
      <trkpt lat="45.76136" lon="5.7293">
        <ele>246</ele>
        <time>2017-05-26T11:24:48Z</time>
      </trkpt>
      <trkpt lat="45.76141" lon="5.7292">
        <ele>246</ele>
        <time>2017-05-26T11:25:04Z</time>
      </trkpt>
      <trkpt lat="45.76144" lon="5.72912">
        <ele>246</ele>
        <time>2017-05-26T11:25:04Z</time>
      </trkpt>
      <trkpt lat="45.76145" lon="5.72904">
        <ele>246</ele>
        <time>2017-05-26T11:25:04Z</time>
      </trkpt>
      <trkpt lat="45.76147" lon="5.72897">
        <ele>246</ele>
        <time>2017-05-26T11:25:04Z</time>
      </trkpt>
      <trkpt lat="45.76147" lon="5.72889">
        <ele>246</ele>
        <time>2017-05-26T11:25:20Z</time>
      </trkpt>
      <trkpt lat="45.76148" lon="5.72882">
        <ele>246</ele>
        <time>2017-05-26T11:25:20Z</time>
      </trkpt>
      <trkpt lat="45.76148" lon="5.72876">
        <ele>246</ele>
        <time>2017-05-26T11:25:20Z</time>
      </trkpt>
      <trkpt lat="45.76149" lon="5.72867">
        <ele>237</ele>
        <time>2017-05-26T11:25:20Z</time>
      </trkpt>
      <trkpt lat="45.7615" lon="5.72859">
        <ele>237</ele>
        <time>2017-05-26T11:25:36Z</time>
      </trkpt>
      <trkpt lat="45.76155" lon="5.72848">
        <ele>237</ele>
        <time>2017-05-26T11:25:36Z</time>
      </trkpt>
      <trkpt lat="45.76157" lon="5.72838">
        <ele>237</ele>
        <time>2017-05-26T11:25:36Z</time>
      </trkpt>
      <trkpt lat="45.76157" lon="5.7283">
        <ele>237</ele>
        <time>2017-05-26T11:25:36Z</time>
      </trkpt>
      <trkpt lat="45.76157" lon="5.72822">
        <ele>237</ele>
        <time>2017-05-26T11:25:52Z</time>
      </trkpt>
      <trkpt lat="45.7616" lon="5.72813">
        <ele>237</ele>
        <time>2017-05-26T11:25:52Z</time>
      </trkpt>
      <trkpt lat="45.76163" lon="5.72805">
        <ele>237</ele>
        <time>2017-05-26T11:25:52Z</time>
      </trkpt>
      <trkpt lat="45.76165" lon="5.72795">
        <ele>237</ele>
        <time>2017-05-26T11:25:52Z</time>
      </trkpt>
      <trkpt lat="45.76167" lon="5.72787">
        <ele>237</ele>
        <time>2017-05-26T11:26:08Z</time>
      </trkpt>
      <trkpt lat="45.76166" lon="5.72778">
        <ele>237</ele>
        <time>2017-05-26T11:26:08Z</time>
      </trkpt>
      <trkpt lat="45.76167" lon="5.72771">
        <ele>237</ele>
        <time>2017-05-26T11:26:08Z</time>
      </trkpt>
      <trkpt lat="45.76169" lon="5.72763">
        <ele>237</ele>
        <time>2017-05-26T11:26:08Z</time>
      </trkpt>
      <trkpt lat="45.7617" lon="5.72755">
        <ele>237</ele>
        <time>2017-05-26T11:26:24Z</time>
      </trkpt>
      <trkpt lat="45.76171" lon="5.72746">
        <ele>237</ele>
        <time>2017-05-26T11:26:24Z</time>
      </trkpt>
      <trkpt lat="45.76173" lon="5.72738">
        <ele>237</ele>
        <time>2017-05-26T11:26:24Z</time>
      </trkpt>
      <trkpt lat="45.76174" lon="5.7273">
        <ele>237</ele>
        <time>2017-05-26T11:26:24Z</time>
      </trkpt>
      <trkpt lat="45.76177" lon="5.72722">
        <ele>237</ele>
        <time>2017-05-26T11:26:40Z</time>
      </trkpt>
      <trkpt lat="45.76181" lon="5.72716">
        <ele>237</ele>
        <time>2017-05-26T11:26:40Z</time>
      </trkpt>
      <trkpt lat="45.76184" lon="5.72709">
        <ele>237</ele>
        <time>2017-05-26T11:26:40Z</time>
      </trkpt>
      <trkpt lat="45.76187" lon="5.72703">
        <ele>237</ele>
        <time>2017-05-26T11:26:40Z</time>
      </trkpt>
      <trkpt lat="45.76189" lon="5.72695">
        <ele>237</ele>
        <time>2017-05-26T11:26:56Z</time>
      </trkpt>
      <trkpt lat="45.76194" lon="5.72688">
        <ele>237</ele>
        <time>2017-05-26T11:26:56Z</time>
      </trkpt>
      <trkpt lat="45.76197" lon="5.72681">
        <ele>237</ele>
        <time>2017-05-26T11:26:56Z</time>
      </trkpt>
      <trkpt lat="45.762" lon="5.72673">
        <ele>237</ele>
        <time>2017-05-26T11:26:56Z</time>
      </trkpt>
      <trkpt lat="45.76202" lon="5.72665">
        <ele>237</ele>
        <time>2017-05-26T11:27:12Z</time>
      </trkpt>
      <trkpt lat="45.76205" lon="5.72656">
        <ele>237</ele>
        <time>2017-05-26T11:27:12Z</time>
      </trkpt>
      <trkpt lat="45.76205" lon="5.72648">
        <ele>237</ele>
        <time>2017-05-26T11:27:12Z</time>
      </trkpt>
      <trkpt lat="45.76206" lon="5.72639">
        <ele>237</ele>
        <time>2017-05-26T11:27:12Z</time>
      </trkpt>
      <trkpt lat="45.76207" lon="5.72631">
        <ele>237</ele>
        <time>2017-05-26T11:27:28Z</time>
      </trkpt>
      <trkpt lat="45.76207" lon="5.72623">
        <ele>236</ele>
        <time>2017-05-26T11:27:28Z</time>
      </trkpt>
      <trkpt lat="45.76207" lon="5.72615">
        <ele>236</ele>
        <time>2017-05-26T11:27:28Z</time>
      </trkpt>
      <trkpt lat="45.76208" lon="5.72606">
        <ele>236</ele>
        <time>2017-05-26T11:27:28Z</time>
      </trkpt>
      <trkpt lat="45.76208" lon="5.72597">
        <ele>237</ele>
        <time>2017-05-26T11:27:44Z</time>
      </trkpt>
      <trkpt lat="45.76209" lon="5.72588">
        <ele>237</ele>
        <time>2017-05-26T11:27:44Z</time>
      </trkpt>
      <trkpt lat="45.76209" lon="5.72579">
        <ele>237</ele>
        <time>2017-05-26T11:27:44Z</time>
      </trkpt>
      <trkpt lat="45.7621" lon="5.7257">
        <ele>237</ele>
        <time>2017-05-26T11:27:44Z</time>
      </trkpt>
      <trkpt lat="45.7621" lon="5.72562">
        <ele>237</ele>
        <time>2017-05-26T11:28:00Z</time>
      </trkpt>
      <trkpt lat="45.76212" lon="5.72554">
        <ele>237</ele>
        <time>2017-05-26T11:28:00Z</time>
      </trkpt>
      <trkpt lat="45.76212" lon="5.72545">
        <ele>237</ele>
        <time>2017-05-26T11:28:00Z</time>
      </trkpt>
      <trkpt lat="45.76211" lon="5.72537">
        <ele>238</ele>
        <time>2017-05-26T11:28:00Z</time>
      </trkpt>
      <trkpt lat="45.76211" lon="5.72529">
        <ele>238</ele>
        <time>2017-05-26T11:28:16Z</time>
      </trkpt>
      <trkpt lat="45.76211" lon="5.7252">
        <ele>238</ele>
        <time>2017-05-26T11:28:16Z</time>
      </trkpt>
      <trkpt lat="45.7621" lon="5.72512">
        <ele>238</ele>
        <time>2017-05-26T11:28:16Z</time>
      </trkpt>
      <trkpt lat="45.76212" lon="5.72502">
        <ele>238</ele>
        <time>2017-05-26T11:28:16Z</time>
      </trkpt>
      <trkpt lat="45.76213" lon="5.72492">
        <ele>238</ele>
        <time>2017-05-26T11:28:32Z</time>
      </trkpt>
      <trkpt lat="45.76212" lon="5.72484">
        <ele>238</ele>
        <time>2017-05-26T11:28:32Z</time>
      </trkpt>
      <trkpt lat="45.76211" lon="5.72476">
        <ele>238</ele>
        <time>2017-05-26T11:28:32Z</time>
      </trkpt>
      <trkpt lat="45.7621" lon="5.72468">
        <ele>238</ele>
        <time>2017-05-26T11:28:32Z</time>
      </trkpt>
      <trkpt lat="45.7621" lon="5.72462">
        <ele>238</ele>
        <time>2017-05-26T11:28:48Z</time>
      </trkpt>
      <trkpt lat="45.7621" lon="5.72458">
        <ele>238</ele>
        <time>2017-05-26T11:28:48Z</time>
      </trkpt>
      <trkpt lat="45.76211" lon="5.72452">
        <ele>238</ele>
        <time>2017-05-26T11:28:48Z</time>
      </trkpt>
      <trkpt lat="45.76211" lon="5.72444">
        <ele>238</ele>
        <time>2017-05-26T11:28:48Z</time>
      </trkpt>
      <trkpt lat="45.76211" lon="5.72436">
        <ele>238</ele>
        <time>2017-05-26T11:29:04Z</time>
      </trkpt>
      <trkpt lat="45.7621" lon="5.72426">
        <ele>238</ele>
        <time>2017-05-26T11:29:04Z</time>
      </trkpt>
      <trkpt lat="45.76211" lon="5.72417">
        <ele>238</ele>
        <time>2017-05-26T11:29:04Z</time>
      </trkpt>
      <trkpt lat="45.76211" lon="5.72409">
        <ele>238</ele>
        <time>2017-05-26T11:29:04Z</time>
      </trkpt>
      <trkpt lat="45.76211" lon="5.72402">
        <ele>238</ele>
        <time>2017-05-26T11:29:20Z</time>
      </trkpt>
      <trkpt lat="45.76211" lon="5.72394">
        <ele>238</ele>
        <time>2017-05-26T11:29:20Z</time>
      </trkpt>
      <trkpt lat="45.76211" lon="5.72386">
        <ele>238</ele>
        <time>2017-05-26T11:29:20Z</time>
      </trkpt>
      <trkpt lat="45.76211" lon="5.72378">
        <ele>238</ele>
        <time>2017-05-26T11:29:20Z</time>
      </trkpt>
      <trkpt lat="45.76211" lon="5.7237">
        <ele>238</ele>
        <time>2017-05-26T11:29:36Z</time>
      </trkpt>
      <trkpt lat="45.76209" lon="5.72362">
        <ele>238</ele>
        <time>2017-05-26T11:29:36Z</time>
      </trkpt>
      <trkpt lat="45.76207" lon="5.72355">
        <ele>235</ele>
        <time>2017-05-26T11:29:36Z</time>
      </trkpt>
      <trkpt lat="45.76206" lon="5.72348">
        <ele>235</ele>
        <time>2017-05-26T11:29:36Z</time>
      </trkpt>
      <trkpt lat="45.76205" lon="5.72339">
        <ele>235</ele>
        <time>2017-05-26T11:29:52Z</time>
      </trkpt>
      <trkpt lat="45.76206" lon="5.72329">
        <ele>235</ele>
        <time>2017-05-26T11:29:52Z</time>
      </trkpt>
      <trkpt lat="45.76203" lon="5.7232">
        <ele>235</ele>
        <time>2017-05-26T11:29:52Z</time>
      </trkpt>
      <trkpt lat="45.76201" lon="5.72311">
        <ele>235</ele>
        <time>2017-05-26T11:29:52Z</time>
      </trkpt>
      <trkpt lat="45.76199" lon="5.72299">
        <ele>235</ele>
        <time>2017-05-26T11:30:08Z</time>
      </trkpt>
      <trkpt lat="45.762" lon="5.72288">
        <ele>235</ele>
        <time>2017-05-26T11:30:08Z</time>
      </trkpt>
      <trkpt lat="45.76202" lon="5.7228">
        <ele>235</ele>
        <time>2017-05-26T11:30:08Z</time>
      </trkpt>
      <trkpt lat="45.76204" lon="5.72271">
        <ele>235</ele>
        <time>2017-05-26T11:30:08Z</time>
      </trkpt>
      <trkpt lat="45.76209" lon="5.72265">
        <ele>238</ele>
        <time>2017-05-26T11:30:24Z</time>
      </trkpt>
      <trkpt lat="45.76212" lon="5.72257">
        <ele>238</ele>
        <time>2017-05-26T11:30:24Z</time>
      </trkpt>
      <trkpt lat="45.76214" lon="5.72252">
        <ele>238</ele>
        <time>2017-05-26T11:30:24Z</time>
      </trkpt>
      <trkpt lat="45.76215" lon="5.7225">
        <ele>238</ele>
        <time>2017-05-26T11:30:24Z</time>
      </trkpt>
      <trkpt lat="45.76218" lon="5.72238">
        <ele>238</ele>
        <time>2017-05-26T11:30:40Z</time>
      </trkpt>
      <trkpt lat="45.76223" lon="5.72227">
        <ele>238</ele>
        <time>2017-05-26T11:30:40Z</time>
      </trkpt>
      <trkpt lat="45.76225" lon="5.72219">
        <ele>238</ele>
        <time>2017-05-26T11:30:40Z</time>
      </trkpt>
      <trkpt lat="45.76228" lon="5.72211">
        <ele>238</ele>
        <time>2017-05-26T11:30:40Z</time>
      </trkpt>
      <trkpt lat="45.76229" lon="5.72204">
        <ele>238</ele>
        <time>2017-05-26T11:30:56Z</time>
      </trkpt>
      <trkpt lat="45.7623" lon="5.72196">
        <ele>238</ele>
        <time>2017-05-26T11:30:56Z</time>
      </trkpt>
      <trkpt lat="45.76232" lon="5.72187">
        <ele>238</ele>
        <time>2017-05-26T11:30:56Z</time>
      </trkpt>
      <trkpt lat="45.76233" lon="5.72179">
        <ele>238</ele>
        <time>2017-05-26T11:30:56Z</time>
      </trkpt>
      <trkpt lat="45.76234" lon="5.7217">
        <ele>238</ele>
        <time>2017-05-26T11:31:12Z</time>
      </trkpt>
      <trkpt lat="45.76234" lon="5.72162">
        <ele>238</ele>
        <time>2017-05-26T11:31:12Z</time>
      </trkpt>
      <trkpt lat="45.76235" lon="5.72154">
        <ele>238</ele>
        <time>2017-05-26T11:31:12Z</time>
      </trkpt>
      <trkpt lat="45.76234" lon="5.72145">
        <ele>238</ele>
        <time>2017-05-26T11:31:12Z</time>
      </trkpt>
      <trkpt lat="45.76233" lon="5.72137">
        <ele>238</ele>
        <time>2017-05-26T11:31:28Z</time>
      </trkpt>
      <trkpt lat="45.76233" lon="5.72127">
        <ele>238</ele>
        <time>2017-05-26T11:31:28Z</time>
      </trkpt>
      <trkpt lat="45.7623" lon="5.72113">
        <ele>238</ele>
        <time>2017-05-26T11:31:28Z</time>
      </trkpt>
      <trkpt lat="45.76225" lon="5.72103">
        <ele>238</ele>
        <time>2017-05-26T11:31:28Z</time>
      </trkpt>
      <trkpt lat="45.76224" lon="5.72097">
        <ele>238</ele>
        <time>2017-05-26T11:31:44Z</time>
      </trkpt>
      <trkpt lat="45.76222" lon="5.7209">
        <ele>238</ele>
        <time>2017-05-26T11:31:44Z</time>
      </trkpt>
      <trkpt lat="45.7622" lon="5.7208">
        <ele>238</ele>
        <time>2017-05-26T11:31:44Z</time>
      </trkpt>
      <trkpt lat="45.76216" lon="5.72072">
        <ele>238</ele>
        <time>2017-05-26T11:31:44Z</time>
      </trkpt>
      <trkpt lat="45.76214" lon="5.72065">
        <ele>238</ele>
        <time>2017-05-26T11:32:00Z</time>
      </trkpt>
      <trkpt lat="45.76213" lon="5.72059">
        <ele>238</ele>
        <time>2017-05-26T11:32:00Z</time>
      </trkpt>
      <trkpt lat="45.76211" lon="5.72052">
        <ele>238</ele>
        <time>2017-05-26T11:32:00Z</time>
      </trkpt>
      <trkpt lat="45.7621" lon="5.72043">
        <ele>238</ele>
        <time>2017-05-26T11:32:00Z</time>
      </trkpt>
      <trkpt lat="45.76208" lon="5.72035">
        <ele>231</ele>
        <time>2017-05-26T11:32:16Z</time>
      </trkpt>
      <trkpt lat="45.76203" lon="5.72018">
        <ele>231</ele>
        <time>2017-05-26T11:32:16Z</time>
      </trkpt>
      <trkpt lat="45.76194" lon="5.71985">
        <ele>231</ele>
        <time>2017-05-26T11:32:16Z</time>
      </trkpt>
      <trkpt lat="45.76184" lon="5.71962">
        <ele>231</ele>
        <time>2017-05-26T11:32:16Z</time>
      </trkpt>
      <trkpt lat="45.76174" lon="5.71933">
        <ele>241</ele>
        <time>2017-05-26T11:32:32Z</time>
      </trkpt>
      <trkpt lat="45.76162" lon="5.71901">
        <ele>241</ele>
        <time>2017-05-26T11:32:32Z</time>
      </trkpt>
      <trkpt lat="45.7615" lon="5.71868">
        <ele>241</ele>
        <time>2017-05-26T11:32:32Z</time>
      </trkpt>
      <trkpt lat="45.7614" lon="5.71845">
        <ele>241</ele>
        <time>2017-05-26T11:32:32Z</time>
      </trkpt>
      <trkpt lat="45.76135" lon="5.71836">
        <ele>241</ele>
        <time>2017-05-26T11:32:48Z</time>
      </trkpt>
      <trkpt lat="45.7613" lon="5.71832">
        <ele>241</ele>
        <time>2017-05-26T11:32:48Z</time>
      </trkpt>
      <trkpt lat="45.76127" lon="5.71822">
        <ele>241</ele>
        <time>2017-05-26T11:32:48Z</time>
      </trkpt>
      <trkpt lat="45.76123" lon="5.71816">
        <ele>231</ele>
        <time>2017-05-26T11:32:48Z</time>
      </trkpt>
      <trkpt lat="45.76119" lon="5.71808">
        <ele>231</ele>
        <time>2017-05-26T11:33:04Z</time>
      </trkpt>
      <trkpt lat="45.76116" lon="5.718">
        <ele>231</ele>
        <time>2017-05-26T11:33:04Z</time>
      </trkpt>
      <trkpt lat="45.76113" lon="5.71794">
        <ele>231</ele>
        <time>2017-05-26T11:33:04Z</time>
      </trkpt>
      <trkpt lat="45.76111" lon="5.71786">
        <ele>237</ele>
        <time>2017-05-26T11:33:04Z</time>
      </trkpt>
      <trkpt lat="45.76108" lon="5.7178">
        <ele>237</ele>
        <time>2017-05-26T11:33:20Z</time>
      </trkpt>
      <trkpt lat="45.76104" lon="5.71774">
        <ele>237</ele>
        <time>2017-05-26T11:33:20Z</time>
      </trkpt>
      <trkpt lat="45.76097" lon="5.71766">
        <ele>237</ele>
        <time>2017-05-26T11:33:20Z</time>
      </trkpt>
      <trkpt lat="45.76093" lon="5.71757">
        <ele>237</ele>
        <time>2017-05-26T11:33:20Z</time>
      </trkpt>
      <trkpt lat="45.76088" lon="5.71751">
        <ele>237</ele>
        <time>2017-05-26T11:33:36Z</time>
      </trkpt>
      <trkpt lat="45.76084" lon="5.71745">
        <ele>237</ele>
        <time>2017-05-26T11:33:36Z</time>
      </trkpt>
      <trkpt lat="45.76079" lon="5.71739">
        <ele>237</ele>
        <time>2017-05-26T11:33:36Z</time>
      </trkpt>
      <trkpt lat="45.76077" lon="5.71732">
        <ele>237</ele>
        <time>2017-05-26T11:33:36Z</time>
      </trkpt>
      <trkpt lat="45.76075" lon="5.71725">
        <ele>237</ele>
        <time>2017-05-26T11:33:52Z</time>
      </trkpt>
      <trkpt lat="45.76072" lon="5.71716">
        <ele>237</ele>
        <time>2017-05-26T11:33:52Z</time>
      </trkpt>
      <trkpt lat="45.76068" lon="5.71706">
        <ele>235</ele>
        <time>2017-05-26T11:33:52Z</time>
      </trkpt>
      <trkpt lat="45.76066" lon="5.71699">
        <ele>235</ele>
        <time>2017-05-26T11:33:52Z</time>
      </trkpt>
      <trkpt lat="45.76062" lon="5.71693">
        <ele>235</ele>
        <time>2017-05-26T11:34:08Z</time>
      </trkpt>
      <trkpt lat="45.76059" lon="5.71686">
        <ele>235</ele>
        <time>2017-05-26T11:34:08Z</time>
      </trkpt>
      <trkpt lat="45.76056" lon="5.71679">
        <ele>235</ele>
        <time>2017-05-26T11:34:08Z</time>
      </trkpt>
      <trkpt lat="45.76052" lon="5.71672">
        <ele>235</ele>
        <time>2017-05-26T11:34:08Z</time>
      </trkpt>
      <trkpt lat="45.76049" lon="5.71664">
        <ele>235</ele>
        <time>2017-05-26T11:34:24Z</time>
      </trkpt>
      <trkpt lat="45.76046" lon="5.71655">
        <ele>235</ele>
        <time>2017-05-26T11:34:24Z</time>
      </trkpt>
      <trkpt lat="45.76042" lon="5.71649">
        <ele>235</ele>
        <time>2017-05-26T11:34:24Z</time>
      </trkpt>
      <trkpt lat="45.76039" lon="5.71642">
        <ele>233</ele>
        <time>2017-05-26T11:34:24Z</time>
      </trkpt>
      <trkpt lat="45.76035" lon="5.71634">
        <ele>233</ele>
        <time>2017-05-26T11:34:40Z</time>
      </trkpt>
      <trkpt lat="45.76032" lon="5.71626">
        <ele>233</ele>
        <time>2017-05-26T11:34:40Z</time>
      </trkpt>
      <trkpt lat="45.76029" lon="5.71619">
        <ele>237</ele>
        <time>2017-05-26T11:34:40Z</time>
      </trkpt>
      <trkpt lat="45.76026" lon="5.71611">
        <ele>237</ele>
        <time>2017-05-26T11:34:40Z</time>
      </trkpt>
      <trkpt lat="45.76023" lon="5.71605">
        <ele>237</ele>
        <time>2017-05-26T11:34:56Z</time>
      </trkpt>
      <trkpt lat="45.7602" lon="5.71599">
        <ele>237</ele>
        <time>2017-05-26T11:34:56Z</time>
      </trkpt>
      <trkpt lat="45.76016" lon="5.71592">
        <ele>237</ele>
        <time>2017-05-26T11:34:56Z</time>
      </trkpt>
      <trkpt lat="45.76011" lon="5.71587">
        <ele>237</ele>
        <time>2017-05-26T11:34:56Z</time>
      </trkpt>
      <trkpt lat="45.76005" lon="5.71582">
        <ele>237</ele>
        <time>2017-05-26T11:35:12Z</time>
      </trkpt>
      <trkpt lat="45.76" lon="5.71578">
        <ele>237</ele>
        <time>2017-05-26T11:35:12Z</time>
      </trkpt>
      <trkpt lat="45.75996" lon="5.71573">
        <ele>237</ele>
        <time>2017-05-26T11:35:12Z</time>
      </trkpt>
      <trkpt lat="45.75991" lon="5.71568">
        <ele>237</ele>
        <time>2017-05-26T11:35:12Z</time>
      </trkpt>
      <trkpt lat="45.75986" lon="5.71563">
        <ele>237</ele>
        <time>2017-05-26T11:35:28Z</time>
      </trkpt>
      <trkpt lat="45.75979" lon="5.71558">
        <ele>237</ele>
        <time>2017-05-26T11:35:28Z</time>
      </trkpt>
      <trkpt lat="45.75972" lon="5.71556">
        <ele>237</ele>
        <time>2017-05-26T11:35:28Z</time>
      </trkpt>
      <trkpt lat="45.75966" lon="5.71553">
        <ele>237</ele>
        <time>2017-05-26T11:35:28Z</time>
      </trkpt>
      <trkpt lat="45.7596" lon="5.7155">
        <ele>237</ele>
        <time>2017-05-26T11:35:44Z</time>
      </trkpt>
      <trkpt lat="45.75953" lon="5.71548">
        <ele>230</ele>
        <time>2017-05-26T11:35:44Z</time>
      </trkpt>
      <trkpt lat="45.75948" lon="5.71549">
        <ele>230</ele>
        <time>2017-05-26T11:35:44Z</time>
      </trkpt>
      <trkpt lat="45.75943" lon="5.71549">
        <ele>230</ele>
        <time>2017-05-26T11:35:44Z</time>
      </trkpt>
      <trkpt lat="45.75939" lon="5.71546">
        <ele>230</ele>
        <time>2017-05-26T11:36:00Z</time>
      </trkpt>
      <trkpt lat="45.75934" lon="5.7154">
        <ele>236</ele>
        <time>2017-05-26T11:36:00Z</time>
      </trkpt>
      <trkpt lat="45.75929" lon="5.71535">
        <ele>236</ele>
        <time>2017-05-26T11:36:00Z</time>
      </trkpt>
      <trkpt lat="45.75924" lon="5.71529">
        <ele>236</ele>
        <time>2017-05-26T11:36:00Z</time>
      </trkpt>
      <trkpt lat="45.75918" lon="5.71526">
        <ele>236</ele>
        <time>2017-05-26T11:36:16Z</time>
      </trkpt>
      <trkpt lat="45.75913" lon="5.71523">
        <ele>236</ele>
        <time>2017-05-26T11:36:16Z</time>
      </trkpt>
      <trkpt lat="45.75908" lon="5.71516">
        <ele>236</ele>
        <time>2017-05-26T11:36:16Z</time>
      </trkpt>
      <trkpt lat="45.75905" lon="5.71508">
        <ele>236</ele>
        <time>2017-05-26T11:36:16Z</time>
      </trkpt>
      <trkpt lat="45.75903" lon="5.71501">
        <ele>236</ele>
        <time>2017-05-26T11:36:32Z</time>
      </trkpt>
      <trkpt lat="45.75899" lon="5.71496">
        <ele>236</ele>
        <time>2017-05-26T11:36:32Z</time>
      </trkpt>
      <trkpt lat="45.75896" lon="5.7149">
        <ele>236</ele>
        <time>2017-05-26T11:36:32Z</time>
      </trkpt>
      <trkpt lat="45.75894" lon="5.71484">
        <ele>236</ele>
        <time>2017-05-26T11:36:32Z</time>
      </trkpt>
      <trkpt lat="45.75892" lon="5.71477">
        <ele>236</ele>
        <time>2017-05-26T11:36:48Z</time>
      </trkpt>
      <trkpt lat="45.75891" lon="5.7147">
        <ele>236</ele>
        <time>2017-05-26T11:36:48Z</time>
      </trkpt>
      <trkpt lat="45.75888" lon="5.71466">
        <ele>236</ele>
        <time>2017-05-26T11:36:48Z</time>
      </trkpt>
      <trkpt lat="45.75885" lon="5.7146">
        <ele>236</ele>
        <time>2017-05-26T11:36:48Z</time>
      </trkpt>
      <trkpt lat="45.75883" lon="5.71453">
        <ele>239</ele>
        <time>2017-05-26T11:37:04Z</time>
      </trkpt>
      <trkpt lat="45.75879" lon="5.71447">
        <ele>239</ele>
        <time>2017-05-26T11:37:04Z</time>
      </trkpt>
      <trkpt lat="45.75874" lon="5.71438">
        <ele>237</ele>
        <time>2017-05-26T11:37:04Z</time>
      </trkpt>
      <trkpt lat="45.75872" lon="5.71428">
        <ele>237</ele>
        <time>2017-05-26T11:37:04Z</time>
      </trkpt>
      <trkpt lat="45.75867" lon="5.71423">
        <ele>237</ele>
        <time>2017-05-26T11:37:20Z</time>
      </trkpt>
      <trkpt lat="45.75863" lon="5.71419">
        <ele>237</ele>
        <time>2017-05-26T11:37:20Z</time>
      </trkpt>
      <trkpt lat="45.7586" lon="5.71414">
        <ele>237</ele>
        <time>2017-05-26T11:37:20Z</time>
      </trkpt>
      <trkpt lat="45.75856" lon="5.71407">
        <ele>237</ele>
        <time>2017-05-26T11:37:20Z</time>
      </trkpt>
      <trkpt lat="45.75851" lon="5.71401">
        <ele>237</ele>
        <time>2017-05-26T11:37:36Z</time>
      </trkpt>
      <trkpt lat="45.75848" lon="5.71395">
        <ele>237</ele>
        <time>2017-05-26T11:37:36Z</time>
      </trkpt>
      <trkpt lat="45.75844" lon="5.71389">
        <ele>237</ele>
        <time>2017-05-26T11:37:36Z</time>
      </trkpt>
      <trkpt lat="45.75841" lon="5.71382">
        <ele>237</ele>
        <time>2017-05-26T11:37:36Z</time>
      </trkpt>
      <trkpt lat="45.75836" lon="5.71372">
        <ele>235</ele>
        <time>2017-05-26T11:37:52Z</time>
      </trkpt>
      <trkpt lat="45.75834" lon="5.71364">
        <ele>235</ele>
        <time>2017-05-26T11:37:52Z</time>
      </trkpt>
      <trkpt lat="45.75833" lon="5.71357">
        <ele>235</ele>
        <time>2017-05-26T11:37:52Z</time>
      </trkpt>
      <trkpt lat="45.75831" lon="5.7135">
        <ele>235</ele>
        <time>2017-05-26T11:37:52Z</time>
      </trkpt>
      <trkpt lat="45.75822" lon="5.71336">
        <ele>235</ele>
        <time>2017-05-26T11:38:24Z</time>
      </trkpt>
      <trkpt lat="45.75822" lon="5.71336">
        <ele>235</ele>
        <time>2017-05-26T11:38:24Z</time>
      </trkpt>
      <trkpt lat="45.75821" lon="5.71335">
        <ele>235</ele>
        <time>2017-05-26T11:38:24Z</time>
      </trkpt>
      <trkpt lat="45.75821" lon="5.71334">
        <ele>235</ele>
        <time>2017-05-26T11:38:24Z</time>
      </trkpt>
      <trkpt lat="45.75821" lon="5.71334">
        <ele>235</ele>
        <time>2017-05-26T11:38:24Z</time>
      </trkpt>
      <trkpt lat="45.75821" lon="5.71334">
        <ele>235</ele>
        <time>2017-05-26T11:38:56Z</time>
      </trkpt>
      <trkpt lat="45.75821" lon="5.71334">
        <ele>235</ele>
        <time>2017-05-26T11:38:56Z</time>
      </trkpt>
      <trkpt lat="45.75819" lon="5.71332">
        <ele>235</ele>
        <time>2017-05-26T11:38:56Z</time>
      </trkpt>
      <trkpt lat="45.75816" lon="5.71326">
        <ele>235</ele>
        <time>2017-05-26T11:38:56Z</time>
      </trkpt>
      <trkpt lat="45.75811" lon="5.71318">
        <ele>235</ele>
        <time>2017-05-26T11:38:56Z</time>
      </trkpt>
      <trkpt lat="45.75809" lon="5.71309">
        <ele>235</ele>
        <time>2017-05-26T11:39:12Z</time>
      </trkpt>
      <trkpt lat="45.75805" lon="5.713">
        <ele>235</ele>
        <time>2017-05-26T11:39:12Z</time>
      </trkpt>
      <trkpt lat="45.75802" lon="5.71291">
        <ele>236</ele>
        <time>2017-05-26T11:39:12Z</time>
      </trkpt>
      <trkpt lat="45.75799" lon="5.71282">
        <ele>236</ele>
        <time>2017-05-26T11:39:12Z</time>
      </trkpt>
      <trkpt lat="45.75796" lon="5.71275">
        <ele>236</ele>
        <time>2017-05-26T11:39:28Z</time>
      </trkpt>
      <trkpt lat="45.75791" lon="5.71268">
        <ele>234</ele>
        <time>2017-05-26T11:39:28Z</time>
      </trkpt>
      <trkpt lat="45.75789" lon="5.71259">
        <ele>234</ele>
        <time>2017-05-26T11:39:28Z</time>
      </trkpt>
      <trkpt lat="45.75788" lon="5.7125">
        <ele>234</ele>
        <time>2017-05-26T11:39:28Z</time>
      </trkpt>
      <trkpt lat="45.75787" lon="5.71242">
        <ele>234</ele>
        <time>2017-05-26T11:39:44Z</time>
      </trkpt>
      <trkpt lat="45.75784" lon="5.71235">
        <ele>234</ele>
        <time>2017-05-26T11:39:44Z</time>
      </trkpt>
      <trkpt lat="45.7578" lon="5.71227">
        <ele>234</ele>
        <time>2017-05-26T11:39:44Z</time>
      </trkpt>
      <trkpt lat="45.75776" lon="5.71219">
        <ele>234</ele>
        <time>2017-05-26T11:39:44Z</time>
      </trkpt>
      <trkpt lat="45.75772" lon="5.7121">
        <ele>234</ele>
        <time>2017-05-26T11:40:00Z</time>
      </trkpt>
      <trkpt lat="45.75769" lon="5.71204">
        <ele>234</ele>
        <time>2017-05-26T11:40:00Z</time>
      </trkpt>
      <trkpt lat="45.75765" lon="5.712">
        <ele>234</ele>
        <time>2017-05-26T11:40:00Z</time>
      </trkpt>
      <trkpt lat="45.75762" lon="5.71194">
        <ele>234</ele>
        <time>2017-05-26T11:40:00Z</time>
      </trkpt>
      <trkpt lat="45.75759" lon="5.71188">
        <ele>234</ele>
        <time>2017-05-26T11:40:16Z</time>
      </trkpt>
      <trkpt lat="45.75755" lon="5.71182">
        <ele>234</ele>
        <time>2017-05-26T11:40:16Z</time>
      </trkpt>
      <trkpt lat="45.75752" lon="5.71174">
        <ele>234</ele>
        <time>2017-05-26T11:40:16Z</time>
      </trkpt>
      <trkpt lat="45.75749" lon="5.71166">
        <ele>234</ele>
        <time>2017-05-26T11:40:16Z</time>
      </trkpt>
      <trkpt lat="45.75745" lon="5.7116">
        <ele>234</ele>
        <time>2017-05-26T11:40:32Z</time>
      </trkpt>
      <trkpt lat="45.75741" lon="5.71153">
        <ele>234</ele>
        <time>2017-05-26T11:40:32Z</time>
      </trkpt>
      <trkpt lat="45.75737" lon="5.71148">
        <ele>234</ele>
        <time>2017-05-26T11:40:32Z</time>
      </trkpt>
      <trkpt lat="45.75733" lon="5.71142">
        <ele>234</ele>
        <time>2017-05-26T11:40:32Z</time>
      </trkpt>
      <trkpt lat="45.75729" lon="5.71136">
        <ele>234</ele>
        <time>2017-05-26T11:40:48Z</time>
      </trkpt>
      <trkpt lat="45.75724" lon="5.71131">
        <ele>234</ele>
        <time>2017-05-26T11:40:48Z</time>
      </trkpt>
      <trkpt lat="45.75718" lon="5.71129">
        <ele>234</ele>
        <time>2017-05-26T11:40:48Z</time>
      </trkpt>
      <trkpt lat="45.75713" lon="5.71125">
        <ele>234</ele>
        <time>2017-05-26T11:40:48Z</time>
      </trkpt>
      <trkpt lat="45.75708" lon="5.71121">
        <ele>235</ele>
        <time>2017-05-26T11:41:04Z</time>
      </trkpt>
      <trkpt lat="45.75703" lon="5.71116">
        <ele>233</ele>
        <time>2017-05-26T11:41:04Z</time>
      </trkpt>
      <trkpt lat="45.75697" lon="5.71111">
        <ele>233</ele>
        <time>2017-05-26T11:41:04Z</time>
      </trkpt>
      <trkpt lat="45.75692" lon="5.71104">
        <ele>233</ele>
        <time>2017-05-26T11:41:04Z</time>
      </trkpt>
      <trkpt lat="45.75689" lon="5.71097">
        <ele>233</ele>
        <time>2017-05-26T11:41:20Z</time>
      </trkpt>
      <trkpt lat="45.75686" lon="5.7109">
        <ele>233</ele>
        <time>2017-05-26T11:41:20Z</time>
      </trkpt>
      <trkpt lat="45.75684" lon="5.71083">
        <ele>233</ele>
        <time>2017-05-26T11:41:20Z</time>
      </trkpt>
      <trkpt lat="45.7568" lon="5.71075">
        <ele>233</ele>
        <time>2017-05-26T11:41:20Z</time>
      </trkpt>
      <trkpt lat="45.75677" lon="5.71069">
        <ele>233</ele>
        <time>2017-05-26T11:41:36Z</time>
      </trkpt>
      <trkpt lat="45.75673" lon="5.71061">
        <ele>233</ele>
        <time>2017-05-26T11:41:36Z</time>
      </trkpt>
      <trkpt lat="45.7567" lon="5.71055">
        <ele>233</ele>
        <time>2017-05-26T11:41:36Z</time>
      </trkpt>
      <trkpt lat="45.75666" lon="5.71049">
        <ele>233</ele>
        <time>2017-05-26T11:41:36Z</time>
      </trkpt>
      <trkpt lat="45.75662" lon="5.71042">
        <ele>233</ele>
        <time>2017-05-26T11:41:52Z</time>
      </trkpt>
      <trkpt lat="45.7566" lon="5.71034">
        <ele>233</ele>
        <time>2017-05-26T11:41:52Z</time>
      </trkpt>
      <trkpt lat="45.75657" lon="5.71026">
        <ele>233</ele>
        <time>2017-05-26T11:41:52Z</time>
      </trkpt>
      <trkpt lat="45.75654" lon="5.71017">
        <ele>233</ele>
        <time>2017-05-26T11:41:52Z</time>
      </trkpt>
      <trkpt lat="45.7565" lon="5.71009">
        <ele>233</ele>
        <time>2017-05-26T11:42:08Z</time>
      </trkpt>
      <trkpt lat="45.75646" lon="5.71002">
        <ele>233</ele>
        <time>2017-05-26T11:42:08Z</time>
      </trkpt>
      <trkpt lat="45.75644" lon="5.70994">
        <ele>233</ele>
        <time>2017-05-26T11:42:08Z</time>
      </trkpt>
      <trkpt lat="45.7564" lon="5.70989">
        <ele>233</ele>
        <time>2017-05-26T11:42:08Z</time>
      </trkpt>
      <trkpt lat="45.75637" lon="5.70982">
        <ele>233</ele>
        <time>2017-05-26T11:42:24Z</time>
      </trkpt>
      <trkpt lat="45.75634" lon="5.70975">
        <ele>233</ele>
        <time>2017-05-26T11:42:24Z</time>
      </trkpt>
      <trkpt lat="45.75632" lon="5.70967">
        <ele>233</ele>
        <time>2017-05-26T11:42:24Z</time>
      </trkpt>
      <trkpt lat="45.7563" lon="5.70958">
        <ele>233</ele>
        <time>2017-05-26T11:42:24Z</time>
      </trkpt>
      <trkpt lat="45.75627" lon="5.70951">
        <ele>234</ele>
        <time>2017-05-26T11:42:40Z</time>
      </trkpt>
      <trkpt lat="45.75625" lon="5.70944">
        <ele>234</ele>
        <time>2017-05-26T11:42:40Z</time>
      </trkpt>
      <trkpt lat="45.75624" lon="5.70937">
        <ele>233</ele>
        <time>2017-05-26T11:42:40Z</time>
      </trkpt>
      <trkpt lat="45.75622" lon="5.70929">
        <ele>233</ele>
        <time>2017-05-26T11:42:40Z</time>
      </trkpt>
      <trkpt lat="45.75622" lon="5.70921">
        <ele>233</ele>
        <time>2017-05-26T11:42:56Z</time>
      </trkpt>
      <trkpt lat="45.75621" lon="5.70915">
        <ele>233</ele>
        <time>2017-05-26T11:42:56Z</time>
      </trkpt>
      <trkpt lat="45.75621" lon="5.7091">
        <ele>233</ele>
        <time>2017-05-26T11:42:56Z</time>
      </trkpt>
      <trkpt lat="45.75622" lon="5.70902">
        <ele>233</ele>
        <time>2017-05-26T11:42:56Z</time>
      </trkpt>
      <trkpt lat="45.75623" lon="5.70895">
        <ele>233</ele>
        <time>2017-05-26T11:43:20Z</time>
      </trkpt>
      <trkpt lat="45.75624" lon="5.70895">
        <ele>233</ele>
        <time>2017-05-26T11:43:20Z</time>
      </trkpt>
      <trkpt lat="45.75623" lon="5.70891">
        <ele>233</ele>
        <time>2017-05-26T11:43:20Z</time>
      </trkpt>
      <trkpt lat="45.75622" lon="5.70884">
        <ele>233</ele>
        <time>2017-05-26T11:43:20Z</time>
      </trkpt>
      <trkpt lat="45.7562" lon="5.70877">
        <ele>233</ele>
        <time>2017-05-26T11:43:20Z</time>
      </trkpt>
      <trkpt lat="45.75617" lon="5.70873">
        <ele>231</ele>
        <time>2017-05-26T11:43:36Z</time>
      </trkpt>
      <trkpt lat="45.75612" lon="5.70868">
        <ele>231</ele>
        <time>2017-05-26T11:43:36Z</time>
      </trkpt>
      <trkpt lat="45.75608" lon="5.7086">
        <ele>231</ele>
        <time>2017-05-26T11:43:36Z</time>
      </trkpt>
      <trkpt lat="45.75605" lon="5.70852">
        <ele>231</ele>
        <time>2017-05-26T11:43:36Z</time>
      </trkpt>
      <trkpt lat="45.75601" lon="5.70845">
        <ele>231</ele>
        <time>2017-05-26T11:43:52Z</time>
      </trkpt>
      <trkpt lat="45.75598" lon="5.70837">
        <ele>231</ele>
        <time>2017-05-26T11:43:52Z</time>
      </trkpt>
      <trkpt lat="45.75595" lon="5.70829">
        <ele>231</ele>
        <time>2017-05-26T11:43:52Z</time>
      </trkpt>
      <trkpt lat="45.75592" lon="5.70821">
        <ele>231</ele>
        <time>2017-05-26T11:43:52Z</time>
      </trkpt>
      <trkpt lat="45.75588" lon="5.70814">
        <ele>231</ele>
        <time>2017-05-26T11:44:08Z</time>
      </trkpt>
      <trkpt lat="45.75584" lon="5.70807">
        <ele>231</ele>
        <time>2017-05-26T11:44:08Z</time>
      </trkpt>
      <trkpt lat="45.7558" lon="5.708">
        <ele>231</ele>
        <time>2017-05-26T11:44:08Z</time>
      </trkpt>
      <trkpt lat="45.75576" lon="5.70793">
        <ele>231</ele>
        <time>2017-05-26T11:44:08Z</time>
      </trkpt>
      <trkpt lat="45.75572" lon="5.70786">
        <ele>233</ele>
        <time>2017-05-26T11:44:24Z</time>
      </trkpt>
      <trkpt lat="45.75568" lon="5.7078">
        <ele>233</ele>
        <time>2017-05-26T11:44:24Z</time>
      </trkpt>
      <trkpt lat="45.75563" lon="5.70777">
        <ele>233</ele>
        <time>2017-05-26T11:44:24Z</time>
      </trkpt>
      <trkpt lat="45.75557" lon="5.70772">
        <ele>233</ele>
        <time>2017-05-26T11:44:24Z</time>
      </trkpt>
      <trkpt lat="45.75551" lon="5.7077">
        <ele>233</ele>
        <time>2017-05-26T11:44:40Z</time>
      </trkpt>
      <trkpt lat="45.75545" lon="5.70769">
        <ele>233</ele>
        <time>2017-05-26T11:44:40Z</time>
      </trkpt>
      <trkpt lat="45.75538" lon="5.7077">
        <ele>233</ele>
        <time>2017-05-26T11:44:40Z</time>
      </trkpt>
      <trkpt lat="45.75532" lon="5.70772">
        <ele>233</ele>
        <time>2017-05-26T11:44:40Z</time>
      </trkpt>
      <trkpt lat="45.75527" lon="5.70775">
        <ele>233</ele>
        <time>2017-05-26T11:44:56Z</time>
      </trkpt>
      <trkpt lat="45.75522" lon="5.70777">
        <ele>233</ele>
        <time>2017-05-26T11:44:56Z</time>
      </trkpt>
      <trkpt lat="45.75516" lon="5.7078">
        <ele>233</ele>
        <time>2017-05-26T11:44:56Z</time>
      </trkpt>
      <trkpt lat="45.75513" lon="5.70779">
        <ele>233</ele>
        <time>2017-05-26T11:44:56Z</time>
      </trkpt>
      <trkpt lat="45.7551" lon="5.7078">
        <ele>233</ele>
        <time>2017-05-26T11:45:12Z</time>
      </trkpt>
      <trkpt lat="45.75507" lon="5.70782">
        <ele>233</ele>
        <time>2017-05-26T11:45:12Z</time>
      </trkpt>
      <trkpt lat="45.75501" lon="5.7078">
        <ele>233</ele>
        <time>2017-05-26T11:45:12Z</time>
      </trkpt>
      <trkpt lat="45.75495" lon="5.70774">
        <ele>233</ele>
        <time>2017-05-26T11:45:12Z</time>
      </trkpt>
      <trkpt lat="45.75491" lon="5.70768">
        <ele>233</ele>
        <time>2017-05-26T11:45:28Z</time>
      </trkpt>
      <trkpt lat="45.75489" lon="5.7076">
        <ele>233</ele>
        <time>2017-05-26T11:45:28Z</time>
      </trkpt>
      <trkpt lat="45.75486" lon="5.70753">
        <ele>233</ele>
        <time>2017-05-26T11:45:28Z</time>
      </trkpt>
      <trkpt lat="45.75485" lon="5.70746">
        <ele>233</ele>
        <time>2017-05-26T11:45:28Z</time>
      </trkpt>
      <trkpt lat="45.75486" lon="5.70738">
        <ele>233</ele>
        <time>2017-05-26T11:45:48Z</time>
      </trkpt>
      <trkpt lat="45.75487" lon="5.70735">
        <ele>233</ele>
        <time>2017-05-26T11:45:48Z</time>
      </trkpt>
      <trkpt lat="45.75487" lon="5.70732">
        <ele>233</ele>
        <time>2017-05-26T11:45:48Z</time>
      </trkpt>
      <trkpt lat="45.75491" lon="5.70729">
        <ele>233</ele>
        <time>2017-05-26T11:45:48Z</time>
      </trkpt>
      <trkpt lat="45.75496" lon="5.70726">
        <ele>233</ele>
        <time>2017-05-26T11:45:48Z</time>
      </trkpt>
      <trkpt lat="45.75499" lon="5.70725">
        <ele>233</ele>
        <time>2017-05-26T11:46:04Z</time>
      </trkpt>
      <trkpt lat="45.75503" lon="5.70723">
        <ele>233</ele>
        <time>2017-05-26T11:46:04Z</time>
      </trkpt>
      <trkpt lat="45.75507" lon="5.7072">
        <ele>233</ele>
        <time>2017-05-26T11:46:04Z</time>
      </trkpt>
      <trkpt lat="45.7551" lon="5.70718">
        <ele>233</ele>
        <time>2017-05-26T11:46:04Z</time>
      </trkpt>
      <trkpt lat="45.75509" lon="5.70718">
        <ele>233</ele>
        <time>2017-05-26T11:46:20Z</time>
      </trkpt>
      <trkpt lat="45.75512" lon="5.70712">
        <ele>233</ele>
        <time>2017-05-26T11:46:20Z</time>
      </trkpt>
      <trkpt lat="45.75512" lon="5.70705">
        <ele>230</ele>
        <time>2017-05-26T11:46:20Z</time>
      </trkpt>
      <trkpt lat="45.75511" lon="5.70698">
        <ele>230</ele>
        <time>2017-05-26T11:46:20Z</time>
      </trkpt>
      <trkpt lat="45.75508" lon="5.70691">
        <ele>230</ele>
        <time>2017-05-26T11:46:36Z</time>
      </trkpt>
      <trkpt lat="45.75505" lon="5.70686">
        <ele>230</ele>
        <time>2017-05-26T11:46:36Z</time>
      </trkpt>
      <trkpt lat="45.75501" lon="5.70681">
        <ele>230</ele>
        <time>2017-05-26T11:46:36Z</time>
      </trkpt>
      <trkpt lat="45.75499" lon="5.70674">
        <ele>230</ele>
        <time>2017-05-26T11:46:36Z</time>
      </trkpt>
      <trkpt lat="45.75501" lon="5.70668">
        <ele>230</ele>
        <time>2017-05-26T11:46:52Z</time>
      </trkpt>
      <trkpt lat="45.75498" lon="5.70661">
        <ele>230</ele>
        <time>2017-05-26T11:46:52Z</time>
      </trkpt>
      <trkpt lat="45.75495" lon="5.70654">
        <ele>230</ele>
        <time>2017-05-26T11:46:52Z</time>
      </trkpt>
      <trkpt lat="45.7549" lon="5.70648">
        <ele>230</ele>
        <time>2017-05-26T11:46:52Z</time>
      </trkpt>
      <trkpt lat="45.75486" lon="5.70642">
        <ele>230</ele>
        <time>2017-05-26T11:47:08Z</time>
      </trkpt>
      <trkpt lat="45.7548" lon="5.70636">
        <ele>230</ele>
        <time>2017-05-26T11:47:08Z</time>
      </trkpt>
      <trkpt lat="45.75475" lon="5.70631">
        <ele>230</ele>
        <time>2017-05-26T11:47:08Z</time>
      </trkpt>
      <trkpt lat="45.75471" lon="5.70625">
        <ele>230</ele>
        <time>2017-05-26T11:47:08Z</time>
      </trkpt>
      <trkpt lat="45.75467" lon="5.7062">
        <ele>229</ele>
        <time>2017-05-26T11:47:24Z</time>
      </trkpt>
      <trkpt lat="45.75464" lon="5.70613">
        <ele>229</ele>
        <time>2017-05-26T11:47:24Z</time>
      </trkpt>
      <trkpt lat="45.75461" lon="5.70609">
        <ele>229</ele>
        <time>2017-05-26T11:47:24Z</time>
      </trkpt>
      <trkpt lat="45.75458" lon="5.70605">
        <ele>229</ele>
        <time>2017-05-26T11:47:24Z</time>
      </trkpt>
      <trkpt lat="45.75454" lon="5.70599">
        <ele>229</ele>
        <time>2017-05-26T11:47:40Z</time>
      </trkpt>
      <trkpt lat="45.75449" lon="5.70592">
        <ele>229</ele>
        <time>2017-05-26T11:47:40Z</time>
      </trkpt>
      <trkpt lat="45.75445" lon="5.70585">
        <ele>229</ele>
        <time>2017-05-26T11:47:40Z</time>
      </trkpt>
      <trkpt lat="45.7544" lon="5.70578">
        <ele>229</ele>
        <time>2017-05-26T11:47:40Z</time>
      </trkpt>
      <trkpt lat="45.75435" lon="5.70572">
        <ele>229</ele>
        <time>2017-05-26T11:47:56Z</time>
      </trkpt>
      <trkpt lat="45.7543" lon="5.70565">
        <ele>229</ele>
        <time>2017-05-26T11:47:56Z</time>
      </trkpt>
      <trkpt lat="45.75425" lon="5.7056">
        <ele>229</ele>
        <time>2017-05-26T11:47:56Z</time>
      </trkpt>
      <trkpt lat="45.7542" lon="5.70554">
        <ele>229</ele>
        <time>2017-05-26T11:47:56Z</time>
      </trkpt>
      <trkpt lat="45.75417" lon="5.70549">
        <ele>229</ele>
        <time>2017-05-26T11:48:12Z</time>
      </trkpt>
      <trkpt lat="45.75413" lon="5.70543">
        <ele>229</ele>
        <time>2017-05-26T11:48:12Z</time>
      </trkpt>
      <trkpt lat="45.75409" lon="5.70537">
        <ele>228</ele>
        <time>2017-05-26T11:48:12Z</time>
      </trkpt>
      <trkpt lat="45.75405" lon="5.70532">
        <ele>228</ele>
        <time>2017-05-26T11:48:12Z</time>
      </trkpt>
      <trkpt lat="45.754" lon="5.70527">
        <ele>228</ele>
        <time>2017-05-26T11:48:28Z</time>
      </trkpt>
      <trkpt lat="45.75394" lon="5.70521">
        <ele>228</ele>
        <time>2017-05-26T11:48:28Z</time>
      </trkpt>
      <trkpt lat="45.75389" lon="5.70515">
        <ele>228</ele>
        <time>2017-05-26T11:48:28Z</time>
      </trkpt>
      <trkpt lat="45.75385" lon="5.70508">
        <ele>228</ele>
        <time>2017-05-26T11:48:28Z</time>
      </trkpt>
      <trkpt lat="45.75381" lon="5.70502">
        <ele>228</ele>
        <time>2017-05-26T11:48:44Z</time>
      </trkpt>
      <trkpt lat="45.75378" lon="5.70498">
        <ele>228</ele>
        <time>2017-05-26T11:48:44Z</time>
      </trkpt>
      <trkpt lat="45.75372" lon="5.70492">
        <ele>228</ele>
        <time>2017-05-26T11:48:44Z</time>
      </trkpt>
      <trkpt lat="45.75369" lon="5.70487">
        <ele>228</ele>
        <time>2017-05-26T11:48:44Z</time>
      </trkpt>
      <trkpt lat="45.75366" lon="5.70481">
        <ele>228</ele>
        <time>2017-05-26T11:49:00Z</time>
      </trkpt>
      <trkpt lat="45.75362" lon="5.70476">
        <ele>228</ele>
        <time>2017-05-26T11:49:00Z</time>
      </trkpt>
      <trkpt lat="45.75356" lon="5.70472">
        <ele>228</ele>
        <time>2017-05-26T11:49:00Z</time>
      </trkpt>
      <trkpt lat="45.75351" lon="5.70471">
        <ele>228</ele>
        <time>2017-05-26T11:49:00Z</time>
      </trkpt>
      <trkpt lat="45.75346" lon="5.70467">
        <ele>228</ele>
        <time>2017-05-26T11:49:16Z</time>
      </trkpt>
      <trkpt lat="45.75341" lon="5.70462">
        <ele>228</ele>
        <time>2017-05-26T11:49:16Z</time>
      </trkpt>
      <trkpt lat="45.75336" lon="5.70456">
        <ele>229</ele>
        <time>2017-05-26T11:49:16Z</time>
      </trkpt>
      <trkpt lat="45.75331" lon="5.70448">
        <ele>229</ele>
        <time>2017-05-26T11:49:16Z</time>
      </trkpt>
      <trkpt lat="45.75325" lon="5.70443">
        <ele>229</ele>
        <time>2017-05-26T11:49:32Z</time>
      </trkpt>
      <trkpt lat="45.75321" lon="5.70441">
        <ele>229</ele>
        <time>2017-05-26T11:49:32Z</time>
      </trkpt>
      <trkpt lat="45.75316" lon="5.7044">
        <ele>229</ele>
        <time>2017-05-26T11:49:32Z</time>
      </trkpt>
      <trkpt lat="45.75311" lon="5.70437">
        <ele>229</ele>
        <time>2017-05-26T11:49:32Z</time>
      </trkpt>
      <trkpt lat="45.75306" lon="5.70432">
        <ele>229</ele>
        <time>2017-05-26T11:49:48Z</time>
      </trkpt>
      <trkpt lat="45.75302" lon="5.70428">
        <ele>229</ele>
        <time>2017-05-26T11:49:48Z</time>
      </trkpt>
      <trkpt lat="45.75297" lon="5.70423">
        <ele>229</ele>
        <time>2017-05-26T11:49:48Z</time>
      </trkpt>
      <trkpt lat="45.75291" lon="5.7042">
        <ele>231</ele>
        <time>2017-05-26T11:49:48Z</time>
      </trkpt>
      <trkpt lat="45.75285" lon="5.70416">
        <ele>231</ele>
        <time>2017-05-26T11:50:04Z</time>
      </trkpt>
      <trkpt lat="45.7528" lon="5.70411">
        <ele>231</ele>
        <time>2017-05-26T11:50:04Z</time>
      </trkpt>
      <trkpt lat="45.75274" lon="5.70406">
        <ele>231</ele>
        <time>2017-05-26T11:50:04Z</time>
      </trkpt>
      <trkpt lat="45.75268" lon="5.70401">
        <ele>231</ele>
        <time>2017-05-26T11:50:04Z</time>
      </trkpt>
      <trkpt lat="45.75255" lon="5.70392">
        <ele>231</ele>
        <time>2017-05-26T11:50:20Z</time>
      </trkpt>
      <trkpt lat="45.75241" lon="5.70387">
        <ele>231</ele>
        <time>2017-05-26T11:50:20Z</time>
      </trkpt>
      <trkpt lat="45.75227" lon="5.70379">
        <ele>231</ele>
        <time>2017-05-26T11:50:20Z</time>
      </trkpt>
      <trkpt lat="45.75213" lon="5.70372">
        <ele>234</ele>
        <time>2017-05-26T11:50:20Z</time>
      </trkpt>
      <trkpt lat="45.75199" lon="5.70365">
        <ele>232</ele>
        <time>2017-05-26T11:50:36Z</time>
      </trkpt>
      <trkpt lat="45.75183" lon="5.70357">
        <ele>232</ele>
        <time>2017-05-26T11:50:36Z</time>
      </trkpt>
      <trkpt lat="45.75168" lon="5.70354">
        <ele>232</ele>
        <time>2017-05-26T11:50:36Z</time>
      </trkpt>
      <trkpt lat="45.75152" lon="5.70351">
        <ele>232</ele>
        <time>2017-05-26T11:50:36Z</time>
      </trkpt>
      <trkpt lat="45.75147" lon="5.70348">
        <ele>232</ele>
        <time>2017-05-26T11:50:52Z</time>
      </trkpt>
      <trkpt lat="45.75141" lon="5.70345">
        <ele>232</ele>
        <time>2017-05-26T11:50:52Z</time>
      </trkpt>
      <trkpt lat="45.75134" lon="5.70341">
        <ele>232</ele>
        <time>2017-05-26T11:50:52Z</time>
      </trkpt>
      <trkpt lat="45.75128" lon="5.70335">
        <ele>232</ele>
        <time>2017-05-26T11:50:52Z</time>
      </trkpt>
      <trkpt lat="45.75121" lon="5.70333">
        <ele>229</ele>
        <time>2017-05-26T11:51:08Z</time>
      </trkpt>
      <trkpt lat="45.75112" lon="5.70333">
        <ele>229</ele>
        <time>2017-05-26T11:51:08Z</time>
      </trkpt>
      <trkpt lat="45.75104" lon="5.70334">
        <ele>229</ele>
        <time>2017-05-26T11:51:08Z</time>
      </trkpt>
      <trkpt lat="45.75097" lon="5.70335">
        <ele>229</ele>
        <time>2017-05-26T11:51:08Z</time>
      </trkpt>
      <trkpt lat="45.75092" lon="5.70334">
        <ele>229</ele>
        <time>2017-05-26T11:51:24Z</time>
      </trkpt>
      <trkpt lat="45.75086" lon="5.70333">
        <ele>229</ele>
        <time>2017-05-26T11:51:24Z</time>
      </trkpt>
      <trkpt lat="45.7508" lon="5.70333">
        <ele>229</ele>
        <time>2017-05-26T11:51:24Z</time>
      </trkpt>
      <trkpt lat="45.75073" lon="5.70332">
        <ele>229</ele>
        <time>2017-05-26T11:51:24Z</time>
      </trkpt>
      <trkpt lat="45.75066" lon="5.70332">
        <ele>229</ele>
        <time>2017-05-26T11:51:40Z</time>
      </trkpt>
      <trkpt lat="45.7506" lon="5.70332">
        <ele>229</ele>
        <time>2017-05-26T11:51:40Z</time>
      </trkpt>
      <trkpt lat="45.75055" lon="5.70331">
        <ele>229</ele>
        <time>2017-05-26T11:51:40Z</time>
      </trkpt>
      <trkpt lat="45.75049" lon="5.7033">
        <ele>229</ele>
        <time>2017-05-26T11:51:40Z</time>
      </trkpt>
      <trkpt lat="45.75043" lon="5.7033">
        <ele>229</ele>
        <time>2017-05-26T11:51:56Z</time>
      </trkpt>
      <trkpt lat="45.75037" lon="5.70331">
        <ele>228</ele>
        <time>2017-05-26T11:51:56Z</time>
      </trkpt>
      <trkpt lat="45.75032" lon="5.70332">
        <ele>228</ele>
        <time>2017-05-26T11:51:56Z</time>
      </trkpt>
      <trkpt lat="45.75026" lon="5.70332">
        <ele>228</ele>
        <time>2017-05-26T11:51:56Z</time>
      </trkpt>
      <trkpt lat="45.7502" lon="5.70333">
        <ele>228</ele>
        <time>2017-05-26T11:52:12Z</time>
      </trkpt>
      <trkpt lat="45.75014" lon="5.70332">
        <ele>228</ele>
        <time>2017-05-26T11:52:12Z</time>
      </trkpt>
      <trkpt lat="45.75009" lon="5.70332">
        <ele>228</ele>
        <time>2017-05-26T11:52:12Z</time>
      </trkpt>
      <trkpt lat="45.75002" lon="5.70331">
        <ele>228</ele>
        <time>2017-05-26T11:52:12Z</time>
      </trkpt>
      <trkpt lat="45.74996" lon="5.70329">
        <ele>228</ele>
        <time>2017-05-26T11:52:28Z</time>
      </trkpt>
      <trkpt lat="45.7499" lon="5.70328">
        <ele>228</ele>
        <time>2017-05-26T11:52:28Z</time>
      </trkpt>
      <trkpt lat="45.74984" lon="5.70327">
        <ele>228</ele>
        <time>2017-05-26T11:52:28Z</time>
      </trkpt>
      <trkpt lat="45.74977" lon="5.70326">
        <ele>228</ele>
        <time>2017-05-26T11:52:28Z</time>
      </trkpt>
      <trkpt lat="45.74971" lon="5.70322">
        <ele>228</ele>
        <time>2017-05-26T11:52:44Z</time>
      </trkpt>
      <trkpt lat="45.74965" lon="5.70318">
        <ele>228</ele>
        <time>2017-05-26T11:52:44Z</time>
      </trkpt>
      <trkpt lat="45.7496" lon="5.70316">
        <ele>228</ele>
        <time>2017-05-26T11:52:44Z</time>
      </trkpt>
      <trkpt lat="45.74956" lon="5.70314">
        <ele>233</ele>
        <time>2017-05-26T11:52:44Z</time>
      </trkpt>
      <trkpt lat="45.74951" lon="5.70309">
        <ele>233</ele>
        <time>2017-05-26T11:53:00Z</time>
      </trkpt>
      <trkpt lat="45.74947" lon="5.70304">
        <ele>233</ele>
        <time>2017-05-26T11:53:00Z</time>
      </trkpt>
      <trkpt lat="45.74943" lon="5.70297">
        <ele>233</ele>
        <time>2017-05-26T11:53:00Z</time>
      </trkpt>
      <trkpt lat="45.7494" lon="5.70291">
        <ele>230</ele>
        <time>2017-05-26T11:53:00Z</time>
      </trkpt>
      <trkpt lat="45.74936" lon="5.70285">
        <ele>230</ele>
        <time>2017-05-26T11:53:16Z</time>
      </trkpt>
      <trkpt lat="45.74933" lon="5.70278">
        <ele>230</ele>
        <time>2017-05-26T11:53:16Z</time>
      </trkpt>
      <trkpt lat="45.7493" lon="5.70272">
        <ele>230</ele>
        <time>2017-05-26T11:53:16Z</time>
      </trkpt>
      <trkpt lat="45.74926" lon="5.70266">
        <ele>230</ele>
        <time>2017-05-26T11:53:16Z</time>
      </trkpt>
      <trkpt lat="45.74923" lon="5.70257">
        <ele>230</ele>
        <time>2017-05-26T11:53:32Z</time>
      </trkpt>
      <trkpt lat="45.74921" lon="5.70247">
        <ele>230</ele>
        <time>2017-05-26T11:53:32Z</time>
      </trkpt>
      <trkpt lat="45.74918" lon="5.70239">
        <ele>230</ele>
        <time>2017-05-26T11:53:32Z</time>
      </trkpt>
      <trkpt lat="45.74914" lon="5.70233">
        <ele>230</ele>
        <time>2017-05-26T11:53:32Z</time>
      </trkpt>
      <trkpt lat="45.74909" lon="5.70228">
        <ele>230</ele>
        <time>2017-05-26T11:53:48Z</time>
      </trkpt>
      <trkpt lat="45.74906" lon="5.70221">
        <ele>230</ele>
        <time>2017-05-26T11:53:48Z</time>
      </trkpt>
      <trkpt lat="45.74903" lon="5.70216">
        <ele>230</ele>
        <time>2017-05-26T11:53:48Z</time>
      </trkpt>
      <trkpt lat="45.749" lon="5.70207">
        <ele>233</ele>
        <time>2017-05-26T11:53:48Z</time>
      </trkpt>
      <trkpt lat="45.74896" lon="5.70201">
        <ele>233</ele>
        <time>2017-05-26T11:54:04Z</time>
      </trkpt>
      <trkpt lat="45.74892" lon="5.70196">
        <ele>233</ele>
        <time>2017-05-26T11:54:04Z</time>
      </trkpt>
      <trkpt lat="45.74887" lon="5.70192">
        <ele>233</ele>
        <time>2017-05-26T11:54:04Z</time>
      </trkpt>
      <trkpt lat="45.74882" lon="5.70187">
        <ele>233</ele>
        <time>2017-05-26T11:54:04Z</time>
      </trkpt>
      <trkpt lat="45.74877" lon="5.70183">
        <ele>233</ele>
        <time>2017-05-26T11:54:20Z</time>
      </trkpt>
      <trkpt lat="45.74871" lon="5.70178">
        <ele>229</ele>
        <time>2017-05-26T11:54:20Z</time>
      </trkpt>
      <trkpt lat="45.74866" lon="5.70172">
        <ele>229</ele>
        <time>2017-05-26T11:54:20Z</time>
      </trkpt>
      <trkpt lat="45.74859" lon="5.70168">
        <ele>229</ele>
        <time>2017-05-26T11:54:20Z</time>
      </trkpt>
      <trkpt lat="45.74852" lon="5.70163">
        <ele>229</ele>
        <time>2017-05-26T11:54:36Z</time>
      </trkpt>
      <trkpt lat="45.74846" lon="5.70161">
        <ele>229</ele>
        <time>2017-05-26T11:54:36Z</time>
      </trkpt>
      <trkpt lat="45.74841" lon="5.70157">
        <ele>229</ele>
        <time>2017-05-26T11:54:36Z</time>
      </trkpt>
      <trkpt lat="45.74836" lon="5.70155">
        <ele>229</ele>
        <time>2017-05-26T11:54:36Z</time>
      </trkpt>
      <trkpt lat="45.74831" lon="5.70153">
        <ele>229</ele>
        <time>2017-05-26T11:54:52Z</time>
      </trkpt>
      <trkpt lat="45.74826" lon="5.70151">
        <ele>229</ele>
        <time>2017-05-26T11:54:52Z</time>
      </trkpt>
      <trkpt lat="45.7482" lon="5.70149">
        <ele>229</ele>
        <time>2017-05-26T11:54:52Z</time>
      </trkpt>
      <trkpt lat="45.74814" lon="5.70149">
        <ele>229</ele>
        <time>2017-05-26T11:54:52Z</time>
      </trkpt>
      <trkpt lat="45.74808" lon="5.70148">
        <ele>229</ele>
        <time>2017-05-26T11:55:08Z</time>
      </trkpt>
      <trkpt lat="45.74801" lon="5.70148">
        <ele>229</ele>
        <time>2017-05-26T11:55:08Z</time>
      </trkpt>
      <trkpt lat="45.74796" lon="5.70148">
        <ele>229</ele>
        <time>2017-05-26T11:55:08Z</time>
      </trkpt>
      <trkpt lat="45.74794" lon="5.70148">
        <ele>229</ele>
        <time>2017-05-26T11:55:08Z</time>
      </trkpt>
      <trkpt lat="45.74788" lon="5.7015">
        <ele>231</ele>
        <time>2017-05-26T11:55:24Z</time>
      </trkpt>
      <trkpt lat="45.74782" lon="5.70153">
        <ele>231</ele>
        <time>2017-05-26T11:55:24Z</time>
      </trkpt>
      <trkpt lat="45.74775" lon="5.70154">
        <ele>231</ele>
        <time>2017-05-26T11:55:24Z</time>
      </trkpt>
      <trkpt lat="45.7477" lon="5.70156">
        <ele>231</ele>
        <time>2017-05-26T11:55:24Z</time>
      </trkpt>
      <trkpt lat="45.74765" lon="5.7016">
        <ele>231</ele>
        <time>2017-05-26T11:55:40Z</time>
      </trkpt>
      <trkpt lat="45.7476" lon="5.70164">
        <ele>231</ele>
        <time>2017-05-26T11:55:40Z</time>
      </trkpt>
      <trkpt lat="45.74755" lon="5.70169">
        <ele>231</ele>
        <time>2017-05-26T11:55:40Z</time>
      </trkpt>
      <trkpt lat="45.7475" lon="5.70175">
        <ele>231</ele>
        <time>2017-05-26T11:55:40Z</time>
      </trkpt>
      <trkpt lat="45.74746" lon="5.70181">
        <ele>231</ele>
        <time>2017-05-26T11:55:56Z</time>
      </trkpt>
      <trkpt lat="45.74742" lon="5.70187">
        <ele>231</ele>
        <time>2017-05-26T11:55:56Z</time>
      </trkpt>
      <trkpt lat="45.74737" lon="5.70193">
        <ele>231</ele>
        <time>2017-05-26T11:55:56Z</time>
      </trkpt>
      <trkpt lat="45.74732" lon="5.70199">
        <ele>231</ele>
        <time>2017-05-26T11:55:56Z</time>
      </trkpt>
      <trkpt lat="45.74728" lon="5.70205">
        <ele>231</ele>
        <time>2017-05-26T11:56:12Z</time>
      </trkpt>
      <trkpt lat="45.74722" lon="5.70209">
        <ele>233</ele>
        <time>2017-05-26T11:56:12Z</time>
      </trkpt>
      <trkpt lat="45.74718" lon="5.70215">
        <ele>233</ele>
        <time>2017-05-26T11:56:12Z</time>
      </trkpt>
      <trkpt lat="45.74713" lon="5.70218">
        <ele>233</ele>
        <time>2017-05-26T11:56:12Z</time>
      </trkpt>
      <trkpt lat="45.74708" lon="5.70221">
        <ele>233</ele>
        <time>2017-05-26T11:56:28Z</time>
      </trkpt>
      <trkpt lat="45.74704" lon="5.70225">
        <ele>230</ele>
        <time>2017-05-26T11:56:28Z</time>
      </trkpt>
      <trkpt lat="45.74698" lon="5.70229">
        <ele>230</ele>
        <time>2017-05-26T11:56:28Z</time>
      </trkpt>
      <trkpt lat="45.74693" lon="5.70233">
        <ele>230</ele>
        <time>2017-05-26T11:56:28Z</time>
      </trkpt>
      <trkpt lat="45.74689" lon="5.70238">
        <ele>230</ele>
        <time>2017-05-26T11:56:44Z</time>
      </trkpt>
      <trkpt lat="45.74684" lon="5.70243">
        <ele>230</ele>
        <time>2017-05-26T11:56:44Z</time>
      </trkpt>
      <trkpt lat="45.74679" lon="5.70247">
        <ele>230</ele>
        <time>2017-05-26T11:56:44Z</time>
      </trkpt>
      <trkpt lat="45.74672" lon="5.70249">
        <ele>230</ele>
        <time>2017-05-26T11:56:44Z</time>
      </trkpt>
      <trkpt lat="45.74667" lon="5.70251">
        <ele>230</ele>
        <time>2017-05-26T11:57:00Z</time>
      </trkpt>
      <trkpt lat="45.74661" lon="5.70252">
        <ele>230</ele>
        <time>2017-05-26T11:57:00Z</time>
      </trkpt>
      <trkpt lat="45.74656" lon="5.70256">
        <ele>230</ele>
        <time>2017-05-26T11:57:00Z</time>
      </trkpt>
      <trkpt lat="45.74652" lon="5.70259">
        <ele>230</ele>
        <time>2017-05-26T11:57:00Z</time>
      </trkpt>
      <trkpt lat="45.74647" lon="5.70264">
        <ele>230</ele>
        <time>2017-05-26T11:57:16Z</time>
      </trkpt>
      <trkpt lat="45.74642" lon="5.70267">
        <ele>230</ele>
        <time>2017-05-26T11:57:16Z</time>
      </trkpt>
      <trkpt lat="45.74637" lon="5.7027">
        <ele>230</ele>
        <time>2017-05-26T11:57:16Z</time>
      </trkpt>
      <trkpt lat="45.74632" lon="5.70271">
        <ele>230</ele>
        <time>2017-05-26T11:57:16Z</time>
      </trkpt>
      <trkpt lat="45.74627" lon="5.70275">
        <ele>230</ele>
        <time>2017-05-26T11:57:32Z</time>
      </trkpt>
      <trkpt lat="45.74621" lon="5.70276">
        <ele>229</ele>
        <time>2017-05-26T11:57:32Z</time>
      </trkpt>
      <trkpt lat="45.74615" lon="5.70279">
        <ele>229</ele>
        <time>2017-05-26T11:57:32Z</time>
      </trkpt>
      <trkpt lat="45.74609" lon="5.70281">
        <ele>229</ele>
        <time>2017-05-26T11:57:32Z</time>
      </trkpt>
      <trkpt lat="45.74602" lon="5.70284">
        <ele>229</ele>
        <time>2017-05-26T11:57:48Z</time>
      </trkpt>
      <trkpt lat="45.74597" lon="5.70286">
        <ele>229</ele>
        <time>2017-05-26T11:57:48Z</time>
      </trkpt>
      <trkpt lat="45.74592" lon="5.70289">
        <ele>229</ele>
        <time>2017-05-26T11:57:48Z</time>
      </trkpt>
      <trkpt lat="45.74587" lon="5.7029">
        <ele>229</ele>
        <time>2017-05-26T11:57:48Z</time>
      </trkpt>
      <trkpt lat="45.7458" lon="5.70287">
        <ele>229</ele>
        <time>2017-05-26T11:58:04Z</time>
      </trkpt>
      <trkpt lat="45.74574" lon="5.70284">
        <ele>229</ele>
        <time>2017-05-26T11:58:04Z</time>
      </trkpt>
      <trkpt lat="45.74568" lon="5.70284">
        <ele>229</ele>
        <time>2017-05-26T11:58:04Z</time>
      </trkpt>
      <trkpt lat="45.74562" lon="5.70285">
        <ele>229</ele>
        <time>2017-05-26T11:58:04Z</time>
      </trkpt>
      <trkpt lat="45.74556" lon="5.70282">
        <ele>229</ele>
        <time>2017-05-26T11:58:20Z</time>
      </trkpt>
      <trkpt lat="45.7455" lon="5.70281">
        <ele>229</ele>
        <time>2017-05-26T11:58:20Z</time>
      </trkpt>
      <trkpt lat="45.74545" lon="5.70281">
        <ele>229</ele>
        <time>2017-05-26T11:58:20Z</time>
      </trkpt>
      <trkpt lat="45.74539" lon="5.70283">
        <ele>230</ele>
        <time>2017-05-26T11:58:20Z</time>
      </trkpt>
      <trkpt lat="45.74533" lon="5.70282">
        <ele>230</ele>
        <time>2017-05-26T11:58:36Z</time>
      </trkpt>
      <trkpt lat="45.74527" lon="5.70281">
        <ele>230</ele>
        <time>2017-05-26T11:58:36Z</time>
      </trkpt>
      <trkpt lat="45.74521" lon="5.70278">
        <ele>230</ele>
        <time>2017-05-26T11:58:36Z</time>
      </trkpt>
      <trkpt lat="45.74515" lon="5.70277">
        <ele>230</ele>
        <time>2017-05-26T11:58:36Z</time>
      </trkpt>
      <trkpt lat="45.74509" lon="5.70275">
        <ele>230</ele>
        <time>2017-05-26T11:58:52Z</time>
      </trkpt>
      <trkpt lat="45.74504" lon="5.70274">
        <ele>230</ele>
        <time>2017-05-26T11:58:52Z</time>
      </trkpt>
      <trkpt lat="45.74498" lon="5.70274">
        <ele>230</ele>
        <time>2017-05-26T11:58:52Z</time>
      </trkpt>
      <trkpt lat="45.74493" lon="5.70279">
        <ele>230</ele>
        <time>2017-05-26T11:58:52Z</time>
      </trkpt>
      <trkpt lat="45.74487" lon="5.70281">
        <ele>230</ele>
        <time>2017-05-26T11:59:12Z</time>
      </trkpt>
      <trkpt lat="45.74482" lon="5.70278">
        <ele>230</ele>
        <time>2017-05-26T11:59:12Z</time>
      </trkpt>
      <trkpt lat="45.74482" lon="5.70277">
        <ele>230</ele>
        <time>2017-05-26T11:59:12Z</time>
      </trkpt>
      <trkpt lat="45.74482" lon="5.70273">
        <ele>230</ele>
        <time>2017-05-26T11:59:12Z</time>
      </trkpt>
      <trkpt lat="45.7448" lon="5.70269">
        <ele>230</ele>
        <time>2017-05-26T11:59:12Z</time>
      </trkpt>
      <trkpt lat="45.74475" lon="5.70268">
        <ele>230</ele>
        <time>2017-05-26T11:59:28Z</time>
      </trkpt>
      <trkpt lat="45.74471" lon="5.70268">
        <ele>230</ele>
        <time>2017-05-26T11:59:28Z</time>
      </trkpt>
      <trkpt lat="45.74465" lon="5.70267">
        <ele>230</ele>
        <time>2017-05-26T11:59:28Z</time>
      </trkpt>
      <trkpt lat="45.74459" lon="5.70266">
        <ele>230</ele>
        <time>2017-05-26T11:59:28Z</time>
      </trkpt>
      <trkpt lat="45.74453" lon="5.70265">
        <ele>228</ele>
        <time>2017-05-26T11:59:44Z</time>
      </trkpt>
      <trkpt lat="45.74446" lon="5.70264">
        <ele>228</ele>
        <time>2017-05-26T11:59:44Z</time>
      </trkpt>
      <trkpt lat="45.74441" lon="5.70262">
        <ele>228</ele>
        <time>2017-05-26T11:59:44Z</time>
      </trkpt>
      <trkpt lat="45.74435" lon="5.70262">
        <ele>228</ele>
        <time>2017-05-26T11:59:44Z</time>
      </trkpt>
      <trkpt lat="45.74429" lon="5.7026">
        <ele>228</ele>
        <time>2017-05-26T12:00:00Z</time>
      </trkpt>
      <trkpt lat="45.74422" lon="5.7026">
        <ele>228</ele>
        <time>2017-05-26T12:00:00Z</time>
      </trkpt>
      <trkpt lat="45.74416" lon="5.7026">
        <ele>228</ele>
        <time>2017-05-26T12:00:00Z</time>
      </trkpt>
      <trkpt lat="45.74411" lon="5.70259">
        <ele>228</ele>
        <time>2017-05-26T12:00:00Z</time>
      </trkpt>
      <trkpt lat="45.74401" lon="5.70256">
        <ele>228</ele>
        <time>2017-05-26T12:00:16Z</time>
      </trkpt>
      <trkpt lat="45.74379" lon="5.70251">
        <ele>228</ele>
        <time>2017-05-26T12:00:16Z</time>
      </trkpt>
      <trkpt lat="45.7436" lon="5.70252">
        <ele>226</ele>
        <time>2017-05-26T12:00:16Z</time>
      </trkpt>
      <trkpt lat="45.74341" lon="5.70251">
        <ele>226</ele>
        <time>2017-05-26T12:00:16Z</time>
      </trkpt>
      <trkpt lat="45.74324" lon="5.70249">
        <ele>226</ele>
        <time>2017-05-26T12:00:32Z</time>
      </trkpt>
      <trkpt lat="45.74306" lon="5.70248">
        <ele>226</ele>
        <time>2017-05-26T12:00:32Z</time>
      </trkpt>
      <trkpt lat="45.74286" lon="5.70246">
        <ele>227</ele>
        <time>2017-05-26T12:00:32Z</time>
      </trkpt>
      <trkpt lat="45.74265" lon="5.70246">
        <ele>227</ele>
        <time>2017-05-26T12:00:32Z</time>
      </trkpt>
      <trkpt lat="45.74247" lon="5.70241">
        <ele>227</ele>
        <time>2017-05-26T12:00:48Z</time>
      </trkpt>
      <trkpt lat="45.74229" lon="5.70239">
        <ele>227</ele>
        <time>2017-05-26T12:00:48Z</time>
      </trkpt>
      <trkpt lat="45.74209" lon="5.70239">
        <ele>227</ele>
        <time>2017-05-26T12:00:48Z</time>
      </trkpt>
      <trkpt lat="45.74188" lon="5.70239">
        <ele>228</ele>
        <time>2017-05-26T12:00:48Z</time>
      </trkpt>
      <trkpt lat="45.74166" lon="5.70243">
        <ele>228</ele>
        <time>2017-05-26T12:01:04Z</time>
      </trkpt>
      <trkpt lat="45.74143" lon="5.70247">
        <ele>228</ele>
        <time>2017-05-26T12:01:04Z</time>
      </trkpt>
      <trkpt lat="45.7412" lon="5.70253">
        <ele>229</ele>
        <time>2017-05-26T12:01:04Z</time>
      </trkpt>
      <trkpt lat="45.74101" lon="5.70259">
        <ele>229</ele>
        <time>2017-05-26T12:01:04Z</time>
      </trkpt>
      <trkpt lat="45.74082" lon="5.70272">
        <ele>229</ele>
        <time>2017-05-26T12:01:20Z</time>
      </trkpt>
      <trkpt lat="45.74063" lon="5.70282">
        <ele>229</ele>
        <time>2017-05-26T12:01:20Z</time>
      </trkpt>
      <trkpt lat="45.74047" lon="5.7029">
        <ele>229</ele>
        <time>2017-05-26T12:01:20Z</time>
      </trkpt>
      <trkpt lat="45.74037" lon="5.70298">
        <ele>231</ele>
        <time>2017-05-26T12:01:20Z</time>
      </trkpt>
      <trkpt lat="45.74032" lon="5.70303">
        <ele>231</ele>
        <time>2017-05-26T12:01:36Z</time>
      </trkpt>
      <trkpt lat="45.74028" lon="5.70311">
        <ele>231</ele>
        <time>2017-05-26T12:01:36Z</time>
      </trkpt>
      <trkpt lat="45.74024" lon="5.70318">
        <ele>231</ele>
        <time>2017-05-26T12:01:36Z</time>
      </trkpt>
      <trkpt lat="45.74023" lon="5.70322">
        <ele>231</ele>
        <time>2017-05-26T12:01:36Z</time>
      </trkpt>
      <trkpt lat="45.74019" lon="5.7033">
        <ele>231</ele>
        <time>2017-05-26T12:01:52Z</time>
      </trkpt>
      <trkpt lat="45.74012" lon="5.70334">
        <ele>231</ele>
        <time>2017-05-26T12:01:52Z</time>
      </trkpt>
      <trkpt lat="45.74007" lon="5.70338">
        <ele>231</ele>
        <time>2017-05-26T12:01:52Z</time>
      </trkpt>
      <trkpt lat="45.74003" lon="5.70343">
        <ele>231</ele>
        <time>2017-05-26T12:01:52Z</time>
      </trkpt>
      <trkpt lat="45.73998" lon="5.70348">
        <ele>231</ele>
        <time>2017-05-26T12:02:08Z</time>
      </trkpt>
      <trkpt lat="45.73993" lon="5.70354">
        <ele>231</ele>
        <time>2017-05-26T12:02:08Z</time>
      </trkpt>
      <trkpt lat="45.73988" lon="5.70359">
        <ele>231</ele>
        <time>2017-05-26T12:02:08Z</time>
      </trkpt>
      <trkpt lat="45.73983" lon="5.70364">
        <ele>231</ele>
        <time>2017-05-26T12:02:08Z</time>
      </trkpt>
      <trkpt lat="45.73978" lon="5.7037">
        <ele>231</ele>
        <time>2017-05-26T12:02:24Z</time>
      </trkpt>
      <trkpt lat="45.73973" lon="5.70375">
        <ele>229</ele>
        <time>2017-05-26T12:02:24Z</time>
      </trkpt>
      <trkpt lat="45.73968" lon="5.7038">
        <ele>229</ele>
        <time>2017-05-26T12:02:24Z</time>
      </trkpt>
      <trkpt lat="45.73964" lon="5.70384">
        <ele>229</ele>
        <time>2017-05-26T12:02:24Z</time>
      </trkpt>
      <trkpt lat="45.7396" lon="5.7039">
        <ele>229</ele>
        <time>2017-05-26T12:02:40Z</time>
      </trkpt>
      <trkpt lat="45.73955" lon="5.70394">
        <ele>228</ele>
        <time>2017-05-26T12:02:40Z</time>
      </trkpt>
      <trkpt lat="45.7395" lon="5.70399">
        <ele>228</ele>
        <time>2017-05-26T12:02:40Z</time>
      </trkpt>
      <trkpt lat="45.73945" lon="5.70403">
        <ele>228</ele>
        <time>2017-05-26T12:02:40Z</time>
      </trkpt>
      <trkpt lat="45.73939" lon="5.70406">
        <ele>228</ele>
        <time>2017-05-26T12:02:56Z</time>
      </trkpt>
      <trkpt lat="45.73934" lon="5.7041">
        <ele>228</ele>
        <time>2017-05-26T12:02:56Z</time>
      </trkpt>
      <trkpt lat="45.73927" lon="5.70413">
        <ele>228</ele>
        <time>2017-05-26T12:02:56Z</time>
      </trkpt>
      <trkpt lat="45.73921" lon="5.70415">
        <ele>228</ele>
        <time>2017-05-26T12:02:56Z</time>
      </trkpt>
      <trkpt lat="45.73916" lon="5.70414">
        <ele>228</ele>
        <time>2017-05-26T12:03:12Z</time>
      </trkpt>
      <trkpt lat="45.7391" lon="5.70414">
        <ele>228</ele>
        <time>2017-05-26T12:03:12Z</time>
      </trkpt>
      <trkpt lat="45.73905" lon="5.70416">
        <ele>228</ele>
        <time>2017-05-26T12:03:12Z</time>
      </trkpt>
      <trkpt lat="45.73899" lon="5.70418">
        <ele>228</ele>
        <time>2017-05-26T12:03:12Z</time>
      </trkpt>
      <trkpt lat="45.73893" lon="5.70421">
        <ele>228</ele>
        <time>2017-05-26T12:03:28Z</time>
      </trkpt>
      <trkpt lat="45.73887" lon="5.70421">
        <ele>228</ele>
        <time>2017-05-26T12:03:28Z</time>
      </trkpt>
      <trkpt lat="45.73881" lon="5.70417">
        <ele>228</ele>
        <time>2017-05-26T12:03:28Z</time>
      </trkpt>
      <trkpt lat="45.73876" lon="5.70414">
        <ele>228</ele>
        <time>2017-05-26T12:03:28Z</time>
      </trkpt>
      <trkpt lat="45.7387" lon="5.70411">
        <ele>231</ele>
        <time>2017-05-26T12:03:44Z</time>
      </trkpt>
      <trkpt lat="45.73865" lon="5.70408">
        <ele>231</ele>
        <time>2017-05-26T12:03:44Z</time>
      </trkpt>
      <trkpt lat="45.7386" lon="5.70405">
        <ele>231</ele>
        <time>2017-05-26T12:03:44Z</time>
      </trkpt>
      <trkpt lat="45.73855" lon="5.70404">
        <ele>231</ele>
        <time>2017-05-26T12:03:44Z</time>
      </trkpt>
      <trkpt lat="45.73849" lon="5.70399">
        <ele>231</ele>
        <time>2017-05-26T12:04:00Z</time>
      </trkpt>
      <trkpt lat="45.73844" lon="5.70393">
        <ele>231</ele>
        <time>2017-05-26T12:04:00Z</time>
      </trkpt>
      <trkpt lat="45.73839" lon="5.70387">
        <ele>231</ele>
        <time>2017-05-26T12:04:00Z</time>
      </trkpt>
      <trkpt lat="45.73833" lon="5.70383">
        <ele>231</ele>
        <time>2017-05-26T12:04:00Z</time>
      </trkpt>
      <trkpt lat="45.73828" lon="5.70382">
        <ele>231</ele>
        <time>2017-05-26T12:04:16Z</time>
      </trkpt>
      <trkpt lat="45.73822" lon="5.70384">
        <ele>231</ele>
        <time>2017-05-26T12:04:16Z</time>
      </trkpt>
      <trkpt lat="45.73819" lon="5.70386">
        <ele>231</ele>
        <time>2017-05-26T12:04:16Z</time>
      </trkpt>
      <trkpt lat="45.73815" lon="5.70392">
        <ele>231</ele>
        <time>2017-05-26T12:04:16Z</time>
      </trkpt>
      <trkpt lat="45.73811" lon="5.70399">
        <ele>231</ele>
        <time>2017-05-26T12:04:32Z</time>
      </trkpt>
      <trkpt lat="45.73807" lon="5.70405">
        <ele>231</ele>
        <time>2017-05-26T12:04:32Z</time>
      </trkpt>
      <trkpt lat="45.73803" lon="5.70412">
        <ele>231</ele>
        <time>2017-05-26T12:04:32Z</time>
      </trkpt>
      <trkpt lat="45.738" lon="5.70419">
        <ele>231</ele>
        <time>2017-05-26T12:04:32Z</time>
      </trkpt>
      <trkpt lat="45.73797" lon="5.70425">
        <ele>231</ele>
        <time>2017-05-26T12:04:48Z</time>
      </trkpt>
      <trkpt lat="45.73793" lon="5.70432">
        <ele>231</ele>
        <time>2017-05-26T12:04:48Z</time>
      </trkpt>
      <trkpt lat="45.73789" lon="5.70437">
        <ele>233</ele>
        <time>2017-05-26T12:04:48Z</time>
      </trkpt>
      <trkpt lat="45.73786" lon="5.7044">
        <ele>233</ele>
        <time>2017-05-26T12:04:48Z</time>
      </trkpt>
      <trkpt lat="45.73781" lon="5.70437">
        <ele>233</ele>
        <time>2017-05-26T12:05:04Z</time>
      </trkpt>
      <trkpt lat="45.73777" lon="5.70434">
        <ele>233</ele>
        <time>2017-05-26T12:05:04Z</time>
      </trkpt>
      <trkpt lat="45.73772" lon="5.7043">
        <ele>233</ele>
        <time>2017-05-26T12:05:04Z</time>
      </trkpt>
      <trkpt lat="45.73766" lon="5.70428">
        <ele>233</ele>
        <time>2017-05-26T12:05:04Z</time>
      </trkpt>
      <trkpt lat="45.73761" lon="5.70422">
        <ele>233</ele>
        <time>2017-05-26T12:05:20Z</time>
      </trkpt>
      <trkpt lat="45.7376" lon="5.70414">
        <ele>233</ele>
        <time>2017-05-26T12:05:20Z</time>
      </trkpt>
      <trkpt lat="45.73763" lon="5.70407">
        <ele>233</ele>
        <time>2017-05-26T12:05:20Z</time>
      </trkpt>
      <trkpt lat="45.73765" lon="5.70399">
        <ele>233</ele>
        <time>2017-05-26T12:05:20Z</time>
      </trkpt>
      <trkpt lat="45.7377" lon="5.70393">
        <ele>233</ele>
        <time>2017-05-26T12:05:36Z</time>
      </trkpt>
      <trkpt lat="45.73773" lon="5.70385">
        <ele>233</ele>
        <time>2017-05-26T12:05:36Z</time>
      </trkpt>
      <trkpt lat="45.73777" lon="5.70377">
        <ele>233</ele>
        <time>2017-05-26T12:05:36Z</time>
      </trkpt>
      <trkpt lat="45.73779" lon="5.7037">
        <ele>236</ele>
        <time>2017-05-26T12:05:36Z</time>
      </trkpt>
      <trkpt lat="45.73782" lon="5.70364">
        <ele>236</ele>
        <time>2017-05-26T12:05:52Z</time>
      </trkpt>
      <trkpt lat="45.73786" lon="5.70359">
        <ele>236</ele>
        <time>2017-05-26T12:05:52Z</time>
      </trkpt>
      <trkpt lat="45.73791" lon="5.70353">
        <ele>236</ele>
        <time>2017-05-26T12:05:52Z</time>
      </trkpt>
      <trkpt lat="45.73796" lon="5.70347">
        <ele>240</ele>
        <time>2017-05-26T12:05:52Z</time>
      </trkpt>
      <trkpt lat="45.73801" lon="5.70342">
        <ele>240</ele>
        <time>2017-05-26T12:06:08Z</time>
      </trkpt>
      <trkpt lat="45.73805" lon="5.70337">
        <ele>240</ele>
        <time>2017-05-26T12:06:08Z</time>
      </trkpt>
      <trkpt lat="45.73809" lon="5.70333">
        <ele>240</ele>
        <time>2017-05-26T12:06:08Z</time>
      </trkpt>
      <trkpt lat="45.73811" lon="5.70329">
        <ele>240</ele>
        <time>2017-05-26T12:06:08Z</time>
      </trkpt>
      <trkpt lat="45.73816" lon="5.70339">
        <ele>240</ele>
        <time>2017-05-26T12:06:40Z</time>
      </trkpt>
      <trkpt lat="45.73811" lon="5.70343">
        <ele>240</ele>
        <time>2017-05-26T12:06:40Z</time>
      </trkpt>
      <trkpt lat="45.73806" lon="5.70347">
        <ele>240</ele>
        <time>2017-05-26T12:06:40Z</time>
      </trkpt>
      <trkpt lat="45.73802" lon="5.70351">
        <ele>240</ele>
        <time>2017-05-26T12:06:40Z</time>
      </trkpt>
      <trkpt lat="45.73798" lon="5.70356">
        <ele>240</ele>
        <time>2017-05-26T12:06:40Z</time>
      </trkpt>
      <trkpt lat="45.73795" lon="5.70362">
        <ele>240</ele>
        <time>2017-05-26T12:06:56Z</time>
      </trkpt>
      <trkpt lat="45.73792" lon="5.70369">
        <ele>240</ele>
        <time>2017-05-26T12:06:56Z</time>
      </trkpt>
      <trkpt lat="45.73788" lon="5.70376">
        <ele>233</ele>
        <time>2017-05-26T12:06:56Z</time>
      </trkpt>
      <trkpt lat="45.73785" lon="5.70383">
        <ele>233</ele>
        <time>2017-05-26T12:06:56Z</time>
      </trkpt>
      <trkpt lat="45.73782" lon="5.70391">
        <ele>233</ele>
        <time>2017-05-26T12:07:12Z</time>
      </trkpt>
      <trkpt lat="45.7378" lon="5.70399">
        <ele>233</ele>
        <time>2017-05-26T12:07:12Z</time>
      </trkpt>
      <trkpt lat="45.73777" lon="5.70407">
        <ele>233</ele>
        <time>2017-05-26T12:07:12Z</time>
      </trkpt>
      <trkpt lat="45.73774" lon="5.70415">
        <ele>233</ele>
        <time>2017-05-26T12:07:12Z</time>
      </trkpt>
      <trkpt lat="45.73772" lon="5.70424">
        <ele>233</ele>
        <time>2017-05-26T12:07:28Z</time>
      </trkpt>
      <trkpt lat="45.73769" lon="5.70432">
        <ele>233</ele>
        <time>2017-05-26T12:07:28Z</time>
      </trkpt>
      <trkpt lat="45.73766" lon="5.70441">
        <ele>233</ele>
        <time>2017-05-26T12:07:28Z</time>
      </trkpt>
      <trkpt lat="45.73764" lon="5.7045">
        <ele>233</ele>
        <time>2017-05-26T12:07:28Z</time>
      </trkpt>
      <trkpt lat="45.73761" lon="5.70458">
        <ele>226</ele>
        <time>2017-05-26T12:07:44Z</time>
      </trkpt>
      <trkpt lat="45.73759" lon="5.70467">
        <ele>226</ele>
        <time>2017-05-26T12:07:44Z</time>
      </trkpt>
      <trkpt lat="45.73756" lon="5.70475">
        <ele>226</ele>
        <time>2017-05-26T12:07:44Z</time>
      </trkpt>
      <trkpt lat="45.73753" lon="5.70484">
        <ele>226</ele>
        <time>2017-05-26T12:07:44Z</time>
      </trkpt>
      <trkpt lat="45.7375" lon="5.70492">
        <ele>226</ele>
        <time>2017-05-26T12:08:00Z</time>
      </trkpt>
      <trkpt lat="45.73748" lon="5.705">
        <ele>226</ele>
        <time>2017-05-26T12:08:00Z</time>
      </trkpt>
      <trkpt lat="45.73745" lon="5.70508">
        <ele>226</ele>
        <time>2017-05-26T12:08:00Z</time>
      </trkpt>
      <trkpt lat="45.73742" lon="5.70516">
        <ele>226</ele>
        <time>2017-05-26T12:08:00Z</time>
      </trkpt>
      <trkpt lat="45.73739" lon="5.70524">
        <ele>226</ele>
        <time>2017-05-26T12:08:16Z</time>
      </trkpt>
      <trkpt lat="45.73737" lon="5.70533">
        <ele>226</ele>
        <time>2017-05-26T12:08:16Z</time>
      </trkpt>
      <trkpt lat="45.73734" lon="5.70541">
        <ele>226</ele>
        <time>2017-05-26T12:08:16Z</time>
      </trkpt>
      <trkpt lat="45.73731" lon="5.70549">
        <ele>236</ele>
        <time>2017-05-26T12:08:16Z</time>
      </trkpt>
      <trkpt lat="45.73727" lon="5.70556">
        <ele>236</ele>
        <time>2017-05-26T12:08:32Z</time>
      </trkpt>
      <trkpt lat="45.73724" lon="5.70564">
        <ele>236</ele>
        <time>2017-05-26T12:08:32Z</time>
      </trkpt>
      <trkpt lat="45.73721" lon="5.70571">
        <ele>236</ele>
        <time>2017-05-26T12:08:32Z</time>
      </trkpt>
      <trkpt lat="45.73718" lon="5.70579">
        <ele>236</ele>
        <time>2017-05-26T12:08:32Z</time>
      </trkpt>
      <trkpt lat="45.73715" lon="5.70587">
        <ele>236</ele>
        <time>2017-05-26T12:08:48Z</time>
      </trkpt>
      <trkpt lat="45.73711" lon="5.70595">
        <ele>236</ele>
        <time>2017-05-26T12:08:48Z</time>
      </trkpt>
      <trkpt lat="45.73709" lon="5.70603">
        <ele>236</ele>
        <time>2017-05-26T12:08:48Z</time>
      </trkpt>
      <trkpt lat="45.73706" lon="5.70611">
        <ele>243</ele>
        <time>2017-05-26T12:08:48Z</time>
      </trkpt>
      <trkpt lat="45.73703" lon="5.70618">
        <ele>243</ele>
        <time>2017-05-26T12:09:04Z</time>
      </trkpt>
      <trkpt lat="45.737" lon="5.70626">
        <ele>248</ele>
        <time>2017-05-26T12:09:04Z</time>
      </trkpt>
      <trkpt lat="45.73697" lon="5.70634">
        <ele>248</ele>
        <time>2017-05-26T12:09:04Z</time>
      </trkpt>
      <trkpt lat="45.73694" lon="5.70642">
        <ele>248</ele>
        <time>2017-05-26T12:09:04Z</time>
      </trkpt>
      <trkpt lat="45.73692" lon="5.70649">
        <ele>248</ele>
        <time>2017-05-26T12:09:20Z</time>
      </trkpt>
      <trkpt lat="45.73688" lon="5.70656">
        <ele>248</ele>
        <time>2017-05-26T12:09:20Z</time>
      </trkpt>
      <trkpt lat="45.73685" lon="5.70662">
        <ele>248</ele>
        <time>2017-05-26T12:09:20Z</time>
      </trkpt>
      <trkpt lat="45.73681" lon="5.70667">
        <ele>248</ele>
        <time>2017-05-26T12:09:20Z</time>
      </trkpt>
      <trkpt lat="45.73677" lon="5.70672">
        <ele>248</ele>
        <time>2017-05-26T12:09:36Z</time>
      </trkpt>
      <trkpt lat="45.73672" lon="5.70676">
        <ele>248</ele>
        <time>2017-05-26T12:09:36Z</time>
      </trkpt>
      <trkpt lat="45.73667" lon="5.7068">
        <ele>248</ele>
        <time>2017-05-26T12:09:36Z</time>
      </trkpt>
      <trkpt lat="45.73661" lon="5.70684">
        <ele>248</ele>
        <time>2017-05-26T12:09:36Z</time>
      </trkpt>
      <trkpt lat="45.73656" lon="5.70687">
        <ele>248</ele>
        <time>2017-05-26T12:09:52Z</time>
      </trkpt>
      <trkpt lat="45.73651" lon="5.70691">
        <ele>248</ele>
        <time>2017-05-26T12:09:52Z</time>
      </trkpt>
      <trkpt lat="45.73645" lon="5.70694">
        <ele>248</ele>
        <time>2017-05-26T12:09:52Z</time>
      </trkpt>
      <trkpt lat="45.73638" lon="5.70695">
        <ele>248</ele>
        <time>2017-05-26T12:09:52Z</time>
      </trkpt>
      <trkpt lat="45.73633" lon="5.7071">
        <ele>250</ele>
        <time>2017-05-26T12:10:28Z</time>
      </trkpt>
      <trkpt lat="45.73634" lon="5.7071">
        <ele>250</ele>
        <time>2017-05-26T12:10:28Z</time>
      </trkpt>
      <trkpt lat="45.73636" lon="5.70711">
        <ele>250</ele>
        <time>2017-05-26T12:10:28Z</time>
      </trkpt>
      <trkpt lat="45.7364" lon="5.70711">
        <ele>250</ele>
        <time>2017-05-26T12:10:28Z</time>
      </trkpt>
      <trkpt lat="45.73643" lon="5.70712">
        <ele>250</ele>
        <time>2017-05-26T12:10:28Z</time>
      </trkpt>
      <trkpt lat="45.73648" lon="5.7071">
        <ele>250</ele>
        <time>2017-05-26T12:10:44Z</time>
      </trkpt>
      <trkpt lat="45.73654" lon="5.70709">
        <ele>250</ele>
        <time>2017-05-26T12:10:44Z</time>
      </trkpt>
      <trkpt lat="45.7366" lon="5.7071">
        <ele>250</ele>
        <time>2017-05-26T12:10:44Z</time>
      </trkpt>
      <trkpt lat="45.73663" lon="5.70709">
        <ele>250</ele>
        <time>2017-05-26T12:10:44Z</time>
      </trkpt>
      <trkpt lat="45.73667" lon="5.70709">
        <ele>250</ele>
        <time>2017-05-26T12:11:00Z</time>
      </trkpt>
      <trkpt lat="45.73672" lon="5.70708">
        <ele>248</ele>
        <time>2017-05-26T12:11:00Z</time>
      </trkpt>
      <trkpt lat="45.73677" lon="5.70705">
        <ele>248</ele>
        <time>2017-05-26T12:11:00Z</time>
      </trkpt>
      <trkpt lat="45.73681" lon="5.70701">
        <ele>248</ele>
        <time>2017-05-26T12:11:00Z</time>
      </trkpt>
      <trkpt lat="45.73685" lon="5.70701">
        <ele>248</ele>
        <time>2017-05-26T12:11:16Z</time>
      </trkpt>
      <trkpt lat="45.7369" lon="5.70701">
        <ele>248</ele>
        <time>2017-05-26T12:11:16Z</time>
      </trkpt>
      <trkpt lat="45.73695" lon="5.70701">
        <ele>248</ele>
        <time>2017-05-26T12:11:16Z</time>
      </trkpt>
      <trkpt lat="45.737" lon="5.70702">
        <ele>248</ele>
        <time>2017-05-26T12:11:16Z</time>
      </trkpt>
      <trkpt lat="45.73706" lon="5.70702">
        <ele>248</ele>
        <time>2017-05-26T12:11:32Z</time>
      </trkpt>
      <trkpt lat="45.73709" lon="5.70706">
        <ele>237</ele>
        <time>2017-05-26T12:11:32Z</time>
      </trkpt>
      <trkpt lat="45.73714" lon="5.70711">
        <ele>242</ele>
        <time>2017-05-26T12:11:32Z</time>
      </trkpt>
      <trkpt lat="45.73717" lon="5.70716">
        <ele>242</ele>
        <time>2017-05-26T12:11:32Z</time>
      </trkpt>
      <trkpt lat="45.7372" lon="5.70719">
        <ele>242</ele>
        <time>2017-05-26T12:11:48Z</time>
      </trkpt>
      <trkpt lat="45.73721" lon="5.70721">
        <ele>242</ele>
        <time>2017-05-26T12:11:48Z</time>
      </trkpt>
      <trkpt lat="45.73725" lon="5.70725">
        <ele>242</ele>
        <time>2017-05-26T12:11:48Z</time>
      </trkpt>
      <trkpt lat="45.7373" lon="5.70729">
        <ele>242</ele>
        <time>2017-05-26T12:11:48Z</time>
      </trkpt>
      <trkpt lat="45.73735" lon="5.70735">
        <ele>242</ele>
        <time>2017-05-26T12:12:04Z</time>
      </trkpt>
      <trkpt lat="45.73738" lon="5.70742">
        <ele>242</ele>
        <time>2017-05-26T12:12:04Z</time>
      </trkpt>
      <trkpt lat="45.73739" lon="5.70748">
        <ele>242</ele>
        <time>2017-05-26T12:12:04Z</time>
      </trkpt>
      <trkpt lat="45.73741" lon="5.70754">
        <ele>242</ele>
        <time>2017-05-26T12:12:04Z</time>
      </trkpt>
      <trkpt lat="45.73741" lon="5.70762">
        <ele>242</ele>
        <time>2017-05-26T12:12:20Z</time>
      </trkpt>
      <trkpt lat="45.73742" lon="5.70768">
        <ele>242</ele>
        <time>2017-05-26T12:12:20Z</time>
      </trkpt>
      <trkpt lat="45.73746" lon="5.70772">
        <ele>242</ele>
        <time>2017-05-26T12:12:20Z</time>
      </trkpt>
      <trkpt lat="45.73751" lon="5.70774">
        <ele>242</ele>
        <time>2017-05-26T12:12:20Z</time>
      </trkpt>
      <trkpt lat="45.73757" lon="5.70772">
        <ele>242</ele>
        <time>2017-05-26T12:12:36Z</time>
      </trkpt>
      <trkpt lat="45.73762" lon="5.70774">
        <ele>242</ele>
        <time>2017-05-26T12:12:36Z</time>
      </trkpt>
      <trkpt lat="45.73768" lon="5.70774">
        <ele>242</ele>
        <time>2017-05-26T12:12:36Z</time>
      </trkpt>
      <trkpt lat="45.73772" lon="5.70773">
        <ele>242</ele>
        <time>2017-05-26T12:12:36Z</time>
      </trkpt>
      <trkpt lat="45.73773" lon="5.70773">
        <ele>242</ele>
        <time>2017-05-26T12:12:52Z</time>
      </trkpt>
      <trkpt lat="45.73777" lon="5.70769">
        <ele>242</ele>
        <time>2017-05-26T12:12:52Z</time>
      </trkpt>
      <trkpt lat="45.73784" lon="5.70765">
        <ele>242</ele>
        <time>2017-05-26T12:12:52Z</time>
      </trkpt>
      <trkpt lat="45.73789" lon="5.70764">
        <ele>242</ele>
        <time>2017-05-26T12:12:52Z</time>
      </trkpt>
      <trkpt lat="45.73789" lon="5.70765">
        <ele>242</ele>
        <time>2017-05-26T12:13:28Z</time>
      </trkpt>
      <trkpt lat="45.73791" lon="5.70765">
        <ele>242</ele>
        <time>2017-05-26T12:13:28Z</time>
      </trkpt>
      <trkpt lat="45.73795" lon="5.70766">
        <ele>240</ele>
        <time>2017-05-26T12:13:28Z</time>
      </trkpt>
      <trkpt lat="45.73799" lon="5.70767">
        <ele>240</ele>
        <time>2017-05-26T12:13:28Z</time>
      </trkpt>
      <trkpt lat="45.73801" lon="5.7077">
        <ele>240</ele>
        <time>2017-05-26T12:13:28Z</time>
      </trkpt>
      <trkpt lat="45.73802" lon="5.70777">
        <ele>240</ele>
        <time>2017-05-26T12:13:44Z</time>
      </trkpt>
      <trkpt lat="45.73806" lon="5.70781">
        <ele>240</ele>
        <time>2017-05-26T12:13:44Z</time>
      </trkpt>
      <trkpt lat="45.73811" lon="5.70785">
        <ele>240</ele>
        <time>2017-05-26T12:13:44Z</time>
      </trkpt>
      <trkpt lat="45.73817" lon="5.70786">
        <ele>240</ele>
        <time>2017-05-26T12:13:44Z</time>
      </trkpt>
      <trkpt lat="45.73822" lon="5.70788">
        <ele>240</ele>
        <time>2017-05-26T12:14:04Z</time>
      </trkpt>
      <trkpt lat="45.73822" lon="5.7079">
        <ele>240</ele>
        <time>2017-05-26T12:14:04Z</time>
      </trkpt>
      <trkpt lat="45.7382" lon="5.70791">
        <ele>240</ele>
        <time>2017-05-26T12:14:04Z</time>
      </trkpt>
      <trkpt lat="45.73819" lon="5.70791">
        <ele>240</ele>
        <time>2017-05-26T12:14:04Z</time>
      </trkpt>
      <trkpt lat="45.73817" lon="5.70801">
        <ele>251</ele>
        <time>2017-05-26T12:14:04Z</time>
      </trkpt>
      <trkpt lat="45.73813" lon="5.70811">
        <ele>251</ele>
        <time>2017-05-26T12:14:20Z</time>
      </trkpt>
      <trkpt lat="45.73809" lon="5.70816">
        <ele>251</ele>
        <time>2017-05-26T12:14:20Z</time>
      </trkpt>
      <trkpt lat="45.73804" lon="5.7082">
        <ele>251</ele>
        <time>2017-05-26T12:14:20Z</time>
      </trkpt>
      <trkpt lat="45.738" lon="5.70824">
        <ele>251</ele>
        <time>2017-05-26T12:14:20Z</time>
      </trkpt>
      <trkpt lat="45.73795" lon="5.7083">
        <ele>251</ele>
        <time>2017-05-26T12:14:36Z</time>
      </trkpt>
      <trkpt lat="45.73791" lon="5.70837">
        <ele>251</ele>
        <time>2017-05-26T12:14:36Z</time>
      </trkpt>
      <trkpt lat="45.73785" lon="5.70841">
        <ele>251</ele>
        <time>2017-05-26T12:14:36Z</time>
      </trkpt>
      <trkpt lat="45.73779" lon="5.70844">
        <ele>251</ele>
        <time>2017-05-26T12:14:36Z</time>
      </trkpt>
      <trkpt lat="45.73773" lon="5.70844">
        <ele>251</ele>
        <time>2017-05-26T12:14:52Z</time>
      </trkpt>
      <trkpt lat="45.73768" lon="5.70846">
        <ele>251</ele>
        <time>2017-05-26T12:14:52Z</time>
      </trkpt>
      <trkpt lat="45.73763" lon="5.70846">
        <ele>251</ele>
        <time>2017-05-26T12:14:52Z</time>
      </trkpt>
      <trkpt lat="45.73758" lon="5.70849">
        <ele>251</ele>
        <time>2017-05-26T12:14:52Z</time>
      </trkpt>
      <trkpt lat="45.73759" lon="5.70856">
        <ele>251</ele>
        <time>2017-05-26T12:15:08Z</time>
      </trkpt>
      <trkpt lat="45.73764" lon="5.70861">
        <ele>251</ele>
        <time>2017-05-26T12:15:08Z</time>
      </trkpt>
      <trkpt lat="45.73768" lon="5.70867">
        <ele>251</ele>
        <time>2017-05-26T12:15:08Z</time>
      </trkpt>
      <trkpt lat="45.73773" lon="5.70872">
        <ele>251</ele>
        <time>2017-05-26T12:15:08Z</time>
      </trkpt>
      <trkpt lat="45.73775" lon="5.70877">
        <ele>259</ele>
        <time>2017-05-26T12:15:24Z</time>
      </trkpt>
      <trkpt lat="45.73778" lon="5.70881">
        <ele>259</ele>
        <time>2017-05-26T12:15:24Z</time>
      </trkpt>
      <trkpt lat="45.73782" lon="5.70885">
        <ele>259</ele>
        <time>2017-05-26T12:15:24Z</time>
      </trkpt>
      <trkpt lat="45.73787" lon="5.70885">
        <ele>259</ele>
        <time>2017-05-26T12:15:24Z</time>
      </trkpt>
      <trkpt lat="45.7379" lon="5.70889">
        <ele>259</ele>
        <time>2017-05-26T12:15:40Z</time>
      </trkpt>
      <trkpt lat="45.73794" lon="5.70893">
        <ele>258</ele>
        <time>2017-05-26T12:15:40Z</time>
      </trkpt>
      <trkpt lat="45.73799" lon="5.70899">
        <ele>258</ele>
        <time>2017-05-26T12:15:40Z</time>
      </trkpt>
      <trkpt lat="45.73803" lon="5.70907">
        <ele>258</ele>
        <time>2017-05-26T12:15:40Z</time>
      </trkpt>
      <trkpt lat="45.73807" lon="5.70914">
        <ele>258</ele>
        <time>2017-05-26T12:15:56Z</time>
      </trkpt>
      <trkpt lat="45.73811" lon="5.70919">
        <ele>258</ele>
        <time>2017-05-26T12:15:56Z</time>
      </trkpt>
      <trkpt lat="45.73815" lon="5.70924">
        <ele>258</ele>
        <time>2017-05-26T12:15:56Z</time>
      </trkpt>
      <trkpt lat="45.7382" lon="5.70927">
        <ele>258</ele>
        <time>2017-05-26T12:15:56Z</time>
      </trkpt>
      <trkpt lat="45.73824" lon="5.70932">
        <ele>258</ele>
        <time>2017-05-26T12:16:12Z</time>
      </trkpt>
      <trkpt lat="45.73828" lon="5.70937">
        <ele>258</ele>
        <time>2017-05-26T12:16:12Z</time>
      </trkpt>
      <trkpt lat="45.73832" lon="5.70942">
        <ele>258</ele>
        <time>2017-05-26T12:16:12Z</time>
      </trkpt>
      <trkpt lat="45.73837" lon="5.70946">
        <ele>258</ele>
        <time>2017-05-26T12:16:12Z</time>
      </trkpt>
      <trkpt lat="45.73842" lon="5.70948">
        <ele>258</ele>
        <time>2017-05-26T12:16:28Z</time>
      </trkpt>
      <trkpt lat="45.73847" lon="5.70952">
        <ele>258</ele>
        <time>2017-05-26T12:16:28Z</time>
      </trkpt>
      <trkpt lat="45.73853" lon="5.70952">
        <ele>258</ele>
        <time>2017-05-26T12:16:28Z</time>
      </trkpt>
      <trkpt lat="45.73858" lon="5.70955">
        <ele>258</ele>
        <time>2017-05-26T12:16:28Z</time>
      </trkpt>
      <trkpt lat="45.73863" lon="5.70959">
        <ele>264</ele>
        <time>2017-05-26T12:16:44Z</time>
      </trkpt>
      <trkpt lat="45.73869" lon="5.70962">
        <ele>264</ele>
        <time>2017-05-26T12:16:44Z</time>
      </trkpt>
      <trkpt lat="45.73874" lon="5.70967">
        <ele>264</ele>
        <time>2017-05-26T12:16:44Z</time>
      </trkpt>
      <trkpt lat="45.73879" lon="5.70971">
        <ele>264</ele>
        <time>2017-05-26T12:16:44Z</time>
      </trkpt>
      <trkpt lat="45.73884" lon="5.70973">
        <ele>264</ele>
        <time>2017-05-26T12:17:00Z</time>
      </trkpt>
      <trkpt lat="45.73889" lon="5.70975">
        <ele>264</ele>
        <time>2017-05-26T12:17:00Z</time>
      </trkpt>
      <trkpt lat="45.73895" lon="5.70978">
        <ele>264</ele>
        <time>2017-05-26T12:17:00Z</time>
      </trkpt>
      <trkpt lat="45.73901" lon="5.7098">
        <ele>264</ele>
        <time>2017-05-26T12:17:00Z</time>
      </trkpt>
      <trkpt lat="45.73906" lon="5.70981">
        <ele>264</ele>
        <time>2017-05-26T12:17:16Z</time>
      </trkpt>
      <trkpt lat="45.7391" lon="5.70983">
        <ele>264</ele>
        <time>2017-05-26T12:17:16Z</time>
      </trkpt>
      <trkpt lat="45.73916" lon="5.70985">
        <ele>264</ele>
        <time>2017-05-26T12:17:16Z</time>
      </trkpt>
      <trkpt lat="45.73921" lon="5.70986">
        <ele>264</ele>
        <time>2017-05-26T12:17:16Z</time>
      </trkpt>
      <trkpt lat="45.73927" lon="5.70988">
        <ele>264</ele>
        <time>2017-05-26T12:17:32Z</time>
      </trkpt>
      <trkpt lat="45.73932" lon="5.7099">
        <ele>264</ele>
        <time>2017-05-26T12:17:32Z</time>
      </trkpt>
      <trkpt lat="45.73938" lon="5.70992">
        <ele>264</ele>
        <time>2017-05-26T12:17:32Z</time>
      </trkpt>
      <trkpt lat="45.73944" lon="5.70992">
        <ele>264</ele>
        <time>2017-05-26T12:17:32Z</time>
      </trkpt>
      <trkpt lat="45.73949" lon="5.70995">
        <ele>264</ele>
        <time>2017-05-26T12:17:48Z</time>
      </trkpt>
      <trkpt lat="45.73954" lon="5.70999">
        <ele>264</ele>
        <time>2017-05-26T12:17:48Z</time>
      </trkpt>
      <trkpt lat="45.73959" lon="5.71002">
        <ele>265</ele>
        <time>2017-05-26T12:17:48Z</time>
      </trkpt>
      <trkpt lat="45.73964" lon="5.71008">
        <ele>265</ele>
        <time>2017-05-26T12:17:48Z</time>
      </trkpt>
      <trkpt lat="45.73966" lon="5.71016">
        <ele>265</ele>
        <time>2017-05-26T12:18:04Z</time>
      </trkpt>
      <trkpt lat="45.73968" lon="5.71023">
        <ele>265</ele>
        <time>2017-05-26T12:18:04Z</time>
      </trkpt>
      <trkpt lat="45.7397" lon="5.71031">
        <ele>265</ele>
        <time>2017-05-26T12:18:04Z</time>
      </trkpt>
      <trkpt lat="45.73969" lon="5.7104">
        <ele>265</ele>
        <time>2017-05-26T12:18:04Z</time>
      </trkpt>
      <trkpt lat="45.73969" lon="5.71047">
        <ele>267</ele>
        <time>2017-05-26T12:18:20Z</time>
      </trkpt>
      <trkpt lat="45.73969" lon="5.71054">
        <ele>267</ele>
        <time>2017-05-26T12:18:20Z</time>
      </trkpt>
      <trkpt lat="45.73968" lon="5.71061">
        <ele>267</ele>
        <time>2017-05-26T12:18:20Z</time>
      </trkpt>
      <trkpt lat="45.73967" lon="5.71069">
        <ele>267</ele>
        <time>2017-05-26T12:18:20Z</time>
      </trkpt>
      <trkpt lat="45.73967" lon="5.71077">
        <ele>267</ele>
        <time>2017-05-26T12:18:36Z</time>
      </trkpt>
      <trkpt lat="45.73967" lon="5.71085">
        <ele>267</ele>
        <time>2017-05-26T12:18:36Z</time>
      </trkpt>
      <trkpt lat="45.73964" lon="5.71092">
        <ele>267</ele>
        <time>2017-05-26T12:18:36Z</time>
      </trkpt>
      <trkpt lat="45.73961" lon="5.71098">
        <ele>267</ele>
        <time>2017-05-26T12:18:36Z</time>
      </trkpt>
      <trkpt lat="45.7396" lon="5.71104">
        <ele>267</ele>
        <time>2017-05-26T12:18:52Z</time>
      </trkpt>
      <trkpt lat="45.7396" lon="5.71113">
        <ele>267</ele>
        <time>2017-05-26T12:18:52Z</time>
      </trkpt>
      <trkpt lat="45.73958" lon="5.71124">
        <ele>269</ele>
        <time>2017-05-26T12:18:52Z</time>
      </trkpt>
      <trkpt lat="45.73956" lon="5.71144">
        <ele>271</ele>
        <time>2017-05-26T12:18:52Z</time>
      </trkpt>
      <trkpt lat="45.73957" lon="5.71168">
        <ele>271</ele>
        <time>2017-05-26T12:19:08Z</time>
      </trkpt>
      <trkpt lat="45.73957" lon="5.71192">
        <ele>271</ele>
        <time>2017-05-26T12:19:08Z</time>
      </trkpt>
      <trkpt lat="45.73959" lon="5.71217">
        <ele>269</ele>
        <time>2017-05-26T12:19:08Z</time>
      </trkpt>
      <trkpt lat="45.73964" lon="5.7124">
        <ele>269</ele>
        <time>2017-05-26T12:19:08Z</time>
      </trkpt>
      <trkpt lat="45.7397" lon="5.71261">
        <ele>269</ele>
        <time>2017-05-26T12:19:24Z</time>
      </trkpt>
      <trkpt lat="45.73974" lon="5.71283">
        <ele>269</ele>
        <time>2017-05-26T12:19:24Z</time>
      </trkpt>
      <trkpt lat="45.73978" lon="5.71305">
        <ele>272</ele>
        <time>2017-05-26T12:19:24Z</time>
      </trkpt>
      <trkpt lat="45.7398" lon="5.71315">
        <ele>272</ele>
        <time>2017-05-26T12:19:24Z</time>
      </trkpt>
      <trkpt lat="45.73979" lon="5.71319">
        <ele>272</ele>
        <time>2017-05-26T12:19:40Z</time>
      </trkpt>
      <trkpt lat="45.73978" lon="5.71326">
        <ele>272</ele>
        <time>2017-05-26T12:19:40Z</time>
      </trkpt>
      <trkpt lat="45.73977" lon="5.71332">
        <ele>272</ele>
        <time>2017-05-26T12:19:40Z</time>
      </trkpt>
      <trkpt lat="45.73972" lon="5.71336">
        <ele>272</ele>
        <time>2017-05-26T12:19:40Z</time>
      </trkpt>
      <trkpt lat="45.73966" lon="5.71336">
        <ele>272</ele>
        <time>2017-05-26T12:19:56Z</time>
      </trkpt>
      <trkpt lat="45.73961" lon="5.71332">
        <ele>272</ele>
        <time>2017-05-26T12:19:56Z</time>
      </trkpt>
      <trkpt lat="45.73956" lon="5.71328">
        <ele>274</ele>
        <time>2017-05-26T12:19:56Z</time>
      </trkpt>
      <trkpt lat="45.73952" lon="5.71325">
        <ele>274</ele>
        <time>2017-05-26T12:19:56Z</time>
      </trkpt>
      <trkpt lat="45.73947" lon="5.71323">
        <ele>274</ele>
        <time>2017-05-26T12:20:12Z</time>
      </trkpt>
      <trkpt lat="45.73942" lon="5.71321">
        <ele>274</ele>
        <time>2017-05-26T12:20:12Z</time>
      </trkpt>
      <trkpt lat="45.73936" lon="5.71321">
        <ele>274</ele>
        <time>2017-05-26T12:20:12Z</time>
      </trkpt>
      <trkpt lat="45.7393" lon="5.71319">
        <ele>274</ele>
        <time>2017-05-26T12:20:12Z</time>
      </trkpt>
      <trkpt lat="45.73924" lon="5.71318">
        <ele>274</ele>
        <time>2017-05-26T12:20:28Z</time>
      </trkpt>
      <trkpt lat="45.73917" lon="5.71314">
        <ele>274</ele>
        <time>2017-05-26T12:20:28Z</time>
      </trkpt>
      <trkpt lat="45.73911" lon="5.71313">
        <ele>274</ele>
        <time>2017-05-26T12:20:28Z</time>
      </trkpt>
      <trkpt lat="45.73905" lon="5.7131">
        <ele>274</ele>
        <time>2017-05-26T12:20:28Z</time>
      </trkpt>
      <trkpt lat="45.73895" lon="5.71307">
        <ele>274</ele>
        <time>2017-05-26T12:20:44Z</time>
      </trkpt>
      <trkpt lat="45.73888" lon="5.71308">
        <ele>274</ele>
        <time>2017-05-26T12:20:44Z</time>
      </trkpt>
      <trkpt lat="45.73882" lon="5.71307">
        <ele>274</ele>
        <time>2017-05-26T12:20:44Z</time>
      </trkpt>
      <trkpt lat="45.73877" lon="5.71309">
        <ele>274</ele>
        <time>2017-05-26T12:20:44Z</time>
      </trkpt>
      <trkpt lat="45.73871" lon="5.7131">
        <ele>280</ele>
        <time>2017-05-26T12:21:00Z</time>
      </trkpt>
      <trkpt lat="45.73866" lon="5.7131">
        <ele>280</ele>
        <time>2017-05-26T12:21:00Z</time>
      </trkpt>
      <trkpt lat="45.73861" lon="5.7131">
        <ele>280</ele>
        <time>2017-05-26T12:21:00Z</time>
      </trkpt>
      <trkpt lat="45.73855" lon="5.71311">
        <ele>280</ele>
        <time>2017-05-26T12:21:00Z</time>
      </trkpt>
      <trkpt lat="45.73849" lon="5.71311">
        <ele>280</ele>
        <time>2017-05-26T12:21:16Z</time>
      </trkpt>
      <trkpt lat="45.73844" lon="5.71311">
        <ele>280</ele>
        <time>2017-05-26T12:21:16Z</time>
      </trkpt>
      <trkpt lat="45.73838" lon="5.71314">
        <ele>280</ele>
        <time>2017-05-26T12:21:16Z</time>
      </trkpt>
      <trkpt lat="45.73833" lon="5.71318">
        <ele>280</ele>
        <time>2017-05-26T12:21:16Z</time>
      </trkpt>
      <trkpt lat="45.73828" lon="5.7132">
        <ele>280</ele>
        <time>2017-05-26T12:21:32Z</time>
      </trkpt>
      <trkpt lat="45.73824" lon="5.71324">
        <ele>280</ele>
        <time>2017-05-26T12:21:32Z</time>
      </trkpt>
      <trkpt lat="45.73819" lon="5.71328">
        <ele>280</ele>
        <time>2017-05-26T12:21:32Z</time>
      </trkpt>
      <trkpt lat="45.73813" lon="5.71332">
        <ele>280</ele>
        <time>2017-05-26T12:21:32Z</time>
      </trkpt>
      <trkpt lat="45.73809" lon="5.71337">
        <ele>280</ele>
        <time>2017-05-26T12:21:48Z</time>
      </trkpt>
      <trkpt lat="45.73805" lon="5.71341">
        <ele>280</ele>
        <time>2017-05-26T12:21:48Z</time>
      </trkpt>
      <trkpt lat="45.73801" lon="5.71345">
        <ele>280</ele>
        <time>2017-05-26T12:21:48Z</time>
      </trkpt>
      <trkpt lat="45.73796" lon="5.7135">
        <ele>280</ele>
        <time>2017-05-26T12:21:48Z</time>
      </trkpt>
      <trkpt lat="45.73793" lon="5.71357">
        <ele>280</ele>
        <time>2017-05-26T12:22:04Z</time>
      </trkpt>
      <trkpt lat="45.7379" lon="5.71363">
        <ele>275</ele>
        <time>2017-05-26T12:22:04Z</time>
      </trkpt>
      <trkpt lat="45.73789" lon="5.71371">
        <ele>275</ele>
        <time>2017-05-26T12:22:04Z</time>
      </trkpt>
      <trkpt lat="45.7379" lon="5.71379">
        <ele>278</ele>
        <time>2017-05-26T12:22:04Z</time>
      </trkpt>
      <trkpt lat="45.73793" lon="5.71385">
        <ele>281</ele>
        <time>2017-05-26T12:22:20Z</time>
      </trkpt>
      <trkpt lat="45.73798" lon="5.71389">
        <ele>281</ele>
        <time>2017-05-26T12:22:20Z</time>
      </trkpt>
      <trkpt lat="45.73803" lon="5.71391">
        <ele>281</ele>
        <time>2017-05-26T12:22:20Z</time>
      </trkpt>
      <trkpt lat="45.73807" lon="5.71397">
        <ele>281</ele>
        <time>2017-05-26T12:22:20Z</time>
      </trkpt>
      <trkpt lat="45.73812" lon="5.71402">
        <ele>281</ele>
        <time>2017-05-26T12:22:36Z</time>
      </trkpt>
      <trkpt lat="45.73817" lon="5.71406">
        <ele>281</ele>
        <time>2017-05-26T12:22:36Z</time>
      </trkpt>
      <trkpt lat="45.73822" lon="5.7141">
        <ele>281</ele>
        <time>2017-05-26T12:22:36Z</time>
      </trkpt>
      <trkpt lat="45.73825" lon="5.71416">
        <ele>281</ele>
        <time>2017-05-26T12:22:36Z</time>
      </trkpt>
      <trkpt lat="45.73827" lon="5.71423">
        <ele>281</ele>
        <time>2017-05-26T12:22:52Z</time>
      </trkpt>
      <trkpt lat="45.73828" lon="5.7143">
        <ele>281</ele>
        <time>2017-05-26T12:22:52Z</time>
      </trkpt>
      <trkpt lat="45.73829" lon="5.71438">
        <ele>281</ele>
        <time>2017-05-26T12:22:52Z</time>
      </trkpt>
      <trkpt lat="45.7383" lon="5.71445">
        <ele>281</ele>
        <time>2017-05-26T12:22:52Z</time>
      </trkpt>
      <trkpt lat="45.73829" lon="5.7145">
        <ele>281</ele>
        <time>2017-05-26T12:23:08Z</time>
      </trkpt>
      <trkpt lat="45.73826" lon="5.71454">
        <ele>281</ele>
        <time>2017-05-26T12:23:08Z</time>
      </trkpt>
      <trkpt lat="45.73823" lon="5.71458">
        <ele>281</ele>
        <time>2017-05-26T12:23:08Z</time>
      </trkpt>
      <trkpt lat="45.73821" lon="5.71463">
        <ele>281</ele>
        <time>2017-05-26T12:23:08Z</time>
      </trkpt>
      <trkpt lat="45.73821" lon="5.7147">
        <ele>281</ele>
        <time>2017-05-26T12:23:24Z</time>
      </trkpt>
      <trkpt lat="45.73819" lon="5.71477">
        <ele>281</ele>
        <time>2017-05-26T12:23:24Z</time>
      </trkpt>
      <trkpt lat="45.73818" lon="5.71484">
        <ele>281</ele>
        <time>2017-05-26T12:23:24Z</time>
      </trkpt>
      <trkpt lat="45.73817" lon="5.7149">
        <ele>281</ele>
        <time>2017-05-26T12:23:24Z</time>
      </trkpt>
      <trkpt lat="45.73815" lon="5.71496">
        <ele>281</ele>
        <time>2017-05-26T12:23:40Z</time>
      </trkpt>
      <trkpt lat="45.73812" lon="5.71501">
        <ele>281</ele>
        <time>2017-05-26T12:23:40Z</time>
      </trkpt>
      <trkpt lat="45.73809" lon="5.71507">
        <ele>281</ele>
        <time>2017-05-26T12:23:40Z</time>
      </trkpt>
      <trkpt lat="45.73807" lon="5.71514">
        <ele>281</ele>
        <time>2017-05-26T12:23:40Z</time>
      </trkpt>
      <trkpt lat="45.73803" lon="5.71521">
        <ele>281</ele>
        <time>2017-05-26T12:23:56Z</time>
      </trkpt>
      <trkpt lat="45.73801" lon="5.71527">
        <ele>281</ele>
        <time>2017-05-26T12:23:56Z</time>
      </trkpt>
      <trkpt lat="45.738" lon="5.71534">
        <ele>281</ele>
        <time>2017-05-26T12:23:56Z</time>
      </trkpt>
      <trkpt lat="45.73801" lon="5.71541">
        <ele>281</ele>
        <time>2017-05-26T12:23:56Z</time>
      </trkpt>
      <trkpt lat="45.73805" lon="5.71548">
        <ele>279</ele>
        <time>2017-05-26T12:24:12Z</time>
      </trkpt>
      <trkpt lat="45.73807" lon="5.71556">
        <ele>279</ele>
        <time>2017-05-26T12:24:12Z</time>
      </trkpt>
      <trkpt lat="45.73806" lon="5.71564">
        <ele>279</ele>
        <time>2017-05-26T12:24:12Z</time>
      </trkpt>
      <trkpt lat="45.73807" lon="5.71566">
        <ele>279</ele>
        <time>2017-05-26T12:24:12Z</time>
      </trkpt>
      <trkpt lat="45.73804" lon="5.71568">
        <ele>279</ele>
        <time>2017-05-26T12:24:44Z</time>
      </trkpt>
      <trkpt lat="45.73804" lon="5.71573">
        <ele>279</ele>
        <time>2017-05-26T12:24:44Z</time>
      </trkpt>
      <trkpt lat="45.73804" lon="5.71579">
        <ele>279</ele>
        <time>2017-05-26T12:24:44Z</time>
      </trkpt>
      <trkpt lat="45.73805" lon="5.71581">
        <ele>279</ele>
        <time>2017-05-26T12:24:44Z</time>
      </trkpt>
      <trkpt lat="45.73804" lon="5.71583">
        <ele>279</ele>
        <time>2017-05-26T12:24:44Z</time>
      </trkpt>
      <trkpt lat="45.73806" lon="5.71575">
        <ele>279</ele>
        <time>2017-05-26T12:26:20Z</time>
      </trkpt>
      <trkpt lat="45.73806" lon="5.71575">
        <ele>279</ele>
        <time>2017-05-26T12:26:20Z</time>
      </trkpt>
      <trkpt lat="45.73806" lon="5.71574">
        <ele>279</ele>
        <time>2017-05-26T12:26:20Z</time>
      </trkpt>
      <trkpt lat="45.73807" lon="5.71573">
        <ele>279</ele>
        <time>2017-05-26T12:26:20Z</time>
      </trkpt>
      <trkpt lat="45.73807" lon="5.71572">
        <ele>279</ele>
        <time>2017-05-26T12:26:20Z</time>
      </trkpt>
      <trkpt lat="45.73803" lon="5.7157">
        <ele>279</ele>
        <time>2017-05-26T12:29:16Z</time>
      </trkpt>
      <trkpt lat="45.73803" lon="5.71571">
        <ele>279</ele>
        <time>2017-05-26T12:29:16Z</time>
      </trkpt>
      <trkpt lat="45.73803" lon="5.71572">
        <ele>279</ele>
        <time>2017-05-26T12:29:16Z</time>
      </trkpt>
      <trkpt lat="45.738" lon="5.71576">
        <ele>279</ele>
        <time>2017-05-26T12:29:16Z</time>
      </trkpt>
      <trkpt lat="45.738" lon="5.71581">
        <ele>279</ele>
        <time>2017-05-26T12:29:16Z</time>
      </trkpt>
      <trkpt lat="45.73797" lon="5.71584">
        <ele>279</ele>
        <time>2017-05-26T12:29:32Z</time>
      </trkpt>
      <trkpt lat="45.73797" lon="5.71588">
        <ele>279</ele>
        <time>2017-05-26T12:29:32Z</time>
      </trkpt>
      <trkpt lat="45.73798" lon="5.71593">
        <ele>279</ele>
        <time>2017-05-26T12:29:32Z</time>
      </trkpt>
      <trkpt lat="45.73798" lon="5.71598">
        <ele>279</ele>
        <time>2017-05-26T12:29:32Z</time>
      </trkpt>
      <trkpt lat="45.73798" lon="5.716">
        <ele>279</ele>
        <time>2017-05-26T14:05:04Z</time>
      </trkpt>
      <trkpt lat="45.73799" lon="5.71597">
        <ele>279</ele>
        <time>2017-05-26T14:05:04Z</time>
      </trkpt>
      <trkpt lat="45.738" lon="5.71594">
        <ele>279</ele>
        <time>2017-05-26T14:05:04Z</time>
      </trkpt>
      <trkpt lat="45.73802" lon="5.71591">
        <ele>279</ele>
        <time>2017-05-26T14:05:04Z</time>
      </trkpt>
      <trkpt lat="45.73803" lon="5.71587">
        <ele>279</ele>
        <time>2017-05-26T14:05:04Z</time>
      </trkpt>
      <trkpt lat="45.73804" lon="5.71583">
        <ele>279</ele>
        <time>2017-05-26T14:05:20Z</time>
      </trkpt>
      <trkpt lat="45.73803" lon="5.71578">
        <ele>279</ele>
        <time>2017-05-26T14:05:20Z</time>
      </trkpt>
      <trkpt lat="45.73802" lon="5.71573">
        <ele>279</ele>
        <time>2017-05-26T14:05:20Z</time>
      </trkpt>
      <trkpt lat="45.73801" lon="5.71568">
        <ele>279</ele>
        <time>2017-05-26T14:05:20Z</time>
      </trkpt>
      <trkpt lat="45.738" lon="5.71562">
        <ele>279</ele>
        <time>2017-05-26T14:05:36Z</time>
      </trkpt>
      <trkpt lat="45.738" lon="5.71557">
        <ele>279</ele>
        <time>2017-05-26T14:05:36Z</time>
      </trkpt>
      <trkpt lat="45.73798" lon="5.71552">
        <ele>279</ele>
        <time>2017-05-26T14:05:36Z</time>
      </trkpt>
      <trkpt lat="45.73797" lon="5.71548">
        <ele>279</ele>
        <time>2017-05-26T14:05:36Z</time>
      </trkpt>
      <trkpt lat="45.73793" lon="5.71546">
        <ele>279</ele>
        <time>2017-05-26T14:06:12Z</time>
      </trkpt>
      <trkpt lat="45.73793" lon="5.71546">
        <ele>279</ele>
        <time>2017-05-26T14:06:12Z</time>
      </trkpt>
      <trkpt lat="45.73793" lon="5.71546">
        <ele>279</ele>
        <time>2017-05-26T14:06:12Z</time>
      </trkpt>
      <trkpt lat="45.73788" lon="5.71552">
        <ele>273</ele>
        <time>2017-05-26T14:06:12Z</time>
      </trkpt>
      <trkpt lat="45.73785" lon="5.71557">
        <ele>273</ele>
        <time>2017-05-26T14:06:12Z</time>
      </trkpt>
      <trkpt lat="45.7378" lon="5.71563">
        <ele>273</ele>
        <time>2017-05-26T14:06:28Z</time>
      </trkpt>
      <trkpt lat="45.73777" lon="5.7157">
        <ele>273</ele>
        <time>2017-05-26T14:06:28Z</time>
      </trkpt>
      <trkpt lat="45.73776" lon="5.71577">
        <ele>273</ele>
        <time>2017-05-26T14:06:28Z</time>
      </trkpt>
      <trkpt lat="45.73774" lon="5.71581">
        <ele>273</ele>
        <time>2017-05-26T14:06:28Z</time>
      </trkpt>
      <trkpt lat="45.73772" lon="5.7158">
        <ele>273</ele>
        <time>2017-05-26T14:07:28Z</time>
      </trkpt>
      <trkpt lat="45.73771" lon="5.71583">
        <ele>273</ele>
        <time>2017-05-26T14:07:28Z</time>
      </trkpt>
      <trkpt lat="45.73768" lon="5.71586">
        <ele>273</ele>
        <time>2017-05-26T14:07:28Z</time>
      </trkpt>
      <trkpt lat="45.73766" lon="5.71591">
        <ele>273</ele>
        <time>2017-05-26T14:07:28Z</time>
      </trkpt>
      <trkpt lat="45.73765" lon="5.71596">
        <ele>273</ele>
        <time>2017-05-26T14:07:28Z</time>
      </trkpt>
      <trkpt lat="45.73763" lon="5.71601">
        <ele>273</ele>
        <time>2017-05-26T14:07:48Z</time>
      </trkpt>
      <trkpt lat="45.73761" lon="5.71606">
        <ele>273</ele>
        <time>2017-05-26T14:07:48Z</time>
      </trkpt>
      <trkpt lat="45.7376" lon="5.7161">
        <ele>273</ele>
        <time>2017-05-26T14:07:48Z</time>
      </trkpt>
      <trkpt lat="45.73761" lon="5.71612">
        <ele>273</ele>
        <time>2017-05-26T14:07:48Z</time>
      </trkpt>
      <trkpt lat="45.73761" lon="5.71616">
        <ele>273</ele>
        <time>2017-05-26T14:07:48Z</time>
      </trkpt>
      <trkpt lat="45.73758" lon="5.7162">
        <ele>273</ele>
        <time>2017-05-26T14:08:08Z</time>
      </trkpt>
      <trkpt lat="45.73758" lon="5.7162">
        <ele>273</ele>
        <time>2017-05-26T14:08:08Z</time>
      </trkpt>
      <trkpt lat="45.73755" lon="5.71621">
        <ele>273</ele>
        <time>2017-05-26T14:08:08Z</time>
      </trkpt>
      <trkpt lat="45.73751" lon="5.71618">
        <ele>273</ele>
        <time>2017-05-26T14:08:08Z</time>
      </trkpt>
      <trkpt lat="45.73748" lon="5.71613">
        <ele>273</ele>
        <time>2017-05-26T14:08:08Z</time>
      </trkpt>
      <trkpt lat="45.73745" lon="5.71614">
        <ele>273</ele>
        <time>2017-05-26T14:08:24Z</time>
      </trkpt>
      <trkpt lat="45.73743" lon="5.71618">
        <ele>273</ele>
        <time>2017-05-26T14:08:24Z</time>
      </trkpt>
      <trkpt lat="45.73743" lon="5.71623">
        <ele>273</ele>
        <time>2017-05-26T14:08:24Z</time>
      </trkpt>
      <trkpt lat="45.73743" lon="5.71627">
        <ele>262</ele>
        <time>2017-05-26T14:08:24Z</time>
      </trkpt>
      <trkpt lat="45.73744" lon="5.71626">
        <ele>262</ele>
        <time>2017-05-26T14:22:00Z</time>
      </trkpt>
      <trkpt lat="45.73745" lon="5.71628">
        <ele>262</ele>
        <time>2017-05-26T14:22:00Z</time>
      </trkpt>
      <trkpt lat="45.7375" lon="5.71628">
        <ele>262</ele>
        <time>2017-05-26T14:22:00Z</time>
      </trkpt>
      <trkpt lat="45.73755" lon="5.71625">
        <ele>262</ele>
        <time>2017-05-26T14:22:00Z</time>
      </trkpt>
      <trkpt lat="45.73757" lon="5.71617">
        <ele>273</ele>
        <time>2017-05-26T14:22:00Z</time>
      </trkpt>
      <trkpt lat="45.7376" lon="5.7161">
        <ele>273</ele>
        <time>2017-05-26T14:22:16Z</time>
      </trkpt>
      <trkpt lat="45.73762" lon="5.71604">
        <ele>273</ele>
        <time>2017-05-26T14:22:16Z</time>
      </trkpt>
      <trkpt lat="45.73762" lon="5.71598">
        <ele>273</ele>
        <time>2017-05-26T14:22:16Z</time>
      </trkpt>
      <trkpt lat="45.73761" lon="5.71594">
        <ele>273</ele>
        <time>2017-05-26T14:22:16Z</time>
      </trkpt>
      <trkpt lat="45.73761" lon="5.71595">
        <ele>273</ele>
        <time>2017-05-26T14:22:36Z</time>
      </trkpt>
      <trkpt lat="45.7376" lon="5.71595">
        <ele>273</ele>
        <time>2017-05-26T14:22:36Z</time>
      </trkpt>
      <trkpt lat="45.73758" lon="5.71596">
        <ele>273</ele>
        <time>2017-05-26T14:22:36Z</time>
      </trkpt>
      <trkpt lat="45.73754" lon="5.71596">
        <ele>273</ele>
        <time>2017-05-26T14:22:36Z</time>
      </trkpt>
      <trkpt lat="45.7375" lon="5.71594">
        <ele>273</ele>
        <time>2017-05-26T14:22:36Z</time>
      </trkpt>
      <trkpt lat="45.73745" lon="5.7159">
        <ele>273</ele>
        <time>2017-05-26T14:22:52Z</time>
      </trkpt>
      <trkpt lat="45.73741" lon="5.71587">
        <ele>273</ele>
        <time>2017-05-26T14:22:52Z</time>
      </trkpt>
      <trkpt lat="45.73738" lon="5.71586">
        <ele>273</ele>
        <time>2017-05-26T14:22:52Z</time>
      </trkpt>
      <trkpt lat="45.73734" lon="5.71586">
        <ele>273</ele>
        <time>2017-05-26T14:22:52Z</time>
      </trkpt>
      <trkpt lat="45.73729" lon="5.71585">
        <ele>273</ele>
        <time>2017-05-26T14:23:08Z</time>
      </trkpt>
      <trkpt lat="45.73724" lon="5.71583">
        <ele>273</ele>
        <time>2017-05-26T14:23:08Z</time>
      </trkpt>
      <trkpt lat="45.7372" lon="5.7158">
        <ele>273</ele>
        <time>2017-05-26T14:23:08Z</time>
      </trkpt>
      <trkpt lat="45.73716" lon="5.71579">
        <ele>273</ele>
        <time>2017-05-26T14:23:08Z</time>
      </trkpt>
      <trkpt lat="45.73713" lon="5.7158">
        <ele>273</ele>
        <time>2017-05-26T14:23:24Z</time>
      </trkpt>
      <trkpt lat="45.73709" lon="5.7158">
        <ele>273</ele>
        <time>2017-05-26T14:23:24Z</time>
      </trkpt>
      <trkpt lat="45.73706" lon="5.7158">
        <ele>269</ele>
        <time>2017-05-26T14:23:24Z</time>
      </trkpt>
      <trkpt lat="45.73701" lon="5.71579">
        <ele>269</ele>
        <time>2017-05-26T14:23:24Z</time>
      </trkpt>
      <trkpt lat="45.73697" lon="5.7158">
        <ele>269</ele>
        <time>2017-05-26T14:23:40Z</time>
      </trkpt>
      <trkpt lat="45.73694" lon="5.7158">
        <ele>269</ele>
        <time>2017-05-26T14:23:40Z</time>
      </trkpt>
      <trkpt lat="45.7369" lon="5.71584">
        <ele>269</ele>
        <time>2017-05-26T14:23:40Z</time>
      </trkpt>
      <trkpt lat="45.73687" lon="5.71588">
        <ele>269</ele>
        <time>2017-05-26T14:23:40Z</time>
      </trkpt>
      <trkpt lat="45.73683" lon="5.71591">
        <ele>269</ele>
        <time>2017-05-26T14:23:56Z</time>
      </trkpt>
      <trkpt lat="45.7368" lon="5.71594">
        <ele>269</ele>
        <time>2017-05-26T14:23:56Z</time>
      </trkpt>
      <trkpt lat="45.73678" lon="5.71598">
        <ele>269</ele>
        <time>2017-05-26T14:23:56Z</time>
      </trkpt>
      <trkpt lat="45.73676" lon="5.71602">
        <ele>269</ele>
        <time>2017-05-26T14:23:56Z</time>
      </trkpt>
      <trkpt lat="45.73675" lon="5.71602">
        <ele>269</ele>
        <time>2017-05-26T14:24:12Z</time>
      </trkpt>
      <trkpt lat="45.73673" lon="5.71604">
        <ele>269</ele>
        <time>2017-05-26T14:24:12Z</time>
      </trkpt>
      <trkpt lat="45.73669" lon="5.71608">
        <ele>269</ele>
        <time>2017-05-26T14:24:12Z</time>
      </trkpt>
      <trkpt lat="45.73664" lon="5.71615">
        <ele>269</ele>
        <time>2017-05-26T14:24:12Z</time>
      </trkpt>
      <trkpt lat="45.73659" lon="5.71619">
        <ele>269</ele>
        <time>2017-05-26T14:24:32Z</time>
      </trkpt>
      <trkpt lat="45.73657" lon="5.71625">
        <ele>269</ele>
        <time>2017-05-26T14:24:32Z</time>
      </trkpt>
      <trkpt lat="45.73657" lon="5.71629">
        <ele>257</ele>
        <time>2017-05-26T14:24:32Z</time>
      </trkpt>
      <trkpt lat="45.73656" lon="5.7163">
        <ele>257</ele>
        <time>2017-05-26T14:24:32Z</time>
      </trkpt>
      <trkpt lat="45.73654" lon="5.71635">
        <ele>257</ele>
        <time>2017-05-26T14:24:32Z</time>
      </trkpt>
      <trkpt lat="45.73652" lon="5.71639">
        <ele>257</ele>
        <time>2017-05-26T14:24:52Z</time>
      </trkpt>
      <trkpt lat="45.73652" lon="5.7164">
        <ele>257</ele>
        <time>2017-05-26T14:24:52Z</time>
      </trkpt>
      <trkpt lat="45.7365" lon="5.71641">
        <ele>257</ele>
        <time>2017-05-26T14:24:52Z</time>
      </trkpt>
      <trkpt lat="45.73649" lon="5.71644">
        <ele>257</ele>
        <time>2017-05-26T14:24:52Z</time>
      </trkpt>
      <trkpt lat="45.73647" lon="5.71651">
        <ele>257</ele>
        <time>2017-05-26T14:24:52Z</time>
      </trkpt>
      <trkpt lat="45.73646" lon="5.71659">
        <ele>257</ele>
        <time>2017-05-26T14:25:08Z</time>
      </trkpt>
      <trkpt lat="45.73645" lon="5.71665">
        <ele>257</ele>
        <time>2017-05-26T14:25:08Z</time>
      </trkpt>
      <trkpt lat="45.73641" lon="5.71673">
        <ele>257</ele>
        <time>2017-05-26T14:25:08Z</time>
      </trkpt>
      <trkpt lat="45.73637" lon="5.7168">
        <ele>257</ele>
        <time>2017-05-26T14:25:08Z</time>
      </trkpt>
      <trkpt lat="45.73635" lon="5.71686">
        <ele>257</ele>
        <time>2017-05-26T14:25:28Z</time>
      </trkpt>
      <trkpt lat="45.73637" lon="5.71689">
        <ele>257</ele>
        <time>2017-05-26T14:25:28Z</time>
      </trkpt>
      <trkpt lat="45.73635" lon="5.71694">
        <ele>257</ele>
        <time>2017-05-26T14:25:28Z</time>
      </trkpt>
      <trkpt lat="45.73633" lon="5.71699">
        <ele>257</ele>
        <time>2017-05-26T14:25:28Z</time>
      </trkpt>
      <trkpt lat="45.7363" lon="5.71704">
        <ele>257</ele>
        <time>2017-05-26T14:25:28Z</time>
      </trkpt>
      <trkpt lat="45.73627" lon="5.71706">
        <ele>257</ele>
        <time>2017-05-26T14:25:56Z</time>
      </trkpt>
      <trkpt lat="45.73627" lon="5.71706">
        <ele>257</ele>
        <time>2017-05-26T14:25:56Z</time>
      </trkpt>
      <trkpt lat="45.73627" lon="5.71706">
        <ele>257</ele>
        <time>2017-05-26T14:25:56Z</time>
      </trkpt>
      <trkpt lat="45.73627" lon="5.71709">
        <ele>245</ele>
        <time>2017-05-26T14:25:56Z</time>
      </trkpt>
      <trkpt lat="45.73626" lon="5.71721">
        <ele>245</ele>
        <time>2017-05-26T14:25:56Z</time>
      </trkpt>
      <trkpt lat="45.73624" lon="5.71728">
        <ele>247</ele>
        <time>2017-05-26T14:26:12Z</time>
      </trkpt>
      <trkpt lat="45.73626" lon="5.71734">
        <ele>245</ele>
        <time>2017-05-26T14:26:12Z</time>
      </trkpt>
      <trkpt lat="45.73628" lon="5.71742">
        <ele>245</ele>
        <time>2017-05-26T14:26:12Z</time>
      </trkpt>
      <trkpt lat="45.73632" lon="5.71747">
        <ele>245</ele>
        <time>2017-05-26T14:26:12Z</time>
      </trkpt>
      <trkpt lat="45.73628" lon="5.71749">
        <ele>245</ele>
        <time>2017-05-26T14:27:16Z</time>
      </trkpt>
      <trkpt lat="45.73628" lon="5.71749">
        <ele>245</ele>
        <time>2017-05-26T14:27:16Z</time>
      </trkpt>
      <trkpt lat="45.73628" lon="5.7175">
        <ele>245</ele>
        <time>2017-05-26T14:27:16Z</time>
      </trkpt>
      <trkpt lat="45.73629" lon="5.71752">
        <ele>245</ele>
        <time>2017-05-26T14:27:16Z</time>
      </trkpt>
      <trkpt lat="45.73629" lon="5.7176">
        <ele>245</ele>
        <time>2017-05-26T14:27:16Z</time>
      </trkpt>
      <trkpt lat="45.73627" lon="5.71765">
        <ele>245</ele>
        <time>2017-05-26T14:27:32Z</time>
      </trkpt>
      <trkpt lat="45.73628" lon="5.71769">
        <ele>245</ele>
        <time>2017-05-26T14:27:32Z</time>
      </trkpt>
      <trkpt lat="45.73629" lon="5.71773">
        <ele>245</ele>
        <time>2017-05-26T14:27:32Z</time>
      </trkpt>
      <trkpt lat="45.73627" lon="5.71781">
        <ele>245</ele>
        <time>2017-05-26T14:27:32Z</time>
      </trkpt>
      <trkpt lat="45.73625" lon="5.71787">
        <ele>247</ele>
        <time>2017-05-26T14:27:48Z</time>
      </trkpt>
      <trkpt lat="45.73622" lon="5.71788">
        <ele>247</ele>
        <time>2017-05-26T14:27:48Z</time>
      </trkpt>
      <trkpt lat="45.73616" lon="5.71788">
        <ele>247</ele>
        <time>2017-05-26T14:27:48Z</time>
      </trkpt>
      <trkpt lat="45.73605" lon="5.7179">
        <ele>247</ele>
        <time>2017-05-26T14:27:48Z</time>
      </trkpt>
      <trkpt lat="45.73594" lon="5.71792">
        <ele>247</ele>
        <time>2017-05-26T14:28:04Z</time>
      </trkpt>
      <trkpt lat="45.73587" lon="5.71793">
        <ele>247</ele>
        <time>2017-05-26T14:28:04Z</time>
      </trkpt>
      <trkpt lat="45.73583" lon="5.71793">
        <ele>247</ele>
        <time>2017-05-26T14:28:04Z</time>
      </trkpt>
      <trkpt lat="45.73578" lon="5.71795">
        <ele>247</ele>
        <time>2017-05-26T14:28:04Z</time>
      </trkpt>
      <trkpt lat="45.73574" lon="5.71797">
        <ele>247</ele>
        <time>2017-05-26T14:28:20Z</time>
      </trkpt>
      <trkpt lat="45.73569" lon="5.71801">
        <ele>247</ele>
        <time>2017-05-26T14:28:20Z</time>
      </trkpt>
      <trkpt lat="45.73566" lon="5.71806">
        <ele>247</ele>
        <time>2017-05-26T14:28:20Z</time>
      </trkpt>
      <trkpt lat="45.73563" lon="5.71811">
        <ele>247</ele>
        <time>2017-05-26T14:28:20Z</time>
      </trkpt>
      <trkpt lat="45.7356" lon="5.71817">
        <ele>247</ele>
        <time>2017-05-26T14:28:36Z</time>
      </trkpt>
      <trkpt lat="45.73556" lon="5.71821">
        <ele>247</ele>
        <time>2017-05-26T14:28:36Z</time>
      </trkpt>
      <trkpt lat="45.73547" lon="5.71829">
        <ele>247</ele>
        <time>2017-05-26T14:28:36Z</time>
      </trkpt>
      <trkpt lat="45.73536" lon="5.71831">
        <ele>239</ele>
        <time>2017-05-26T14:28:36Z</time>
      </trkpt>
      <trkpt lat="45.7353" lon="5.71829">
        <ele>239</ele>
        <time>2017-05-26T14:28:52Z</time>
      </trkpt>
      <trkpt lat="45.73527" lon="5.71827">
        <ele>239</ele>
        <time>2017-05-26T14:28:52Z</time>
      </trkpt>
      <trkpt lat="45.73522" lon="5.71827">
        <ele>239</ele>
        <time>2017-05-26T14:28:52Z</time>
      </trkpt>
      <trkpt lat="45.73516" lon="5.71825">
        <ele>239</ele>
        <time>2017-05-26T14:28:52Z</time>
      </trkpt>
      <trkpt lat="45.73509" lon="5.71823">
        <ele>239</ele>
        <time>2017-05-26T14:29:08Z</time>
      </trkpt>
      <trkpt lat="45.73503" lon="5.71822">
        <ele>239</ele>
        <time>2017-05-26T14:29:08Z</time>
      </trkpt>
      <trkpt lat="45.73489" lon="5.71817">
        <ele>239</ele>
        <time>2017-05-26T14:29:08Z</time>
      </trkpt>
      <trkpt lat="45.73467" lon="5.71805">
        <ele>239</ele>
        <time>2017-05-26T14:29:08Z</time>
      </trkpt>
      <trkpt lat="45.73446" lon="5.71798">
        <ele>234</ele>
        <time>2017-05-26T14:29:24Z</time>
      </trkpt>
      <trkpt lat="45.73423" lon="5.71797">
        <ele>234</ele>
        <time>2017-05-26T14:29:24Z</time>
      </trkpt>
      <trkpt lat="45.734" lon="5.71791">
        <ele>231</ele>
        <time>2017-05-26T14:29:24Z</time>
      </trkpt>
      <trkpt lat="45.7338" lon="5.71787">
        <ele>231</ele>
        <time>2017-05-26T14:29:24Z</time>
      </trkpt>
      <trkpt lat="45.73358" lon="5.71781">
        <ele>228</ele>
        <time>2017-05-26T14:29:40Z</time>
      </trkpt>
      <trkpt lat="45.73337" lon="5.71778">
        <ele>228</ele>
        <time>2017-05-26T14:29:40Z</time>
      </trkpt>
      <trkpt lat="45.73315" lon="5.71775">
        <ele>228</ele>
        <time>2017-05-26T14:29:40Z</time>
      </trkpt>
      <trkpt lat="45.73292" lon="5.71767">
        <ele>228</ele>
        <time>2017-05-26T14:29:40Z</time>
      </trkpt>
      <trkpt lat="45.7327" lon="5.71761">
        <ele>228</ele>
        <time>2017-05-26T14:29:56Z</time>
      </trkpt>
      <trkpt lat="45.73251" lon="5.71757">
        <ele>228</ele>
        <time>2017-05-26T14:29:56Z</time>
      </trkpt>
      <trkpt lat="45.73237" lon="5.71757">
        <ele>228</ele>
        <time>2017-05-26T14:29:56Z</time>
      </trkpt>
      <trkpt lat="45.73229" lon="5.71759">
        <ele>228</ele>
        <time>2017-05-26T14:29:56Z</time>
      </trkpt>
      <trkpt lat="45.73223" lon="5.71758">
        <ele>228</ele>
        <time>2017-05-26T14:30:12Z</time>
      </trkpt>
      <trkpt lat="45.73219" lon="5.71759">
        <ele>228</ele>
        <time>2017-05-26T14:30:12Z</time>
      </trkpt>
      <trkpt lat="45.73214" lon="5.71757">
        <ele>228</ele>
        <time>2017-05-26T14:30:12Z</time>
      </trkpt>
      <trkpt lat="45.73209" lon="5.71753">
        <ele>228</ele>
        <time>2017-05-26T14:30:12Z</time>
      </trkpt>
      <trkpt lat="45.73209" lon="5.71746">
        <ele>228</ele>
        <time>2017-05-26T14:30:28Z</time>
      </trkpt>
      <trkpt lat="45.73211" lon="5.71739">
        <ele>228</ele>
        <time>2017-05-26T14:30:28Z</time>
      </trkpt>
      <trkpt lat="45.73213" lon="5.71732">
        <ele>228</ele>
        <time>2017-05-26T14:30:28Z</time>
      </trkpt>
      <trkpt lat="45.73217" lon="5.71726">
        <ele>228</ele>
        <time>2017-05-26T14:30:28Z</time>
      </trkpt>
      <trkpt lat="45.73219" lon="5.7172">
        <ele>228</ele>
        <time>2017-05-26T14:30:44Z</time>
      </trkpt>
      <trkpt lat="45.7322" lon="5.71713">
        <ele>228</ele>
        <time>2017-05-26T14:30:44Z</time>
      </trkpt>
      <trkpt lat="45.73225" lon="5.71707">
        <ele>228</ele>
        <time>2017-05-26T14:30:44Z</time>
      </trkpt>
      <trkpt lat="45.73227" lon="5.71704">
        <ele>228</ele>
        <time>2017-05-26T14:30:44Z</time>
      </trkpt>
      <trkpt lat="45.73223" lon="5.71706">
        <ele>228</ele>
        <time>2017-05-26T14:31:00Z</time>
      </trkpt>
      <trkpt lat="45.73227" lon="5.717">
        <ele>228</ele>
        <time>2017-05-26T14:31:00Z</time>
      </trkpt>
      <trkpt lat="45.73226" lon="5.7169">
        <ele>228</ele>
        <time>2017-05-26T14:31:00Z</time>
      </trkpt>
      <trkpt lat="45.73225" lon="5.71681">
        <ele>228</ele>
        <time>2017-05-26T14:31:00Z</time>
      </trkpt>
      <trkpt lat="45.7323" lon="5.71674">
        <ele>228</ele>
        <time>2017-05-26T14:31:16Z</time>
      </trkpt>
      <trkpt lat="45.73232" lon="5.71666">
        <ele>228</ele>
        <time>2017-05-26T14:31:16Z</time>
      </trkpt>
      <trkpt lat="45.73237" lon="5.71659">
        <ele>228</ele>
        <time>2017-05-26T14:31:16Z</time>
      </trkpt>
      <trkpt lat="45.73242" lon="5.71654">
        <ele>228</ele>
        <time>2017-05-26T14:31:16Z</time>
      </trkpt>
      <trkpt lat="45.73245" lon="5.71648">
        <ele>228</ele>
        <time>2017-05-26T14:31:32Z</time>
      </trkpt>
      <trkpt lat="45.73245" lon="5.71643">
        <ele>228</ele>
        <time>2017-05-26T14:31:32Z</time>
      </trkpt>
      <trkpt lat="45.73249" lon="5.71636">
        <ele>228</ele>
        <time>2017-05-26T14:31:32Z</time>
      </trkpt>
      <trkpt lat="45.73256" lon="5.71631">
        <ele>228</ele>
        <time>2017-05-26T14:31:32Z</time>
      </trkpt>
      <trkpt lat="45.73259" lon="5.71624">
        <ele>229</ele>
        <time>2017-05-26T14:31:48Z</time>
      </trkpt>
      <trkpt lat="45.73263" lon="5.71615">
        <ele>229</ele>
        <time>2017-05-26T14:31:48Z</time>
      </trkpt>
      <trkpt lat="45.73266" lon="5.7161">
        <ele>229</ele>
        <time>2017-05-26T14:31:48Z</time>
      </trkpt>
      <trkpt lat="45.7327" lon="5.71607">
        <ele>229</ele>
        <time>2017-05-26T14:31:48Z</time>
      </trkpt>
      <trkpt lat="45.73273" lon="5.71602">
        <ele>229</ele>
        <time>2017-05-26T14:32:04Z</time>
      </trkpt>
      <trkpt lat="45.73279" lon="5.71592">
        <ele>229</ele>
        <time>2017-05-26T14:32:04Z</time>
      </trkpt>
      <trkpt lat="45.73287" lon="5.71578">
        <ele>229</ele>
        <time>2017-05-26T14:32:04Z</time>
      </trkpt>
      <trkpt lat="45.73294" lon="5.71571">
        <ele>229</ele>
        <time>2017-05-26T14:32:04Z</time>
      </trkpt>
      <trkpt lat="45.73295" lon="5.71564">
        <ele>229</ele>
        <time>2017-05-26T14:32:20Z</time>
      </trkpt>
      <trkpt lat="45.73296" lon="5.71556">
        <ele>229</ele>
        <time>2017-05-26T14:32:20Z</time>
      </trkpt>
      <trkpt lat="45.73299" lon="5.7155">
        <ele>229</ele>
        <time>2017-05-26T14:32:20Z</time>
      </trkpt>
      <trkpt lat="45.73302" lon="5.71544">
        <ele>229</ele>
        <time>2017-05-26T14:32:20Z</time>
      </trkpt>
      <trkpt lat="45.73304" lon="5.71536">
        <ele>231</ele>
        <time>2017-05-26T14:32:36Z</time>
      </trkpt>
      <trkpt lat="45.73305" lon="5.7153">
        <ele>231</ele>
        <time>2017-05-26T14:32:36Z</time>
      </trkpt>
      <trkpt lat="45.73307" lon="5.71523">
        <ele>231</ele>
        <time>2017-05-26T14:32:36Z</time>
      </trkpt>
      <trkpt lat="45.73309" lon="5.71516">
        <ele>231</ele>
        <time>2017-05-26T14:32:36Z</time>
      </trkpt>
      <trkpt lat="45.73312" lon="5.71509">
        <ele>231</ele>
        <time>2017-05-26T14:32:52Z</time>
      </trkpt>
      <trkpt lat="45.73315" lon="5.71502">
        <ele>231</ele>
        <time>2017-05-26T14:32:52Z</time>
      </trkpt>
      <trkpt lat="45.73319" lon="5.71496">
        <ele>231</ele>
        <time>2017-05-26T14:32:52Z</time>
      </trkpt>
      <trkpt lat="45.73321" lon="5.71489">
        <ele>231</ele>
        <time>2017-05-26T14:32:52Z</time>
      </trkpt>
      <trkpt lat="45.73324" lon="5.71481">
        <ele>231</ele>
        <time>2017-05-26T14:33:08Z</time>
      </trkpt>
      <trkpt lat="45.73327" lon="5.71474">
        <ele>231</ele>
        <time>2017-05-26T14:33:08Z</time>
      </trkpt>
      <trkpt lat="45.73329" lon="5.71466">
        <ele>231</ele>
        <time>2017-05-26T14:33:08Z</time>
      </trkpt>
      <trkpt lat="45.73334" lon="5.71458">
        <ele>235</ele>
        <time>2017-05-26T14:33:08Z</time>
      </trkpt>
      <trkpt lat="45.73325" lon="5.71456">
        <ele>235</ele>
        <time>2017-05-26T14:39:04Z</time>
      </trkpt>
      <trkpt lat="45.7332" lon="5.71463">
        <ele>231</ele>
        <time>2017-05-26T14:39:04Z</time>
      </trkpt>
      <trkpt lat="45.73317" lon="5.7147">
        <ele>231</ele>
        <time>2017-05-26T14:39:04Z</time>
      </trkpt>
      <trkpt lat="45.73314" lon="5.71477">
        <ele>231</ele>
        <time>2017-05-26T14:39:04Z</time>
      </trkpt>
      <trkpt lat="45.73311" lon="5.71484">
        <ele>231</ele>
        <time>2017-05-26T14:39:04Z</time>
      </trkpt>
      <trkpt lat="45.73308" lon="5.71491">
        <ele>231</ele>
        <time>2017-05-26T14:39:20Z</time>
      </trkpt>
      <trkpt lat="45.73305" lon="5.71499">
        <ele>231</ele>
        <time>2017-05-26T14:39:20Z</time>
      </trkpt>
      <trkpt lat="45.73302" lon="5.71506">
        <ele>231</ele>
        <time>2017-05-26T14:39:20Z</time>
      </trkpt>
      <trkpt lat="45.73299" lon="5.71513">
        <ele>231</ele>
        <time>2017-05-26T14:39:20Z</time>
      </trkpt>
      <trkpt lat="45.73297" lon="5.7152">
        <ele>231</ele>
        <time>2017-05-26T14:39:36Z</time>
      </trkpt>
      <trkpt lat="45.73294" lon="5.71527">
        <ele>231</ele>
        <time>2017-05-26T14:39:36Z</time>
      </trkpt>
      <trkpt lat="45.73293" lon="5.71534">
        <ele>231</ele>
        <time>2017-05-26T14:39:36Z</time>
      </trkpt>
      <trkpt lat="45.7329" lon="5.71541">
        <ele>228</ele>
        <time>2017-05-26T14:39:36Z</time>
      </trkpt>
      <trkpt lat="45.73285" lon="5.71551">
        <ele>229</ele>
        <time>2017-05-26T14:39:52Z</time>
      </trkpt>
      <trkpt lat="45.73282" lon="5.71556">
        <ele>229</ele>
        <time>2017-05-26T14:39:52Z</time>
      </trkpt>
      <trkpt lat="45.73281" lon="5.71562">
        <ele>229</ele>
        <time>2017-05-26T14:39:52Z</time>
      </trkpt>
      <trkpt lat="45.73278" lon="5.71569">
        <ele>229</ele>
        <time>2017-05-26T14:39:52Z</time>
      </trkpt>
      <trkpt lat="45.73275" lon="5.71577">
        <ele>229</ele>
        <time>2017-05-26T14:40:08Z</time>
      </trkpt>
      <trkpt lat="45.73274" lon="5.71581">
        <ele>229</ele>
        <time>2017-05-26T14:40:08Z</time>
      </trkpt>
      <trkpt lat="45.73269" lon="5.71587">
        <ele>229</ele>
        <time>2017-05-26T14:40:08Z</time>
      </trkpt>
      <trkpt lat="45.73268" lon="5.71593">
        <ele>229</ele>
        <time>2017-05-26T14:40:08Z</time>
      </trkpt>
      <trkpt lat="45.73268" lon="5.71595">
        <ele>229</ele>
        <time>2017-05-26T14:40:24Z</time>
      </trkpt>
      <trkpt lat="45.73267" lon="5.71599">
        <ele>229</ele>
        <time>2017-05-26T14:40:24Z</time>
      </trkpt>
      <trkpt lat="45.73264" lon="5.71604">
        <ele>229</ele>
        <time>2017-05-26T14:40:24Z</time>
      </trkpt>
      <trkpt lat="45.73261" lon="5.71609">
        <ele>229</ele>
        <time>2017-05-26T14:40:24Z</time>
      </trkpt>
      <trkpt lat="45.73255" lon="5.71613">
        <ele>229</ele>
        <time>2017-05-26T14:40:40Z</time>
      </trkpt>
      <trkpt lat="45.73248" lon="5.71621">
        <ele>229</ele>
        <time>2017-05-26T14:40:40Z</time>
      </trkpt>
      <trkpt lat="45.7324" lon="5.71627">
        <ele>228</ele>
        <time>2017-05-26T14:40:40Z</time>
      </trkpt>
      <trkpt lat="45.73236" lon="5.71634">
        <ele>228</ele>
        <time>2017-05-26T14:40:40Z</time>
      </trkpt>
      <trkpt lat="45.73233" lon="5.71639">
        <ele>228</ele>
        <time>2017-05-26T14:40:56Z</time>
      </trkpt>
      <trkpt lat="45.7323" lon="5.71646">
        <ele>228</ele>
        <time>2017-05-26T14:40:56Z</time>
      </trkpt>
      <trkpt lat="45.73227" lon="5.71653">
        <ele>228</ele>
        <time>2017-05-26T14:40:56Z</time>
      </trkpt>
      <trkpt lat="45.73225" lon="5.71663">
        <ele>228</ele>
        <time>2017-05-26T14:40:56Z</time>
      </trkpt>
      <trkpt lat="45.73223" lon="5.71671">
        <ele>228</ele>
        <time>2017-05-26T14:41:12Z</time>
      </trkpt>
      <trkpt lat="45.73222" lon="5.71679">
        <ele>228</ele>
        <time>2017-05-26T14:41:12Z</time>
      </trkpt>
      <trkpt lat="45.73219" lon="5.71687">
        <ele>228</ele>
        <time>2017-05-26T14:41:12Z</time>
      </trkpt>
      <trkpt lat="45.73217" lon="5.71692">
        <ele>228</ele>
        <time>2017-05-26T14:41:12Z</time>
      </trkpt>
      <trkpt lat="45.73216" lon="5.717">
        <ele>228</ele>
        <time>2017-05-26T14:41:28Z</time>
      </trkpt>
      <trkpt lat="45.73213" lon="5.71707">
        <ele>228</ele>
        <time>2017-05-26T14:41:28Z</time>
      </trkpt>
      <trkpt lat="45.73211" lon="5.71715">
        <ele>228</ele>
        <time>2017-05-26T14:41:28Z</time>
      </trkpt>
      <trkpt lat="45.73209" lon="5.71722">
        <ele>228</ele>
        <time>2017-05-26T14:41:28Z</time>
      </trkpt>
      <trkpt lat="45.73207" lon="5.71732">
        <ele>231</ele>
        <time>2017-05-26T14:41:44Z</time>
      </trkpt>
      <trkpt lat="45.73204" lon="5.71741">
        <ele>231</ele>
        <time>2017-05-26T14:41:44Z</time>
      </trkpt>
      <trkpt lat="45.73202" lon="5.71749">
        <ele>231</ele>
        <time>2017-05-26T14:41:44Z</time>
      </trkpt>
      <trkpt lat="45.732" lon="5.71757">
        <ele>231</ele>
        <time>2017-05-26T14:41:44Z</time>
      </trkpt>
      <trkpt lat="45.73196" lon="5.71764">
        <ele>231</ele>
        <time>2017-05-26T14:42:00Z</time>
      </trkpt>
      <trkpt lat="45.73191" lon="5.71767">
        <ele>231</ele>
        <time>2017-05-26T14:42:00Z</time>
      </trkpt>
      <trkpt lat="45.73186" lon="5.71768">
        <ele>231</ele>
        <time>2017-05-26T14:42:00Z</time>
      </trkpt>
      <trkpt lat="45.7318" lon="5.71768">
        <ele>231</ele>
        <time>2017-05-26T14:42:00Z</time>
      </trkpt>
      <trkpt lat="45.73174" lon="5.71769">
        <ele>231</ele>
        <time>2017-05-26T14:42:16Z</time>
      </trkpt>
      <trkpt lat="45.73169" lon="5.7177">
        <ele>231</ele>
        <time>2017-05-26T14:42:16Z</time>
      </trkpt>
      <trkpt lat="45.73165" lon="5.71769">
        <ele>231</ele>
        <time>2017-05-26T14:42:16Z</time>
      </trkpt>
      <trkpt lat="45.73157" lon="5.71771">
        <ele>231</ele>
        <time>2017-05-26T14:42:16Z</time>
      </trkpt>
      <trkpt lat="45.7315" lon="5.71772">
        <ele>231</ele>
        <time>2017-05-26T14:42:32Z</time>
      </trkpt>
      <trkpt lat="45.73145" lon="5.71774">
        <ele>231</ele>
        <time>2017-05-26T14:42:32Z</time>
      </trkpt>
      <trkpt lat="45.73136" lon="5.71777">
        <ele>231</ele>
        <time>2017-05-26T14:42:32Z</time>
      </trkpt>
      <trkpt lat="45.73129" lon="5.71776">
        <ele>231</ele>
        <time>2017-05-26T14:42:32Z</time>
      </trkpt>
      <trkpt lat="45.73124" lon="5.71776">
        <ele>228</ele>
        <time>2017-05-26T14:42:48Z</time>
      </trkpt>
      <trkpt lat="45.73119" lon="5.71777">
        <ele>228</ele>
        <time>2017-05-26T14:42:48Z</time>
      </trkpt>
      <trkpt lat="45.73115" lon="5.71777">
        <ele>228</ele>
        <time>2017-05-26T14:42:48Z</time>
      </trkpt>
      <trkpt lat="45.73111" lon="5.71777">
        <ele>228</ele>
        <time>2017-05-26T14:42:48Z</time>
      </trkpt>
      <trkpt lat="45.73106" lon="5.7178">
        <ele>228</ele>
        <time>2017-05-26T14:43:04Z</time>
      </trkpt>
      <trkpt lat="45.731" lon="5.71786">
        <ele>228</ele>
        <time>2017-05-26T14:43:04Z</time>
      </trkpt>
      <trkpt lat="45.73097" lon="5.71794">
        <ele>228</ele>
        <time>2017-05-26T14:43:04Z</time>
      </trkpt>
      <trkpt lat="45.73097" lon="5.71802">
        <ele>228</ele>
        <time>2017-05-26T14:43:04Z</time>
      </trkpt>
      <trkpt lat="45.73096" lon="5.71819">
        <ele>228</ele>
        <time>2017-05-26T14:43:20Z</time>
      </trkpt>
      <trkpt lat="45.73091" lon="5.71853">
        <ele>228</ele>
        <time>2017-05-26T14:43:20Z</time>
      </trkpt>
      <trkpt lat="45.73088" lon="5.71893">
        <ele>233</ele>
        <time>2017-05-26T14:43:20Z</time>
      </trkpt>
      <trkpt lat="45.73088" lon="5.71928">
        <ele>233</ele>
        <time>2017-05-26T14:43:20Z</time>
      </trkpt>
      <trkpt lat="45.73083" lon="5.71953">
        <ele>233</ele>
        <time>2017-05-26T14:43:36Z</time>
      </trkpt>
      <trkpt lat="45.73078" lon="5.71964">
        <ele>249</ele>
        <time>2017-05-26T14:43:36Z</time>
      </trkpt>
      <trkpt lat="45.73068" lon="5.71969">
        <ele>249</ele>
        <time>2017-05-26T14:43:36Z</time>
      </trkpt>
      <trkpt lat="45.73062" lon="5.71967">
        <ele>249</ele>
        <time>2017-05-26T14:43:36Z</time>
      </trkpt>
      <trkpt lat="45.73056" lon="5.71964">
        <ele>249</ele>
        <time>2017-05-26T14:43:56Z</time>
      </trkpt>
      <trkpt lat="45.73052" lon="5.71964">
        <ele>249</ele>
        <time>2017-05-26T14:43:56Z</time>
      </trkpt>
      <trkpt lat="45.73051" lon="5.71962">
        <ele>249</ele>
        <time>2017-05-26T14:43:56Z</time>
      </trkpt>
      <trkpt lat="45.73048" lon="5.71964">
        <ele>249</ele>
        <time>2017-05-26T14:43:56Z</time>
      </trkpt>
      <trkpt lat="45.73043" lon="5.71964">
        <ele>249</ele>
        <time>2017-05-26T14:43:56Z</time>
      </trkpt>
      <trkpt lat="45.73041" lon="5.71962">
        <ele>248</ele>
        <time>2017-05-26T14:44:16Z</time>
      </trkpt>
      <trkpt lat="45.73039" lon="5.71961">
        <ele>248</ele>
        <time>2017-05-26T14:44:16Z</time>
      </trkpt>
      <trkpt lat="45.73037" lon="5.71961">
        <ele>248</ele>
        <time>2017-05-26T14:44:16Z</time>
      </trkpt>
      <trkpt lat="45.73036" lon="5.71961">
        <ele>248</ele>
        <time>2017-05-26T14:44:16Z</time>
      </trkpt>
      <trkpt lat="45.73031" lon="5.71961">
        <ele>248</ele>
        <time>2017-05-26T14:44:16Z</time>
      </trkpt>
      <trkpt lat="45.73022" lon="5.7196">
        <ele>248</ele>
        <time>2017-05-26T14:44:32Z</time>
      </trkpt>
      <trkpt lat="45.73016" lon="5.71961">
        <ele>248</ele>
        <time>2017-05-26T14:44:32Z</time>
      </trkpt>
      <trkpt lat="45.73011" lon="5.71959">
        <ele>248</ele>
        <time>2017-05-26T14:44:32Z</time>
      </trkpt>
      <trkpt lat="45.73004" lon="5.71957">
        <ele>233</ele>
        <time>2017-05-26T14:44:32Z</time>
      </trkpt>
      <trkpt lat="45.72999" lon="5.71953">
        <ele>233</ele>
        <time>2017-05-26T14:44:48Z</time>
      </trkpt>
      <trkpt lat="45.72996" lon="5.71953">
        <ele>233</ele>
        <time>2017-05-26T14:44:48Z</time>
      </trkpt>
      <trkpt lat="45.7299" lon="5.71952">
        <ele>233</ele>
        <time>2017-05-26T14:44:48Z</time>
      </trkpt>
      <trkpt lat="45.72982" lon="5.71948">
        <ele>233</ele>
        <time>2017-05-26T14:44:48Z</time>
      </trkpt>
      <trkpt lat="45.72975" lon="5.71949">
        <ele>233</ele>
        <time>2017-05-26T14:45:04Z</time>
      </trkpt>
      <trkpt lat="45.7297" lon="5.71952">
        <ele>233</ele>
        <time>2017-05-26T14:45:04Z</time>
      </trkpt>
      <trkpt lat="45.72965" lon="5.71949">
        <ele>233</ele>
        <time>2017-05-26T14:45:04Z</time>
      </trkpt>
      <trkpt lat="45.72959" lon="5.71945">
        <ele>233</ele>
        <time>2017-05-26T14:45:04Z</time>
      </trkpt>
      <trkpt lat="45.72953" lon="5.71944">
        <ele>238</ele>
        <time>2017-05-26T14:45:20Z</time>
      </trkpt>
      <trkpt lat="45.72945" lon="5.71944">
        <ele>238</ele>
        <time>2017-05-26T14:45:20Z</time>
      </trkpt>
      <trkpt lat="45.72937" lon="5.71947">
        <ele>238</ele>
        <time>2017-05-26T14:45:20Z</time>
      </trkpt>
      <trkpt lat="45.72929" lon="5.7195">
        <ele>238</ele>
        <time>2017-05-26T14:45:20Z</time>
      </trkpt>
      <trkpt lat="45.72926" lon="5.71948">
        <ele>238</ele>
        <time>2017-05-26T14:45:36Z</time>
      </trkpt>
      <trkpt lat="45.72921" lon="5.71946">
        <ele>238</ele>
        <time>2017-05-26T14:45:36Z</time>
      </trkpt>
      <trkpt lat="45.72915" lon="5.71947">
        <ele>238</ele>
        <time>2017-05-26T14:45:36Z</time>
      </trkpt>
      <trkpt lat="45.7291" lon="5.71951">
        <ele>238</ele>
        <time>2017-05-26T14:45:36Z</time>
      </trkpt>
      <trkpt lat="45.72904" lon="5.71946">
        <ele>238</ele>
        <time>2017-05-26T14:45:52Z</time>
      </trkpt>
      <trkpt lat="45.72896" lon="5.7194">
        <ele>238</ele>
        <time>2017-05-26T14:45:52Z</time>
      </trkpt>
      <trkpt lat="45.72886" lon="5.71937">
        <ele>238</ele>
        <time>2017-05-26T14:45:52Z</time>
      </trkpt>
      <trkpt lat="45.72879" lon="5.71936">
        <ele>238</ele>
        <time>2017-05-26T14:45:52Z</time>
      </trkpt>
      <trkpt lat="45.72878" lon="5.71934">
        <ele>238</ele>
        <time>2017-05-26T14:46:08Z</time>
      </trkpt>
      <trkpt lat="45.72875" lon="5.71932">
        <ele>245</ele>
        <time>2017-05-26T14:46:08Z</time>
      </trkpt>
      <trkpt lat="45.72869" lon="5.7193">
        <ele>245</ele>
        <time>2017-05-26T14:46:08Z</time>
      </trkpt>
      <trkpt lat="45.72864" lon="5.71928">
        <ele>245</ele>
        <time>2017-05-26T14:46:08Z</time>
      </trkpt>
      <trkpt lat="45.72859" lon="5.71925">
        <ele>245</ele>
        <time>2017-05-26T14:46:24Z</time>
      </trkpt>
      <trkpt lat="45.72853" lon="5.71921">
        <ele>245</ele>
        <time>2017-05-26T14:46:24Z</time>
      </trkpt>
      <trkpt lat="45.72848" lon="5.7192">
        <ele>245</ele>
        <time>2017-05-26T14:46:24Z</time>
      </trkpt>
      <trkpt lat="45.72844" lon="5.7192">
        <ele>245</ele>
        <time>2017-05-26T14:46:24Z</time>
      </trkpt>
      <trkpt lat="45.7284" lon="5.71918">
        <ele>245</ele>
        <time>2017-05-26T14:46:40Z</time>
      </trkpt>
      <trkpt lat="45.72835" lon="5.71916">
        <ele>245</ele>
        <time>2017-05-26T14:46:40Z</time>
      </trkpt>
      <trkpt lat="45.72831" lon="5.71915">
        <ele>245</ele>
        <time>2017-05-26T14:46:40Z</time>
      </trkpt>
      <trkpt lat="45.72825" lon="5.71915">
        <ele>245</ele>
        <time>2017-05-26T14:46:40Z</time>
      </trkpt>
      <trkpt lat="45.72819" lon="5.71912">
        <ele>245</ele>
        <time>2017-05-26T14:46:56Z</time>
      </trkpt>
      <trkpt lat="45.72813" lon="5.71912">
        <ele>245</ele>
        <time>2017-05-26T14:46:56Z</time>
      </trkpt>
      <trkpt lat="45.72808" lon="5.71914">
        <ele>245</ele>
        <time>2017-05-26T14:46:56Z</time>
      </trkpt>
      <trkpt lat="45.72802" lon="5.71911">
        <ele>245</ele>
        <time>2017-05-26T14:46:56Z</time>
      </trkpt>
      <trkpt lat="45.72796" lon="5.7191">
        <ele>245</ele>
        <time>2017-05-26T14:47:12Z</time>
      </trkpt>
      <trkpt lat="45.72788" lon="5.71908">
        <ele>248</ele>
        <time>2017-05-26T14:47:12Z</time>
      </trkpt>
      <trkpt lat="45.7278" lon="5.71908">
        <ele>248</ele>
        <time>2017-05-26T14:47:12Z</time>
      </trkpt>
      <trkpt lat="45.72772" lon="5.71908">
        <ele>248</ele>
        <time>2017-05-26T14:47:12Z</time>
      </trkpt>
      <trkpt lat="45.72766" lon="5.71909">
        <ele>248</ele>
        <time>2017-05-26T14:47:28Z</time>
      </trkpt>
      <trkpt lat="45.72761" lon="5.71907">
        <ele>248</ele>
        <time>2017-05-26T14:47:28Z</time>
      </trkpt>
      <trkpt lat="45.72756" lon="5.71906">
        <ele>248</ele>
        <time>2017-05-26T14:47:28Z</time>
      </trkpt>
      <trkpt lat="45.72754" lon="5.71907">
        <ele>248</ele>
        <time>2017-05-26T14:47:28Z</time>
      </trkpt>
      <trkpt lat="45.72748" lon="5.71907">
        <ele>248</ele>
        <time>2017-05-26T14:47:44Z</time>
      </trkpt>
      <trkpt lat="45.72745" lon="5.71906">
        <ele>248</ele>
        <time>2017-05-26T14:47:44Z</time>
      </trkpt>
      <trkpt lat="45.72742" lon="5.71907">
        <ele>248</ele>
        <time>2017-05-26T14:47:44Z</time>
      </trkpt>
      <trkpt lat="45.72738" lon="5.71907">
        <ele>248</ele>
        <time>2017-05-26T14:47:44Z</time>
      </trkpt>
      <trkpt lat="45.72731" lon="5.71907">
        <ele>248</ele>
        <time>2017-05-26T14:48:00Z</time>
      </trkpt>
      <trkpt lat="45.72727" lon="5.71904">
        <ele>248</ele>
        <time>2017-05-26T14:48:00Z</time>
      </trkpt>
      <trkpt lat="45.72723" lon="5.71902">
        <ele>248</ele>
        <time>2017-05-26T14:48:00Z</time>
      </trkpt>
      <trkpt lat="45.72716" lon="5.71898">
        <ele>248</ele>
        <time>2017-05-26T14:48:00Z</time>
      </trkpt>
      <trkpt lat="45.7271" lon="5.71896">
        <ele>248</ele>
        <time>2017-05-26T14:48:16Z</time>
      </trkpt>
      <trkpt lat="45.72704" lon="5.71899">
        <ele>253</ele>
        <time>2017-05-26T14:48:16Z</time>
      </trkpt>
      <trkpt lat="45.72699" lon="5.719">
        <ele>253</ele>
        <time>2017-05-26T14:48:16Z</time>
      </trkpt>
      <trkpt lat="45.72694" lon="5.71899">
        <ele>253</ele>
        <time>2017-05-26T14:48:16Z</time>
      </trkpt>
      <trkpt lat="45.72689" lon="5.71898">
        <ele>253</ele>
        <time>2017-05-26T14:48:32Z</time>
      </trkpt>
      <trkpt lat="45.72685" lon="5.71896">
        <ele>253</ele>
        <time>2017-05-26T14:48:32Z</time>
      </trkpt>
      <trkpt lat="45.7268" lon="5.71893">
        <ele>253</ele>
        <time>2017-05-26T14:48:32Z</time>
      </trkpt>
      <trkpt lat="45.72674" lon="5.7189">
        <ele>253</ele>
        <time>2017-05-26T14:48:32Z</time>
      </trkpt>
      <trkpt lat="45.72668" lon="5.7189">
        <ele>253</ele>
        <time>2017-05-26T14:48:48Z</time>
      </trkpt>
      <trkpt lat="45.72663" lon="5.7189">
        <ele>253</ele>
        <time>2017-05-26T14:48:48Z</time>
      </trkpt>
      <trkpt lat="45.72659" lon="5.71891">
        <ele>253</ele>
        <time>2017-05-26T14:48:48Z</time>
      </trkpt>
      <trkpt lat="45.72654" lon="5.71891">
        <ele>253</ele>
        <time>2017-05-26T14:48:48Z</time>
      </trkpt>
      <trkpt lat="45.72649" lon="5.71893">
        <ele>253</ele>
        <time>2017-05-26T14:49:04Z</time>
      </trkpt>
      <trkpt lat="45.72644" lon="5.71891">
        <ele>253</ele>
        <time>2017-05-26T14:49:04Z</time>
      </trkpt>
      <trkpt lat="45.7264" lon="5.71888">
        <ele>253</ele>
        <time>2017-05-26T14:49:04Z</time>
      </trkpt>
      <trkpt lat="45.72635" lon="5.71886">
        <ele>253</ele>
        <time>2017-05-26T14:49:04Z</time>
      </trkpt>
      <trkpt lat="45.7263" lon="5.71884">
        <ele>253</ele>
        <time>2017-05-26T14:49:20Z</time>
      </trkpt>
      <trkpt lat="45.72625" lon="5.7188">
        <ele>253</ele>
        <time>2017-05-26T14:49:20Z</time>
      </trkpt>
      <trkpt lat="45.7262" lon="5.71878">
        <ele>256</ele>
        <time>2017-05-26T14:49:20Z</time>
      </trkpt>
      <trkpt lat="45.72615" lon="5.71873">
        <ele>239</ele>
        <time>2017-05-26T14:49:20Z</time>
      </trkpt>
      <trkpt lat="45.72611" lon="5.7187">
        <ele>239</ele>
        <time>2017-05-26T14:49:36Z</time>
      </trkpt>
      <trkpt lat="45.72608" lon="5.71867">
        <ele>239</ele>
        <time>2017-05-26T14:49:36Z</time>
      </trkpt>
      <trkpt lat="45.72604" lon="5.71862">
        <ele>239</ele>
        <time>2017-05-26T14:49:36Z</time>
      </trkpt>
      <trkpt lat="45.726" lon="5.71857">
        <ele>239</ele>
        <time>2017-05-26T14:49:36Z</time>
      </trkpt>
      <trkpt lat="45.72596" lon="5.7185">
        <ele>239</ele>
        <time>2017-05-26T14:49:52Z</time>
      </trkpt>
      <trkpt lat="45.72592" lon="5.71843">
        <ele>239</ele>
        <time>2017-05-26T14:49:52Z</time>
      </trkpt>
      <trkpt lat="45.72588" lon="5.71837">
        <ele>239</ele>
        <time>2017-05-26T14:49:52Z</time>
      </trkpt>
      <trkpt lat="45.72584" lon="5.71833">
        <ele>239</ele>
        <time>2017-05-26T14:49:52Z</time>
      </trkpt>
      <trkpt lat="45.7258" lon="5.71831">
        <ele>239</ele>
        <time>2017-05-26T14:50:08Z</time>
      </trkpt>
      <trkpt lat="45.72574" lon="5.71825">
        <ele>239</ele>
        <time>2017-05-26T14:50:08Z</time>
      </trkpt>
      <trkpt lat="45.72571" lon="5.71822">
        <ele>239</ele>
        <time>2017-05-26T14:50:08Z</time>
      </trkpt>
      <trkpt lat="45.72566" lon="5.7182">
        <ele>239</ele>
        <time>2017-05-26T14:50:08Z</time>
      </trkpt>
      <trkpt lat="45.72562" lon="5.71817">
        <ele>239</ele>
        <time>2017-05-26T14:50:24Z</time>
      </trkpt>
      <trkpt lat="45.72556" lon="5.71815">
        <ele>239</ele>
        <time>2017-05-26T14:50:24Z</time>
      </trkpt>
      <trkpt lat="45.7255" lon="5.71812">
        <ele>239</ele>
        <time>2017-05-26T14:50:24Z</time>
      </trkpt>
      <trkpt lat="45.72549" lon="5.71812">
        <ele>239</ele>
        <time>2017-05-26T14:50:24Z</time>
      </trkpt>
      <trkpt lat="45.72545" lon="5.71812">
        <ele>239</ele>
        <time>2017-05-26T14:50:40Z</time>
      </trkpt>
      <trkpt lat="45.7254" lon="5.7181">
        <ele>246</ele>
        <time>2017-05-26T14:50:40Z</time>
      </trkpt>
      <trkpt lat="45.72534" lon="5.7181">
        <ele>246</ele>
        <time>2017-05-26T14:50:40Z</time>
      </trkpt>
      <trkpt lat="45.72529" lon="5.71807">
        <ele>246</ele>
        <time>2017-05-26T14:50:40Z</time>
      </trkpt>
      <trkpt lat="45.72524" lon="5.71804">
        <ele>246</ele>
        <time>2017-05-26T14:50:56Z</time>
      </trkpt>
      <trkpt lat="45.72519" lon="5.718">
        <ele>246</ele>
        <time>2017-05-26T14:50:56Z</time>
      </trkpt>
      <trkpt lat="45.72515" lon="5.718">
        <ele>246</ele>
        <time>2017-05-26T14:50:56Z</time>
      </trkpt>
      <trkpt lat="45.72513" lon="5.71796">
        <ele>246</ele>
        <time>2017-05-26T14:50:56Z</time>
      </trkpt>
      <trkpt lat="45.72509" lon="5.7179">
        <ele>231</ele>
        <time>2017-05-26T14:51:12Z</time>
      </trkpt>
      <trkpt lat="45.72506" lon="5.71783">
        <ele>231</ele>
        <time>2017-05-26T14:51:12Z</time>
      </trkpt>
      <trkpt lat="45.72502" lon="5.71777">
        <ele>231</ele>
        <time>2017-05-26T14:51:12Z</time>
      </trkpt>
      <trkpt lat="45.72497" lon="5.71771">
        <ele>231</ele>
        <time>2017-05-26T14:51:12Z</time>
      </trkpt>
      <trkpt lat="45.72493" lon="5.71765">
        <ele>231</ele>
        <time>2017-05-26T14:51:28Z</time>
      </trkpt>
      <trkpt lat="45.72489" lon="5.7176">
        <ele>231</ele>
        <time>2017-05-26T14:51:28Z</time>
      </trkpt>
      <trkpt lat="45.72485" lon="5.71756">
        <ele>231</ele>
        <time>2017-05-26T14:51:28Z</time>
      </trkpt>
      <trkpt lat="45.72482" lon="5.71753">
        <ele>231</ele>
        <time>2017-05-26T14:51:28Z</time>
      </trkpt>
      <trkpt lat="45.72478" lon="5.71748">
        <ele>231</ele>
        <time>2017-05-26T14:51:44Z</time>
      </trkpt>
      <trkpt lat="45.72473" lon="5.71742">
        <ele>231</ele>
        <time>2017-05-26T14:51:44Z</time>
      </trkpt>
      <trkpt lat="45.72468" lon="5.71737">
        <ele>231</ele>
        <time>2017-05-26T14:51:44Z</time>
      </trkpt>
      <trkpt lat="45.72463" lon="5.71733">
        <ele>231</ele>
        <time>2017-05-26T14:51:44Z</time>
      </trkpt>
      <trkpt lat="45.72458" lon="5.71731">
        <ele>236</ele>
        <time>2017-05-26T14:52:00Z</time>
      </trkpt>
      <trkpt lat="45.72453" lon="5.71728">
        <ele>236</ele>
        <time>2017-05-26T14:52:00Z</time>
      </trkpt>
      <trkpt lat="45.72449" lon="5.71726">
        <ele>236</ele>
        <time>2017-05-26T14:52:00Z</time>
      </trkpt>
      <trkpt lat="45.72444" lon="5.71727">
        <ele>236</ele>
        <time>2017-05-26T14:52:00Z</time>
      </trkpt>
      <trkpt lat="45.72439" lon="5.71724">
        <ele>236</ele>
        <time>2017-05-26T14:52:16Z</time>
      </trkpt>
      <trkpt lat="45.72433" lon="5.71722">
        <ele>236</ele>
        <time>2017-05-26T14:52:16Z</time>
      </trkpt>
      <trkpt lat="45.72427" lon="5.71722">
        <ele>236</ele>
        <time>2017-05-26T14:52:16Z</time>
      </trkpt>
      <trkpt lat="45.72422" lon="5.71722">
        <ele>236</ele>
        <time>2017-05-26T14:52:16Z</time>
      </trkpt>
      <trkpt lat="45.72417" lon="5.7172">
        <ele>236</ele>
        <time>2017-05-26T14:52:32Z</time>
      </trkpt>
      <trkpt lat="45.72412" lon="5.71721">
        <ele>236</ele>
        <time>2017-05-26T14:52:32Z</time>
      </trkpt>
      <trkpt lat="45.72406" lon="5.71718">
        <ele>236</ele>
        <time>2017-05-26T14:52:32Z</time>
      </trkpt>
      <trkpt lat="45.724" lon="5.71713">
        <ele>236</ele>
        <time>2017-05-26T14:52:32Z</time>
      </trkpt>
      <trkpt lat="45.72395" lon="5.71711">
        <ele>236</ele>
        <time>2017-05-26T14:52:48Z</time>
      </trkpt>
      <trkpt lat="45.72389" lon="5.7171">
        <ele>236</ele>
        <time>2017-05-26T14:52:48Z</time>
      </trkpt>
      <trkpt lat="45.72384" lon="5.71708">
        <ele>229</ele>
        <time>2017-05-26T14:52:48Z</time>
      </trkpt>
      <trkpt lat="45.72378" lon="5.71702">
        <ele>229</ele>
        <time>2017-05-26T14:52:48Z</time>
      </trkpt>
      <trkpt lat="45.72375" lon="5.71699">
        <ele>234</ele>
        <time>2017-05-26T14:53:04Z</time>
      </trkpt>
      <trkpt lat="45.72371" lon="5.71694">
        <ele>234</ele>
        <time>2017-05-26T14:53:04Z</time>
      </trkpt>
      <trkpt lat="45.72368" lon="5.71692">
        <ele>234</ele>
        <time>2017-05-26T14:53:04Z</time>
      </trkpt>
      <trkpt lat="45.72366" lon="5.71692">
        <ele>234</ele>
        <time>2017-05-26T14:53:04Z</time>
      </trkpt>
      <trkpt lat="45.72363" lon="5.71692">
        <ele>234</ele>
        <time>2017-05-26T14:53:20Z</time>
      </trkpt>
      <trkpt lat="45.72361" lon="5.71691">
        <ele>234</ele>
        <time>2017-05-26T14:53:20Z</time>
      </trkpt>
      <trkpt lat="45.72357" lon="5.7169">
        <ele>234</ele>
        <time>2017-05-26T14:53:20Z</time>
      </trkpt>
      <trkpt lat="45.72352" lon="5.71691">
        <ele>234</ele>
        <time>2017-05-26T14:53:20Z</time>
      </trkpt>
      <trkpt lat="45.72347" lon="5.7169">
        <ele>234</ele>
        <time>2017-05-26T14:53:36Z</time>
      </trkpt>
      <trkpt lat="45.7234" lon="5.71691">
        <ele>234</ele>
        <time>2017-05-26T14:53:36Z</time>
      </trkpt>
      <trkpt lat="45.72334" lon="5.71692">
        <ele>234</ele>
        <time>2017-05-26T14:53:36Z</time>
      </trkpt>
      <trkpt lat="45.72327" lon="5.71695">
        <ele>234</ele>
        <time>2017-05-26T14:53:36Z</time>
      </trkpt>
      <trkpt lat="45.7232" lon="5.71698">
        <ele>234</ele>
        <time>2017-05-26T14:53:52Z</time>
      </trkpt>
      <trkpt lat="45.72317" lon="5.71701">
        <ele>234</ele>
        <time>2017-05-26T14:53:52Z</time>
      </trkpt>
      <trkpt lat="45.72312" lon="5.71704">
        <ele>234</ele>
        <time>2017-05-26T14:53:52Z</time>
      </trkpt>
      <trkpt lat="45.72308" lon="5.71703">
        <ele>234</ele>
        <time>2017-05-26T14:53:52Z</time>
      </trkpt>
      <trkpt lat="45.72308" lon="5.71698">
        <ele>234</ele>
        <time>2017-05-26T14:54:08Z</time>
      </trkpt>
      <trkpt lat="45.72305" lon="5.71694">
        <ele>234</ele>
        <time>2017-05-26T14:54:08Z</time>
      </trkpt>
      <trkpt lat="45.72299" lon="5.71696">
        <ele>234</ele>
        <time>2017-05-26T14:54:08Z</time>
      </trkpt>
      <trkpt lat="45.72296" lon="5.71699">
        <ele>234</ele>
        <time>2017-05-26T14:54:08Z</time>
      </trkpt>
      <trkpt lat="45.72289" lon="5.71696">
        <ele>243</ele>
        <time>2017-05-26T14:54:24Z</time>
      </trkpt>
      <trkpt lat="45.72281" lon="5.71695">
        <ele>243</ele>
        <time>2017-05-26T14:54:24Z</time>
      </trkpt>
      <trkpt lat="45.72273" lon="5.71693">
        <ele>243</ele>
        <time>2017-05-26T14:54:24Z</time>
      </trkpt>
      <trkpt lat="45.72265" lon="5.71694">
        <ele>243</ele>
        <time>2017-05-26T14:54:24Z</time>
      </trkpt>
      <trkpt lat="45.72259" lon="5.71699">
        <ele>243</ele>
        <time>2017-05-26T14:54:40Z</time>
      </trkpt>
      <trkpt lat="45.72253" lon="5.71702">
        <ele>243</ele>
        <time>2017-05-26T14:54:40Z</time>
      </trkpt>
      <trkpt lat="45.72249" lon="5.71701">
        <ele>243</ele>
        <time>2017-05-26T14:54:40Z</time>
      </trkpt>
      <trkpt lat="45.72249" lon="5.717">
        <ele>243</ele>
        <time>2017-05-26T14:54:40Z</time>
      </trkpt>
      <trkpt lat="45.7225" lon="5.71701">
        <ele>243</ele>
        <time>2017-05-26T14:54:56Z</time>
      </trkpt>
      <trkpt lat="45.72252" lon="5.71699">
        <ele>243</ele>
        <time>2017-05-26T14:54:56Z</time>
      </trkpt>
      <trkpt lat="45.72248" lon="5.71695">
        <ele>243</ele>
        <time>2017-05-26T14:54:56Z</time>
      </trkpt>
      <trkpt lat="45.72242" lon="5.71694">
        <ele>243</ele>
        <time>2017-05-26T14:54:56Z</time>
      </trkpt>
      <trkpt lat="45.72235" lon="5.71693">
        <ele>243</ele>
        <time>2017-05-26T14:55:12Z</time>
      </trkpt>
      <trkpt lat="45.72226" lon="5.71694">
        <ele>243</ele>
        <time>2017-05-26T14:55:12Z</time>
      </trkpt>
      <trkpt lat="45.72222" lon="5.71697">
        <ele>243</ele>
        <time>2017-05-26T14:55:12Z</time>
      </trkpt>
      <trkpt lat="45.72219" lon="5.71699">
        <ele>243</ele>
        <time>2017-05-26T14:55:12Z</time>
      </trkpt>
      <trkpt lat="45.72213" lon="5.71697">
        <ele>243</ele>
        <time>2017-05-26T14:55:28Z</time>
      </trkpt>
      <trkpt lat="45.72206" lon="5.71695">
        <ele>254</ele>
        <time>2017-05-26T14:55:28Z</time>
      </trkpt>
      <trkpt lat="45.72199" lon="5.71693">
        <ele>254</ele>
        <time>2017-05-26T14:55:28Z</time>
      </trkpt>
      <trkpt lat="45.72193" lon="5.71694">
        <ele>254</ele>
        <time>2017-05-26T14:55:28Z</time>
      </trkpt>
      <trkpt lat="45.72181" lon="5.71699">
        <ele>254</ele>
        <time>2017-05-26T14:55:44Z</time>
      </trkpt>
      <trkpt lat="45.72174" lon="5.71707">
        <ele>254</ele>
        <time>2017-05-26T14:55:44Z</time>
      </trkpt>
      <trkpt lat="45.72167" lon="5.71713">
        <ele>270</ele>
        <time>2017-05-26T14:55:44Z</time>
      </trkpt>
      <trkpt lat="45.72159" lon="5.71715">
        <ele>270</ele>
        <time>2017-05-26T14:55:44Z</time>
      </trkpt>
      <trkpt lat="45.72156" lon="5.71713">
        <ele>270</ele>
        <time>2017-05-26T14:56:00Z</time>
      </trkpt>
      <trkpt lat="45.72153" lon="5.71712">
        <ele>270</ele>
        <time>2017-05-26T14:56:00Z</time>
      </trkpt>
      <trkpt lat="45.7215" lon="5.71703">
        <ele>254</ele>
        <time>2017-05-26T14:56:00Z</time>
      </trkpt>
      <trkpt lat="45.72141" lon="5.71705">
        <ele>254</ele>
        <time>2017-05-26T14:56:00Z</time>
      </trkpt>
      <trkpt lat="45.72126" lon="5.71708">
        <ele>254</ele>
        <time>2017-05-26T14:56:32Z</time>
      </trkpt>
      <trkpt lat="45.72125" lon="5.71708">
        <ele>254</ele>
        <time>2017-05-26T14:56:32Z</time>
      </trkpt>
      <trkpt lat="45.72125" lon="5.71708">
        <ele>267</ele>
        <time>2017-05-26T14:56:32Z</time>
      </trkpt>
      <trkpt lat="45.72124" lon="5.71708">
        <ele>267</ele>
        <time>2017-05-26T14:56:32Z</time>
      </trkpt>
      <trkpt lat="45.72121" lon="5.71707">
        <ele>267</ele>
        <time>2017-05-26T14:56:32Z</time>
      </trkpt>
      <trkpt lat="45.72109" lon="5.71707">
        <ele>267</ele>
        <time>2017-05-26T14:56:48Z</time>
      </trkpt>
      <trkpt lat="45.72099" lon="5.71707">
        <ele>267</ele>
        <time>2017-05-26T14:56:48Z</time>
      </trkpt>
      <trkpt lat="45.72092" lon="5.71704">
        <ele>267</ele>
        <time>2017-05-26T14:56:48Z</time>
      </trkpt>
      <trkpt lat="45.72086" lon="5.71703">
        <ele>267</ele>
        <time>2017-05-26T14:56:48Z</time>
      </trkpt>
      <trkpt lat="45.7208" lon="5.71704">
        <ele>267</ele>
        <time>2017-05-26T14:57:04Z</time>
      </trkpt>
      <trkpt lat="45.72072" lon="5.71701">
        <ele>267</ele>
        <time>2017-05-26T14:57:04Z</time>
      </trkpt>
      <trkpt lat="45.72066" lon="5.71698">
        <ele>267</ele>
        <time>2017-05-26T14:57:04Z</time>
      </trkpt>
      <trkpt lat="45.72058" lon="5.71697">
        <ele>267</ele>
        <time>2017-05-26T14:57:04Z</time>
      </trkpt>
      <trkpt lat="45.72051" lon="5.71693">
        <ele>267</ele>
        <time>2017-05-26T14:57:20Z</time>
      </trkpt>
      <trkpt lat="45.72046" lon="5.7169">
        <ele>267</ele>
        <time>2017-05-26T14:57:20Z</time>
      </trkpt>
      <trkpt lat="45.7204" lon="5.71683">
        <ele>276</ele>
        <time>2017-05-26T14:57:20Z</time>
      </trkpt>
      <trkpt lat="45.72032" lon="5.71682">
        <ele>276</ele>
        <time>2017-05-26T14:57:20Z</time>
      </trkpt>
      <trkpt lat="45.72025" lon="5.71677">
        <ele>276</ele>
        <time>2017-05-26T14:57:36Z</time>
      </trkpt>
      <trkpt lat="45.7202" lon="5.7167">
        <ele>276</ele>
        <time>2017-05-26T14:57:36Z</time>
      </trkpt>
      <trkpt lat="45.72016" lon="5.71667">
        <ele>276</ele>
        <time>2017-05-26T14:57:36Z</time>
      </trkpt>
      <trkpt lat="45.72013" lon="5.71663">
        <ele>276</ele>
        <time>2017-05-26T14:57:36Z</time>
      </trkpt>
      <trkpt lat="45.7201" lon="5.71663">
        <ele>276</ele>
        <time>2017-05-26T14:57:52Z</time>
      </trkpt>
      <trkpt lat="45.72003" lon="5.71658">
        <ele>276</ele>
        <time>2017-05-26T14:57:52Z</time>
      </trkpt>
      <trkpt lat="45.71999" lon="5.71655">
        <ele>276</ele>
        <time>2017-05-26T14:57:52Z</time>
      </trkpt>
      <trkpt lat="45.71995" lon="5.71648">
        <ele>276</ele>
        <time>2017-05-26T14:57:52Z</time>
      </trkpt>
      <trkpt lat="45.71988" lon="5.71642">
        <ele>276</ele>
        <time>2017-05-26T14:58:08Z</time>
      </trkpt>
      <trkpt lat="45.71982" lon="5.71635">
        <ele>276</ele>
        <time>2017-05-26T14:58:08Z</time>
      </trkpt>
      <trkpt lat="45.71976" lon="5.7163">
        <ele>276</ele>
        <time>2017-05-26T14:58:08Z</time>
      </trkpt>
      <trkpt lat="45.7197" lon="5.71628">
        <ele>276</ele>
        <time>2017-05-26T14:58:08Z</time>
      </trkpt>
      <trkpt lat="45.71965" lon="5.71625">
        <ele>276</ele>
        <time>2017-05-26T14:58:24Z</time>
      </trkpt>
      <trkpt lat="45.71962" lon="5.71618">
        <ele>254</ele>
        <time>2017-05-26T14:58:24Z</time>
      </trkpt>
      <trkpt lat="45.71956" lon="5.71616">
        <ele>263</ele>
        <time>2017-05-26T14:58:24Z</time>
      </trkpt>
      <trkpt lat="45.71949" lon="5.71615">
        <ele>263</ele>
        <time>2017-05-26T14:58:24Z</time>
      </trkpt>
      <trkpt lat="45.71942" lon="5.71616">
        <ele>263</ele>
        <time>2017-05-26T14:58:48Z</time>
      </trkpt>
      <trkpt lat="45.71941" lon="5.71615">
        <ele>263</ele>
        <time>2017-05-26T14:58:48Z</time>
      </trkpt>
      <trkpt lat="45.71924" lon="5.71598">
        <ele>263</ele>
        <time>2017-05-26T14:58:48Z</time>
      </trkpt>
      <trkpt lat="45.71917" lon="5.71604">
        <ele>263</ele>
        <time>2017-05-26T14:58:48Z</time>
      </trkpt>
      <trkpt lat="45.71911" lon="5.71609">
        <ele>263</ele>
        <time>2017-05-26T14:59:04Z</time>
      </trkpt>
      <trkpt lat="45.71906" lon="5.7161">
        <ele>263</ele>
        <time>2017-05-26T14:59:04Z</time>
      </trkpt>
      <trkpt lat="45.71902" lon="5.71607">
        <ele>263</ele>
        <time>2017-05-26T14:59:04Z</time>
      </trkpt>
      <trkpt lat="45.71896" lon="5.71601">
        <ele>263</ele>
        <time>2017-05-26T14:59:04Z</time>
      </trkpt>
      <trkpt lat="45.71889" lon="5.71602">
        <ele>263</ele>
        <time>2017-05-26T14:59:20Z</time>
      </trkpt>
      <trkpt lat="45.71882" lon="5.71602">
        <ele>263</ele>
        <time>2017-05-26T14:59:20Z</time>
      </trkpt>
      <trkpt lat="45.71875" lon="5.71603">
        <ele>262</ele>
        <time>2017-05-26T14:59:20Z</time>
      </trkpt>
      <trkpt lat="45.71871" lon="5.71602">
        <ele>262</ele>
        <time>2017-05-26T14:59:20Z</time>
      </trkpt>
      <trkpt lat="45.71868" lon="5.71603">
        <ele>262</ele>
        <time>2017-05-26T14:59:36Z</time>
      </trkpt>
      <trkpt lat="45.71861" lon="5.71604">
        <ele>262</ele>
        <time>2017-05-26T14:59:36Z</time>
      </trkpt>
      <trkpt lat="45.71854" lon="5.71605">
        <ele>262</ele>
        <time>2017-05-26T14:59:36Z</time>
      </trkpt>
      <trkpt lat="45.71849" lon="5.71608">
        <ele>262</ele>
        <time>2017-05-26T14:59:36Z</time>
      </trkpt>
      <trkpt lat="45.71843" lon="5.71609">
        <ele>262</ele>
        <time>2017-05-26T14:59:52Z</time>
      </trkpt>
      <trkpt lat="45.7184" lon="5.71604">
        <ele>262</ele>
        <time>2017-05-26T14:59:52Z</time>
      </trkpt>
      <trkpt lat="45.71835" lon="5.71604">
        <ele>262</ele>
        <time>2017-05-26T14:59:52Z</time>
      </trkpt>
      <trkpt lat="45.7183" lon="5.71602">
        <ele>262</ele>
        <time>2017-05-26T14:59:52Z</time>
      </trkpt>
      <trkpt lat="45.71826" lon="5.71604">
        <ele>262</ele>
        <time>2017-05-26T15:00:08Z</time>
      </trkpt>
      <trkpt lat="45.71823" lon="5.71606">
        <ele>262</ele>
        <time>2017-05-26T15:00:08Z</time>
      </trkpt>
      <trkpt lat="45.7182" lon="5.71608">
        <ele>262</ele>
        <time>2017-05-26T15:00:08Z</time>
      </trkpt>
      <trkpt lat="45.71815" lon="5.71604">
        <ele>262</ele>
        <time>2017-05-26T15:00:08Z</time>
      </trkpt>
      <trkpt lat="45.71813" lon="5.71601">
        <ele>262</ele>
        <time>2017-05-26T15:00:40Z</time>
      </trkpt>
      <trkpt lat="45.71813" lon="5.71601">
        <ele>262</ele>
        <time>2017-05-26T15:00:40Z</time>
      </trkpt>
      <trkpt lat="45.71812" lon="5.716">
        <ele>262</ele>
        <time>2017-05-26T15:00:40Z</time>
      </trkpt>
      <trkpt lat="45.71808" lon="5.71599">
        <ele>262</ele>
        <time>2017-05-26T15:00:40Z</time>
      </trkpt>
      <trkpt lat="45.71801" lon="5.71598">
        <ele>262</ele>
        <time>2017-05-26T15:00:40Z</time>
      </trkpt>
      <trkpt lat="45.71789" lon="5.71599">
        <ele>270</ele>
        <time>2017-05-26T15:00:56Z</time>
      </trkpt>
      <trkpt lat="45.71777" lon="5.71595">
        <ele>270</ele>
        <time>2017-05-26T15:00:56Z</time>
      </trkpt>
      <trkpt lat="45.71768" lon="5.71589">
        <ele>270</ele>
        <time>2017-05-26T15:00:56Z</time>
      </trkpt>
      <trkpt lat="45.71759" lon="5.71583">
        <ele>270</ele>
        <time>2017-05-26T15:00:56Z</time>
      </trkpt>
      <trkpt lat="45.71756" lon="5.71579">
        <ele>270</ele>
        <time>2017-05-26T15:01:12Z</time>
      </trkpt>
      <trkpt lat="45.71746" lon="5.71575">
        <ele>270</ele>
        <time>2017-05-26T15:01:12Z</time>
      </trkpt>
      <trkpt lat="45.71738" lon="5.71574">
        <ele>270</ele>
        <time>2017-05-26T15:01:12Z</time>
      </trkpt>
      <trkpt lat="45.71732" lon="5.71572">
        <ele>270</ele>
        <time>2017-05-26T15:01:12Z</time>
      </trkpt>
      <trkpt lat="45.71728" lon="5.7157">
        <ele>270</ele>
        <time>2017-05-26T15:01:28Z</time>
      </trkpt>
      <trkpt lat="45.71724" lon="5.71569">
        <ele>270</ele>
        <time>2017-05-26T15:01:28Z</time>
      </trkpt>
      <trkpt lat="45.71719" lon="5.71566">
        <ele>270</ele>
        <time>2017-05-26T15:01:28Z</time>
      </trkpt>
      <trkpt lat="45.71715" lon="5.71566">
        <ele>270</ele>
        <time>2017-05-26T15:01:28Z</time>
      </trkpt>
      <trkpt lat="45.71709" lon="5.71563">
        <ele>270</ele>
        <time>2017-05-26T15:01:44Z</time>
      </trkpt>
      <trkpt lat="45.71704" lon="5.7156">
        <ele>274</ele>
        <time>2017-05-26T15:01:44Z</time>
      </trkpt>
      <trkpt lat="45.71697" lon="5.71556">
        <ele>274</ele>
        <time>2017-05-26T15:01:44Z</time>
      </trkpt>
      <trkpt lat="45.71689" lon="5.71554">
        <ele>274</ele>
        <time>2017-05-26T15:01:44Z</time>
      </trkpt>
      <trkpt lat="45.71682" lon="5.71552">
        <ele>274</ele>
        <time>2017-05-26T15:02:00Z</time>
      </trkpt>
      <trkpt lat="45.71678" lon="5.71549">
        <ele>274</ele>
        <time>2017-05-26T15:02:00Z</time>
      </trkpt>
      <trkpt lat="45.71673" lon="5.71552">
        <ele>274</ele>
        <time>2017-05-26T15:02:00Z</time>
      </trkpt>
      <trkpt lat="45.71667" lon="5.71553">
        <ele>274</ele>
        <time>2017-05-26T15:02:00Z</time>
      </trkpt>
      <trkpt lat="45.71661" lon="5.71551">
        <ele>274</ele>
        <time>2017-05-26T15:02:16Z</time>
      </trkpt>
      <trkpt lat="45.71656" lon="5.71553">
        <ele>274</ele>
        <time>2017-05-26T15:02:16Z</time>
      </trkpt>
      <trkpt lat="45.7165" lon="5.71552">
        <ele>274</ele>
        <time>2017-05-26T15:02:16Z</time>
      </trkpt>
      <trkpt lat="45.71646" lon="5.71552">
        <ele>274</ele>
        <time>2017-05-26T15:02:16Z</time>
      </trkpt>
      <trkpt lat="45.71639" lon="5.71551">
        <ele>274</ele>
        <time>2017-05-26T15:02:32Z</time>
      </trkpt>
      <trkpt lat="45.71633" lon="5.71551">
        <ele>274</ele>
        <time>2017-05-26T15:02:32Z</time>
      </trkpt>
      <trkpt lat="45.71628" lon="5.71548">
        <ele>274</ele>
        <time>2017-05-26T15:02:32Z</time>
      </trkpt>
      <trkpt lat="45.71623" lon="5.71545">
        <ele>270</ele>
        <time>2017-05-26T15:02:32Z</time>
      </trkpt>
      <trkpt lat="45.71617" lon="5.71545">
        <ele>270</ele>
        <time>2017-05-26T15:02:48Z</time>
      </trkpt>
      <trkpt lat="45.71612" lon="5.71542">
        <ele>270</ele>
        <time>2017-05-26T15:02:48Z</time>
      </trkpt>
      <trkpt lat="45.71606" lon="5.71543">
        <ele>270</ele>
        <time>2017-05-26T15:02:48Z</time>
      </trkpt>
      <trkpt lat="45.716" lon="5.71546">
        <ele>270</ele>
        <time>2017-05-26T15:02:48Z</time>
      </trkpt>
      <trkpt lat="45.71594" lon="5.71547">
        <ele>270</ele>
        <time>2017-05-26T15:03:04Z</time>
      </trkpt>
      <trkpt lat="45.71587" lon="5.71547">
        <ele>270</ele>
        <time>2017-05-26T15:03:04Z</time>
      </trkpt>
      <trkpt lat="45.71581" lon="5.71547">
        <ele>270</ele>
        <time>2017-05-26T15:03:04Z</time>
      </trkpt>
      <trkpt lat="45.71575" lon="5.71548">
        <ele>270</ele>
        <time>2017-05-26T15:03:04Z</time>
      </trkpt>
      <trkpt lat="45.71569" lon="5.71546">
        <ele>270</ele>
        <time>2017-05-26T15:03:20Z</time>
      </trkpt>
      <trkpt lat="45.71564" lon="5.71543">
        <ele>270</ele>
        <time>2017-05-26T15:03:20Z</time>
      </trkpt>
      <trkpt lat="45.71557" lon="5.71546">
        <ele>270</ele>
        <time>2017-05-26T15:03:20Z</time>
      </trkpt>
      <trkpt lat="45.71551" lon="5.71548">
        <ele>270</ele>
        <time>2017-05-26T15:03:20Z</time>
      </trkpt>
      <trkpt lat="45.71544" lon="5.71546">
        <ele>270</ele>
        <time>2017-05-26T15:03:36Z</time>
      </trkpt>
      <trkpt lat="45.71539" lon="5.71546">
        <ele>267</ele>
        <time>2017-05-26T15:03:36Z</time>
      </trkpt>
      <trkpt lat="45.71535" lon="5.71545">
        <ele>267</ele>
        <time>2017-05-26T15:03:36Z</time>
      </trkpt>
      <trkpt lat="45.71531" lon="5.71548">
        <ele>267</ele>
        <time>2017-05-26T15:03:36Z</time>
      </trkpt>
      <trkpt lat="45.71525" lon="5.71552">
        <ele>267</ele>
        <time>2017-05-26T15:03:52Z</time>
      </trkpt>
      <trkpt lat="45.71519" lon="5.71555">
        <ele>267</ele>
        <time>2017-05-26T15:03:52Z</time>
      </trkpt>
      <trkpt lat="45.71514" lon="5.71561">
        <ele>267</ele>
        <time>2017-05-26T15:03:52Z</time>
      </trkpt>
      <trkpt lat="45.71507" lon="5.71564">
        <ele>267</ele>
        <time>2017-05-26T15:03:52Z</time>
      </trkpt>
      <trkpt lat="45.71501" lon="5.71566">
        <ele>267</ele>
        <time>2017-05-26T15:04:08Z</time>
      </trkpt>
      <trkpt lat="45.71496" lon="5.7157">
        <ele>267</ele>
        <time>2017-05-26T15:04:08Z</time>
      </trkpt>
      <trkpt lat="45.7149" lon="5.71573">
        <ele>267</ele>
        <time>2017-05-26T15:04:08Z</time>
      </trkpt>
      <trkpt lat="45.71484" lon="5.71576">
        <ele>267</ele>
        <time>2017-05-26T15:04:08Z</time>
      </trkpt>
      <trkpt lat="45.71478" lon="5.7158">
        <ele>267</ele>
        <time>2017-05-26T15:04:24Z</time>
      </trkpt>
      <trkpt lat="45.71473" lon="5.71584">
        <ele>267</ele>
        <time>2017-05-26T15:04:24Z</time>
      </trkpt>
      <trkpt lat="45.71467" lon="5.71588">
        <ele>267</ele>
        <time>2017-05-26T15:04:24Z</time>
      </trkpt>
      <trkpt lat="45.71462" lon="5.7159">
        <ele>267</ele>
        <time>2017-05-26T15:04:24Z</time>
      </trkpt>
      <trkpt lat="45.71457" lon="5.71593">
        <ele>263</ele>
        <time>2017-05-26T15:04:40Z</time>
      </trkpt>
      <trkpt lat="45.71452" lon="5.71597">
        <ele>263</ele>
        <time>2017-05-26T15:04:40Z</time>
      </trkpt>
      <trkpt lat="45.71446" lon="5.71599">
        <ele>263</ele>
        <time>2017-05-26T15:04:40Z</time>
      </trkpt>
      <trkpt lat="45.71441" lon="5.71601">
        <ele>263</ele>
        <time>2017-05-26T15:04:40Z</time>
      </trkpt>
      <trkpt lat="45.71436" lon="5.71605">
        <ele>263</ele>
        <time>2017-05-26T15:04:56Z</time>
      </trkpt>
      <trkpt lat="45.71431" lon="5.71611">
        <ele>263</ele>
        <time>2017-05-26T15:04:56Z</time>
      </trkpt>
      <trkpt lat="45.71426" lon="5.71614">
        <ele>263</ele>
        <time>2017-05-26T15:04:56Z</time>
      </trkpt>
      <trkpt lat="45.71422" lon="5.71614">
        <ele>263</ele>
        <time>2017-05-26T15:04:56Z</time>
      </trkpt>
      <trkpt lat="45.71416" lon="5.71615">
        <ele>263</ele>
        <time>2017-05-26T15:05:12Z</time>
      </trkpt>
      <trkpt lat="45.71409" lon="5.71617">
        <ele>263</ele>
        <time>2017-05-26T15:05:12Z</time>
      </trkpt>
      <trkpt lat="45.71402" lon="5.71615">
        <ele>263</ele>
        <time>2017-05-26T15:05:12Z</time>
      </trkpt>
      <trkpt lat="45.71397" lon="5.71609">
        <ele>263</ele>
        <time>2017-05-26T15:05:12Z</time>
      </trkpt>
      <trkpt lat="45.71395" lon="5.71601">
        <ele>263</ele>
        <time>2017-05-26T15:05:28Z</time>
      </trkpt>
      <trkpt lat="45.71391" lon="5.71594">
        <ele>263</ele>
        <time>2017-05-26T15:05:28Z</time>
      </trkpt>
      <trkpt lat="45.71387" lon="5.71586">
        <ele>263</ele>
        <time>2017-05-26T15:05:28Z</time>
      </trkpt>
      <trkpt lat="45.71383" lon="5.7158">
        <ele>263</ele>
        <time>2017-05-26T15:05:28Z</time>
      </trkpt>
      <trkpt lat="45.71379" lon="5.71572">
        <ele>263</ele>
        <time>2017-05-26T15:05:44Z</time>
      </trkpt>
      <trkpt lat="45.71375" lon="5.71568">
        <ele>260</ele>
        <time>2017-05-26T15:05:44Z</time>
      </trkpt>
      <trkpt lat="45.71371" lon="5.71566">
        <ele>260</ele>
        <time>2017-05-26T15:05:44Z</time>
      </trkpt>
      <trkpt lat="45.71365" lon="5.71566">
        <ele>260</ele>
        <time>2017-05-26T15:05:44Z</time>
      </trkpt>
      <trkpt lat="45.71362" lon="5.71569">
        <ele>260</ele>
        <time>2017-05-26T15:06:00Z</time>
      </trkpt>
      <trkpt lat="45.71358" lon="5.71575">
        <ele>260</ele>
        <time>2017-05-26T15:06:00Z</time>
      </trkpt>
      <trkpt lat="45.71353" lon="5.7158">
        <ele>260</ele>
        <time>2017-05-26T15:06:00Z</time>
      </trkpt>
      <trkpt lat="45.71349" lon="5.71586">
        <ele>260</ele>
        <time>2017-05-26T15:06:00Z</time>
      </trkpt>
      <trkpt lat="45.71342" lon="5.71589">
        <ele>260</ele>
        <time>2017-05-26T15:06:16Z</time>
      </trkpt>
      <trkpt lat="45.71337" lon="5.71592">
        <ele>260</ele>
        <time>2017-05-26T15:06:16Z</time>
      </trkpt>
      <trkpt lat="45.71332" lon="5.71595">
        <ele>260</ele>
        <time>2017-05-26T15:06:16Z</time>
      </trkpt>
      <trkpt lat="45.71331" lon="5.71598">
        <ele>260</ele>
        <time>2017-05-26T15:06:16Z</time>
      </trkpt>
      <trkpt lat="45.71326" lon="5.71602">
        <ele>260</ele>
        <time>2017-05-26T15:06:32Z</time>
      </trkpt>
      <trkpt lat="45.71323" lon="5.71608">
        <ele>260</ele>
        <time>2017-05-26T15:06:32Z</time>
      </trkpt>
      <trkpt lat="45.71318" lon="5.7162">
        <ele>260</ele>
        <time>2017-05-26T15:06:32Z</time>
      </trkpt>
      <trkpt lat="45.71317" lon="5.71626">
        <ele>273</ele>
        <time>2017-05-26T15:06:32Z</time>
      </trkpt>
      <trkpt lat="45.71312" lon="5.71631">
        <ele>273</ele>
        <time>2017-05-26T15:06:48Z</time>
      </trkpt>
      <trkpt lat="45.71305" lon="5.71639">
        <ele>273</ele>
        <time>2017-05-26T15:06:48Z</time>
      </trkpt>
      <trkpt lat="45.71299" lon="5.71647">
        <ele>273</ele>
        <time>2017-05-26T15:06:48Z</time>
      </trkpt>
      <trkpt lat="45.71294" lon="5.71655">
        <ele>273</ele>
        <time>2017-05-26T15:06:48Z</time>
      </trkpt>
      <trkpt lat="45.71291" lon="5.7166">
        <ele>271</ele>
        <time>2017-05-26T15:07:04Z</time>
      </trkpt>
      <trkpt lat="45.71286" lon="5.71665">
        <ele>271</ele>
        <time>2017-05-26T15:07:04Z</time>
      </trkpt>
      <trkpt lat="45.71279" lon="5.7167">
        <ele>271</ele>
        <time>2017-05-26T15:07:04Z</time>
      </trkpt>
      <trkpt lat="45.71274" lon="5.71674">
        <ele>271</ele>
        <time>2017-05-26T15:07:04Z</time>
      </trkpt>
      <trkpt lat="45.7127" lon="5.71678">
        <ele>271</ele>
        <time>2017-05-26T15:07:20Z</time>
      </trkpt>
      <trkpt lat="45.71266" lon="5.71685">
        <ele>271</ele>
        <time>2017-05-26T15:07:20Z</time>
      </trkpt>
      <trkpt lat="45.71264" lon="5.71691">
        <ele>271</ele>
        <time>2017-05-26T15:07:20Z</time>
      </trkpt>
      <trkpt lat="45.71266" lon="5.71698">
        <ele>271</ele>
        <time>2017-05-26T15:07:20Z</time>
      </trkpt>
      <trkpt lat="45.71264" lon="5.71708">
        <ele>271</ele>
        <time>2017-05-26T15:07:36Z</time>
      </trkpt>
      <trkpt lat="45.7126" lon="5.71718">
        <ele>281</ele>
        <time>2017-05-26T15:07:36Z</time>
      </trkpt>
      <trkpt lat="45.7126" lon="5.71724">
        <ele>281</ele>
        <time>2017-05-26T15:07:36Z</time>
      </trkpt>
      <trkpt lat="45.7126" lon="5.71731">
        <ele>281</ele>
        <time>2017-05-26T15:07:36Z</time>
      </trkpt>
      <trkpt lat="45.7126" lon="5.71738">
        <ele>281</ele>
        <time>2017-05-26T15:07:52Z</time>
      </trkpt>
      <trkpt lat="45.71258" lon="5.71745">
        <ele>281</ele>
        <time>2017-05-26T15:07:52Z</time>
      </trkpt>
      <trkpt lat="45.71257" lon="5.71753">
        <ele>281</ele>
        <time>2017-05-26T15:07:52Z</time>
      </trkpt>
      <trkpt lat="45.71257" lon="5.71761">
        <ele>281</ele>
        <time>2017-05-26T15:07:52Z</time>
      </trkpt>
      <trkpt lat="45.71262" lon="5.71771">
        <ele>281</ele>
        <time>2017-05-26T15:08:08Z</time>
      </trkpt>
      <trkpt lat="45.71271" lon="5.71783">
        <ele>281</ele>
        <time>2017-05-26T15:08:08Z</time>
      </trkpt>
      <trkpt lat="45.71272" lon="5.71792">
        <ele>281</ele>
        <time>2017-05-26T15:08:08Z</time>
      </trkpt>
      <trkpt lat="45.71268" lon="5.71799">
        <ele>293</ele>
        <time>2017-05-26T15:08:08Z</time>
      </trkpt>
      <trkpt lat="45.71266" lon="5.71806">
        <ele>293</ele>
        <time>2017-05-26T15:08:24Z</time>
      </trkpt>
      <trkpt lat="45.71262" lon="5.71814">
        <ele>293</ele>
        <time>2017-05-26T15:08:24Z</time>
      </trkpt>
      <trkpt lat="45.71253" lon="5.71821">
        <ele>293</ele>
        <time>2017-05-26T15:08:24Z</time>
      </trkpt>
      <trkpt lat="45.71252" lon="5.71831">
        <ele>293</ele>
        <time>2017-05-26T15:08:24Z</time>
      </trkpt>
      <trkpt lat="45.7125" lon="5.71837">
        <ele>293</ele>
        <time>2017-05-26T15:08:40Z</time>
      </trkpt>
      <trkpt lat="45.71249" lon="5.71842">
        <ele>293</ele>
        <time>2017-05-26T15:08:40Z</time>
      </trkpt>
      <trkpt lat="45.71247" lon="5.71847">
        <ele>293</ele>
        <time>2017-05-26T15:08:40Z</time>
      </trkpt>
      <trkpt lat="45.71245" lon="5.71853">
        <ele>293</ele>
        <time>2017-05-26T15:08:40Z</time>
      </trkpt>
      <trkpt lat="45.71243" lon="5.71861">
        <ele>293</ele>
        <time>2017-05-26T15:08:56Z</time>
      </trkpt>
      <trkpt lat="45.71243" lon="5.71868">
        <ele>293</ele>
        <time>2017-05-26T15:08:56Z</time>
      </trkpt>
      <trkpt lat="45.71241" lon="5.71874">
        <ele>293</ele>
        <time>2017-05-26T15:08:56Z</time>
      </trkpt>
      <trkpt lat="45.71237" lon="5.7188">
        <ele>312</ele>
        <time>2017-05-26T15:08:56Z</time>
      </trkpt>
      <trkpt lat="45.71233" lon="5.71886">
        <ele>312</ele>
        <time>2017-05-26T15:09:12Z</time>
      </trkpt>
      <trkpt lat="45.71228" lon="5.7189">
        <ele>312</ele>
        <time>2017-05-26T15:09:12Z</time>
      </trkpt>
      <trkpt lat="45.71222" lon="5.71893">
        <ele>312</ele>
        <time>2017-05-26T15:09:12Z</time>
      </trkpt>
      <trkpt lat="45.71219" lon="5.71899">
        <ele>312</ele>
        <time>2017-05-26T15:09:12Z</time>
      </trkpt>
      <trkpt lat="45.71219" lon="5.71904">
        <ele>312</ele>
        <time>2017-05-26T15:09:28Z</time>
      </trkpt>
      <trkpt lat="45.71217" lon="5.7191">
        <ele>312</ele>
        <time>2017-05-26T15:09:28Z</time>
      </trkpt>
      <trkpt lat="45.71215" lon="5.71915">
        <ele>312</ele>
        <time>2017-05-26T15:09:28Z</time>
      </trkpt>
      <trkpt lat="45.71212" lon="5.71921">
        <ele>312</ele>
        <time>2017-05-26T15:09:28Z</time>
      </trkpt>
      <trkpt lat="45.71208" lon="5.71929">
        <ele>283</ele>
        <time>2017-05-26T15:09:44Z</time>
      </trkpt>
      <trkpt lat="45.71206" lon="5.71935">
        <ele>283</ele>
        <time>2017-05-26T15:09:44Z</time>
      </trkpt>
      <trkpt lat="45.71204" lon="5.71942">
        <ele>283</ele>
        <time>2017-05-26T15:09:44Z</time>
      </trkpt>
      <trkpt lat="45.71202" lon="5.71945">
        <ele>283</ele>
        <time>2017-05-26T15:09:44Z</time>
      </trkpt>
      <trkpt lat="45.71195" lon="5.71959">
        <ele>304</ele>
        <time>2017-05-26T15:10:00Z</time>
      </trkpt>
      <trkpt lat="45.71189" lon="5.71965">
        <ele>304</ele>
        <time>2017-05-26T15:10:00Z</time>
      </trkpt>
      <trkpt lat="45.71187" lon="5.71969">
        <ele>304</ele>
        <time>2017-05-26T15:10:00Z</time>
      </trkpt>
      <trkpt lat="45.71185" lon="5.71975">
        <ele>304</ele>
        <time>2017-05-26T15:10:00Z</time>
      </trkpt>
      <trkpt lat="45.71181" lon="5.71981">
        <ele>304</ele>
        <time>2017-05-26T15:10:16Z</time>
      </trkpt>
      <trkpt lat="45.71177" lon="5.71989">
        <ele>304</ele>
        <time>2017-05-26T15:10:16Z</time>
      </trkpt>
      <trkpt lat="45.71174" lon="5.71997">
        <ele>304</ele>
        <time>2017-05-26T15:10:16Z</time>
      </trkpt>
      <trkpt lat="45.71173" lon="5.72003">
        <ele>304</ele>
        <time>2017-05-26T15:10:16Z</time>
      </trkpt>
      <trkpt lat="45.71171" lon="5.7201">
        <ele>304</ele>
        <time>2017-05-26T15:10:32Z</time>
      </trkpt>
      <trkpt lat="45.71168" lon="5.72013">
        <ele>304</ele>
        <time>2017-05-26T15:10:32Z</time>
      </trkpt>
      <trkpt lat="45.71165" lon="5.72017">
        <ele>304</ele>
        <time>2017-05-26T15:10:32Z</time>
      </trkpt>
      <trkpt lat="45.71162" lon="5.72022">
        <ele>304</ele>
        <time>2017-05-26T15:10:32Z</time>
      </trkpt>
      <trkpt lat="45.71159" lon="5.72027">
        <ele>304</ele>
        <time>2017-05-26T15:10:48Z</time>
      </trkpt>
      <trkpt lat="45.71156" lon="5.72035">
        <ele>304</ele>
        <time>2017-05-26T15:10:48Z</time>
      </trkpt>
      <trkpt lat="45.71153" lon="5.72044">
        <ele>341</ele>
        <time>2017-05-26T15:10:48Z</time>
      </trkpt>
      <trkpt lat="45.7115" lon="5.7205">
        <ele>341</ele>
        <time>2017-05-26T15:10:48Z</time>
      </trkpt>
      <trkpt lat="45.71147" lon="5.72056">
        <ele>341</ele>
        <time>2017-05-26T15:11:04Z</time>
      </trkpt>
      <trkpt lat="45.71145" lon="5.72061">
        <ele>341</ele>
        <time>2017-05-26T15:11:04Z</time>
      </trkpt>
      <trkpt lat="45.71143" lon="5.72066">
        <ele>341</ele>
        <time>2017-05-26T15:11:04Z</time>
      </trkpt>
      <trkpt lat="45.71143" lon="5.72073">
        <ele>341</ele>
        <time>2017-05-26T15:11:04Z</time>
      </trkpt>
      <trkpt lat="45.71144" lon="5.72078">
        <ele>341</ele>
        <time>2017-05-26T15:11:20Z</time>
      </trkpt>
      <trkpt lat="45.71142" lon="5.72084">
        <ele>341</ele>
        <time>2017-05-26T15:11:20Z</time>
      </trkpt>
      <trkpt lat="45.71139" lon="5.72089">
        <ele>341</ele>
        <time>2017-05-26T15:11:20Z</time>
      </trkpt>
      <trkpt lat="45.71134" lon="5.72095">
        <ele>341</ele>
        <time>2017-05-26T15:11:20Z</time>
      </trkpt>
      <trkpt lat="45.71128" lon="5.721">
        <ele>341</ele>
        <time>2017-05-26T15:11:36Z</time>
      </trkpt>
      <trkpt lat="45.71128" lon="5.72105">
        <ele>341</ele>
        <time>2017-05-26T15:11:36Z</time>
      </trkpt>
      <trkpt lat="45.71127" lon="5.72107">
        <ele>341</ele>
        <time>2017-05-26T15:11:36Z</time>
      </trkpt>
      <trkpt lat="45.71119" lon="5.7211">
        <ele>333</ele>
        <time>2017-05-26T15:11:36Z</time>
      </trkpt>
      <trkpt lat="45.71111" lon="5.72115">
        <ele>333</ele>
        <time>2017-05-26T15:11:52Z</time>
      </trkpt>
      <trkpt lat="45.71107" lon="5.72123">
        <ele>333</ele>
        <time>2017-05-26T15:11:52Z</time>
      </trkpt>
      <trkpt lat="45.71105" lon="5.72133">
        <ele>373</ele>
        <time>2017-05-26T15:11:52Z</time>
      </trkpt>
      <trkpt lat="45.71106" lon="5.72141">
        <ele>373</ele>
        <time>2017-05-26T15:11:52Z</time>
      </trkpt>
      <trkpt lat="45.7111" lon="5.72145">
        <ele>373</ele>
        <time>2017-05-26T15:12:08Z</time>
      </trkpt>
      <trkpt lat="45.71115" lon="5.72147">
        <ele>373</ele>
        <time>2017-05-26T15:12:08Z</time>
      </trkpt>
      <trkpt lat="45.71121" lon="5.72146">
        <ele>373</ele>
        <time>2017-05-26T15:12:08Z</time>
      </trkpt>
      <trkpt lat="45.71125" lon="5.72144">
        <ele>381</ele>
        <time>2017-05-26T15:12:08Z</time>
      </trkpt>
      <trkpt lat="45.71129" lon="5.72147">
        <ele>381</ele>
        <time>2017-05-26T15:12:24Z</time>
      </trkpt>
      <trkpt lat="45.71128" lon="5.72151">
        <ele>381</ele>
        <time>2017-05-26T15:12:24Z</time>
      </trkpt>
      <trkpt lat="45.71126" lon="5.72155">
        <ele>381</ele>
        <time>2017-05-26T15:12:24Z</time>
      </trkpt>
      <trkpt lat="45.71123" lon="5.72158">
        <ele>373</ele>
        <time>2017-05-26T15:12:24Z</time>
      </trkpt>
      <trkpt lat="45.71119" lon="5.7216">
        <ele>373</ele>
        <time>2017-05-26T15:12:44Z</time>
      </trkpt>
      <trkpt lat="45.71117" lon="5.72166">
        <ele>373</ele>
        <time>2017-05-26T15:12:44Z</time>
      </trkpt>
      <trkpt lat="45.71121" lon="5.72169">
        <ele>373</ele>
        <time>2017-05-26T15:12:44Z</time>
      </trkpt>
      <trkpt lat="45.71124" lon="5.7217">
        <ele>373</ele>
        <time>2017-05-26T15:12:44Z</time>
      </trkpt>
      <trkpt lat="45.71126" lon="5.72172">
        <ele>381</ele>
        <time>2017-05-26T15:12:44Z</time>
      </trkpt>
      <trkpt lat="45.71128" lon="5.72176">
        <ele>381</ele>
        <time>2017-05-26T15:13:00Z</time>
      </trkpt>
      <trkpt lat="45.71125" lon="5.72179">
        <ele>381</ele>
        <time>2017-05-26T15:13:00Z</time>
      </trkpt>
      <trkpt lat="45.71122" lon="5.7218">
        <ele>373</ele>
        <time>2017-05-26T15:13:00Z</time>
      </trkpt>
      <trkpt lat="45.71119" lon="5.72181">
        <ele>373</ele>
        <time>2017-05-26T15:13:00Z</time>
      </trkpt>
      <trkpt lat="45.71114" lon="5.72187">
        <ele>373</ele>
        <time>2017-05-26T15:13:16Z</time>
      </trkpt>
      <trkpt lat="45.71114" lon="5.72195">
        <ele>373</ele>
        <time>2017-05-26T15:13:16Z</time>
      </trkpt>
      <trkpt lat="45.71118" lon="5.72204">
        <ele>373</ele>
        <time>2017-05-26T15:13:16Z</time>
      </trkpt>
      <trkpt lat="45.71125" lon="5.7221">
        <ele>387</ele>
        <time>2017-05-26T15:13:16Z</time>
      </trkpt>
      <trkpt lat="45.71128" lon="5.72213">
        <ele>397</ele>
        <time>2017-05-26T15:13:32Z</time>
      </trkpt>
      <trkpt lat="45.7113" lon="5.7221">
        <ele>397</ele>
        <time>2017-05-26T15:13:32Z</time>
      </trkpt>
      <trkpt lat="45.71132" lon="5.72206">
        <ele>381</ele>
        <time>2017-05-26T15:13:32Z</time>
      </trkpt>
      <trkpt lat="45.71135" lon="5.72202">
        <ele>381</ele>
        <time>2017-05-26T15:13:32Z</time>
      </trkpt>
      <trkpt lat="45.71136" lon="5.72203">
        <ele>381</ele>
        <time>2017-05-26T15:13:48Z</time>
      </trkpt>
      <trkpt lat="45.71136" lon="5.72209">
        <ele>397</ele>
        <time>2017-05-26T15:13:48Z</time>
      </trkpt>
      <trkpt lat="45.71135" lon="5.72215">
        <ele>397</ele>
        <time>2017-05-26T15:13:48Z</time>
      </trkpt>
      <trkpt lat="45.71135" lon="5.7222">
        <ele>397</ele>
        <time>2017-05-26T15:13:48Z</time>
      </trkpt>
      <trkpt lat="45.71131" lon="5.72223">
        <ele>397</ele>
        <time>2017-05-26T15:14:04Z</time>
      </trkpt>
      <trkpt lat="45.71126" lon="5.72226">
        <ele>397</ele>
        <time>2017-05-26T15:14:04Z</time>
      </trkpt>
      <trkpt lat="45.71124" lon="5.72232">
        <ele>387</ele>
        <time>2017-05-26T15:14:04Z</time>
      </trkpt>
      <trkpt lat="45.71122" lon="5.72238">
        <ele>387</ele>
        <time>2017-05-26T15:14:04Z</time>
      </trkpt>
      <trkpt lat="45.71124" lon="5.7225">
        <ele>387</ele>
        <time>2017-05-26T15:14:36Z</time>
      </trkpt>
      <trkpt lat="45.71126" lon="5.72244">
        <ele>397</ele>
        <time>2017-05-26T15:14:36Z</time>
      </trkpt>
      <trkpt lat="45.71129" lon="5.72238">
        <ele>397</ele>
        <time>2017-05-26T15:14:36Z</time>
      </trkpt>
      <trkpt lat="45.7113" lon="5.72231">
        <ele>397</ele>
        <time>2017-05-26T15:14:36Z</time>
      </trkpt>
      <trkpt lat="45.71135" lon="5.7223">
        <ele>397</ele>
        <time>2017-05-26T15:14:36Z</time>
      </trkpt>
      <trkpt lat="45.71139" lon="5.72232">
        <ele>397</ele>
        <time>2017-05-26T15:14:52Z</time>
      </trkpt>
      <trkpt lat="45.71137" lon="5.72233">
        <ele>397</ele>
        <time>2017-05-26T15:14:52Z</time>
      </trkpt>
      <trkpt lat="45.71133" lon="5.72238">
        <ele>397</ele>
        <time>2017-05-26T15:14:52Z</time>
      </trkpt>
      <trkpt lat="45.71131" lon="5.72246">
        <ele>397</ele>
        <time>2017-05-26T15:14:52Z</time>
      </trkpt>
      <trkpt lat="45.71124" lon="5.72251">
        <ele>387</ele>
        <time>2017-05-26T15:15:08Z</time>
      </trkpt>
      <trkpt lat="45.71123" lon="5.72257">
        <ele>387</ele>
        <time>2017-05-26T15:15:08Z</time>
      </trkpt>
      <trkpt lat="45.71121" lon="5.72264">
        <ele>387</ele>
        <time>2017-05-26T15:15:08Z</time>
      </trkpt>
      <trkpt lat="45.71123" lon="5.72272">
        <ele>387</ele>
        <time>2017-05-26T15:15:08Z</time>
      </trkpt>
      <trkpt lat="45.71124" lon="5.72281">
        <ele>387</ele>
        <time>2017-05-26T15:15:24Z</time>
      </trkpt>
      <trkpt lat="45.7112" lon="5.72293">
        <ele>390</ele>
        <time>2017-05-26T15:15:24Z</time>
      </trkpt>
      <trkpt lat="45.71115" lon="5.72302">
        <ele>390</ele>
        <time>2017-05-26T15:15:24Z</time>
      </trkpt>
      <trkpt lat="45.71111" lon="5.72308">
        <ele>390</ele>
        <time>2017-05-26T15:15:24Z</time>
      </trkpt>
      <trkpt lat="45.71116" lon="5.72315">
        <ele>390</ele>
        <time>2017-05-26T15:15:40Z</time>
      </trkpt>
      <trkpt lat="45.7112" lon="5.72322">
        <ele>390</ele>
        <time>2017-05-26T15:15:40Z</time>
      </trkpt>
      <trkpt lat="45.71121" lon="5.72329">
        <ele>390</ele>
        <time>2017-05-26T15:15:40Z</time>
      </trkpt>
      <trkpt lat="45.71123" lon="5.72336">
        <ele>390</ele>
        <time>2017-05-26T15:15:40Z</time>
      </trkpt>
      <trkpt lat="45.71122" lon="5.72343">
        <ele>390</ele>
        <time>2017-05-26T15:15:56Z</time>
      </trkpt>
      <trkpt lat="45.7112" lon="5.72351">
        <ele>390</ele>
        <time>2017-05-26T15:15:56Z</time>
      </trkpt>
      <trkpt lat="45.71112" lon="5.72361">
        <ele>390</ele>
        <time>2017-05-26T15:15:56Z</time>
      </trkpt>
      <trkpt lat="45.71103" lon="5.72371">
        <ele>390</ele>
        <time>2017-05-26T15:15:56Z</time>
      </trkpt>
      <trkpt lat="45.71098" lon="5.7238">
        <ele>390</ele>
        <time>2017-05-26T15:16:12Z</time>
      </trkpt>
      <trkpt lat="45.71093" lon="5.72387">
        <ele>390</ele>
        <time>2017-05-26T15:16:12Z</time>
      </trkpt>
      <trkpt lat="45.71095" lon="5.72394">
        <ele>390</ele>
        <time>2017-05-26T15:16:12Z</time>
      </trkpt>
      <trkpt lat="45.71094" lon="5.724">
        <ele>390</ele>
        <time>2017-05-26T15:16:12Z</time>
      </trkpt>
      <trkpt lat="45.71093" lon="5.72405">
        <ele>390</ele>
        <time>2017-05-26T15:16:28Z</time>
      </trkpt>
      <trkpt lat="45.71085" lon="5.72413">
        <ele>390</ele>
        <time>2017-05-26T15:16:28Z</time>
      </trkpt>
      <trkpt lat="45.71089" lon="5.72421">
        <ele>390</ele>
        <time>2017-05-26T15:16:28Z</time>
      </trkpt>
      <trkpt lat="45.71099" lon="5.72428">
        <ele>390</ele>
        <time>2017-05-26T15:16:28Z</time>
      </trkpt>
      <trkpt lat="45.71114" lon="5.72446">
        <ele>390</ele>
        <time>2017-05-26T15:17:08Z</time>
      </trkpt>
      <trkpt lat="45.71113" lon="5.72448">
        <ele>390</ele>
        <time>2017-05-26T15:17:08Z</time>
      </trkpt>
      <trkpt lat="45.71118" lon="5.72456">
        <ele>390</ele>
        <time>2017-05-26T15:17:08Z</time>
      </trkpt>
      <trkpt lat="45.71119" lon="5.72463">
        <ele>389</ele>
        <time>2017-05-26T15:17:08Z</time>
      </trkpt>
      <trkpt lat="45.71118" lon="5.72469">
        <ele>389</ele>
        <time>2017-05-26T15:17:08Z</time>
      </trkpt>
      <trkpt lat="45.71111" lon="5.72474">
        <ele>389</ele>
        <time>2017-05-26T15:18:24Z</time>
      </trkpt>
      <trkpt lat="45.7111" lon="5.72475">
        <ele>389</ele>
        <time>2017-05-26T15:18:24Z</time>
      </trkpt>
      <trkpt lat="45.7111" lon="5.72476">
        <ele>389</ele>
        <time>2017-05-26T15:18:24Z</time>
      </trkpt>
      <trkpt lat="45.7111" lon="5.72476">
        <ele>389</ele>
        <time>2017-05-26T15:18:24Z</time>
      </trkpt>
      <trkpt lat="45.71109" lon="5.72477">
        <ele>389</ele>
        <time>2017-05-26T15:18:24Z</time>
      </trkpt>
      <trkpt lat="45.7111" lon="5.72477">
        <ele>389</ele>
        <time>2017-05-26T15:18:48Z</time>
      </trkpt>
      <trkpt lat="45.7111" lon="5.72478">
        <ele>389</ele>
        <time>2017-05-26T15:18:48Z</time>
      </trkpt>
      <trkpt lat="45.71114" lon="5.72483">
        <ele>389</ele>
        <time>2017-05-26T15:18:48Z</time>
      </trkpt>
      <trkpt lat="45.71115" lon="5.72485">
        <ele>389</ele>
        <time>2017-05-26T15:18:48Z</time>
      </trkpt>
      <trkpt lat="45.71118" lon="5.72487">
        <ele>389</ele>
        <time>2017-05-26T15:18:48Z</time>
      </trkpt>
      <trkpt lat="45.71121" lon="5.72488">
        <ele>389</ele>
        <time>2017-05-26T15:19:04Z</time>
      </trkpt>
      <trkpt lat="45.71122" lon="5.72489">
        <ele>389</ele>
        <time>2017-05-26T15:19:04Z</time>
      </trkpt>
      <trkpt lat="45.71131" lon="5.72498">
        <ele>407</ele>
        <time>2017-05-26T15:19:04Z</time>
      </trkpt>
      <trkpt lat="45.71143" lon="5.72511">
        <ele>407</ele>
        <time>2017-05-26T15:19:04Z</time>
      </trkpt>
      <trkpt lat="45.71154" lon="5.72523">
        <ele>407</ele>
        <time>2017-05-26T15:19:20Z</time>
      </trkpt>
      <trkpt lat="45.71159" lon="5.72535">
        <ele>407</ele>
        <time>2017-05-26T15:19:20Z</time>
      </trkpt>
      <trkpt lat="45.71155" lon="5.72548">
        <ele>407</ele>
        <time>2017-05-26T15:19:20Z</time>
      </trkpt>
      <trkpt lat="45.71151" lon="5.72558">
        <ele>407</ele>
        <time>2017-05-26T15:19:20Z</time>
      </trkpt>
      <trkpt lat="45.71147" lon="5.72566">
        <ele>407</ele>
        <time>2017-05-26T15:19:36Z</time>
      </trkpt>
      <trkpt lat="45.71144" lon="5.72574">
        <ele>407</ele>
        <time>2017-05-26T15:19:36Z</time>
      </trkpt>
      <trkpt lat="45.71144" lon="5.72583">
        <ele>407</ele>
        <time>2017-05-26T15:19:36Z</time>
      </trkpt>
      <trkpt lat="45.71142" lon="5.7259">
        <ele>407</ele>
        <time>2017-05-26T15:19:36Z</time>
      </trkpt>
      <trkpt lat="45.71139" lon="5.72596">
        <ele>407</ele>
        <time>2017-05-26T15:19:52Z</time>
      </trkpt>
      <trkpt lat="45.71137" lon="5.72601">
        <ele>407</ele>
        <time>2017-05-26T15:19:52Z</time>
      </trkpt>
      <trkpt lat="45.71134" lon="5.72607">
        <ele>407</ele>
        <time>2017-05-26T15:19:52Z</time>
      </trkpt>
      <trkpt lat="45.71134" lon="5.7261">
        <ele>407</ele>
        <time>2017-05-26T15:19:52Z</time>
      </trkpt>
      <trkpt lat="45.71134" lon="5.72614">
        <ele>407</ele>
        <time>2017-05-26T15:20:12Z</time>
      </trkpt>
      <trkpt lat="45.71134" lon="5.72618">
        <ele>407</ele>
        <time>2017-05-26T15:20:12Z</time>
      </trkpt>
      <trkpt lat="45.71132" lon="5.72622">
        <ele>407</ele>
        <time>2017-05-26T15:20:12Z</time>
      </trkpt>
      <trkpt lat="45.7113" lon="5.72625">
        <ele>398</ele>
        <time>2017-05-26T15:20:12Z</time>
      </trkpt>
      <trkpt lat="45.71129" lon="5.72632">
        <ele>398</ele>
        <time>2017-05-26T15:20:12Z</time>
      </trkpt>
      <trkpt lat="45.71127" lon="5.72638">
        <ele>398</ele>
        <time>2017-05-26T15:20:28Z</time>
      </trkpt>
      <trkpt lat="45.71125" lon="5.72645">
        <ele>364</ele>
        <time>2017-05-26T15:20:28Z</time>
      </trkpt>
      <trkpt lat="45.71122" lon="5.72651">
        <ele>364</ele>
        <time>2017-05-26T15:20:28Z</time>
      </trkpt>
      <trkpt lat="45.71119" lon="5.72656">
        <ele>364</ele>
        <time>2017-05-26T15:20:28Z</time>
      </trkpt>
      <trkpt lat="45.71116" lon="5.72663">
        <ele>364</ele>
        <time>2017-05-26T15:20:44Z</time>
      </trkpt>
      <trkpt lat="45.71114" lon="5.7267">
        <ele>364</ele>
        <time>2017-05-26T15:20:44Z</time>
      </trkpt>
      <trkpt lat="45.71111" lon="5.72676">
        <ele>364</ele>
        <time>2017-05-26T15:20:44Z</time>
      </trkpt>
      <trkpt lat="45.71109" lon="5.72682">
        <ele>364</ele>
        <time>2017-05-26T15:20:44Z</time>
      </trkpt>
      <trkpt lat="45.71109" lon="5.72688">
        <ele>364</ele>
        <time>2017-05-26T15:21:00Z</time>
      </trkpt>
      <trkpt lat="45.71111" lon="5.72694">
        <ele>364</ele>
        <time>2017-05-26T15:21:00Z</time>
      </trkpt>
      <trkpt lat="45.71112" lon="5.72699">
        <ele>364</ele>
        <time>2017-05-26T15:21:00Z</time>
      </trkpt>
      <trkpt lat="45.71114" lon="5.72705">
        <ele>364</ele>
        <time>2017-05-26T15:21:00Z</time>
      </trkpt>
      <trkpt lat="45.71117" lon="5.7271">
        <ele>336</ele>
        <time>2017-05-26T15:21:16Z</time>
      </trkpt>
      <trkpt lat="45.71118" lon="5.72717">
        <ele>336</ele>
        <time>2017-05-26T15:21:16Z</time>
      </trkpt>
      <trkpt lat="45.71121" lon="5.72721">
        <ele>336</ele>
        <time>2017-05-26T15:21:16Z</time>
      </trkpt>
      <trkpt lat="45.71124" lon="5.72725">
        <ele>336</ele>
        <time>2017-05-26T15:21:16Z</time>
      </trkpt>
      <trkpt lat="45.71126" lon="5.7273">
        <ele>401</ele>
        <time>2017-05-26T15:21:32Z</time>
      </trkpt>
      <trkpt lat="45.71128" lon="5.72735">
        <ele>401</ele>
        <time>2017-05-26T15:21:32Z</time>
      </trkpt>
      <trkpt lat="45.71128" lon="5.72743">
        <ele>401</ele>
        <time>2017-05-26T15:21:32Z</time>
      </trkpt>
      <trkpt lat="45.71125" lon="5.72748">
        <ele>401</ele>
        <time>2017-05-26T15:21:32Z</time>
      </trkpt>
      <trkpt lat="45.71125" lon="5.72755">
        <ele>336</ele>
        <time>2017-05-26T15:21:48Z</time>
      </trkpt>
      <trkpt lat="45.71127" lon="5.72762">
        <ele>401</ele>
        <time>2017-05-26T15:21:48Z</time>
      </trkpt>
      <trkpt lat="45.71131" lon="5.72767">
        <ele>401</ele>
        <time>2017-05-26T15:21:48Z</time>
      </trkpt>
      <trkpt lat="45.71131" lon="5.72774">
        <ele>401</ele>
        <time>2017-05-26T15:21:48Z</time>
      </trkpt>
      <trkpt lat="45.71131" lon="5.72782">
        <ele>401</ele>
        <time>2017-05-26T15:22:04Z</time>
      </trkpt>
      <trkpt lat="45.71131" lon="5.72789">
        <ele>401</ele>
        <time>2017-05-26T15:22:04Z</time>
      </trkpt>
      <trkpt lat="45.71134" lon="5.72794">
        <ele>379</ele>
        <time>2017-05-26T15:22:04Z</time>
      </trkpt>
      <trkpt lat="45.71137" lon="5.72798">
        <ele>379</ele>
        <time>2017-05-26T15:22:04Z</time>
      </trkpt>
      <trkpt lat="45.71139" lon="5.72803">
        <ele>379</ele>
        <time>2017-05-26T15:22:20Z</time>
      </trkpt>
      <trkpt lat="45.71142" lon="5.72809">
        <ele>379</ele>
        <time>2017-05-26T15:22:20Z</time>
      </trkpt>
      <trkpt lat="45.71144" lon="5.72815">
        <ele>379</ele>
        <time>2017-05-26T15:22:20Z</time>
      </trkpt>
      <trkpt lat="45.71149" lon="5.72822">
        <ele>379</ele>
        <time>2017-05-26T15:22:20Z</time>
      </trkpt>
      <trkpt lat="45.71151" lon="5.7283">
        <ele>379</ele>
        <time>2017-05-26T15:22:36Z</time>
      </trkpt>
      <trkpt lat="45.71154" lon="5.72836">
        <ele>379</ele>
        <time>2017-05-26T15:22:36Z</time>
      </trkpt>
      <trkpt lat="45.71155" lon="5.72843">
        <ele>379</ele>
        <time>2017-05-26T15:22:36Z</time>
      </trkpt>
      <trkpt lat="45.71156" lon="5.72849">
        <ele>379</ele>
        <time>2017-05-26T15:22:36Z</time>
      </trkpt>
      <trkpt lat="45.71157" lon="5.72856">
        <ele>379</ele>
        <time>2017-05-26T15:22:52Z</time>
      </trkpt>
      <trkpt lat="45.7116" lon="5.72862">
        <ele>379</ele>
        <time>2017-05-26T15:22:52Z</time>
      </trkpt>
      <trkpt lat="45.71161" lon="5.7287">
        <ele>379</ele>
        <time>2017-05-26T15:22:52Z</time>
      </trkpt>
      <trkpt lat="45.71162" lon="5.72877">
        <ele>356</ele>
        <time>2017-05-26T15:22:52Z</time>
      </trkpt>
      <trkpt lat="45.71165" lon="5.72884">
        <ele>356</ele>
        <time>2017-05-26T15:23:08Z</time>
      </trkpt>
      <trkpt lat="45.71169" lon="5.72889">
        <ele>356</ele>
        <time>2017-05-26T15:23:08Z</time>
      </trkpt>
      <trkpt lat="45.71173" lon="5.72895">
        <ele>356</ele>
        <time>2017-05-26T15:23:08Z</time>
      </trkpt>
      <trkpt lat="45.71175" lon="5.729">
        <ele>356</ele>
        <time>2017-05-26T15:23:08Z</time>
      </trkpt>
      <trkpt lat="45.71176" lon="5.72907">
        <ele>356</ele>
        <time>2017-05-26T15:23:24Z</time>
      </trkpt>
      <trkpt lat="45.71178" lon="5.72914">
        <ele>356</ele>
        <time>2017-05-26T15:23:24Z</time>
      </trkpt>
      <trkpt lat="45.71181" lon="5.7292">
        <ele>356</ele>
        <time>2017-05-26T15:23:24Z</time>
      </trkpt>
      <trkpt lat="45.71183" lon="5.72926">
        <ele>356</ele>
        <time>2017-05-26T15:23:24Z</time>
      </trkpt>
      <trkpt lat="45.71185" lon="5.72932">
        <ele>356</ele>
        <time>2017-05-26T15:23:40Z</time>
      </trkpt>
      <trkpt lat="45.71186" lon="5.72938">
        <ele>356</ele>
        <time>2017-05-26T15:23:40Z</time>
      </trkpt>
      <trkpt lat="45.71189" lon="5.72944">
        <ele>356</ele>
        <time>2017-05-26T15:23:40Z</time>
      </trkpt>
      <trkpt lat="45.71191" lon="5.72949">
        <ele>356</ele>
        <time>2017-05-26T15:23:40Z</time>
      </trkpt>
      <trkpt lat="45.71193" lon="5.72956">
        <ele>356</ele>
        <time>2017-05-26T15:23:56Z</time>
      </trkpt>
      <trkpt lat="45.71195" lon="5.72962">
        <ele>336</ele>
        <time>2017-05-26T15:23:56Z</time>
      </trkpt>
      <trkpt lat="45.71197" lon="5.72968">
        <ele>336</ele>
        <time>2017-05-26T15:23:56Z</time>
      </trkpt>
      <trkpt lat="45.71199" lon="5.72974">
        <ele>336</ele>
        <time>2017-05-26T15:23:56Z</time>
      </trkpt>
      <trkpt lat="45.71201" lon="5.72981">
        <ele>336</ele>
        <time>2017-05-26T15:24:12Z</time>
      </trkpt>
      <trkpt lat="45.71203" lon="5.72988">
        <ele>336</ele>
        <time>2017-05-26T15:24:12Z</time>
      </trkpt>
      <trkpt lat="45.71205" lon="5.72996">
        <ele>336</ele>
        <time>2017-05-26T15:24:12Z</time>
      </trkpt>
      <trkpt lat="45.71206" lon="5.73003">
        <ele>336</ele>
        <time>2017-05-26T15:24:12Z</time>
      </trkpt>
      <trkpt lat="45.71209" lon="5.73011">
        <ele>397</ele>
        <time>2017-05-26T15:24:28Z</time>
      </trkpt>
      <trkpt lat="45.71211" lon="5.73018">
        <ele>397</ele>
        <time>2017-05-26T15:24:28Z</time>
      </trkpt>
      <trkpt lat="45.71215" lon="5.73025">
        <ele>397</ele>
        <time>2017-05-26T15:24:28Z</time>
      </trkpt>
      <trkpt lat="45.71218" lon="5.73031">
        <ele>397</ele>
        <time>2017-05-26T15:24:28Z</time>
      </trkpt>
      <trkpt lat="45.7122" lon="5.73036">
        <ele>397</ele>
        <time>2017-05-26T15:24:44Z</time>
      </trkpt>
      <trkpt lat="45.71223" lon="5.73037">
        <ele>397</ele>
        <time>2017-05-26T15:24:44Z</time>
      </trkpt>
      <trkpt lat="45.71225" lon="5.73041">
        <ele>397</ele>
        <time>2017-05-26T15:24:44Z</time>
      </trkpt>
      <trkpt lat="45.7123" lon="5.73048">
        <ele>380</ele>
        <time>2017-05-26T15:24:44Z</time>
      </trkpt>
      <trkpt lat="45.71233" lon="5.73055">
        <ele>380</ele>
        <time>2017-05-26T15:25:00Z</time>
      </trkpt>
      <trkpt lat="45.71235" lon="5.73062">
        <ele>380</ele>
        <time>2017-05-26T15:25:00Z</time>
      </trkpt>
      <trkpt lat="45.71239" lon="5.73069">
        <ele>380</ele>
        <time>2017-05-26T15:25:00Z</time>
      </trkpt>
      <trkpt lat="45.71238" lon="5.73077">
        <ele>380</ele>
        <time>2017-05-26T15:25:00Z</time>
      </trkpt>
      <trkpt lat="45.71239" lon="5.73084">
        <ele>380</ele>
        <time>2017-05-26T15:25:16Z</time>
      </trkpt>
      <trkpt lat="45.71237" lon="5.7309">
        <ele>380</ele>
        <time>2017-05-26T15:25:16Z</time>
      </trkpt>
      <trkpt lat="45.7124" lon="5.731">
        <ele>380</ele>
        <time>2017-05-26T15:25:16Z</time>
      </trkpt>
      <trkpt lat="45.71244" lon="5.73106">
        <ele>380</ele>
        <time>2017-05-26T15:25:16Z</time>
      </trkpt>
      <trkpt lat="45.71245" lon="5.73114">
        <ele>380</ele>
        <time>2017-05-26T15:25:32Z</time>
      </trkpt>
      <trkpt lat="45.71247" lon="5.73124">
        <ele>380</ele>
        <time>2017-05-26T15:25:32Z</time>
      </trkpt>
      <trkpt lat="45.71248" lon="5.73135">
        <ele>377</ele>
        <time>2017-05-26T15:25:32Z</time>
      </trkpt>
      <trkpt lat="45.71246" lon="5.73144">
        <ele>377</ele>
        <time>2017-05-26T15:25:32Z</time>
      </trkpt>
      <trkpt lat="45.71245" lon="5.73151">
        <ele>377</ele>
        <time>2017-05-26T15:25:48Z</time>
      </trkpt>
      <trkpt lat="45.71245" lon="5.73155">
        <ele>377</ele>
        <time>2017-05-26T15:25:48Z</time>
      </trkpt>
      <trkpt lat="45.71244" lon="5.73162">
        <ele>377</ele>
        <time>2017-05-26T15:25:48Z</time>
      </trkpt>
      <trkpt lat="45.71246" lon="5.7317">
        <ele>377</ele>
        <time>2017-05-26T15:25:48Z</time>
      </trkpt>
      <trkpt lat="45.71246" lon="5.73179">
        <ele>377</ele>
        <time>2017-05-26T15:26:04Z</time>
      </trkpt>
      <trkpt lat="45.71243" lon="5.73187">
        <ele>377</ele>
        <time>2017-05-26T15:26:04Z</time>
      </trkpt>
      <trkpt lat="45.7124" lon="5.73196">
        <ele>377</ele>
        <time>2017-05-26T15:26:04Z</time>
      </trkpt>
      <trkpt lat="45.71238" lon="5.7321">
        <ele>370</ele>
        <time>2017-05-26T15:26:04Z</time>
      </trkpt>
      <trkpt lat="45.71234" lon="5.73218">
        <ele>370</ele>
        <time>2017-05-26T15:26:24Z</time>
      </trkpt>
      <trkpt lat="45.71236" lon="5.73223">
        <ele>370</ele>
        <time>2017-05-26T15:26:24Z</time>
      </trkpt>
      <trkpt lat="45.71238" lon="5.73225">
        <ele>370</ele>
        <time>2017-05-26T15:26:24Z</time>
      </trkpt>
      <trkpt lat="45.71239" lon="5.73228">
        <ele>370</ele>
        <time>2017-05-26T15:26:24Z</time>
      </trkpt>
      <trkpt lat="45.71241" lon="5.73232">
        <ele>370</ele>
        <time>2017-05-26T15:26:24Z</time>
      </trkpt>
      <trkpt lat="45.71243" lon="5.73237">
        <ele>370</ele>
        <time>2017-05-26T15:26:40Z</time>
      </trkpt>
      <trkpt lat="45.71245" lon="5.73242">
        <ele>370</ele>
        <time>2017-05-26T15:26:40Z</time>
      </trkpt>
      <trkpt lat="45.71247" lon="5.73247">
        <ele>370</ele>
        <time>2017-05-26T15:26:40Z</time>
      </trkpt>
      <trkpt lat="45.71247" lon="5.73253">
        <ele>370</ele>
        <time>2017-05-26T15:26:40Z</time>
      </trkpt>
      <trkpt lat="45.71248" lon="5.73258">
        <ele>370</ele>
        <time>2017-05-26T15:26:56Z</time>
      </trkpt>
      <trkpt lat="45.71249" lon="5.73264">
        <ele>370</ele>
        <time>2017-05-26T15:26:56Z</time>
      </trkpt>
      <trkpt lat="45.7125" lon="5.73271">
        <ele>370</ele>
        <time>2017-05-26T15:26:56Z</time>
      </trkpt>
      <trkpt lat="45.71251" lon="5.73276">
        <ele>370</ele>
        <time>2017-05-26T15:26:56Z</time>
      </trkpt>
      <trkpt lat="45.71254" lon="5.73282">
        <ele>370</ele>
        <time>2017-05-26T15:27:12Z</time>
      </trkpt>
      <trkpt lat="45.71255" lon="5.73288">
        <ele>370</ele>
        <time>2017-05-26T15:27:12Z</time>
      </trkpt>
      <trkpt lat="45.71252" lon="5.73296">
        <ele>359</ele>
        <time>2017-05-26T15:27:12Z</time>
      </trkpt>
      <trkpt lat="45.71249" lon="5.73305">
        <ele>359</ele>
        <time>2017-05-26T15:27:12Z</time>
      </trkpt>
      <trkpt lat="45.71247" lon="5.73314">
        <ele>359</ele>
        <time>2017-05-26T15:27:28Z</time>
      </trkpt>
      <trkpt lat="45.71246" lon="5.73321">
        <ele>359</ele>
        <time>2017-05-26T15:27:28Z</time>
      </trkpt>
      <trkpt lat="45.71247" lon="5.73329">
        <ele>359</ele>
        <time>2017-05-26T15:27:28Z</time>
      </trkpt>
      <trkpt lat="45.71248" lon="5.73335">
        <ele>359</ele>
        <time>2017-05-26T15:27:28Z</time>
      </trkpt>
      <trkpt lat="45.7125" lon="5.73342">
        <ele>359</ele>
        <time>2017-05-26T15:27:44Z</time>
      </trkpt>
      <trkpt lat="45.71252" lon="5.73347">
        <ele>359</ele>
        <time>2017-05-26T15:27:44Z</time>
      </trkpt>
      <trkpt lat="45.71256" lon="5.73353">
        <ele>359</ele>
        <time>2017-05-26T15:27:44Z</time>
      </trkpt>
      <trkpt lat="45.71258" lon="5.7336">
        <ele>359</ele>
        <time>2017-05-26T15:27:44Z</time>
      </trkpt>
      <trkpt lat="45.71262" lon="5.73364">
        <ele>359</ele>
        <time>2017-05-26T15:28:00Z</time>
      </trkpt>
      <trkpt lat="45.71265" lon="5.73372">
        <ele>359</ele>
        <time>2017-05-26T15:28:00Z</time>
      </trkpt>
      <trkpt lat="45.71266" lon="5.7338">
        <ele>348</ele>
        <time>2017-05-26T15:28:00Z</time>
      </trkpt>
      <trkpt lat="45.71268" lon="5.73387">
        <ele>348</ele>
        <time>2017-05-26T15:28:00Z</time>
      </trkpt>
      <trkpt lat="45.71269" lon="5.73394">
        <ele>348</ele>
        <time>2017-05-26T15:28:16Z</time>
      </trkpt>
      <trkpt lat="45.71273" lon="5.73401">
        <ele>348</ele>
        <time>2017-05-26T15:28:16Z</time>
      </trkpt>
      <trkpt lat="45.71274" lon="5.73408">
        <ele>348</ele>
        <time>2017-05-26T15:28:16Z</time>
      </trkpt>
      <trkpt lat="45.71276" lon="5.73415">
        <ele>348</ele>
        <time>2017-05-26T15:28:16Z</time>
      </trkpt>
      <trkpt lat="45.71279" lon="5.73421">
        <ele>348</ele>
        <time>2017-05-26T15:28:32Z</time>
      </trkpt>
      <trkpt lat="45.71282" lon="5.73429">
        <ele>348</ele>
        <time>2017-05-26T15:28:32Z</time>
      </trkpt>
      <trkpt lat="45.71285" lon="5.73436">
        <ele>348</ele>
        <time>2017-05-26T15:28:32Z</time>
      </trkpt>
      <trkpt lat="45.71287" lon="5.73442">
        <ele>348</ele>
        <time>2017-05-26T15:28:32Z</time>
      </trkpt>
      <trkpt lat="45.7129" lon="5.73448">
        <ele>348</ele>
        <time>2017-05-26T15:28:48Z</time>
      </trkpt>
      <trkpt lat="45.71291" lon="5.73455">
        <ele>348</ele>
        <time>2017-05-26T15:28:48Z</time>
      </trkpt>
      <trkpt lat="45.71294" lon="5.73461">
        <ele>373</ele>
        <time>2017-05-26T15:28:48Z</time>
      </trkpt>
      <trkpt lat="45.71298" lon="5.73466">
        <ele>373</ele>
        <time>2017-05-26T15:28:48Z</time>
      </trkpt>
      <trkpt lat="45.71302" lon="5.7347">
        <ele>373</ele>
        <time>2017-05-26T15:29:04Z</time>
      </trkpt>
      <trkpt lat="45.71306" lon="5.73477">
        <ele>373</ele>
        <time>2017-05-26T15:29:04Z</time>
      </trkpt>
      <trkpt lat="45.7131" lon="5.73483">
        <ele>373</ele>
        <time>2017-05-26T15:29:04Z</time>
      </trkpt>
      <trkpt lat="45.71315" lon="5.73489">
        <ele>373</ele>
        <time>2017-05-26T15:29:04Z</time>
      </trkpt>
      <trkpt lat="45.71322" lon="5.73491">
        <ele>373</ele>
        <time>2017-05-26T15:29:20Z</time>
      </trkpt>
      <trkpt lat="45.71327" lon="5.73494">
        <ele>373</ele>
        <time>2017-05-26T15:29:20Z</time>
      </trkpt>
      <trkpt lat="45.71331" lon="5.73497">
        <ele>373</ele>
        <time>2017-05-26T15:29:20Z</time>
      </trkpt>
      <trkpt lat="45.71335" lon="5.73498">
        <ele>373</ele>
        <time>2017-05-26T15:29:20Z</time>
      </trkpt>
      <trkpt lat="45.71338" lon="5.73498">
        <ele>373</ele>
        <time>2017-05-26T15:29:36Z</time>
      </trkpt>
      <trkpt lat="45.71344" lon="5.73499">
        <ele>373</ele>
        <time>2017-05-26T15:29:36Z</time>
      </trkpt>
      <trkpt lat="45.71353" lon="5.73501">
        <ele>373</ele>
        <time>2017-05-26T15:29:36Z</time>
      </trkpt>
      <trkpt lat="45.71362" lon="5.73511">
        <ele>373</ele>
        <time>2017-05-26T15:29:36Z</time>
      </trkpt>
      <trkpt lat="45.71361" lon="5.73519">
        <ele>373</ele>
        <time>2017-05-26T15:29:52Z</time>
      </trkpt>
      <trkpt lat="45.71359" lon="5.73524">
        <ele>373</ele>
        <time>2017-05-26T15:29:52Z</time>
      </trkpt>
      <trkpt lat="45.71359" lon="5.7353">
        <ele>373</ele>
        <time>2017-05-26T15:29:52Z</time>
      </trkpt>
      <trkpt lat="45.71357" lon="5.73537">
        <ele>373</ele>
        <time>2017-05-26T15:29:52Z</time>
      </trkpt>
      <trkpt lat="45.71357" lon="5.73542">
        <ele>360</ele>
        <time>2017-05-26T15:30:08Z</time>
      </trkpt>
      <trkpt lat="45.71356" lon="5.73551">
        <ele>360</ele>
        <time>2017-05-26T15:30:08Z</time>
      </trkpt>
      <trkpt lat="45.71356" lon="5.73559">
        <ele>360</ele>
        <time>2017-05-26T15:30:08Z</time>
      </trkpt>
      <trkpt lat="45.71356" lon="5.73568">
        <ele>360</ele>
        <time>2017-05-26T15:30:08Z</time>
      </trkpt>
      <trkpt lat="45.71356" lon="5.73574">
        <ele>360</ele>
        <time>2017-05-26T15:30:24Z</time>
      </trkpt>
      <trkpt lat="45.71355" lon="5.73585">
        <ele>360</ele>
        <time>2017-05-26T15:30:24Z</time>
      </trkpt>
      <trkpt lat="45.71356" lon="5.73594">
        <ele>360</ele>
        <time>2017-05-26T15:30:24Z</time>
      </trkpt>
      <trkpt lat="45.71355" lon="5.73602">
        <ele>360</ele>
        <time>2017-05-26T15:30:24Z</time>
      </trkpt>
      <trkpt lat="45.71355" lon="5.7361">
        <ele>360</ele>
        <time>2017-05-26T15:30:40Z</time>
      </trkpt>
      <trkpt lat="45.71354" lon="5.73618">
        <ele>360</ele>
        <time>2017-05-26T15:30:40Z</time>
      </trkpt>
      <trkpt lat="45.71357" lon="5.73625">
        <ele>360</ele>
        <time>2017-05-26T15:30:40Z</time>
      </trkpt>
      <trkpt lat="45.71358" lon="5.73631">
        <ele>350</ele>
        <time>2017-05-26T15:30:40Z</time>
      </trkpt>
      <trkpt lat="45.71362" lon="5.73636">
        <ele>350</ele>
        <time>2017-05-26T15:30:56Z</time>
      </trkpt>
      <trkpt lat="45.71368" lon="5.73641">
        <ele>350</ele>
        <time>2017-05-26T15:30:56Z</time>
      </trkpt>
      <trkpt lat="45.71371" lon="5.73647">
        <ele>350</ele>
        <time>2017-05-26T15:30:56Z</time>
      </trkpt>
      <trkpt lat="45.71374" lon="5.73649">
        <ele>350</ele>
        <time>2017-05-26T15:30:56Z</time>
      </trkpt>
      <trkpt lat="45.7138" lon="5.7365">
        <ele>383</ele>
        <time>2017-05-26T15:31:12Z</time>
      </trkpt>
      <trkpt lat="45.71382" lon="5.73653">
        <ele>383</ele>
        <time>2017-05-26T15:31:12Z</time>
      </trkpt>
      <trkpt lat="45.71386" lon="5.73655">
        <ele>383</ele>
        <time>2017-05-26T15:31:12Z</time>
      </trkpt>
      <trkpt lat="45.71391" lon="5.73662">
        <ele>383</ele>
        <time>2017-05-26T15:31:12Z</time>
      </trkpt>
      <trkpt lat="45.71394" lon="5.7367">
        <ele>383</ele>
        <time>2017-05-26T15:31:28Z</time>
      </trkpt>
      <trkpt lat="45.71397" lon="5.73678">
        <ele>383</ele>
        <time>2017-05-26T15:31:28Z</time>
      </trkpt>
      <trkpt lat="45.71401" lon="5.73681">
        <ele>383</ele>
        <time>2017-05-26T15:31:28Z</time>
      </trkpt>
      <trkpt lat="45.71404" lon="5.73685">
        <ele>383</ele>
        <time>2017-05-26T15:31:28Z</time>
      </trkpt>
      <trkpt lat="45.71406" lon="5.73691">
        <ele>383</ele>
        <time>2017-05-26T15:31:44Z</time>
      </trkpt>
      <trkpt lat="45.71408" lon="5.73696">
        <ele>383</ele>
        <time>2017-05-26T15:31:44Z</time>
      </trkpt>
      <trkpt lat="45.71411" lon="5.737">
        <ele>383</ele>
        <time>2017-05-26T15:31:44Z</time>
      </trkpt>
      <trkpt lat="45.71414" lon="5.73704">
        <ele>383</ele>
        <time>2017-05-26T15:31:44Z</time>
      </trkpt>
      <trkpt lat="45.71417" lon="5.7371">
        <ele>377</ele>
        <time>2017-05-26T15:32:00Z</time>
      </trkpt>
      <trkpt lat="45.71421" lon="5.73717">
        <ele>377</ele>
        <time>2017-05-26T15:32:00Z</time>
      </trkpt>
      <trkpt lat="45.71427" lon="5.73716">
        <ele>377</ele>
        <time>2017-05-26T15:32:00Z</time>
      </trkpt>
      <trkpt lat="45.71433" lon="5.73718">
        <ele>377</ele>
        <time>2017-05-26T15:32:00Z</time>
      </trkpt>
      <trkpt lat="45.71439" lon="5.73717">
        <ele>377</ele>
        <time>2017-05-26T15:32:16Z</time>
      </trkpt>
      <trkpt lat="45.71445" lon="5.73715">
        <ele>377</ele>
        <time>2017-05-26T15:32:16Z</time>
      </trkpt>
      <trkpt lat="45.7145" lon="5.73715">
        <ele>377</ele>
        <time>2017-05-26T15:32:16Z</time>
      </trkpt>
      <trkpt lat="45.71454" lon="5.7372">
        <ele>377</ele>
        <time>2017-05-26T15:32:16Z</time>
      </trkpt>
      <trkpt lat="45.71455" lon="5.73724">
        <ele>377</ele>
        <time>2017-05-26T15:32:32Z</time>
      </trkpt>
      <trkpt lat="45.71456" lon="5.7373">
        <ele>377</ele>
        <time>2017-05-26T15:32:32Z</time>
      </trkpt>
      <trkpt lat="45.71457" lon="5.73735">
        <ele>377</ele>
        <time>2017-05-26T15:32:32Z</time>
      </trkpt>
      <trkpt lat="45.71461" lon="5.73738">
        <ele>391</ele>
        <time>2017-05-26T15:32:32Z</time>
      </trkpt>
      <trkpt lat="45.71464" lon="5.73741">
        <ele>391</ele>
        <time>2017-05-26T15:32:48Z</time>
      </trkpt>
      <trkpt lat="45.71472" lon="5.73749">
        <ele>391</ele>
        <time>2017-05-26T15:32:48Z</time>
      </trkpt>
      <trkpt lat="45.71478" lon="5.73755">
        <ele>391</ele>
        <time>2017-05-26T15:32:48Z</time>
      </trkpt>
      <trkpt lat="45.7148" lon="5.73757">
        <ele>391</ele>
        <time>2017-05-26T15:32:48Z</time>
      </trkpt>
      <trkpt lat="45.71483" lon="5.73761">
        <ele>391</ele>
        <time>2017-05-26T15:33:04Z</time>
      </trkpt>
      <trkpt lat="45.71485" lon="5.73763">
        <ele>391</ele>
        <time>2017-05-26T15:33:04Z</time>
      </trkpt>
      <trkpt lat="45.71488" lon="5.73768">
        <ele>391</ele>
        <time>2017-05-26T15:33:04Z</time>
      </trkpt>
      <trkpt lat="45.7149" lon="5.73773">
        <ele>391</ele>
        <time>2017-05-26T15:33:04Z</time>
      </trkpt>
      <trkpt lat="45.71495" lon="5.73776">
        <ele>391</ele>
        <time>2017-05-26T15:33:20Z</time>
      </trkpt>
      <trkpt lat="45.71501" lon="5.7378">
        <ele>391</ele>
        <time>2017-05-26T15:33:20Z</time>
      </trkpt>
      <trkpt lat="45.71506" lon="5.73782">
        <ele>391</ele>
        <time>2017-05-26T15:33:20Z</time>
      </trkpt>
      <trkpt lat="45.71512" lon="5.73784">
        <ele>391</ele>
        <time>2017-05-26T15:33:20Z</time>
      </trkpt>
      <trkpt lat="45.71516" lon="5.73786">
        <ele>391</ele>
        <time>2017-05-26T15:33:36Z</time>
      </trkpt>
      <trkpt lat="45.71521" lon="5.73788">
        <ele>391</ele>
        <time>2017-05-26T15:33:36Z</time>
      </trkpt>
      <trkpt lat="45.71524" lon="5.73792">
        <ele>382</ele>
        <time>2017-05-26T15:33:36Z</time>
      </trkpt>
      <trkpt lat="45.71528" lon="5.73792">
        <ele>382</ele>
        <time>2017-05-26T15:33:36Z</time>
      </trkpt>
      <trkpt lat="45.71532" lon="5.73793">
        <ele>382</ele>
        <time>2017-05-26T15:33:52Z</time>
      </trkpt>
      <trkpt lat="45.71535" lon="5.73797">
        <ele>382</ele>
        <time>2017-05-26T15:33:52Z</time>
      </trkpt>
      <trkpt lat="45.71536" lon="5.73802">
        <ele>382</ele>
        <time>2017-05-26T15:33:52Z</time>
      </trkpt>
      <trkpt lat="45.71535" lon="5.73808">
        <ele>382</ele>
        <time>2017-05-26T15:33:52Z</time>
      </trkpt>
      <trkpt lat="45.71538" lon="5.73813">
        <ele>382</ele>
        <time>2017-05-26T15:34:08Z</time>
      </trkpt>
      <trkpt lat="45.71541" lon="5.73818">
        <ele>382</ele>
        <time>2017-05-26T15:34:08Z</time>
      </trkpt>
      <trkpt lat="45.71544" lon="5.73821">
        <ele>391</ele>
        <time>2017-05-26T15:34:08Z</time>
      </trkpt>
      <trkpt lat="45.71546" lon="5.73827">
        <ele>391</ele>
        <time>2017-05-26T15:34:08Z</time>
      </trkpt>
      <trkpt lat="45.71544" lon="5.73835">
        <ele>391</ele>
        <time>2017-05-26T15:34:28Z</time>
      </trkpt>
      <trkpt lat="45.71543" lon="5.73839">
        <ele>391</ele>
        <time>2017-05-26T15:34:28Z</time>
      </trkpt>
      <trkpt lat="45.71541" lon="5.73842">
        <ele>382</ele>
        <time>2017-05-26T15:34:28Z</time>
      </trkpt>
      <trkpt lat="45.71543" lon="5.73847">
        <ele>391</ele>
        <time>2017-05-26T15:34:28Z</time>
      </trkpt>
      <trkpt lat="45.71544" lon="5.73852">
        <ele>391</ele>
        <time>2017-05-26T15:34:28Z</time>
      </trkpt>
      <trkpt lat="45.71546" lon="5.7386">
        <ele>391</ele>
        <time>2017-05-26T15:34:44Z</time>
      </trkpt>
      <trkpt lat="45.71551" lon="5.73868">
        <ele>391</ele>
        <time>2017-05-26T15:34:44Z</time>
      </trkpt>
      <trkpt lat="45.71557" lon="5.73878">
        <ele>386</ele>
        <time>2017-05-26T15:34:44Z</time>
      </trkpt>
      <trkpt lat="45.71559" lon="5.73885">
        <ele>386</ele>
        <time>2017-05-26T15:34:44Z</time>
      </trkpt>
      <trkpt lat="45.7156" lon="5.73888">
        <ele>386</ele>
        <time>2017-05-26T15:35:00Z</time>
      </trkpt>
      <trkpt lat="45.7156" lon="5.7389">
        <ele>386</ele>
        <time>2017-05-26T15:35:00Z</time>
      </trkpt>
      <trkpt lat="45.71563" lon="5.73893">
        <ele>386</ele>
        <time>2017-05-26T15:35:00Z</time>
      </trkpt>
      <trkpt lat="45.71572" lon="5.73901">
        <ele>386</ele>
        <time>2017-05-26T15:35:00Z</time>
      </trkpt>
      <trkpt lat="45.71576" lon="5.73909">
        <ele>386</ele>
        <time>2017-05-26T15:35:16Z</time>
      </trkpt>
      <trkpt lat="45.71582" lon="5.7392">
        <ele>386</ele>
        <time>2017-05-26T15:35:16Z</time>
      </trkpt>
      <trkpt lat="45.71586" lon="5.73925">
        <ele>386</ele>
        <time>2017-05-26T15:35:16Z</time>
      </trkpt>
      <trkpt lat="45.71589" lon="5.73932">
        <ele>386</ele>
        <time>2017-05-26T15:35:16Z</time>
      </trkpt>
      <trkpt lat="45.71592" lon="5.73941">
        <ele>386</ele>
        <time>2017-05-26T15:35:32Z</time>
      </trkpt>
      <trkpt lat="45.71596" lon="5.73947">
        <ele>386</ele>
        <time>2017-05-26T15:35:32Z</time>
      </trkpt>
      <trkpt lat="45.71599" lon="5.73954">
        <ele>386</ele>
        <time>2017-05-26T15:35:32Z</time>
      </trkpt>
      <trkpt lat="45.716" lon="5.73963">
        <ele>388</ele>
        <time>2017-05-26T15:35:32Z</time>
      </trkpt>
      <trkpt lat="45.71601" lon="5.73968">
        <ele>388</ele>
        <time>2017-05-26T15:35:48Z</time>
      </trkpt>
      <trkpt lat="45.71603" lon="5.73973">
        <ele>388</ele>
        <time>2017-05-26T15:35:48Z</time>
      </trkpt>
      <trkpt lat="45.71605" lon="5.73978">
        <ele>388</ele>
        <time>2017-05-26T15:35:48Z</time>
      </trkpt>
      <trkpt lat="45.71611" lon="5.73985">
        <ele>388</ele>
        <time>2017-05-26T15:35:48Z</time>
      </trkpt>
      <trkpt lat="45.71616" lon="5.73993">
        <ele>388</ele>
        <time>2017-05-26T15:36:04Z</time>
      </trkpt>
      <trkpt lat="45.71626" lon="5.74009">
        <ele>401</ele>
        <time>2017-05-26T15:36:04Z</time>
      </trkpt>
      <trkpt lat="45.7163" lon="5.74016">
        <ele>401</ele>
        <time>2017-05-26T15:36:04Z</time>
      </trkpt>
      <trkpt lat="45.71628" lon="5.74025">
        <ele>401</ele>
        <time>2017-05-26T15:36:04Z</time>
      </trkpt>
      <trkpt lat="45.71625" lon="5.74034">
        <ele>388</ele>
        <time>2017-05-26T15:36:20Z</time>
      </trkpt>
      <trkpt lat="45.71622" lon="5.74043">
        <ele>396</ele>
        <time>2017-05-26T15:36:20Z</time>
      </trkpt>
      <trkpt lat="45.71617" lon="5.7405">
        <ele>396</ele>
        <time>2017-05-26T15:36:20Z</time>
      </trkpt>
      <trkpt lat="45.71611" lon="5.74056">
        <ele>396</ele>
        <time>2017-05-26T15:36:20Z</time>
      </trkpt>
      <trkpt lat="45.71606" lon="5.7406">
        <ele>396</ele>
        <time>2017-05-26T15:36:36Z</time>
      </trkpt>
      <trkpt lat="45.71602" lon="5.74065">
        <ele>396</ele>
        <time>2017-05-26T15:36:36Z</time>
      </trkpt>
      <trkpt lat="45.71597" lon="5.74077">
        <ele>396</ele>
        <time>2017-05-26T15:36:36Z</time>
      </trkpt>
      <trkpt lat="45.71598" lon="5.74088">
        <ele>396</ele>
        <time>2017-05-26T15:36:36Z</time>
      </trkpt>
      <trkpt lat="45.71593" lon="5.74098">
        <ele>396</ele>
        <time>2017-05-26T15:36:52Z</time>
      </trkpt>
      <trkpt lat="45.7159" lon="5.74106">
        <ele>396</ele>
        <time>2017-05-26T15:36:52Z</time>
      </trkpt>
      <trkpt lat="45.71585" lon="5.74114">
        <ele>396</ele>
        <time>2017-05-26T15:36:52Z</time>
      </trkpt>
      <trkpt lat="45.71587" lon="5.7412">
        <ele>396</ele>
        <time>2017-05-26T15:36:52Z</time>
      </trkpt>
      <trkpt lat="45.71584" lon="5.74129">
        <ele>411</ele>
        <time>2017-05-26T15:37:08Z</time>
      </trkpt>
      <trkpt lat="45.71573" lon="5.74139">
        <ele>411</ele>
        <time>2017-05-26T15:37:08Z</time>
      </trkpt>
      <trkpt lat="45.71573" lon="5.74144">
        <ele>411</ele>
        <time>2017-05-26T15:37:08Z</time>
      </trkpt>
      <trkpt lat="45.71574" lon="5.7415">
        <ele>411</ele>
        <time>2017-05-26T15:37:08Z</time>
      </trkpt>
      <trkpt lat="45.71573" lon="5.74155">
        <ele>411</ele>
        <time>2017-05-26T15:37:24Z</time>
      </trkpt>
      <trkpt lat="45.71568" lon="5.7416">
        <ele>411</ele>
        <time>2017-05-26T15:37:24Z</time>
      </trkpt>
      <trkpt lat="45.71561" lon="5.74164">
        <ele>411</ele>
        <time>2017-05-26T15:37:24Z</time>
      </trkpt>
      <trkpt lat="45.71554" lon="5.74171">
        <ele>411</ele>
        <time>2017-05-26T15:37:24Z</time>
      </trkpt>
      <trkpt lat="45.71557" lon="5.74174">
        <ele>411</ele>
        <time>2017-05-26T15:37:40Z</time>
      </trkpt>
      <trkpt lat="45.7156" lon="5.74179">
        <ele>411</ele>
        <time>2017-05-26T15:37:40Z</time>
      </trkpt>
      <trkpt lat="45.71556" lon="5.74187">
        <ele>411</ele>
        <time>2017-05-26T15:37:40Z</time>
      </trkpt>
      <trkpt lat="45.71551" lon="5.74193">
        <ele>411</ele>
        <time>2017-05-26T15:37:40Z</time>
      </trkpt>
      <trkpt lat="45.71551" lon="5.74197">
        <ele>411</ele>
        <time>2017-05-26T15:38:12Z</time>
      </trkpt>
      <trkpt lat="45.71553" lon="5.742">
        <ele>411</ele>
        <time>2017-05-26T15:38:12Z</time>
      </trkpt>
      <trkpt lat="45.71555" lon="5.74205">
        <ele>411</ele>
        <time>2017-05-26T15:38:12Z</time>
      </trkpt>
      <trkpt lat="45.71559" lon="5.7421">
        <ele>420</ele>
        <time>2017-05-26T15:38:12Z</time>
      </trkpt>
      <trkpt lat="45.71564" lon="5.74215">
        <ele>420</ele>
        <time>2017-05-26T15:38:12Z</time>
      </trkpt>
      <trkpt lat="45.7157" lon="5.74222">
        <ele>420</ele>
        <time>2017-05-26T15:38:28Z</time>
      </trkpt>
      <trkpt lat="45.71575" lon="5.74227">
        <ele>420</ele>
        <time>2017-05-26T15:38:28Z</time>
      </trkpt>
      <trkpt lat="45.71579" lon="5.74231">
        <ele>420</ele>
        <time>2017-05-26T15:38:28Z</time>
      </trkpt>
      <trkpt lat="45.71583" lon="5.74231">
        <ele>420</ele>
        <time>2017-05-26T15:38:28Z</time>
      </trkpt>
      <trkpt lat="45.71588" lon="5.74232">
        <ele>420</ele>
        <time>2017-05-26T15:38:44Z</time>
      </trkpt>
      <trkpt lat="45.71593" lon="5.74235">
        <ele>420</ele>
        <time>2017-05-26T15:38:44Z</time>
      </trkpt>
      <trkpt lat="45.71599" lon="5.74238">
        <ele>420</ele>
        <time>2017-05-26T15:38:44Z</time>
      </trkpt>
      <trkpt lat="45.71605" lon="5.7424">
        <ele>420</ele>
        <time>2017-05-26T15:38:44Z</time>
      </trkpt>
      <trkpt lat="45.71611" lon="5.74241">
        <ele>420</ele>
        <time>2017-05-26T15:39:00Z</time>
      </trkpt>
      <trkpt lat="45.71616" lon="5.74241">
        <ele>420</ele>
        <time>2017-05-26T15:39:00Z</time>
      </trkpt>
      <trkpt lat="45.71621" lon="5.7424">
        <ele>420</ele>
        <time>2017-05-26T15:39:00Z</time>
      </trkpt>
      <trkpt lat="45.71626" lon="5.74243">
        <ele>427</ele>
        <time>2017-05-26T15:39:00Z</time>
      </trkpt>
      <trkpt lat="45.71631" lon="5.74247">
        <ele>427</ele>
        <time>2017-05-26T15:39:16Z</time>
      </trkpt>
      <trkpt lat="45.71637" lon="5.74251">
        <ele>427</ele>
        <time>2017-05-26T15:39:16Z</time>
      </trkpt>
      <trkpt lat="45.71641" lon="5.74252">
        <ele>427</ele>
        <time>2017-05-26T15:39:16Z</time>
      </trkpt>
      <trkpt lat="45.71645" lon="5.74253">
        <ele>427</ele>
        <time>2017-05-26T15:39:16Z</time>
      </trkpt>
      <trkpt lat="45.71651" lon="5.74253">
        <ele>427</ele>
        <time>2017-05-26T15:39:32Z</time>
      </trkpt>
      <trkpt lat="45.71655" lon="5.74252">
        <ele>427</ele>
        <time>2017-05-26T15:39:32Z</time>
      </trkpt>
      <trkpt lat="45.7166" lon="5.7425">
        <ele>427</ele>
        <time>2017-05-26T15:39:32Z</time>
      </trkpt>
      <trkpt lat="45.71665" lon="5.7425">
        <ele>427</ele>
        <time>2017-05-26T15:39:32Z</time>
      </trkpt>
      <trkpt lat="45.71669" lon="5.74247">
        <ele>427</ele>
        <time>2017-05-26T15:39:48Z</time>
      </trkpt>
      <trkpt lat="45.71674" lon="5.74245">
        <ele>427</ele>
        <time>2017-05-26T15:39:48Z</time>
      </trkpt>
      <trkpt lat="45.7168" lon="5.74244">
        <ele>427</ele>
        <time>2017-05-26T15:39:48Z</time>
      </trkpt>
      <trkpt lat="45.71686" lon="5.74248">
        <ele>427</ele>
        <time>2017-05-26T15:39:48Z</time>
      </trkpt>
      <trkpt lat="45.71694" lon="5.74257">
        <ele>427</ele>
        <time>2017-05-26T15:40:04Z</time>
      </trkpt>
      <trkpt lat="45.717" lon="5.74262">
        <ele>427</ele>
        <time>2017-05-26T15:40:04Z</time>
      </trkpt>
      <trkpt lat="45.71706" lon="5.74267">
        <ele>427</ele>
        <time>2017-05-26T15:40:04Z</time>
      </trkpt>
      <trkpt lat="45.71711" lon="5.74266">
        <ele>435</ele>
        <time>2017-05-26T15:40:04Z</time>
      </trkpt>
      <trkpt lat="45.71717" lon="5.74269">
        <ele>435</ele>
        <time>2017-05-26T15:40:20Z</time>
      </trkpt>
      <trkpt lat="45.71722" lon="5.74268">
        <ele>435</ele>
        <time>2017-05-26T15:40:20Z</time>
      </trkpt>
      <trkpt lat="45.71727" lon="5.74267">
        <ele>435</ele>
        <time>2017-05-26T15:40:20Z</time>
      </trkpt>
      <trkpt lat="45.71732" lon="5.74268">
        <ele>435</ele>
        <time>2017-05-26T15:40:20Z</time>
      </trkpt>
      <trkpt lat="45.71737" lon="5.74271">
        <ele>435</ele>
        <time>2017-05-26T15:40:36Z</time>
      </trkpt>
      <trkpt lat="45.71742" lon="5.74275">
        <ele>435</ele>
        <time>2017-05-26T15:40:36Z</time>
      </trkpt>
      <trkpt lat="45.71748" lon="5.74277">
        <ele>435</ele>
        <time>2017-05-26T15:40:36Z</time>
      </trkpt>
      <trkpt lat="45.71754" lon="5.74276">
        <ele>435</ele>
        <time>2017-05-26T15:40:36Z</time>
      </trkpt>
      <trkpt lat="45.7176" lon="5.74279">
        <ele>435</ele>
        <time>2017-05-26T15:40:52Z</time>
      </trkpt>
      <trkpt lat="45.71765" lon="5.74281">
        <ele>435</ele>
        <time>2017-05-26T15:40:52Z</time>
      </trkpt>
      <trkpt lat="45.7177" lon="5.7428">
        <ele>435</ele>
        <time>2017-05-26T15:40:52Z</time>
      </trkpt>
      <trkpt lat="45.71773" lon="5.7428">
        <ele>435</ele>
        <time>2017-05-26T15:40:52Z</time>
      </trkpt>
      <trkpt lat="45.71783" lon="5.74285">
        <ele>435</ele>
        <time>2017-05-26T15:41:20Z</time>
      </trkpt>
      <trkpt lat="45.71784" lon="5.74282">
        <ele>435</ele>
        <time>2017-05-26T15:41:20Z</time>
      </trkpt>
      <trkpt lat="45.7179" lon="5.74285">
        <ele>435</ele>
        <time>2017-05-26T15:41:20Z</time>
      </trkpt>
      <trkpt lat="45.71798" lon="5.74287">
        <ele>439</ele>
        <time>2017-05-26T15:41:20Z</time>
      </trkpt>
      <trkpt lat="45.71807" lon="5.74289">
        <ele>439</ele>
        <time>2017-05-26T15:41:20Z</time>
      </trkpt>
      <trkpt lat="45.71814" lon="5.74292">
        <ele>439</ele>
        <time>2017-05-26T15:41:36Z</time>
      </trkpt>
      <trkpt lat="45.71822" lon="5.74294">
        <ele>435</ele>
        <time>2017-05-26T15:41:36Z</time>
      </trkpt>
      <trkpt lat="45.71827" lon="5.74296">
        <ele>435</ele>
        <time>2017-05-26T15:41:36Z</time>
      </trkpt>
      <trkpt lat="45.71832" lon="5.74298">
        <ele>435</ele>
        <time>2017-05-26T15:41:36Z</time>
      </trkpt>
      <trkpt lat="45.71837" lon="5.74297">
        <ele>435</ele>
        <time>2017-05-26T15:41:52Z</time>
      </trkpt>
      <trkpt lat="45.71841" lon="5.74299">
        <ele>435</ele>
        <time>2017-05-26T15:41:52Z</time>
      </trkpt>
      <trkpt lat="45.71844" lon="5.74301">
        <ele>435</ele>
        <time>2017-05-26T15:41:52Z</time>
      </trkpt>
      <trkpt lat="45.71848" lon="5.74304">
        <ele>435</ele>
        <time>2017-05-26T15:41:52Z</time>
      </trkpt>
      <trkpt lat="45.71852" lon="5.74305">
        <ele>435</ele>
        <time>2017-05-26T15:42:08Z</time>
      </trkpt>
      <trkpt lat="45.71857" lon="5.74309">
        <ele>435</ele>
        <time>2017-05-26T15:42:08Z</time>
      </trkpt>
      <trkpt lat="45.71863" lon="5.74308">
        <ele>435</ele>
        <time>2017-05-26T15:42:08Z</time>
      </trkpt>
      <trkpt lat="45.71867" lon="5.7431">
        <ele>435</ele>
        <time>2017-05-26T15:42:08Z</time>
      </trkpt>
      <trkpt lat="45.71871" lon="5.74313">
        <ele>435</ele>
        <time>2017-05-26T15:42:24Z</time>
      </trkpt>
      <trkpt lat="45.71875" lon="5.74319">
        <ele>435</ele>
        <time>2017-05-26T15:42:24Z</time>
      </trkpt>
      <trkpt lat="45.71879" lon="5.74323">
        <ele>439</ele>
        <time>2017-05-26T15:42:24Z</time>
      </trkpt>
      <trkpt lat="45.71884" lon="5.74327">
        <ele>439</ele>
        <time>2017-05-26T15:42:24Z</time>
      </trkpt>
      <trkpt lat="45.71889" lon="5.74337">
        <ele>439</ele>
        <time>2017-05-26T15:42:40Z</time>
      </trkpt>
      <trkpt lat="45.71895" lon="5.74339">
        <ele>439</ele>
        <time>2017-05-26T15:42:40Z</time>
      </trkpt>
      <trkpt lat="45.71895" lon="5.74336">
        <ele>439</ele>
        <time>2017-05-26T15:42:40Z</time>
      </trkpt>
      <trkpt lat="45.71901" lon="5.74335">
        <ele>439</ele>
        <time>2017-05-26T15:42:40Z</time>
      </trkpt>
      <trkpt lat="45.71902" lon="5.74335">
        <ele>439</ele>
        <time>2017-05-26T15:42:56Z</time>
      </trkpt>
      <trkpt lat="45.71901" lon="5.74339">
        <ele>439</ele>
        <time>2017-05-26T15:42:56Z</time>
      </trkpt>
      <trkpt lat="45.71899" lon="5.74349">
        <ele>439</ele>
        <time>2017-05-26T15:42:56Z</time>
      </trkpt>
      <trkpt lat="45.71897" lon="5.74359">
        <ele>439</ele>
        <time>2017-05-26T15:42:56Z</time>
      </trkpt>
      <trkpt lat="45.71897" lon="5.74367">
        <ele>439</ele>
        <time>2017-05-26T15:43:12Z</time>
      </trkpt>
      <trkpt lat="45.71899" lon="5.74375">
        <ele>439</ele>
        <time>2017-05-26T15:43:12Z</time>
      </trkpt>
      <trkpt lat="45.71901" lon="5.74382">
        <ele>436</ele>
        <time>2017-05-26T15:43:12Z</time>
      </trkpt>
      <trkpt lat="45.71902" lon="5.74389">
        <ele>436</ele>
        <time>2017-05-26T15:43:12Z</time>
      </trkpt>
      <trkpt lat="45.71904" lon="5.74397">
        <ele>436</ele>
        <time>2017-05-26T15:43:28Z</time>
      </trkpt>
      <trkpt lat="45.71908" lon="5.74406">
        <ele>436</ele>
        <time>2017-05-26T15:43:28Z</time>
      </trkpt>
      <trkpt lat="45.71911" lon="5.74413">
        <ele>436</ele>
        <time>2017-05-26T15:43:28Z</time>
      </trkpt>
      <trkpt lat="45.71913" lon="5.7442">
        <ele>436</ele>
        <time>2017-05-26T15:43:28Z</time>
      </trkpt>
      <trkpt lat="45.71916" lon="5.74426">
        <ele>436</ele>
        <time>2017-05-26T15:43:44Z</time>
      </trkpt>
      <trkpt lat="45.71919" lon="5.74431">
        <ele>436</ele>
        <time>2017-05-26T15:43:44Z</time>
      </trkpt>
      <trkpt lat="45.71922" lon="5.74439">
        <ele>436</ele>
        <time>2017-05-26T15:43:44Z</time>
      </trkpt>
      <trkpt lat="45.71924" lon="5.74448">
        <ele>436</ele>
        <time>2017-05-26T15:43:44Z</time>
      </trkpt>
      <trkpt lat="45.71927" lon="5.74456">
        <ele>436</ele>
        <time>2017-05-26T15:44:00Z</time>
      </trkpt>
      <trkpt lat="45.7193" lon="5.74461">
        <ele>434</ele>
        <time>2017-05-26T15:44:00Z</time>
      </trkpt>
      <trkpt lat="45.71931" lon="5.74462">
        <ele>434</ele>
        <time>2017-05-26T15:44:00Z</time>
      </trkpt>
      <trkpt lat="45.71932" lon="5.74467">
        <ele>434</ele>
        <time>2017-05-26T15:44:00Z</time>
      </trkpt>
      <trkpt lat="45.71933" lon="5.74471">
        <ele>434</ele>
        <time>2017-05-26T15:44:16Z</time>
      </trkpt>
      <trkpt lat="45.71936" lon="5.74478">
        <ele>434</ele>
        <time>2017-05-26T15:44:16Z</time>
      </trkpt>
      <trkpt lat="45.71938" lon="5.74489">
        <ele>434</ele>
        <time>2017-05-26T15:44:16Z</time>
      </trkpt>
      <trkpt lat="45.71941" lon="5.74501">
        <ele>434</ele>
        <time>2017-05-26T15:44:16Z</time>
      </trkpt>
      <trkpt lat="45.71944" lon="5.74511">
        <ele>434</ele>
        <time>2017-05-26T15:44:32Z</time>
      </trkpt>
      <trkpt lat="45.71944" lon="5.74521">
        <ele>434</ele>
        <time>2017-05-26T15:44:32Z</time>
      </trkpt>
      <trkpt lat="45.71943" lon="5.74528">
        <ele>434</ele>
        <time>2017-05-26T15:44:32Z</time>
      </trkpt>
      <trkpt lat="45.71943" lon="5.74536">
        <ele>434</ele>
        <time>2017-05-26T15:44:32Z</time>
      </trkpt>
      <trkpt lat="45.71942" lon="5.74543">
        <ele>431</ele>
        <time>2017-05-26T15:44:48Z</time>
      </trkpt>
      <trkpt lat="45.7194" lon="5.7455">
        <ele>431</ele>
        <time>2017-05-26T15:44:48Z</time>
      </trkpt>
      <trkpt lat="45.71939" lon="5.74558">
        <ele>431</ele>
        <time>2017-05-26T15:44:48Z</time>
      </trkpt>
      <trkpt lat="45.71937" lon="5.74565">
        <ele>431</ele>
        <time>2017-05-26T15:44:48Z</time>
      </trkpt>
      <trkpt lat="45.71937" lon="5.74572">
        <ele>431</ele>
        <time>2017-05-26T15:45:04Z</time>
      </trkpt>
      <trkpt lat="45.71937" lon="5.74581">
        <ele>431</ele>
        <time>2017-05-26T15:45:04Z</time>
      </trkpt>
      <trkpt lat="45.71937" lon="5.74589">
        <ele>431</ele>
        <time>2017-05-26T15:45:04Z</time>
      </trkpt>
      <trkpt lat="45.71939" lon="5.74595">
        <ele>431</ele>
        <time>2017-05-26T15:45:04Z</time>
      </trkpt>
      <trkpt lat="45.7194" lon="5.74601">
        <ele>431</ele>
        <time>2017-05-26T15:45:20Z</time>
      </trkpt>
      <trkpt lat="45.7194" lon="5.74607">
        <ele>431</ele>
        <time>2017-05-26T15:45:20Z</time>
      </trkpt>
      <trkpt lat="45.71938" lon="5.74614">
        <ele>431</ele>
        <time>2017-05-26T15:45:20Z</time>
      </trkpt>
      <trkpt lat="45.71936" lon="5.74622">
        <ele>431</ele>
        <time>2017-05-26T15:45:20Z</time>
      </trkpt>
      <trkpt lat="45.71935" lon="5.7463">
        <ele>428</ele>
        <time>2017-05-26T15:45:36Z</time>
      </trkpt>
      <trkpt lat="45.71934" lon="5.74639">
        <ele>428</ele>
        <time>2017-05-26T15:45:36Z</time>
      </trkpt>
      <trkpt lat="45.71933" lon="5.74645">
        <ele>428</ele>
        <time>2017-05-26T15:45:36Z</time>
      </trkpt>
      <trkpt lat="45.71932" lon="5.7465">
        <ele>428</ele>
        <time>2017-05-26T15:45:36Z</time>
      </trkpt>
      <trkpt lat="45.71933" lon="5.7465">
        <ele>428</ele>
        <time>2017-05-26T15:49:28Z</time>
      </trkpt>
      <trkpt lat="45.71933" lon="5.74651">
        <ele>428</ele>
        <time>2017-05-26T15:49:28Z</time>
      </trkpt>
      <trkpt lat="45.71931" lon="5.74653">
        <ele>428</ele>
        <time>2017-05-26T15:49:28Z</time>
      </trkpt>
      <trkpt lat="45.71927" lon="5.74656">
        <ele>428</ele>
        <time>2017-05-26T15:49:28Z</time>
      </trkpt>
      <trkpt lat="45.71924" lon="5.7466">
        <ele>428</ele>
        <time>2017-05-26T15:49:28Z</time>
      </trkpt>
      <trkpt lat="45.71921" lon="5.74664">
        <ele>428</ele>
        <time>2017-05-26T15:49:44Z</time>
      </trkpt>
      <trkpt lat="45.71918" lon="5.74668">
        <ele>428</ele>
        <time>2017-05-26T15:49:44Z</time>
      </trkpt>
      <trkpt lat="45.71915" lon="5.74671">
        <ele>428</ele>
        <time>2017-05-26T15:49:44Z</time>
      </trkpt>
      <trkpt lat="45.71913" lon="5.74673">
        <ele>428</ele>
        <time>2017-05-26T15:49:44Z</time>
      </trkpt>
      <trkpt lat="45.7191" lon="5.74675">
        <ele>428</ele>
        <time>2017-05-26T15:50:00Z</time>
      </trkpt>
      <trkpt lat="45.71907" lon="5.74679">
        <ele>428</ele>
        <time>2017-05-26T15:50:00Z</time>
      </trkpt>
      <trkpt lat="45.71903" lon="5.74681">
        <ele>428</ele>
        <time>2017-05-26T15:50:00Z</time>
      </trkpt>
      <trkpt lat="45.71901" lon="5.74681">
        <ele>428</ele>
        <time>2017-05-26T15:50:00Z</time>
      </trkpt>
      <trkpt lat="45.71897" lon="5.74682">
        <ele>428</ele>
        <time>2017-05-26T15:50:16Z</time>
      </trkpt>
      <trkpt lat="45.71892" lon="5.74686">
        <ele>428</ele>
        <time>2017-05-26T15:50:16Z</time>
      </trkpt>
      <trkpt lat="45.71889" lon="5.7469">
        <ele>428</ele>
        <time>2017-05-26T15:50:16Z</time>
      </trkpt>
      <trkpt lat="45.71885" lon="5.74695">
        <ele>428</ele>
        <time>2017-05-26T15:50:16Z</time>
      </trkpt>
      <trkpt lat="45.71882" lon="5.74701">
        <ele>428</ele>
        <time>2017-05-26T15:50:32Z</time>
      </trkpt>
      <trkpt lat="45.7188" lon="5.74707">
        <ele>428</ele>
        <time>2017-05-26T15:50:32Z</time>
      </trkpt>
      <trkpt lat="45.71877" lon="5.74712">
        <ele>426</ele>
        <time>2017-05-26T15:50:32Z</time>
      </trkpt>
      <trkpt lat="45.71874" lon="5.74719">
        <ele>420</ele>
        <time>2017-05-26T15:50:32Z</time>
      </trkpt>
      <trkpt lat="45.71871" lon="5.74725">
        <ele>420</ele>
        <time>2017-05-26T15:50:48Z</time>
      </trkpt>
      <trkpt lat="45.71869" lon="5.74731">
        <ele>420</ele>
        <time>2017-05-26T15:50:48Z</time>
      </trkpt>
      <trkpt lat="45.71867" lon="5.74736">
        <ele>420</ele>
        <time>2017-05-26T15:50:48Z</time>
      </trkpt>
      <trkpt lat="45.71865" lon="5.74741">
        <ele>420</ele>
        <time>2017-05-26T15:50:48Z</time>
      </trkpt>
      <trkpt lat="45.71864" lon="5.74746">
        <ele>420</ele>
        <time>2017-05-26T15:51:04Z</time>
      </trkpt>
      <trkpt lat="45.71861" lon="5.7475">
        <ele>420</ele>
        <time>2017-05-26T15:51:04Z</time>
      </trkpt>
      <trkpt lat="45.71859" lon="5.74753">
        <ele>420</ele>
        <time>2017-05-26T15:51:04Z</time>
      </trkpt>
      <trkpt lat="45.71856" lon="5.74757">
        <ele>420</ele>
        <time>2017-05-26T15:51:04Z</time>
      </trkpt>
      <trkpt lat="45.71853" lon="5.74758">
        <ele>420</ele>
        <time>2017-05-26T15:51:20Z</time>
      </trkpt>
      <trkpt lat="45.71851" lon="5.74762">
        <ele>420</ele>
        <time>2017-05-26T15:51:20Z</time>
      </trkpt>
      <trkpt lat="45.71848" lon="5.74764">
        <ele>420</ele>
        <time>2017-05-26T15:51:20Z</time>
      </trkpt>
      <trkpt lat="45.71846" lon="5.74769">
        <ele>420</ele>
        <time>2017-05-26T15:51:20Z</time>
      </trkpt>
      <trkpt lat="45.71843" lon="5.74774">
        <ele>420</ele>
        <time>2017-05-26T15:51:36Z</time>
      </trkpt>
      <trkpt lat="45.71839" lon="5.74776">
        <ele>420</ele>
        <time>2017-05-26T15:51:36Z</time>
      </trkpt>
      <trkpt lat="45.71835" lon="5.7478">
        <ele>420</ele>
        <time>2017-05-26T15:51:36Z</time>
      </trkpt>
      <trkpt lat="45.71831" lon="5.74786">
        <ele>420</ele>
        <time>2017-05-26T15:51:36Z</time>
      </trkpt>
      <trkpt lat="45.71826" lon="5.74792">
        <ele>420</ele>
        <time>2017-05-26T15:51:52Z</time>
      </trkpt>
      <trkpt lat="45.71823" lon="5.74798">
        <ele>417</ele>
        <time>2017-05-26T15:51:52Z</time>
      </trkpt>
      <trkpt lat="45.71819" lon="5.74802">
        <ele>417</ele>
        <time>2017-05-26T15:51:52Z</time>
      </trkpt>
      <trkpt lat="45.71817" lon="5.74807">
        <ele>417</ele>
        <time>2017-05-26T15:51:52Z</time>
      </trkpt>
      <trkpt lat="45.71814" lon="5.74811">
        <ele>417</ele>
        <time>2017-05-26T15:52:08Z</time>
      </trkpt>
      <trkpt lat="45.7181" lon="5.74816">
        <ele>417</ele>
        <time>2017-05-26T15:52:08Z</time>
      </trkpt>
      <trkpt lat="45.71806" lon="5.74823">
        <ele>417</ele>
        <time>2017-05-26T15:52:08Z</time>
      </trkpt>
      <trkpt lat="45.71804" lon="5.74829">
        <ele>417</ele>
        <time>2017-05-26T15:52:08Z</time>
      </trkpt>
      <trkpt lat="45.71802" lon="5.74834">
        <ele>417</ele>
        <time>2017-05-26T15:52:24Z</time>
      </trkpt>
      <trkpt lat="45.718" lon="5.74839">
        <ele>417</ele>
        <time>2017-05-26T15:52:24Z</time>
      </trkpt>
      <trkpt lat="45.71799" lon="5.74843">
        <ele>417</ele>
        <time>2017-05-26T15:52:24Z</time>
      </trkpt>
      <trkpt lat="45.71797" lon="5.74848">
        <ele>417</ele>
        <time>2017-05-26T15:52:24Z</time>
      </trkpt>
      <trkpt lat="45.71795" lon="5.74855">
        <ele>417</ele>
        <time>2017-05-26T15:52:40Z</time>
      </trkpt>
      <trkpt lat="45.71792" lon="5.74861">
        <ele>417</ele>
        <time>2017-05-26T15:52:40Z</time>
      </trkpt>
      <trkpt lat="45.71789" lon="5.74866">
        <ele>410</ele>
        <time>2017-05-26T15:52:40Z</time>
      </trkpt>
      <trkpt lat="45.71787" lon="5.7487">
        <ele>410</ele>
        <time>2017-05-26T15:52:40Z</time>
      </trkpt>
      <trkpt lat="45.71784" lon="5.74877">
        <ele>405</ele>
        <time>2017-05-26T15:52:56Z</time>
      </trkpt>
      <trkpt lat="45.71781" lon="5.74883">
        <ele>405</ele>
        <time>2017-05-26T15:52:56Z</time>
      </trkpt>
      <trkpt lat="45.71781" lon="5.74886">
        <ele>405</ele>
        <time>2017-05-26T15:52:56Z</time>
      </trkpt>
      <trkpt lat="45.71779" lon="5.74892">
        <ele>405</ele>
        <time>2017-05-26T15:52:56Z</time>
      </trkpt>
      <trkpt lat="45.71776" lon="5.74897">
        <ele>405</ele>
        <time>2017-05-26T15:53:12Z</time>
      </trkpt>
      <trkpt lat="45.71774" lon="5.74902">
        <ele>405</ele>
        <time>2017-05-26T15:53:12Z</time>
      </trkpt>
      <trkpt lat="45.71773" lon="5.74908">
        <ele>405</ele>
        <time>2017-05-26T15:53:12Z</time>
      </trkpt>
      <trkpt lat="45.71772" lon="5.74912">
        <ele>405</ele>
        <time>2017-05-26T15:53:12Z</time>
      </trkpt>
      <trkpt lat="45.71771" lon="5.74918">
        <ele>405</ele>
        <time>2017-05-26T15:53:28Z</time>
      </trkpt>
      <trkpt lat="45.7177" lon="5.74924">
        <ele>405</ele>
        <time>2017-05-26T15:53:28Z</time>
      </trkpt>
      <trkpt lat="45.71769" lon="5.74928">
        <ele>405</ele>
        <time>2017-05-26T15:53:28Z</time>
      </trkpt>
      <trkpt lat="45.71768" lon="5.74934">
        <ele>405</ele>
        <time>2017-05-26T15:53:28Z</time>
      </trkpt>
      <trkpt lat="45.71766" lon="5.7494">
        <ele>405</ele>
        <time>2017-05-26T15:53:44Z</time>
      </trkpt>
      <trkpt lat="45.71766" lon="5.74947">
        <ele>405</ele>
        <time>2017-05-26T15:53:44Z</time>
      </trkpt>
      <trkpt lat="45.71765" lon="5.74954">
        <ele>405</ele>
        <time>2017-05-26T15:53:44Z</time>
      </trkpt>
      <trkpt lat="45.71764" lon="5.74961">
        <ele>400</ele>
        <time>2017-05-26T15:53:44Z</time>
      </trkpt>
      <trkpt lat="45.71763" lon="5.74968">
        <ele>400</ele>
        <time>2017-05-26T15:54:00Z</time>
      </trkpt>
      <trkpt lat="45.71762" lon="5.74975">
        <ele>400</ele>
        <time>2017-05-26T15:54:00Z</time>
      </trkpt>
      <trkpt lat="45.7176" lon="5.74981">
        <ele>400</ele>
        <time>2017-05-26T15:54:00Z</time>
      </trkpt>
      <trkpt lat="45.71758" lon="5.74987">
        <ele>400</ele>
        <time>2017-05-26T15:54:00Z</time>
      </trkpt>
      <trkpt lat="45.71755" lon="5.74993">
        <ele>400</ele>
        <time>2017-05-26T15:54:16Z</time>
      </trkpt>
      <trkpt lat="45.71752" lon="5.75">
        <ele>400</ele>
        <time>2017-05-26T15:54:16Z</time>
      </trkpt>
      <trkpt lat="45.71749" lon="5.75005">
        <ele>400</ele>
        <time>2017-05-26T15:54:16Z</time>
      </trkpt>
      <trkpt lat="45.71746" lon="5.75011">
        <ele>400</ele>
        <time>2017-05-26T15:54:16Z</time>
      </trkpt>
      <trkpt lat="45.71743" lon="5.75015">
        <ele>400</ele>
        <time>2017-05-26T15:54:32Z</time>
      </trkpt>
      <trkpt lat="45.7174" lon="5.75021">
        <ele>400</ele>
        <time>2017-05-26T15:54:32Z</time>
      </trkpt>
      <trkpt lat="45.71737" lon="5.75025">
        <ele>400</ele>
        <time>2017-05-26T15:54:32Z</time>
      </trkpt>
      <trkpt lat="45.71735" lon="5.75029">
        <ele>400</ele>
        <time>2017-05-26T15:54:32Z</time>
      </trkpt>
      <trkpt lat="45.71731" lon="5.75035">
        <ele>400</ele>
        <time>2017-05-26T15:54:48Z</time>
      </trkpt>
      <trkpt lat="45.71728" lon="5.75041">
        <ele>400</ele>
        <time>2017-05-26T15:54:48Z</time>
      </trkpt>
      <trkpt lat="45.71727" lon="5.75044">
        <ele>391</ele>
        <time>2017-05-26T15:54:48Z</time>
      </trkpt>
      <trkpt lat="45.71725" lon="5.75048">
        <ele>391</ele>
        <time>2017-05-26T15:54:48Z</time>
      </trkpt>
      <trkpt lat="45.71722" lon="5.75055">
        <ele>391</ele>
        <time>2017-05-26T15:55:04Z</time>
      </trkpt>
      <trkpt lat="45.7172" lon="5.75061">
        <ele>391</ele>
        <time>2017-05-26T15:55:04Z</time>
      </trkpt>
      <trkpt lat="45.71717" lon="5.75065">
        <ele>391</ele>
        <time>2017-05-26T15:55:04Z</time>
      </trkpt>
      <trkpt lat="45.71715" lon="5.75069">
        <ele>391</ele>
        <time>2017-05-26T15:55:04Z</time>
      </trkpt>
      <trkpt lat="45.71711" lon="5.75074">
        <ele>391</ele>
        <time>2017-05-26T15:56:04Z</time>
      </trkpt>
      <trkpt lat="45.71709" lon="5.75075">
        <ele>391</ele>
        <time>2017-05-26T15:56:04Z</time>
      </trkpt>
      <trkpt lat="45.71707" lon="5.75077">
        <ele>383</ele>
        <time>2017-05-26T15:56:04Z</time>
      </trkpt>
      <trkpt lat="45.71707" lon="5.75081">
        <ele>383</ele>
        <time>2017-05-26T15:56:04Z</time>
      </trkpt>
      <trkpt lat="45.71708" lon="5.75083">
        <ele>383</ele>
        <time>2017-05-26T15:56:04Z</time>
      </trkpt>
      <trkpt lat="45.71708" lon="5.75087">
        <ele>383</ele>
        <time>2017-05-26T15:56:20Z</time>
      </trkpt>
      <trkpt lat="45.71707" lon="5.75092">
        <ele>383</ele>
        <time>2017-05-26T15:56:20Z</time>
      </trkpt>
      <trkpt lat="45.71707" lon="5.75097">
        <ele>383</ele>
        <time>2017-05-26T15:56:20Z</time>
      </trkpt>
      <trkpt lat="45.71707" lon="5.75103">
        <ele>383</ele>
        <time>2017-05-26T15:56:20Z</time>
      </trkpt>
      <trkpt lat="45.71707" lon="5.75108">
        <ele>383</ele>
        <time>2017-05-26T15:56:36Z</time>
      </trkpt>
      <trkpt lat="45.71706" lon="5.75113">
        <ele>383</ele>
        <time>2017-05-26T15:56:36Z</time>
      </trkpt>
      <trkpt lat="45.71704" lon="5.75119">
        <ele>383</ele>
        <time>2017-05-26T15:56:36Z</time>
      </trkpt>
      <trkpt lat="45.71703" lon="5.75125">
        <ele>375</ele>
        <time>2017-05-26T15:56:36Z</time>
      </trkpt>
      <trkpt lat="45.71696" lon="5.75141">
        <ele>375</ele>
        <time>2017-05-26T15:59:48Z</time>
      </trkpt>
      <trkpt lat="45.71696" lon="5.75141">
        <ele>375</ele>
        <time>2017-05-26T15:59:48Z</time>
      </trkpt>
      <trkpt lat="45.71696" lon="5.75141">
        <ele>375</ele>
        <time>2017-05-26T15:59:48Z</time>
      </trkpt>
      <trkpt lat="45.71695" lon="5.75141">
        <ele>375</ele>
        <time>2017-05-26T15:59:48Z</time>
      </trkpt>
      <trkpt lat="45.71693" lon="5.75145">
        <ele>375</ele>
        <time>2017-05-26T15:59:48Z</time>
      </trkpt>
      <trkpt lat="45.7169" lon="5.7515">
        <ele>375</ele>
        <time>2017-05-26T16:00:04Z</time>
      </trkpt>
      <trkpt lat="45.71688" lon="5.75154">
        <ele>375</ele>
        <time>2017-05-26T16:00:04Z</time>
      </trkpt>
      <trkpt lat="45.71686" lon="5.75159">
        <ele>375</ele>
        <time>2017-05-26T16:00:04Z</time>
      </trkpt>
      <trkpt lat="45.71684" lon="5.75166">
        <ele>375</ele>
        <time>2017-05-26T16:00:04Z</time>
      </trkpt>
      <trkpt lat="45.7168" lon="5.75169">
        <ele>375</ele>
        <time>2017-05-26T16:00:20Z</time>
      </trkpt>
      <trkpt lat="45.71677" lon="5.75173">
        <ele>375</ele>
        <time>2017-05-26T16:00:20Z</time>
      </trkpt>
      <trkpt lat="45.71673" lon="5.75176">
        <ele>375</ele>
        <time>2017-05-26T16:00:20Z</time>
      </trkpt>
      <trkpt lat="45.7167" lon="5.75182">
        <ele>375</ele>
        <time>2017-05-26T16:00:20Z</time>
      </trkpt>
      <trkpt lat="45.71667" lon="5.75188">
        <ele>375</ele>
        <time>2017-05-26T16:00:36Z</time>
      </trkpt>
      <trkpt lat="45.71664" lon="5.75194">
        <ele>375</ele>
        <time>2017-05-26T16:00:36Z</time>
      </trkpt>
      <trkpt lat="45.71661" lon="5.75199">
        <ele>375</ele>
        <time>2017-05-26T16:00:36Z</time>
      </trkpt>
      <trkpt lat="45.71658" lon="5.75205">
        <ele>375</ele>
        <time>2017-05-26T16:00:36Z</time>
      </trkpt>
      <trkpt lat="45.71655" lon="5.75209">
        <ele>363</ele>
        <time>2017-05-26T16:00:52Z</time>
      </trkpt>
      <trkpt lat="45.7165" lon="5.75214">
        <ele>363</ele>
        <time>2017-05-26T16:00:52Z</time>
      </trkpt>
      <trkpt lat="45.71647" lon="5.75218">
        <ele>363</ele>
        <time>2017-05-26T16:00:52Z</time>
      </trkpt>
      <trkpt lat="45.71645" lon="5.75223">
        <ele>363</ele>
        <time>2017-05-26T16:00:52Z</time>
      </trkpt>
      <trkpt lat="45.71643" lon="5.75227">
        <ele>363</ele>
        <time>2017-05-26T16:01:08Z</time>
      </trkpt>
      <trkpt lat="45.71641" lon="5.75231">
        <ele>363</ele>
        <time>2017-05-26T16:01:08Z</time>
      </trkpt>
      <trkpt lat="45.71638" lon="5.75233">
        <ele>363</ele>
        <time>2017-05-26T16:01:08Z</time>
      </trkpt>
      <trkpt lat="45.71635" lon="5.75235">
        <ele>363</ele>
        <time>2017-05-26T16:01:08Z</time>
      </trkpt>
      <trkpt lat="45.7163" lon="5.75237">
        <ele>363</ele>
        <time>2017-05-26T16:01:24Z</time>
      </trkpt>
      <trkpt lat="45.71625" lon="5.75239">
        <ele>363</ele>
        <time>2017-05-26T16:01:24Z</time>
      </trkpt>
      <trkpt lat="45.7162" lon="5.75241">
        <ele>357</ele>
        <time>2017-05-26T16:01:24Z</time>
      </trkpt>
      <trkpt lat="45.71617" lon="5.75242">
        <ele>357</ele>
        <time>2017-05-26T16:01:24Z</time>
      </trkpt>
      <trkpt lat="45.71611" lon="5.75242">
        <ele>357</ele>
        <time>2017-05-26T16:01:40Z</time>
      </trkpt>
      <trkpt lat="45.71607" lon="5.75246">
        <ele>357</ele>
        <time>2017-05-26T16:01:40Z</time>
      </trkpt>
      <trkpt lat="45.71602" lon="5.75248">
        <ele>357</ele>
        <time>2017-05-26T16:01:40Z</time>
      </trkpt>
      <trkpt lat="45.71598" lon="5.75252">
        <ele>357</ele>
        <time>2017-05-26T16:01:40Z</time>
      </trkpt>
      <trkpt lat="45.71595" lon="5.75255">
        <ele>357</ele>
        <time>2017-05-26T16:01:56Z</time>
      </trkpt>
      <trkpt lat="45.71592" lon="5.75257">
        <ele>357</ele>
        <time>2017-05-26T16:01:56Z</time>
      </trkpt>
      <trkpt lat="45.71588" lon="5.75259">
        <ele>357</ele>
        <time>2017-05-26T16:01:56Z</time>
      </trkpt>
      <trkpt lat="45.71586" lon="5.75262">
        <ele>357</ele>
        <time>2017-05-26T16:01:56Z</time>
      </trkpt>
      <trkpt lat="45.71584" lon="5.75263">
        <ele>357</ele>
        <time>2017-05-26T16:02:16Z</time>
      </trkpt>
      <trkpt lat="45.71582" lon="5.75263">
        <ele>357</ele>
        <time>2017-05-26T16:02:16Z</time>
      </trkpt>
      <trkpt lat="45.7158" lon="5.75264">
        <ele>357</ele>
        <time>2017-05-26T16:02:16Z</time>
      </trkpt>
      <trkpt lat="45.71578" lon="5.75268">
        <ele>357</ele>
        <time>2017-05-26T16:02:16Z</time>
      </trkpt>
      <trkpt lat="45.71574" lon="5.75271">
        <ele>357</ele>
        <time>2017-05-26T16:02:16Z</time>
      </trkpt>
      <trkpt lat="45.7157" lon="5.75272">
        <ele>357</ele>
        <time>2017-05-26T16:02:32Z</time>
      </trkpt>
      <trkpt lat="45.71565" lon="5.75272">
        <ele>357</ele>
        <time>2017-05-26T16:02:32Z</time>
      </trkpt>
      <trkpt lat="45.71561" lon="5.75275">
        <ele>357</ele>
        <time>2017-05-26T16:02:32Z</time>
      </trkpt>
      <trkpt lat="45.71559" lon="5.75277">
        <ele>357</ele>
        <time>2017-05-26T16:02:32Z</time>
      </trkpt>
      <trkpt lat="45.71551" lon="5.75277">
        <ele>357</ele>
        <time>2017-05-26T16:02:52Z</time>
      </trkpt>
      <trkpt lat="45.71547" lon="5.75278">
        <ele>357</ele>
        <time>2017-05-26T16:02:52Z</time>
      </trkpt>
      <trkpt lat="45.71547" lon="5.75281">
        <ele>357</ele>
        <time>2017-05-26T16:02:52Z</time>
      </trkpt>
      <trkpt lat="45.71545" lon="5.75284">
        <ele>357</ele>
        <time>2017-05-26T16:02:52Z</time>
      </trkpt>
      <trkpt lat="45.71543" lon="5.75292">
        <ele>345</ele>
        <time>2017-05-26T16:02:52Z</time>
      </trkpt>
      <trkpt lat="45.7154" lon="5.75301">
        <ele>340</ele>
        <time>2017-05-26T16:03:08Z</time>
      </trkpt>
      <trkpt lat="45.71538" lon="5.75309">
        <ele>340</ele>
        <time>2017-05-26T16:03:08Z</time>
      </trkpt>
      <trkpt lat="45.71536" lon="5.75316">
        <ele>340</ele>
        <time>2017-05-26T16:03:08Z</time>
      </trkpt>
      <trkpt lat="45.71533" lon="5.75325">
        <ele>340</ele>
        <time>2017-05-26T16:03:08Z</time>
      </trkpt>
      <trkpt lat="45.71528" lon="5.7533">
        <ele>340</ele>
        <time>2017-05-26T16:03:24Z</time>
      </trkpt>
      <trkpt lat="45.71527" lon="5.75335">
        <ele>340</ele>
        <time>2017-05-26T16:03:24Z</time>
      </trkpt>
      <trkpt lat="45.71525" lon="5.7534">
        <ele>340</ele>
        <time>2017-05-26T16:03:24Z</time>
      </trkpt>
      <trkpt lat="45.71523" lon="5.75344">
        <ele>340</ele>
        <time>2017-05-26T16:03:24Z</time>
      </trkpt>
      <trkpt lat="45.71521" lon="5.75349">
        <ele>340</ele>
        <time>2017-05-26T16:03:40Z</time>
      </trkpt>
      <trkpt lat="45.71517" lon="5.75354">
        <ele>340</ele>
        <time>2017-05-26T16:03:40Z</time>
      </trkpt>
      <trkpt lat="45.71513" lon="5.75359">
        <ele>340</ele>
        <time>2017-05-26T16:03:40Z</time>
      </trkpt>
      <trkpt lat="45.71508" lon="5.75363">
        <ele>340</ele>
        <time>2017-05-26T16:03:40Z</time>
      </trkpt>
      <trkpt lat="45.71503" lon="5.75366">
        <ele>340</ele>
        <time>2017-05-26T16:03:56Z</time>
      </trkpt>
      <trkpt lat="45.71498" lon="5.75368">
        <ele>340</ele>
        <time>2017-05-26T16:03:56Z</time>
      </trkpt>
      <trkpt lat="45.71494" lon="5.75369">
        <ele>340</ele>
        <time>2017-05-26T16:03:56Z</time>
      </trkpt>
      <trkpt lat="45.71488" lon="5.75369">
        <ele>340</ele>
        <time>2017-05-26T16:03:56Z</time>
      </trkpt>
      <trkpt lat="45.71484" lon="5.75371">
        <ele>340</ele>
        <time>2017-05-26T16:04:12Z</time>
      </trkpt>
      <trkpt lat="45.71484" lon="5.75375">
        <ele>340</ele>
        <time>2017-05-26T16:04:12Z</time>
      </trkpt>
      <trkpt lat="45.71477" lon="5.75375">
        <ele>320</ele>
        <time>2017-05-26T16:04:12Z</time>
      </trkpt>
      <trkpt lat="45.71471" lon="5.75378">
        <ele>320</ele>
        <time>2017-05-26T16:04:12Z</time>
      </trkpt>
      <trkpt lat="45.71466" lon="5.7538">
        <ele>320</ele>
        <time>2017-05-26T16:04:32Z</time>
      </trkpt>
      <trkpt lat="45.71464" lon="5.75379">
        <ele>320</ele>
        <time>2017-05-26T16:04:32Z</time>
      </trkpt>
      <trkpt lat="45.71462" lon="5.75378">
        <ele>320</ele>
        <time>2017-05-26T16:04:32Z</time>
      </trkpt>
      <trkpt lat="45.7146" lon="5.75379">
        <ele>320</ele>
        <time>2017-05-26T16:04:32Z</time>
      </trkpt>
      <trkpt lat="45.71457" lon="5.75377">
        <ele>311</ele>
        <time>2017-05-26T16:04:32Z</time>
      </trkpt>
      <trkpt lat="45.71455" lon="5.75376">
        <ele>311</ele>
        <time>2017-05-26T16:04:48Z</time>
      </trkpt>
      <trkpt lat="45.71451" lon="5.75378">
        <ele>311</ele>
        <time>2017-05-26T16:04:48Z</time>
      </trkpt>
      <trkpt lat="45.71447" lon="5.7538">
        <ele>311</ele>
        <time>2017-05-26T16:04:48Z</time>
      </trkpt>
      <trkpt lat="45.7144" lon="5.75381">
        <ele>311</ele>
        <time>2017-05-26T16:04:48Z</time>
      </trkpt>
      <trkpt lat="45.71434" lon="5.75383">
        <ele>311</ele>
        <time>2017-05-26T16:05:04Z</time>
      </trkpt>
      <trkpt lat="45.71429" lon="5.75384">
        <ele>311</ele>
        <time>2017-05-26T16:05:04Z</time>
      </trkpt>
      <trkpt lat="45.71425" lon="5.75383">
        <ele>311</ele>
        <time>2017-05-26T16:05:05Z</time>
      </trkpt>
      <trkpt lat="45.71422" lon="5.75382">
        <ele>311</ele>
        <time>2017-05-26T16:05:05Z</time>
      </trkpt>
      <trkpt lat="45.7142" lon="5.75382">
        <ele>311</ele>
        <time>2017-05-26T16:05:20Z</time>
      </trkpt>
      <trkpt lat="45.71418" lon="5.75381">
        <ele>311</ele>
        <time>2017-05-26T16:05:20Z</time>
      </trkpt>
      <trkpt lat="45.71414" lon="5.75383">
        <ele>311</ele>
        <time>2017-05-26T16:05:20Z</time>
      </trkpt>
      <trkpt lat="45.71408" lon="5.75385">
        <ele>311</ele>
        <time>2017-05-26T16:05:20Z</time>
      </trkpt>
      <trkpt lat="45.71402" lon="5.75387">
        <ele>311</ele>
        <time>2017-05-26T16:05:36Z</time>
      </trkpt>
      <trkpt lat="45.71396" lon="5.75386">
        <ele>311</ele>
        <time>2017-05-26T16:05:36Z</time>
      </trkpt>
      <trkpt lat="45.71389" lon="5.75384">
        <ele>311</ele>
        <time>2017-05-26T16:05:36Z</time>
      </trkpt>
      <trkpt lat="45.71383" lon="5.75385">
        <ele>311</ele>
        <time>2017-05-26T16:05:36Z</time>
      </trkpt>
      <trkpt lat="45.71378" lon="5.75386">
        <ele>311</ele>
        <time>2017-05-26T16:05:52Z</time>
      </trkpt>
      <trkpt lat="45.71373" lon="5.75387">
        <ele>306</ele>
        <time>2017-05-26T16:05:52Z</time>
      </trkpt>
      <trkpt lat="45.71368" lon="5.75386">
        <ele>306</ele>
        <time>2017-05-26T16:05:52Z</time>
      </trkpt>
      <trkpt lat="45.71363" lon="5.75386">
        <ele>306</ele>
        <time>2017-05-26T16:05:52Z</time>
      </trkpt>
      <trkpt lat="45.71358" lon="5.75384">
        <ele>306</ele>
        <time>2017-05-26T16:06:08Z</time>
      </trkpt>
      <trkpt lat="45.71353" lon="5.75385">
        <ele>306</ele>
        <time>2017-05-26T16:06:08Z</time>
      </trkpt>
      <trkpt lat="45.71347" lon="5.75386">
        <ele>306</ele>
        <time>2017-05-26T16:06:08Z</time>
      </trkpt>
      <trkpt lat="45.7134" lon="5.75383">
        <ele>306</ele>
        <time>2017-05-26T16:06:08Z</time>
      </trkpt>
      <trkpt lat="45.71332" lon="5.75381">
        <ele>306</ele>
        <time>2017-05-26T16:06:28Z</time>
      </trkpt>
      <trkpt lat="45.7133" lon="5.75378">
        <ele>306</ele>
        <time>2017-05-26T16:06:28Z</time>
      </trkpt>
      <trkpt lat="45.7133" lon="5.75373">
        <ele>322</ele>
        <time>2017-05-26T16:06:28Z</time>
      </trkpt>
      <trkpt lat="45.71328" lon="5.75371">
        <ele>322</ele>
        <time>2017-05-26T16:06:28Z</time>
      </trkpt>
      <trkpt lat="45.71326" lon="5.75371">
        <ele>322</ele>
        <time>2017-05-26T16:06:28Z</time>
      </trkpt>
      <trkpt lat="45.71325" lon="5.75371">
        <ele>322</ele>
        <time>2017-05-26T16:06:44Z</time>
      </trkpt>
      <trkpt lat="45.71322" lon="5.75371">
        <ele>322</ele>
        <time>2017-05-26T16:06:44Z</time>
      </trkpt>
      <trkpt lat="45.71314" lon="5.7537">
        <ele>322</ele>
        <time>2017-05-26T16:06:44Z</time>
      </trkpt>
      <trkpt lat="45.71306" lon="5.7537">
        <ele>322</ele>
        <time>2017-05-26T16:06:44Z</time>
      </trkpt>
      <trkpt lat="45.713" lon="5.75369">
        <ele>322</ele>
        <time>2017-05-26T16:07:00Z</time>
      </trkpt>
      <trkpt lat="45.71294" lon="5.75368">
        <ele>322</ele>
        <time>2017-05-26T16:07:00Z</time>
      </trkpt>
      <trkpt lat="45.71291" lon="5.75366">
        <ele>312</ele>
        <time>2017-05-26T16:07:00Z</time>
      </trkpt>
      <trkpt lat="45.71289" lon="5.75365">
        <ele>312</ele>
        <time>2017-05-26T16:07:00Z</time>
      </trkpt>
      <trkpt lat="45.71285" lon="5.75365">
        <ele>312</ele>
        <time>2017-05-26T16:07:16Z</time>
      </trkpt>
      <trkpt lat="45.71281" lon="5.75364">
        <ele>312</ele>
        <time>2017-05-26T16:07:16Z</time>
      </trkpt>
      <trkpt lat="45.71277" lon="5.75364">
        <ele>312</ele>
        <time>2017-05-26T16:07:16Z</time>
      </trkpt>
      <trkpt lat="45.71272" lon="5.75364">
        <ele>312</ele>
        <time>2017-05-26T16:07:16Z</time>
      </trkpt>
      <trkpt lat="45.71267" lon="5.75362">
        <ele>312</ele>
        <time>2017-05-26T16:07:32Z</time>
      </trkpt>
      <trkpt lat="45.71262" lon="5.75362">
        <ele>312</ele>
        <time>2017-05-26T16:07:32Z</time>
      </trkpt>
      <trkpt lat="45.71256" lon="5.75362">
        <ele>312</ele>
        <time>2017-05-26T16:07:32Z</time>
      </trkpt>
      <trkpt lat="45.7125" lon="5.7536">
        <ele>312</ele>
        <time>2017-05-26T16:07:32Z</time>
      </trkpt>
      <trkpt lat="45.71244" lon="5.75358">
        <ele>312</ele>
        <time>2017-05-26T16:07:48Z</time>
      </trkpt>
      <trkpt lat="45.71238" lon="5.75356">
        <ele>312</ele>
        <time>2017-05-26T16:07:48Z</time>
      </trkpt>
      <trkpt lat="45.71233" lon="5.75353">
        <ele>312</ele>
        <time>2017-05-26T16:07:48Z</time>
      </trkpt>
      <trkpt lat="45.71226" lon="5.75352">
        <ele>312</ele>
        <time>2017-05-26T16:07:48Z</time>
      </trkpt>
      <trkpt lat="45.71221" lon="5.75351">
        <ele>312</ele>
        <time>2017-05-26T16:08:04Z</time>
      </trkpt>
      <trkpt lat="45.71216" lon="5.75349">
        <ele>312</ele>
        <time>2017-05-26T16:08:04Z</time>
      </trkpt>
      <trkpt lat="45.71211" lon="5.75347">
        <ele>312</ele>
        <time>2017-05-26T16:08:04Z</time>
      </trkpt>
      <trkpt lat="45.71207" lon="5.75348">
        <ele>296</ele>
        <time>2017-05-26T16:08:04Z</time>
      </trkpt>
      <trkpt lat="45.71203" lon="5.75349">
        <ele>296</ele>
        <time>2017-05-26T16:08:20Z</time>
      </trkpt>
      <trkpt lat="45.712" lon="5.75347">
        <ele>296</ele>
        <time>2017-05-26T16:08:20Z</time>
      </trkpt>
      <trkpt lat="45.71196" lon="5.75345">
        <ele>296</ele>
        <time>2017-05-26T16:08:20Z</time>
      </trkpt>
      <trkpt lat="45.71191" lon="5.75345">
        <ele>296</ele>
        <time>2017-05-26T16:08:20Z</time>
      </trkpt>
      <trkpt lat="45.71185" lon="5.75346">
        <ele>296</ele>
        <time>2017-05-26T16:08:36Z</time>
      </trkpt>
      <trkpt lat="45.7118" lon="5.75347">
        <ele>296</ele>
        <time>2017-05-26T16:08:36Z</time>
      </trkpt>
      <trkpt lat="45.71176" lon="5.75348">
        <ele>296</ele>
        <time>2017-05-26T16:08:36Z</time>
      </trkpt>
      <trkpt lat="45.71172" lon="5.75349">
        <ele>296</ele>
        <time>2017-05-26T16:08:36Z</time>
      </trkpt>
      <trkpt lat="45.71168" lon="5.75352">
        <ele>296</ele>
        <time>2017-05-26T16:08:52Z</time>
      </trkpt>
      <trkpt lat="45.71164" lon="5.75355">
        <ele>296</ele>
        <time>2017-05-26T16:08:52Z</time>
      </trkpt>
      <trkpt lat="45.71159" lon="5.75359">
        <ele>296</ele>
        <time>2017-05-26T16:08:52Z</time>
      </trkpt>
      <trkpt lat="45.71153" lon="5.75361">
        <ele>296</ele>
        <time>2017-05-26T16:08:52Z</time>
      </trkpt>
      <trkpt lat="45.71148" lon="5.75363">
        <ele>296</ele>
        <time>2017-05-26T16:09:08Z</time>
      </trkpt>
      <trkpt lat="45.71144" lon="5.75366">
        <ele>296</ele>
        <time>2017-05-26T16:09:08Z</time>
      </trkpt>
      <trkpt lat="45.7114" lon="5.75367">
        <ele>296</ele>
        <time>2017-05-26T16:09:08Z</time>
      </trkpt>
      <trkpt lat="45.71135" lon="5.75367">
        <ele>296</ele>
        <time>2017-05-26T16:09:08Z</time>
      </trkpt>
      <trkpt lat="45.71131" lon="5.75369">
        <ele>296</ele>
        <time>2017-05-26T16:09:24Z</time>
      </trkpt>
      <trkpt lat="45.71127" lon="5.75366">
        <ele>296</ele>
        <time>2017-05-26T16:09:24Z</time>
      </trkpt>
      <trkpt lat="45.7112" lon="5.75363">
        <ele>277</ele>
        <time>2017-05-26T16:09:24Z</time>
      </trkpt>
      <trkpt lat="45.71116" lon="5.75363">
        <ele>277</ele>
        <time>2017-05-26T16:09:24Z</time>
      </trkpt>
      <trkpt lat="45.71112" lon="5.75364">
        <ele>277</ele>
        <time>2017-05-26T16:09:40Z</time>
      </trkpt>
      <trkpt lat="45.71107" lon="5.75362">
        <ele>277</ele>
        <time>2017-05-26T16:09:40Z</time>
      </trkpt>
      <trkpt lat="45.71101" lon="5.75366">
        <ele>277</ele>
        <time>2017-05-26T16:09:40Z</time>
      </trkpt>
      <trkpt lat="45.71099" lon="5.75372">
        <ele>277</ele>
        <time>2017-05-26T16:09:40Z</time>
      </trkpt>
      <trkpt lat="45.71094" lon="5.75377">
        <ele>263</ele>
        <time>2017-05-26T16:09:56Z</time>
      </trkpt>
      <trkpt lat="45.71088" lon="5.7538">
        <ele>263</ele>
        <time>2017-05-26T16:09:56Z</time>
      </trkpt>
      <trkpt lat="45.7108" lon="5.75376">
        <ele>263</ele>
        <time>2017-05-26T16:09:56Z</time>
      </trkpt>
      <trkpt lat="45.71073" lon="5.75376">
        <ele>263</ele>
        <time>2017-05-26T16:09:56Z</time>
      </trkpt>
      <trkpt lat="45.71068" lon="5.75379">
        <ele>263</ele>
        <time>2017-05-26T16:10:12Z</time>
      </trkpt>
      <trkpt lat="45.71065" lon="5.75378">
        <ele>263</ele>
        <time>2017-05-26T16:10:12Z</time>
      </trkpt>
      <trkpt lat="45.71059" lon="5.75377">
        <ele>263</ele>
        <time>2017-05-26T16:10:12Z</time>
      </trkpt>
      <trkpt lat="45.71053" lon="5.75377">
        <ele>263</ele>
        <time>2017-05-26T16:10:12Z</time>
      </trkpt>
      <trkpt lat="45.71047" lon="5.75377">
        <ele>263</ele>
        <time>2017-05-26T16:10:32Z</time>
      </trkpt>
      <trkpt lat="45.71044" lon="5.75376">
        <ele>263</ele>
        <time>2017-05-26T16:10:32Z</time>
      </trkpt>
      <trkpt lat="45.71042" lon="5.75376">
        <ele>263</ele>
        <time>2017-05-26T16:10:32Z</time>
      </trkpt>
      <trkpt lat="45.7104" lon="5.75381">
        <ele>253</ele>
        <time>2017-05-26T16:10:32Z</time>
      </trkpt>
      <trkpt lat="45.71037" lon="5.75386">
        <ele>253</ele>
        <time>2017-05-26T16:10:32Z</time>
      </trkpt>
      <trkpt lat="45.71033" lon="5.75383">
        <ele>253</ele>
        <time>2017-05-26T16:11:24Z</time>
      </trkpt>
      <trkpt lat="45.71033" lon="5.75383">
        <ele>253</ele>
        <time>2017-05-26T16:11:24Z</time>
      </trkpt>
      <trkpt lat="45.7103" lon="5.75385">
        <ele>253</ele>
        <time>2017-05-26T16:11:24Z</time>
      </trkpt>
      <trkpt lat="45.71023" lon="5.75385">
        <ele>253</ele>
        <time>2017-05-26T16:11:24Z</time>
      </trkpt>
      <trkpt lat="45.71016" lon="5.75384">
        <ele>253</ele>
        <time>2017-05-26T16:11:24Z</time>
      </trkpt>
      <trkpt lat="45.71012" lon="5.75384">
        <ele>253</ele>
        <time>2017-05-26T16:11:40Z</time>
      </trkpt>
      <trkpt lat="45.71009" lon="5.75383">
        <ele>253</ele>
        <time>2017-05-26T16:11:40Z</time>
      </trkpt>
      <trkpt lat="45.71005" lon="5.75382">
        <ele>253</ele>
        <time>2017-05-26T16:11:40Z</time>
      </trkpt>
      <trkpt lat="45.71001" lon="5.75381">
        <ele>253</ele>
        <time>2017-05-26T16:11:40Z</time>
      </trkpt>
      <trkpt lat="45.70997" lon="5.7538">
        <ele>253</ele>
        <time>2017-05-26T16:11:56Z</time>
      </trkpt>
      <trkpt lat="45.70992" lon="5.7538">
        <ele>253</ele>
        <time>2017-05-26T16:11:56Z</time>
      </trkpt>
      <trkpt lat="45.70986" lon="5.75379">
        <ele>253</ele>
        <time>2017-05-26T16:11:56Z</time>
      </trkpt>
      <trkpt lat="45.70982" lon="5.7538">
        <ele>253</ele>
        <time>2017-05-26T16:11:56Z</time>
      </trkpt>
      <trkpt lat="45.70971" lon="5.75374">
        <ele>261</ele>
        <time>2017-05-26T16:12:28Z</time>
      </trkpt>
      <trkpt lat="45.7097" lon="5.75374">
        <ele>261</ele>
        <time>2017-05-26T16:12:28Z</time>
      </trkpt>
      <trkpt lat="45.70969" lon="5.75373">
        <ele>261</ele>
        <time>2017-05-26T16:12:28Z</time>
      </trkpt>
      <trkpt lat="45.70968" lon="5.75374">
        <ele>261</ele>
        <time>2017-05-26T16:12:28Z</time>
      </trkpt>
      <trkpt lat="45.70967" lon="5.75374">
        <ele>261</ele>
        <time>2017-05-26T16:12:28Z</time>
      </trkpt>
      <trkpt lat="45.70966" lon="5.75376">
        <ele>253</ele>
        <time>2017-05-26T16:13:04Z</time>
      </trkpt>
      <trkpt lat="45.70966" lon="5.75377">
        <ele>253</ele>
        <time>2017-05-26T16:13:04Z</time>
      </trkpt>
      <trkpt lat="45.70963" lon="5.75376">
        <ele>253</ele>
        <time>2017-05-26T16:13:04Z</time>
      </trkpt>
      <trkpt lat="45.70959" lon="5.75373">
        <ele>261</ele>
        <time>2017-05-26T16:13:04Z</time>
      </trkpt>
      <trkpt lat="45.70955" lon="5.75368">
        <ele>247</ele>
        <time>2017-05-26T16:13:04Z</time>
      </trkpt>
      <trkpt lat="45.70951" lon="5.75363">
        <ele>247</ele>
        <time>2017-05-26T16:13:20Z</time>
      </trkpt>
      <trkpt lat="45.70948" lon="5.75359">
        <ele>247</ele>
        <time>2017-05-26T16:13:20Z</time>
      </trkpt>
      <trkpt lat="45.70945" lon="5.75354">
        <ele>247</ele>
        <time>2017-05-26T16:13:20Z</time>
      </trkpt>
      <trkpt lat="45.70942" lon="5.7535">
        <ele>247</ele>
        <time>2017-05-26T16:13:20Z</time>
      </trkpt>
      <trkpt lat="45.70941" lon="5.75344">
        <ele>247</ele>
        <time>2017-05-26T16:13:36Z</time>
      </trkpt>
      <trkpt lat="45.70939" lon="5.75336">
        <ele>247</ele>
        <time>2017-05-26T16:13:36Z</time>
      </trkpt>
      <trkpt lat="45.70935" lon="5.75326">
        <ele>247</ele>
        <time>2017-05-26T16:13:36Z</time>
      </trkpt>
      <trkpt lat="45.7093" lon="5.75319">
        <ele>247</ele>
        <time>2017-05-26T16:13:36Z</time>
      </trkpt>
      <trkpt lat="45.70927" lon="5.75311">
        <ele>247</ele>
        <time>2017-05-26T16:13:52Z</time>
      </trkpt>
      <trkpt lat="45.70924" lon="5.75308">
        <ele>247</ele>
        <time>2017-05-26T16:13:52Z</time>
      </trkpt>
      <trkpt lat="45.70921" lon="5.75303">
        <ele>247</ele>
        <time>2017-05-26T16:13:52Z</time>
      </trkpt>
      <trkpt lat="45.70918" lon="5.75298">
        <ele>247</ele>
        <time>2017-05-26T16:13:52Z</time>
      </trkpt>
      <trkpt lat="45.70914" lon="5.75294">
        <ele>247</ele>
        <time>2017-05-26T16:14:08Z</time>
      </trkpt>
      <trkpt lat="45.70909" lon="5.75288">
        <ele>266</ele>
        <time>2017-05-26T16:14:08Z</time>
      </trkpt>
      <trkpt lat="45.70905" lon="5.75288">
        <ele>266</ele>
        <time>2017-05-26T16:14:08Z</time>
      </trkpt>
      <trkpt lat="45.70901" lon="5.75288">
        <ele>266</ele>
        <time>2017-05-26T16:14:08Z</time>
      </trkpt>
      <trkpt lat="45.70897" lon="5.75287">
        <ele>266</ele>
        <time>2017-05-26T16:14:24Z</time>
      </trkpt>
      <trkpt lat="45.70891" lon="5.75284">
        <ele>266</ele>
        <time>2017-05-26T16:14:24Z</time>
      </trkpt>
      <trkpt lat="45.70886" lon="5.75281">
        <ele>266</ele>
        <time>2017-05-26T16:14:24Z</time>
      </trkpt>
      <trkpt lat="45.7088" lon="5.75277">
        <ele>266</ele>
        <time>2017-05-26T16:14:24Z</time>
      </trkpt>
      <trkpt lat="45.70879" lon="5.75274">
        <ele>266</ele>
        <time>2017-05-26T16:14:44Z</time>
      </trkpt>
      <trkpt lat="45.70878" lon="5.75272">
        <ele>266</ele>
        <time>2017-05-26T16:14:44Z</time>
      </trkpt>
      <trkpt lat="45.70877" lon="5.75272">
        <ele>266</ele>
        <time>2017-05-26T16:14:44Z</time>
      </trkpt>
      <trkpt lat="45.70871" lon="5.7527">
        <ele>246</ele>
        <time>2017-05-26T16:14:44Z</time>
      </trkpt>
      <trkpt lat="45.70865" lon="5.75267">
        <ele>246</ele>
        <time>2017-05-26T16:14:44Z</time>
      </trkpt>
      <trkpt lat="45.70856" lon="5.75261">
        <ele>246</ele>
        <time>2017-05-26T16:15:00Z</time>
      </trkpt>
      <trkpt lat="45.70848" lon="5.75255">
        <ele>246</ele>
        <time>2017-05-26T16:15:00Z</time>
      </trkpt>
      <trkpt lat="45.70841" lon="5.75252">
        <ele>246</ele>
        <time>2017-05-26T16:15:00Z</time>
      </trkpt>
      <trkpt lat="45.70833" lon="5.75248">
        <ele>246</ele>
        <time>2017-05-26T16:15:00Z</time>
      </trkpt>
      <trkpt lat="45.70827" lon="5.75244">
        <ele>246</ele>
        <time>2017-05-26T16:15:16Z</time>
      </trkpt>
      <trkpt lat="45.70822" lon="5.75241">
        <ele>246</ele>
        <time>2017-05-26T16:15:16Z</time>
      </trkpt>
      <trkpt lat="45.70816" lon="5.75238">
        <ele>246</ele>
        <time>2017-05-26T16:15:16Z</time>
      </trkpt>
      <trkpt lat="45.7081" lon="5.75237">
        <ele>246</ele>
        <time>2017-05-26T16:15:16Z</time>
      </trkpt>
      <trkpt lat="45.70804" lon="5.75236">
        <ele>246</ele>
        <time>2017-05-26T16:15:32Z</time>
      </trkpt>
      <trkpt lat="45.70799" lon="5.75235">
        <ele>246</ele>
        <time>2017-05-26T16:15:32Z</time>
      </trkpt>
      <trkpt lat="45.70794" lon="5.75234">
        <ele>246</ele>
        <time>2017-05-26T16:15:32Z</time>
      </trkpt>
      <trkpt lat="45.70789" lon="5.75231">
        <ele>231</ele>
        <time>2017-05-26T16:15:32Z</time>
      </trkpt>
      <trkpt lat="45.70784" lon="5.75231">
        <ele>231</ele>
        <time>2017-05-26T16:15:48Z</time>
      </trkpt>
      <trkpt lat="45.70779" lon="5.75229">
        <ele>231</ele>
        <time>2017-05-26T16:15:48Z</time>
      </trkpt>
      <trkpt lat="45.70773" lon="5.75226">
        <ele>231</ele>
        <time>2017-05-26T16:15:48Z</time>
      </trkpt>
      <trkpt lat="45.70767" lon="5.75222">
        <ele>231</ele>
        <time>2017-05-26T16:15:48Z</time>
      </trkpt>
      <trkpt lat="45.70761" lon="5.75217">
        <ele>231</ele>
        <time>2017-05-26T16:16:04Z</time>
      </trkpt>
      <trkpt lat="45.70756" lon="5.75216">
        <ele>231</ele>
        <time>2017-05-26T16:16:04Z</time>
      </trkpt>
      <trkpt lat="45.7075" lon="5.75212">
        <ele>231</ele>
        <time>2017-05-26T16:16:04Z</time>
      </trkpt>
      <trkpt lat="45.70745" lon="5.75209">
        <ele>231</ele>
        <time>2017-05-26T16:16:04Z</time>
      </trkpt>
      <trkpt lat="45.70738" lon="5.75208">
        <ele>254</ele>
        <time>2017-05-26T16:16:20Z</time>
      </trkpt>
      <trkpt lat="45.70733" lon="5.75207">
        <ele>254</ele>
        <time>2017-05-26T16:16:20Z</time>
      </trkpt>
      <trkpt lat="45.70727" lon="5.75205">
        <ele>254</ele>
        <time>2017-05-26T16:16:20Z</time>
      </trkpt>
      <trkpt lat="45.70722" lon="5.75204">
        <ele>254</ele>
        <time>2017-05-26T16:16:20Z</time>
      </trkpt>
      <trkpt lat="45.70718" lon="5.75203">
        <ele>254</ele>
        <time>2017-05-26T16:16:36Z</time>
      </trkpt>
      <trkpt lat="45.70713" lon="5.75194">
        <ele>254</ele>
        <time>2017-05-26T16:16:36Z</time>
      </trkpt>
      <trkpt lat="45.70707" lon="5.75185">
        <ele>231</ele>
        <time>2017-05-26T16:16:36Z</time>
      </trkpt>
      <trkpt lat="45.70699" lon="5.75173">
        <ele>231</ele>
        <time>2017-05-26T16:16:36Z</time>
      </trkpt>
      <trkpt lat="45.70695" lon="5.75172">
        <ele>231</ele>
        <time>2017-05-26T16:16:52Z</time>
      </trkpt>
      <trkpt lat="45.70693" lon="5.75172">
        <ele>231</ele>
        <time>2017-05-26T16:16:52Z</time>
      </trkpt>
      <trkpt lat="45.7069" lon="5.75172">
        <ele>231</ele>
        <time>2017-05-26T16:16:52Z</time>
      </trkpt>
      <trkpt lat="45.70684" lon="5.7517">
        <ele>231</ele>
        <time>2017-05-26T16:16:52Z</time>
      </trkpt>
      <trkpt lat="45.70679" lon="5.75168">
        <ele>231</ele>
        <time>2017-05-26T16:17:08Z</time>
      </trkpt>
      <trkpt lat="45.70677" lon="5.75164">
        <ele>231</ele>
        <time>2017-05-26T16:17:08Z</time>
      </trkpt>
      <trkpt lat="45.70676" lon="5.75159">
        <ele>231</ele>
        <time>2017-05-26T16:17:08Z</time>
      </trkpt>
      <trkpt lat="45.70673" lon="5.75154">
        <ele>231</ele>
        <time>2017-05-26T16:17:08Z</time>
      </trkpt>
      <trkpt lat="45.70671" lon="5.75149">
        <ele>231</ele>
        <time>2017-05-26T16:17:24Z</time>
      </trkpt>
      <trkpt lat="45.70668" lon="5.75142">
        <ele>231</ele>
        <time>2017-05-26T16:17:24Z</time>
      </trkpt>
      <trkpt lat="45.70665" lon="5.75133">
        <ele>231</ele>
        <time>2017-05-26T16:17:24Z</time>
      </trkpt>
      <trkpt lat="45.70665" lon="5.75128">
        <ele>231</ele>
        <time>2017-05-26T16:17:24Z</time>
      </trkpt>
      <trkpt lat="45.70657" lon="5.75117">
        <ele>242</ele>
        <time>2017-05-26T16:17:56Z</time>
      </trkpt>
      <trkpt lat="45.70657" lon="5.75117">
        <ele>242</ele>
        <time>2017-05-26T16:17:56Z</time>
      </trkpt>
      <trkpt lat="45.70653" lon="5.75115">
        <ele>242</ele>
        <time>2017-05-26T16:17:56Z</time>
      </trkpt>
      <trkpt lat="45.70645" lon="5.75114">
        <ele>242</ele>
        <time>2017-05-26T16:17:56Z</time>
      </trkpt>
      <trkpt lat="45.70638" lon="5.75114">
        <ele>242</ele>
        <time>2017-05-26T16:17:56Z</time>
      </trkpt>
      <trkpt lat="45.70631" lon="5.75113">
        <ele>242</ele>
        <time>2017-05-26T16:18:12Z</time>
      </trkpt>
      <trkpt lat="45.70625" lon="5.75111">
        <ele>226</ele>
        <time>2017-05-26T16:18:12Z</time>
      </trkpt>
      <trkpt lat="45.70618" lon="5.75109">
        <ele>226</ele>
        <time>2017-05-26T16:18:12Z</time>
      </trkpt>
      <trkpt lat="45.70612" lon="5.75107">
        <ele>226</ele>
        <time>2017-05-26T16:18:12Z</time>
      </trkpt>
      <trkpt lat="45.70606" lon="5.75105">
        <ele>226</ele>
        <time>2017-05-26T16:18:28Z</time>
      </trkpt>
      <trkpt lat="45.706" lon="5.75103">
        <ele>226</ele>
        <time>2017-05-26T16:18:28Z</time>
      </trkpt>
      <trkpt lat="45.70594" lon="5.75102">
        <ele>226</ele>
        <time>2017-05-26T16:18:28Z</time>
      </trkpt>
      <trkpt lat="45.70588" lon="5.751">
        <ele>226</ele>
        <time>2017-05-26T16:18:28Z</time>
      </trkpt>
      <trkpt lat="45.70583" lon="5.75099">
        <ele>226</ele>
        <time>2017-05-26T16:18:44Z</time>
      </trkpt>
      <trkpt lat="45.70577" lon="5.75097">
        <ele>226</ele>
        <time>2017-05-26T16:18:44Z</time>
      </trkpt>
      <trkpt lat="45.7057" lon="5.75096">
        <ele>226</ele>
        <time>2017-05-26T16:18:44Z</time>
      </trkpt>
      <trkpt lat="45.70563" lon="5.75095">
        <ele>226</ele>
        <time>2017-05-26T16:18:44Z</time>
      </trkpt>
      <trkpt lat="45.70558" lon="5.75094">
        <ele>226</ele>
        <time>2017-05-26T16:19:00Z</time>
      </trkpt>
      <trkpt lat="45.70552" lon="5.75094">
        <ele>226</ele>
        <time>2017-05-26T16:19:00Z</time>
      </trkpt>
      <trkpt lat="45.70548" lon="5.75096">
        <ele>226</ele>
        <time>2017-05-26T16:19:00Z</time>
      </trkpt>
      <trkpt lat="45.70547" lon="5.75104">
        <ele>226</ele>
        <time>2017-05-26T16:19:00Z</time>
      </trkpt>
      <trkpt lat="45.70546" lon="5.75104">
        <ele>226</ele>
        <time>2017-05-26T16:19:52Z</time>
      </trkpt>
      <trkpt lat="45.70546" lon="5.75104">
        <ele>226</ele>
        <time>2017-05-26T16:19:52Z</time>
      </trkpt>
      <trkpt lat="45.70544" lon="5.75107">
        <ele>226</ele>
        <time>2017-05-26T16:19:52Z</time>
      </trkpt>
      <trkpt lat="45.7054" lon="5.75108">
        <ele>234</ele>
        <time>2017-05-26T16:19:52Z</time>
      </trkpt>
      <trkpt lat="45.70535" lon="5.75114">
        <ele>234</ele>
        <time>2017-05-26T16:19:52Z</time>
      </trkpt>
      <trkpt lat="45.70531" lon="5.75122">
        <ele>234</ele>
        <time>2017-05-26T16:20:08Z</time>
      </trkpt>
      <trkpt lat="45.70529" lon="5.75131">
        <ele>232</ele>
        <time>2017-05-26T16:20:08Z</time>
      </trkpt>
      <trkpt lat="45.70529" lon="5.7514">
        <ele>232</ele>
        <time>2017-05-26T16:20:08Z</time>
      </trkpt>
      <trkpt lat="45.70528" lon="5.7515">
        <ele>232</ele>
        <time>2017-05-26T16:20:08Z</time>
      </trkpt>
      <trkpt lat="45.70528" lon="5.75159">
        <ele>232</ele>
        <time>2017-05-26T16:20:24Z</time>
      </trkpt>
      <trkpt lat="45.70527" lon="5.75167">
        <ele>232</ele>
        <time>2017-05-26T16:20:24Z</time>
      </trkpt>
      <trkpt lat="45.70527" lon="5.75175">
        <ele>232</ele>
        <time>2017-05-26T16:20:24Z</time>
      </trkpt>
      <trkpt lat="45.70526" lon="5.75183">
        <ele>232</ele>
        <time>2017-05-26T16:20:24Z</time>
      </trkpt>
      <trkpt lat="45.70522" lon="5.7519">
        <ele>232</ele>
        <time>2017-05-26T16:20:52Z</time>
      </trkpt>
      <trkpt lat="45.70519" lon="5.75193">
        <ele>232</ele>
        <time>2017-05-26T16:20:52Z</time>
      </trkpt>
      <trkpt lat="45.70517" lon="5.75197">
        <ele>232</ele>
        <time>2017-05-26T16:20:52Z</time>
      </trkpt>
      <trkpt lat="45.70515" lon="5.75198">
        <ele>232</ele>
        <time>2017-05-26T16:20:52Z</time>
      </trkpt>
      <trkpt lat="45.70514" lon="5.752">
        <ele>232</ele>
        <time>2017-05-26T16:20:52Z</time>
      </trkpt>
      <trkpt lat="45.70513" lon="5.75201">
        <ele>232</ele>
        <time>2017-05-26T16:21:16Z</time>
      </trkpt>
      <trkpt lat="45.70514" lon="5.752">
        <ele>232</ele>
        <time>2017-05-26T16:21:16Z</time>
      </trkpt>
      <trkpt lat="45.7051" lon="5.75202">
        <ele>232</ele>
        <time>2017-05-26T16:21:16Z</time>
      </trkpt>
      <trkpt lat="45.70507" lon="5.75208">
        <ele>232</ele>
        <time>2017-05-26T16:21:16Z</time>
      </trkpt>
      <trkpt lat="45.70505" lon="5.75212">
        <ele>231</ele>
        <time>2017-05-26T16:21:16Z</time>
      </trkpt>
      <trkpt lat="45.70504" lon="5.75218">
        <ele>231</ele>
        <time>2017-05-26T16:21:32Z</time>
      </trkpt>
      <trkpt lat="45.70503" lon="5.75225">
        <ele>231</ele>
        <time>2017-05-26T16:21:32Z</time>
      </trkpt>
      <trkpt lat="45.70503" lon="5.75235">
        <ele>231</ele>
        <time>2017-05-26T16:21:32Z</time>
      </trkpt>
      <trkpt lat="45.70503" lon="5.75243">
        <ele>231</ele>
        <time>2017-05-26T16:21:32Z</time>
      </trkpt>
      <trkpt lat="45.70503" lon="5.75251">
        <ele>231</ele>
        <time>2017-05-26T16:21:48Z</time>
      </trkpt>
      <trkpt lat="45.70502" lon="5.75259">
        <ele>231</ele>
        <time>2017-05-26T16:21:48Z</time>
      </trkpt>
      <trkpt lat="45.70501" lon="5.75266">
        <ele>231</ele>
        <time>2017-05-26T16:21:48Z</time>
      </trkpt>
      <trkpt lat="45.705" lon="5.75274">
        <ele>231</ele>
        <time>2017-05-26T16:21:48Z</time>
      </trkpt>
      <trkpt lat="45.70498" lon="5.75282">
        <ele>231</ele>
        <time>2017-05-26T16:22:04Z</time>
      </trkpt>
      <trkpt lat="45.70497" lon="5.75291">
        <ele>231</ele>
        <time>2017-05-26T16:22:04Z</time>
      </trkpt>
      <trkpt lat="45.70495" lon="5.75299">
        <ele>227</ele>
        <time>2017-05-26T16:22:04Z</time>
      </trkpt>
      <trkpt lat="45.70491" lon="5.75305">
        <ele>227</ele>
        <time>2017-05-26T16:22:04Z</time>
      </trkpt>
      <trkpt lat="45.70488" lon="5.75313">
        <ele>227</ele>
        <time>2017-05-26T16:22:20Z</time>
      </trkpt>
      <trkpt lat="45.70489" lon="5.75321">
        <ele>227</ele>
        <time>2017-05-26T16:22:20Z</time>
      </trkpt>
      <trkpt lat="45.70489" lon="5.75329">
        <ele>227</ele>
        <time>2017-05-26T16:22:20Z</time>
      </trkpt>
      <trkpt lat="45.70486" lon="5.75337">
        <ele>227</ele>
        <time>2017-05-26T16:22:20Z</time>
      </trkpt>
      <trkpt lat="45.70485" lon="5.75346">
        <ele>227</ele>
        <time>2017-05-26T16:22:36Z</time>
      </trkpt>
      <trkpt lat="45.70483" lon="5.75354">
        <ele>227</ele>
        <time>2017-05-26T16:22:36Z</time>
      </trkpt>
      <trkpt lat="45.70483" lon="5.75361">
        <ele>227</ele>
        <time>2017-05-26T16:22:36Z</time>
      </trkpt>
      <trkpt lat="45.70482" lon="5.75368">
        <ele>227</ele>
        <time>2017-05-26T16:22:36Z</time>
      </trkpt>
      <trkpt lat="45.70481" lon="5.75373">
        <ele>227</ele>
        <time>2017-05-26T16:22:52Z</time>
      </trkpt>
      <trkpt lat="45.70479" lon="5.7538">
        <ele>227</ele>
        <time>2017-05-26T16:22:52Z</time>
      </trkpt>
      <trkpt lat="45.70478" lon="5.75389">
        <ele>227</ele>
        <time>2017-05-26T16:22:52Z</time>
      </trkpt>
      <trkpt lat="45.70476" lon="5.75397">
        <ele>227</ele>
        <time>2017-05-26T16:22:52Z</time>
      </trkpt>
      <trkpt lat="45.70474" lon="5.75407">
        <ele>227</ele>
        <time>2017-05-26T16:23:08Z</time>
      </trkpt>
      <trkpt lat="45.70472" lon="5.75416">
        <ele>227</ele>
        <time>2017-05-26T16:23:08Z</time>
      </trkpt>
      <trkpt lat="45.70472" lon="5.75426">
        <ele>227</ele>
        <time>2017-05-26T16:23:08Z</time>
      </trkpt>
      <trkpt lat="45.7047" lon="5.75434">
        <ele>227</ele>
        <time>2017-05-26T16:23:08Z</time>
      </trkpt>
      <trkpt lat="45.70468" lon="5.75441">
        <ele>227</ele>
        <time>2017-05-26T16:23:24Z</time>
      </trkpt>
      <trkpt lat="45.70462" lon="5.75445">
        <ele>227</ele>
        <time>2017-05-26T16:23:24Z</time>
      </trkpt>
      <trkpt lat="45.70457" lon="5.75444">
        <ele>231</ele>
        <time>2017-05-26T16:23:24Z</time>
      </trkpt>
      <trkpt lat="45.70452" lon="5.75443">
        <ele>231</ele>
        <time>2017-05-26T16:23:24Z</time>
      </trkpt>
      <trkpt lat="45.70446" lon="5.75441">
        <ele>231</ele>
        <time>2017-05-26T16:23:40Z</time>
      </trkpt>
      <trkpt lat="45.7044" lon="5.75438">
        <ele>231</ele>
        <time>2017-05-26T16:23:40Z</time>
      </trkpt>
      <trkpt lat="45.70436" lon="5.75436">
        <ele>231</ele>
        <time>2017-05-26T16:23:40Z</time>
      </trkpt>
      <trkpt lat="45.70432" lon="5.75431">
        <ele>231</ele>
        <time>2017-05-26T16:23:40Z</time>
      </trkpt>
      <trkpt lat="45.70427" lon="5.75426">
        <ele>231</ele>
        <time>2017-05-26T16:23:56Z</time>
      </trkpt>
      <trkpt lat="45.70424" lon="5.75422">
        <ele>231</ele>
        <time>2017-05-26T16:23:56Z</time>
      </trkpt>
      <trkpt lat="45.70419" lon="5.75418">
        <ele>231</ele>
        <time>2017-05-26T16:23:56Z</time>
      </trkpt>
      <trkpt lat="45.70411" lon="5.75413">
        <ele>231</ele>
        <time>2017-05-26T16:23:56Z</time>
      </trkpt>
      <trkpt lat="45.70396" lon="5.75409">
        <ele>231</ele>
        <time>2017-05-26T16:24:12Z</time>
      </trkpt>
      <trkpt lat="45.70378" lon="5.75406">
        <ele>231</ele>
        <time>2017-05-26T16:24:12Z</time>
      </trkpt>
      <trkpt lat="45.70362" lon="5.75402">
        <ele>228</ele>
        <time>2017-05-26T16:24:12Z</time>
      </trkpt>
      <trkpt lat="45.70347" lon="5.75411">
        <ele>228</ele>
        <time>2017-05-26T16:24:12Z</time>
      </trkpt>
      <trkpt lat="45.70335" lon="5.75425">
        <ele>228</ele>
        <time>2017-05-26T16:24:28Z</time>
      </trkpt>
      <trkpt lat="45.70328" lon="5.75443">
        <ele>228</ele>
        <time>2017-05-26T16:24:28Z</time>
      </trkpt>
      <trkpt lat="45.70327" lon="5.75457">
        <ele>228</ele>
        <time>2017-05-26T16:24:28Z</time>
      </trkpt>
      <trkpt lat="45.70328" lon="5.75471">
        <ele>228</ele>
        <time>2017-05-26T16:24:28Z</time>
      </trkpt>
      <trkpt lat="45.70329" lon="5.7548">
        <ele>228</ele>
        <time>2017-05-26T16:24:44Z</time>
      </trkpt>
      <trkpt lat="45.70331" lon="5.75488">
        <ele>228</ele>
        <time>2017-05-26T16:24:44Z</time>
      </trkpt>
      <trkpt lat="45.70334" lon="5.75495">
        <ele>228</ele>
        <time>2017-05-26T16:24:44Z</time>
      </trkpt>
      <trkpt lat="45.70336" lon="5.75503">
        <ele>228</ele>
        <time>2017-05-26T16:24:44Z</time>
      </trkpt>
      <trkpt lat="45.70337" lon="5.75511">
        <ele>228</ele>
        <time>2017-05-26T16:25:00Z</time>
      </trkpt>
      <trkpt lat="45.70338" lon="5.75518">
        <ele>228</ele>
        <time>2017-05-26T16:25:00Z</time>
      </trkpt>
      <trkpt lat="45.70336" lon="5.75526">
        <ele>228</ele>
        <time>2017-05-26T16:25:00Z</time>
      </trkpt>
      <trkpt lat="45.70335" lon="5.75536">
        <ele>228</ele>
        <time>2017-05-26T16:25:00Z</time>
      </trkpt>
      <trkpt lat="45.70332" lon="5.75545">
        <ele>230</ele>
        <time>2017-05-26T16:25:44Z</time>
      </trkpt>
      <trkpt lat="45.7033" lon="5.75553">
        <ele>230</ele>
        <time>2017-05-26T16:25:44Z</time>
      </trkpt>
      <trkpt lat="45.70329" lon="5.75556">
        <ele>230</ele>
        <time>2017-05-26T16:25:44Z</time>
      </trkpt>
      <trkpt lat="45.70305" lon="5.75623">
        <ele>230</ele>
        <time>2017-05-26T16:25:44Z</time>
      </trkpt>
      <trkpt lat="45.70298" lon="5.75623">
        <ele>230</ele>
        <time>2017-05-26T16:26:00Z</time>
      </trkpt>
      <trkpt lat="45.70292" lon="5.75621">
        <ele>230</ele>
        <time>2017-05-26T16:26:00Z</time>
      </trkpt>
      <trkpt lat="45.70288" lon="5.7562">
        <ele>232</ele>
        <time>2017-05-26T16:26:00Z</time>
      </trkpt>
      <trkpt lat="45.70282" lon="5.75616">
        <ele>232</ele>
        <time>2017-05-26T16:26:00Z</time>
      </trkpt>
      <trkpt lat="45.70276" lon="5.7561">
        <ele>232</ele>
        <time>2017-05-26T16:26:16Z</time>
      </trkpt>
      <trkpt lat="45.7027" lon="5.75607">
        <ele>232</ele>
        <time>2017-05-26T16:26:16Z</time>
      </trkpt>
      <trkpt lat="45.70263" lon="5.75602">
        <ele>232</ele>
        <time>2017-05-26T16:26:16Z</time>
      </trkpt>
      <trkpt lat="45.70257" lon="5.75599">
        <ele>232</ele>
        <time>2017-05-26T16:26:16Z</time>
      </trkpt>
      <trkpt lat="45.70252" lon="5.75594">
        <ele>232</ele>
        <time>2017-05-26T16:26:32Z</time>
      </trkpt>
      <trkpt lat="45.70247" lon="5.7559">
        <ele>232</ele>
        <time>2017-05-26T16:26:32Z</time>
      </trkpt>
      <trkpt lat="45.70244" lon="5.7559">
        <ele>232</ele>
        <time>2017-05-26T16:26:32Z</time>
      </trkpt>
      <trkpt lat="45.70242" lon="5.75596">
        <ele>232</ele>
        <time>2017-05-26T16:26:32Z</time>
      </trkpt>
      <trkpt lat="45.7024" lon="5.75603">
        <ele>232</ele>
        <time>2017-05-26T16:26:48Z</time>
      </trkpt>
      <trkpt lat="45.70237" lon="5.7561">
        <ele>232</ele>
        <time>2017-05-26T16:26:48Z</time>
      </trkpt>
      <trkpt lat="45.70234" lon="5.75617">
        <ele>232</ele>
        <time>2017-05-26T16:26:48Z</time>
      </trkpt>
      <trkpt lat="45.7023" lon="5.75622">
        <ele>232</ele>
        <time>2017-05-26T16:26:48Z</time>
      </trkpt>
      <trkpt lat="45.70223" lon="5.75634">
        <ele>234</ele>
        <time>2017-05-26T16:27:12Z</time>
      </trkpt>
      <trkpt lat="45.70221" lon="5.75636">
        <ele>234</ele>
        <time>2017-05-26T16:27:12Z</time>
      </trkpt>
      <trkpt lat="45.70221" lon="5.75637">
        <ele>234</ele>
        <time>2017-05-26T16:27:12Z</time>
      </trkpt>
      <trkpt lat="45.70221" lon="5.75639">
        <ele>234</ele>
        <time>2017-05-26T16:27:12Z</time>
      </trkpt>
      <trkpt lat="45.70221" lon="5.75643">
        <ele>234</ele>
        <time>2017-05-26T16:27:12Z</time>
      </trkpt>
      <trkpt lat="45.70215" lon="5.75647">
        <ele>234</ele>
        <time>2017-05-26T16:36:16Z</time>
      </trkpt>
      <trkpt lat="45.70215" lon="5.75647">
        <ele>234</ele>
        <time>2017-05-26T16:36:16Z</time>
      </trkpt>
      <trkpt lat="45.70215" lon="5.75647">
        <ele>234</ele>
        <time>2017-05-26T16:36:16Z</time>
      </trkpt>
      <trkpt lat="45.70213" lon="5.75647">
        <ele>234</ele>
        <time>2017-05-26T16:36:16Z</time>
      </trkpt>
      <trkpt lat="45.70209" lon="5.75646">
        <ele>234</ele>
        <time>2017-05-26T16:36:16Z</time>
      </trkpt>
      <trkpt lat="45.70203" lon="5.7565">
        <ele>236</ele>
        <time>2017-05-26T16:36:32Z</time>
      </trkpt>
      <trkpt lat="45.70198" lon="5.75653">
        <ele>236</ele>
        <time>2017-05-26T16:36:32Z</time>
      </trkpt>
      <trkpt lat="45.70196" lon="5.75654">
        <ele>236</ele>
        <time>2017-05-26T16:36:32Z</time>
      </trkpt>
      <trkpt lat="45.70192" lon="5.75657">
        <ele>236</ele>
        <time>2017-05-26T16:36:32Z</time>
      </trkpt>
      <trkpt lat="45.70189" lon="5.75659">
        <ele>236</ele>
        <time>2017-05-26T16:36:48Z</time>
      </trkpt>
      <trkpt lat="45.70186" lon="5.75662">
        <ele>236</ele>
        <time>2017-05-26T16:36:48Z</time>
      </trkpt>
      <trkpt lat="45.70183" lon="5.75665">
        <ele>236</ele>
        <time>2017-05-26T16:36:48Z</time>
      </trkpt>
      <trkpt lat="45.7018" lon="5.75668">
        <ele>236</ele>
        <time>2017-05-26T16:36:48Z</time>
      </trkpt>
      <trkpt lat="45.70176" lon="5.75671">
        <ele>236</ele>
        <time>2017-05-26T16:37:04Z</time>
      </trkpt>
      <trkpt lat="45.70171" lon="5.75674">
        <ele>236</ele>
        <time>2017-05-26T16:37:04Z</time>
      </trkpt>
      <trkpt lat="45.70166" lon="5.75674">
        <ele>236</ele>
        <time>2017-05-26T16:37:04Z</time>
      </trkpt>
      <trkpt lat="45.70162" lon="5.75672">
        <ele>236</ele>
        <time>2017-05-26T16:37:04Z</time>
      </trkpt>
      <trkpt lat="45.70156" lon="5.75671">
        <ele>236</ele>
        <time>2017-05-26T16:37:20Z</time>
      </trkpt>
      <trkpt lat="45.7015" lon="5.7567">
        <ele>236</ele>
        <time>2017-05-26T16:37:20Z</time>
      </trkpt>
      <trkpt lat="45.70145" lon="5.7567">
        <ele>236</ele>
        <time>2017-05-26T16:37:20Z</time>
      </trkpt>
      <trkpt lat="45.70144" lon="5.75669">
        <ele>236</ele>
        <time>2017-05-26T16:37:20Z</time>
      </trkpt>
      <trkpt lat="45.70142" lon="5.75668">
        <ele>236</ele>
        <time>2017-05-26T16:37:36Z</time>
      </trkpt>
      <trkpt lat="45.7014" lon="5.75667">
        <ele>236</ele>
        <time>2017-05-26T16:37:36Z</time>
      </trkpt>
      <trkpt lat="45.70136" lon="5.75667">
        <ele>236</ele>
        <time>2017-05-26T16:37:36Z</time>
      </trkpt>
      <trkpt lat="45.70127" lon="5.75666">
        <ele>236</ele>
        <time>2017-05-26T16:37:36Z</time>
      </trkpt>
      <trkpt lat="45.70119" lon="5.75666">
        <ele>237</ele>
        <time>2017-05-26T16:37:52Z</time>
      </trkpt>
      <trkpt lat="45.70117" lon="5.75666">
        <ele>237</ele>
        <time>2017-05-26T16:37:52Z</time>
      </trkpt>
      <trkpt lat="45.70114" lon="5.75667">
        <ele>237</ele>
        <time>2017-05-26T16:37:52Z</time>
      </trkpt>
      <trkpt lat="45.70109" lon="5.75667">
        <ele>237</ele>
        <time>2017-05-26T16:37:52Z</time>
      </trkpt>
      <trkpt lat="45.70104" lon="5.75667">
        <ele>237</ele>
        <time>2017-05-26T16:38:08Z</time>
      </trkpt>
      <trkpt lat="45.70099" lon="5.75668">
        <ele>237</ele>
        <time>2017-05-26T16:38:08Z</time>
      </trkpt>
      <trkpt lat="45.70092" lon="5.75669">
        <ele>237</ele>
        <time>2017-05-26T16:38:08Z</time>
      </trkpt>
      <trkpt lat="45.70086" lon="5.75669">
        <ele>237</ele>
        <time>2017-05-26T16:38:08Z</time>
      </trkpt>
      <trkpt lat="45.70082" lon="5.75668">
        <ele>237</ele>
        <time>2017-05-26T16:38:24Z</time>
      </trkpt>
      <trkpt lat="45.70077" lon="5.75669">
        <ele>237</ele>
        <time>2017-05-26T16:38:24Z</time>
      </trkpt>
      <trkpt lat="45.7007" lon="5.75668">
        <ele>237</ele>
        <time>2017-05-26T16:38:24Z</time>
      </trkpt>
      <trkpt lat="45.70063" lon="5.75668">
        <ele>237</ele>
        <time>2017-05-26T16:38:24Z</time>
      </trkpt>
      <trkpt lat="45.70057" lon="5.75668">
        <ele>237</ele>
        <time>2017-05-26T16:38:40Z</time>
      </trkpt>
      <trkpt lat="45.70052" lon="5.75668">
        <ele>237</ele>
        <time>2017-05-26T16:38:40Z</time>
      </trkpt>
      <trkpt lat="45.70047" lon="5.75669">
        <ele>237</ele>
        <time>2017-05-26T16:38:40Z</time>
      </trkpt>
      <trkpt lat="45.70046" lon="5.7567">
        <ele>237</ele>
        <time>2017-05-26T16:38:40Z</time>
      </trkpt>
      <trkpt lat="45.70042" lon="5.7567">
        <ele>237</ele>
        <time>2017-05-26T16:38:56Z</time>
      </trkpt>
      <trkpt lat="45.70036" lon="5.75672">
        <ele>240</ele>
        <time>2017-05-26T16:38:56Z</time>
      </trkpt>
      <trkpt lat="45.70035" lon="5.75673">
        <ele>240</ele>
        <time>2017-05-26T16:38:56Z</time>
      </trkpt>
      <trkpt lat="45.70032" lon="5.75673">
        <ele>240</ele>
        <time>2017-05-26T16:38:56Z</time>
      </trkpt>
      <trkpt lat="45.70025" lon="5.75674">
        <ele>240</ele>
        <time>2017-05-26T16:39:12Z</time>
      </trkpt>
      <trkpt lat="45.70018" lon="5.75675">
        <ele>240</ele>
        <time>2017-05-26T16:39:12Z</time>
      </trkpt>
      <trkpt lat="45.7001" lon="5.75673">
        <ele>240</ele>
        <time>2017-05-26T16:39:12Z</time>
      </trkpt>
      <trkpt lat="45.70002" lon="5.75672">
        <ele>240</ele>
        <time>2017-05-26T16:39:12Z</time>
      </trkpt>
      <trkpt lat="45.69994" lon="5.7567">
        <ele>240</ele>
        <time>2017-05-26T16:39:28Z</time>
      </trkpt>
      <trkpt lat="45.69988" lon="5.75668">
        <ele>240</ele>
        <time>2017-05-26T16:39:28Z</time>
      </trkpt>
      <trkpt lat="45.69982" lon="5.75668">
        <ele>240</ele>
        <time>2017-05-26T16:39:28Z</time>
      </trkpt>
      <trkpt lat="45.69976" lon="5.75667">
        <ele>240</ele>
        <time>2017-05-26T16:39:28Z</time>
      </trkpt>
      <trkpt lat="45.69971" lon="5.75664">
        <ele>240</ele>
        <time>2017-05-26T16:39:44Z</time>
      </trkpt>
      <trkpt lat="45.69966" lon="5.75659">
        <ele>240</ele>
        <time>2017-05-26T16:39:44Z</time>
      </trkpt>
      <trkpt lat="45.6996" lon="5.75656">
        <ele>240</ele>
        <time>2017-05-26T16:39:44Z</time>
      </trkpt>
      <trkpt lat="45.69953" lon="5.75653">
        <ele>240</ele>
        <time>2017-05-26T16:39:44Z</time>
      </trkpt>
      <trkpt lat="45.69947" lon="5.75649">
        <ele>240</ele>
        <time>2017-05-26T16:40:00Z</time>
      </trkpt>
      <trkpt lat="45.69943" lon="5.75645">
        <ele>240</ele>
        <time>2017-05-26T16:40:00Z</time>
      </trkpt>
      <trkpt lat="45.69939" lon="5.75641">
        <ele>240</ele>
        <time>2017-05-26T16:40:00Z</time>
      </trkpt>
      <trkpt lat="45.69935" lon="5.75636">
        <ele>240</ele>
        <time>2017-05-26T16:40:00Z</time>
      </trkpt>
      <trkpt lat="45.6993" lon="5.75631">
        <ele>240</ele>
        <time>2017-05-26T16:40:16Z</time>
      </trkpt>
      <trkpt lat="45.69928" lon="5.75627">
        <ele>240</ele>
        <time>2017-05-26T16:40:16Z</time>
      </trkpt>
      <trkpt lat="45.69925" lon="5.75622">
        <ele>239</ele>
        <time>2017-05-26T16:40:16Z</time>
      </trkpt>
      <trkpt lat="45.6992" lon="5.75616">
        <ele>239</ele>
        <time>2017-05-26T16:40:16Z</time>
      </trkpt>
      <trkpt lat="45.69915" lon="5.75611">
        <ele>239</ele>
        <time>2017-05-26T16:40:32Z</time>
      </trkpt>
      <trkpt lat="45.69911" lon="5.75607">
        <ele>239</ele>
        <time>2017-05-26T16:40:32Z</time>
      </trkpt>
      <trkpt lat="45.69907" lon="5.75603">
        <ele>239</ele>
        <time>2017-05-26T16:40:32Z</time>
      </trkpt>
      <trkpt lat="45.69902" lon="5.75597">
        <ele>239</ele>
        <time>2017-05-26T16:40:32Z</time>
      </trkpt>
      <trkpt lat="45.69899" lon="5.75591">
        <ele>239</ele>
        <time>2017-05-26T16:40:48Z</time>
      </trkpt>
      <trkpt lat="45.69895" lon="5.75587">
        <ele>239</ele>
        <time>2017-05-26T16:40:48Z</time>
      </trkpt>
      <trkpt lat="45.69892" lon="5.75583">
        <ele>239</ele>
        <time>2017-05-26T16:40:48Z</time>
      </trkpt>
      <trkpt lat="45.69889" lon="5.75576">
        <ele>239</ele>
        <time>2017-05-26T16:40:48Z</time>
      </trkpt>
      <trkpt lat="45.69885" lon="5.75565">
        <ele>239</ele>
        <time>2017-05-26T16:41:04Z</time>
      </trkpt>
      <trkpt lat="45.69883" lon="5.75558">
        <ele>239</ele>
        <time>2017-05-26T16:41:04Z</time>
      </trkpt>
      <trkpt lat="45.69879" lon="5.75551">
        <ele>239</ele>
        <time>2017-05-26T16:41:04Z</time>
      </trkpt>
      <trkpt lat="45.69875" lon="5.75546">
        <ele>239</ele>
        <time>2017-05-26T16:41:04Z</time>
      </trkpt>
      <trkpt lat="45.69871" lon="5.75542">
        <ele>240</ele>
        <time>2017-05-26T16:41:20Z</time>
      </trkpt>
      <trkpt lat="45.69867" lon="5.75539">
        <ele>240</ele>
        <time>2017-05-26T16:41:20Z</time>
      </trkpt>
      <trkpt lat="45.69863" lon="5.75532">
        <ele>240</ele>
        <time>2017-05-26T16:41:20Z</time>
      </trkpt>
      <trkpt lat="45.6986" lon="5.75526">
        <ele>240</ele>
        <time>2017-05-26T16:41:20Z</time>
      </trkpt>
      <trkpt lat="45.69856" lon="5.75522">
        <ele>240</ele>
        <time>2017-05-26T16:41:36Z</time>
      </trkpt>
      <trkpt lat="45.69851" lon="5.75515">
        <ele>240</ele>
        <time>2017-05-26T16:41:36Z</time>
      </trkpt>
      <trkpt lat="45.69845" lon="5.75509">
        <ele>240</ele>
        <time>2017-05-26T16:41:36Z</time>
      </trkpt>
      <trkpt lat="45.6984" lon="5.75506">
        <ele>240</ele>
        <time>2017-05-26T16:41:36Z</time>
      </trkpt>
      <trkpt lat="45.69836" lon="5.75499">
        <ele>240</ele>
        <time>2017-05-26T16:41:52Z</time>
      </trkpt>
      <trkpt lat="45.69832" lon="5.75494">
        <ele>240</ele>
        <time>2017-05-26T16:41:52Z</time>
      </trkpt>
      <trkpt lat="45.6983" lon="5.75489">
        <ele>240</ele>
        <time>2017-05-26T16:41:52Z</time>
      </trkpt>
      <trkpt lat="45.69827" lon="5.75484">
        <ele>240</ele>
        <time>2017-05-26T16:41:52Z</time>
      </trkpt>
      <trkpt lat="45.69823" lon="5.7548">
        <ele>240</ele>
        <time>2017-05-26T16:42:08Z</time>
      </trkpt>
      <trkpt lat="45.69819" lon="5.75475">
        <ele>240</ele>
        <time>2017-05-26T16:42:08Z</time>
      </trkpt>
      <trkpt lat="45.69815" lon="5.75469">
        <ele>240</ele>
        <time>2017-05-26T16:42:08Z</time>
      </trkpt>
      <trkpt lat="45.69811" lon="5.75465">
        <ele>240</ele>
        <time>2017-05-26T16:42:08Z</time>
      </trkpt>
      <trkpt lat="45.69806" lon="5.75461">
        <ele>240</ele>
        <time>2017-05-26T16:42:24Z</time>
      </trkpt>
      <trkpt lat="45.69802" lon="5.75457">
        <ele>240</ele>
        <time>2017-05-26T16:42:24Z</time>
      </trkpt>
      <trkpt lat="45.69797" lon="5.75453">
        <ele>240</ele>
        <time>2017-05-26T16:42:24Z</time>
      </trkpt>
      <trkpt lat="45.69793" lon="5.75451">
        <ele>240</ele>
        <time>2017-05-26T16:42:24Z</time>
      </trkpt>
      <trkpt lat="45.69785" lon="5.75444">
        <ele>243</ele>
        <time>2017-05-26T16:42:40Z</time>
      </trkpt>
      <trkpt lat="45.69768" lon="5.75427">
        <ele>243</ele>
        <time>2017-05-26T16:42:40Z</time>
      </trkpt>
      <trkpt lat="45.69753" lon="5.75413">
        <ele>243</ele>
        <time>2017-05-26T16:42:40Z</time>
      </trkpt>
      <trkpt lat="45.69743" lon="5.75406">
        <ele>243</ele>
        <time>2017-05-26T16:42:40Z</time>
      </trkpt>
      <trkpt lat="45.69739" lon="5.75402">
        <ele>243</ele>
        <time>2017-05-26T16:42:56Z</time>
      </trkpt>
      <trkpt lat="45.69735" lon="5.75399">
        <ele>243</ele>
        <time>2017-05-26T16:42:56Z</time>
      </trkpt>
      <trkpt lat="45.69728" lon="5.75394">
        <ele>243</ele>
        <time>2017-05-26T16:42:56Z</time>
      </trkpt>
      <trkpt lat="45.69722" lon="5.75389">
        <ele>243</ele>
        <time>2017-05-26T16:42:56Z</time>
      </trkpt>
      <trkpt lat="45.69717" lon="5.75383">
        <ele>243</ele>
        <time>2017-05-26T16:43:12Z</time>
      </trkpt>
      <trkpt lat="45.69712" lon="5.75378">
        <ele>243</ele>
        <time>2017-05-26T16:43:12Z</time>
      </trkpt>
      <trkpt lat="45.69705" lon="5.75372">
        <ele>243</ele>
        <time>2017-05-26T16:43:12Z</time>
      </trkpt>
      <trkpt lat="45.69701" lon="5.75368">
        <ele>243</ele>
        <time>2017-05-26T16:43:12Z</time>
      </trkpt>
      <trkpt lat="45.69696" lon="5.75363">
        <ele>243</ele>
        <time>2017-05-26T16:43:28Z</time>
      </trkpt>
      <trkpt lat="45.69691" lon="5.7536">
        <ele>243</ele>
        <time>2017-05-26T16:43:28Z</time>
      </trkpt>
      <trkpt lat="45.69687" lon="5.75356">
        <ele>243</ele>
        <time>2017-05-26T16:43:28Z</time>
      </trkpt>
      <trkpt lat="45.69682" lon="5.75352">
        <ele>243</ele>
        <time>2017-05-26T16:43:28Z</time>
      </trkpt>
      <trkpt lat="45.69677" lon="5.75349">
        <ele>243</ele>
        <time>2017-05-26T16:43:44Z</time>
      </trkpt>
      <trkpt lat="45.69673" lon="5.75346">
        <ele>243</ele>
        <time>2017-05-26T16:43:44Z</time>
      </trkpt>
      <trkpt lat="45.69668" lon="5.75341">
        <ele>243</ele>
        <time>2017-05-26T16:43:44Z</time>
      </trkpt>
      <trkpt lat="45.69662" lon="5.75337">
        <ele>243</ele>
        <time>2017-05-26T16:43:44Z</time>
      </trkpt>
      <trkpt lat="45.69657" lon="5.75332">
        <ele>243</ele>
        <time>2017-05-26T16:44:00Z</time>
      </trkpt>
      <trkpt lat="45.69652" lon="5.75328">
        <ele>243</ele>
        <time>2017-05-26T16:44:00Z</time>
      </trkpt>
      <trkpt lat="45.69647" lon="5.75324">
        <ele>243</ele>
        <time>2017-05-26T16:44:00Z</time>
      </trkpt>
      <trkpt lat="45.69641" lon="5.75319">
        <ele>243</ele>
        <time>2017-05-26T16:44:00Z</time>
      </trkpt>
      <trkpt lat="45.69635" lon="5.75315">
        <ele>243</ele>
        <time>2017-05-26T16:44:16Z</time>
      </trkpt>
      <trkpt lat="45.6963" lon="5.7531">
        <ele>243</ele>
        <time>2017-05-26T16:44:16Z</time>
      </trkpt>
      <trkpt lat="45.69625" lon="5.75307">
        <ele>244</ele>
        <time>2017-05-26T16:44:16Z</time>
      </trkpt>
      <trkpt lat="45.69619" lon="5.75303">
        <ele>244</ele>
        <time>2017-05-26T16:44:16Z</time>
      </trkpt>
      <trkpt lat="45.69613" lon="5.753">
        <ele>244</ele>
        <time>2017-05-26T16:44:32Z</time>
      </trkpt>
      <trkpt lat="45.69608" lon="5.75295">
        <ele>244</ele>
        <time>2017-05-26T16:44:32Z</time>
      </trkpt>
      <trkpt lat="45.69603" lon="5.75291">
        <ele>243</ele>
        <time>2017-05-26T16:44:32Z</time>
      </trkpt>
      <trkpt lat="45.69597" lon="5.75288">
        <ele>243</ele>
        <time>2017-05-26T16:44:32Z</time>
      </trkpt>
      <trkpt lat="45.69592" lon="5.75285">
        <ele>243</ele>
        <time>2017-05-26T16:44:48Z</time>
      </trkpt>
      <trkpt lat="45.69589" lon="5.75281">
        <ele>243</ele>
        <time>2017-05-26T16:44:48Z</time>
      </trkpt>
      <trkpt lat="45.69584" lon="5.75277">
        <ele>243</ele>
        <time>2017-05-26T16:44:48Z</time>
      </trkpt>
      <trkpt lat="45.6958" lon="5.75273">
        <ele>243</ele>
        <time>2017-05-26T16:44:48Z</time>
      </trkpt>
      <trkpt lat="45.69578" lon="5.75271">
        <ele>243</ele>
        <time>2017-05-26T16:45:04Z</time>
      </trkpt>
      <trkpt lat="45.69574" lon="5.75267">
        <ele>243</ele>
        <time>2017-05-26T16:45:04Z</time>
      </trkpt>
      <trkpt lat="45.69569" lon="5.75262">
        <ele>243</ele>
        <time>2017-05-26T16:45:04Z</time>
      </trkpt>
      <trkpt lat="45.69565" lon="5.75258">
        <ele>243</ele>
        <time>2017-05-26T16:45:04Z</time>
      </trkpt>
      <trkpt lat="45.69561" lon="5.75255">
        <ele>243</ele>
        <time>2017-05-26T16:45:20Z</time>
      </trkpt>
      <trkpt lat="45.69558" lon="5.75253">
        <ele>243</ele>
        <time>2017-05-26T16:45:20Z</time>
      </trkpt>
      <trkpt lat="45.69555" lon="5.7525">
        <ele>243</ele>
        <time>2017-05-26T16:45:20Z</time>
      </trkpt>
      <trkpt lat="45.69552" lon="5.75246">
        <ele>243</ele>
        <time>2017-05-26T16:45:20Z</time>
      </trkpt>
      <trkpt lat="45.69548" lon="5.75244">
        <ele>243</ele>
        <time>2017-05-26T16:45:36Z</time>
      </trkpt>
      <trkpt lat="45.69543" lon="5.75245">
        <ele>243</ele>
        <time>2017-05-26T16:45:36Z</time>
      </trkpt>
      <trkpt lat="45.69539" lon="5.75246">
        <ele>247</ele>
        <time>2017-05-26T16:45:36Z</time>
      </trkpt>
      <trkpt lat="45.69536" lon="5.75245">
        <ele>247</ele>
        <time>2017-05-26T16:45:36Z</time>
      </trkpt>
      <trkpt lat="45.69531" lon="5.75245">
        <ele>247</ele>
        <time>2017-05-26T16:45:52Z</time>
      </trkpt>
      <trkpt lat="45.69526" lon="5.75247">
        <ele>247</ele>
        <time>2017-05-26T16:45:52Z</time>
      </trkpt>
      <trkpt lat="45.69519" lon="5.75249">
        <ele>247</ele>
        <time>2017-05-26T16:45:52Z</time>
      </trkpt>
      <trkpt lat="45.69514" lon="5.75251">
        <ele>247</ele>
        <time>2017-05-26T16:45:52Z</time>
      </trkpt>
      <trkpt lat="45.69509" lon="5.75254">
        <ele>247</ele>
        <time>2017-05-26T16:46:08Z</time>
      </trkpt>
      <trkpt lat="45.69504" lon="5.75256">
        <ele>247</ele>
        <time>2017-05-26T16:46:08Z</time>
      </trkpt>
      <trkpt lat="45.69498" lon="5.75258">
        <ele>247</ele>
        <time>2017-05-26T16:46:08Z</time>
      </trkpt>
      <trkpt lat="45.69493" lon="5.75259">
        <ele>247</ele>
        <time>2017-05-26T16:46:08Z</time>
      </trkpt>
      <trkpt lat="45.69486" lon="5.7526">
        <ele>247</ele>
        <time>2017-05-26T16:46:24Z</time>
      </trkpt>
      <trkpt lat="45.69478" lon="5.75261">
        <ele>247</ele>
        <time>2017-05-26T16:46:24Z</time>
      </trkpt>
      <trkpt lat="45.69474" lon="5.7526">
        <ele>247</ele>
        <time>2017-05-26T16:46:24Z</time>
      </trkpt>
      <trkpt lat="45.69472" lon="5.7526">
        <ele>247</ele>
        <time>2017-05-26T16:46:24Z</time>
      </trkpt>
      <trkpt lat="45.69467" lon="5.7526">
        <ele>247</ele>
        <time>2017-05-26T16:46:40Z</time>
      </trkpt>
      <trkpt lat="45.69463" lon="5.7526">
        <ele>247</ele>
        <time>2017-05-26T16:46:40Z</time>
      </trkpt>
      <trkpt lat="45.69459" lon="5.75256">
        <ele>247</ele>
        <time>2017-05-26T16:46:40Z</time>
      </trkpt>
      <trkpt lat="45.69457" lon="5.75251">
        <ele>248</ele>
        <time>2017-05-26T16:46:40Z</time>
      </trkpt>
      <trkpt lat="45.69458" lon="5.75246">
        <ele>248</ele>
        <time>2017-05-26T16:46:56Z</time>
      </trkpt>
      <trkpt lat="45.69457" lon="5.75239">
        <ele>248</ele>
        <time>2017-05-26T16:46:56Z</time>
      </trkpt>
      <trkpt lat="45.69457" lon="5.75232">
        <ele>248</ele>
        <time>2017-05-26T16:46:56Z</time>
      </trkpt>
      <trkpt lat="45.69457" lon="5.75225">
        <ele>248</ele>
        <time>2017-05-26T16:46:56Z</time>
      </trkpt>
      <trkpt lat="45.69461" lon="5.75209">
        <ele>247</ele>
        <time>2017-05-26T16:47:40Z</time>
      </trkpt>
      <trkpt lat="45.69461" lon="5.75209">
        <ele>247</ele>
        <time>2017-05-26T16:47:40Z</time>
      </trkpt>
      <trkpt lat="45.69459" lon="5.75208">
        <ele>248</ele>
        <time>2017-05-26T16:47:40Z</time>
      </trkpt>
      <trkpt lat="45.69459" lon="5.75206">
        <ele>248</ele>
        <time>2017-05-26T16:47:40Z</time>
      </trkpt>
      <trkpt lat="45.69459" lon="5.75205">
        <ele>248</ele>
        <time>2017-05-26T16:47:40Z</time>
      </trkpt>
      <trkpt lat="45.69458" lon="5.75206">
        <ele>248</ele>
        <time>2017-05-26T16:52:20Z</time>
      </trkpt>
      <trkpt lat="45.69458" lon="5.75206">
        <ele>248</ele>
        <time>2017-05-26T16:52:20Z</time>
      </trkpt>
      <trkpt lat="45.69456" lon="5.75206">
        <ele>248</ele>
        <time>2017-05-26T16:52:20Z</time>
      </trkpt>
      <trkpt lat="45.6945" lon="5.75205">
        <ele>248</ele>
        <time>2017-05-26T16:52:20Z</time>
      </trkpt>
      <trkpt lat="45.69445" lon="5.75208">
        <ele>248</ele>
        <time>2017-05-26T16:52:20Z</time>
      </trkpt>
      <trkpt lat="45.69439" lon="5.75211">
        <ele>248</ele>
        <time>2017-05-26T16:52:36Z</time>
      </trkpt>
      <trkpt lat="45.69432" lon="5.75213">
        <ele>248</ele>
        <time>2017-05-26T16:52:36Z</time>
      </trkpt>
      <trkpt lat="45.69426" lon="5.75216">
        <ele>248</ele>
        <time>2017-05-26T16:52:36Z</time>
      </trkpt>
      <trkpt lat="45.69419" lon="5.75216">
        <ele>248</ele>
        <time>2017-05-26T16:52:36Z</time>
      </trkpt>
      <trkpt lat="45.69417" lon="5.75215">
        <ele>248</ele>
        <time>2017-05-26T16:52:52Z</time>
      </trkpt>
      <trkpt lat="45.69415" lon="5.75218">
        <ele>248</ele>
        <time>2017-05-26T16:52:52Z</time>
      </trkpt>
      <trkpt lat="45.69415" lon="5.75224">
        <ele>248</ele>
        <time>2017-05-26T16:52:52Z</time>
      </trkpt>
      <trkpt lat="45.69416" lon="5.75232">
        <ele>248</ele>
        <time>2017-05-26T16:52:52Z</time>
      </trkpt>
      <trkpt lat="45.69418" lon="5.75244">
        <ele>248</ele>
        <time>2017-05-26T16:53:08Z</time>
      </trkpt>
      <trkpt lat="45.69414" lon="5.7525">
        <ele>248</ele>
        <time>2017-05-26T16:53:08Z</time>
      </trkpt>
      <trkpt lat="45.69405" lon="5.75248">
        <ele>248</ele>
        <time>2017-05-26T16:53:08Z</time>
      </trkpt>
      <trkpt lat="45.69397" lon="5.75246">
        <ele>248</ele>
        <time>2017-05-26T16:53:08Z</time>
      </trkpt>
      <trkpt lat="45.69391" lon="5.7524">
        <ele>248</ele>
        <time>2017-05-26T16:53:32Z</time>
      </trkpt>
      <trkpt lat="45.69389" lon="5.7524">
        <ele>248</ele>
        <time>2017-05-26T16:53:32Z</time>
      </trkpt>
      <trkpt lat="45.69388" lon="5.7524">
        <ele>248</ele>
        <time>2017-05-26T16:53:32Z</time>
      </trkpt>
      <trkpt lat="45.69388" lon="5.75241">
        <ele>248</ele>
        <time>2017-05-26T16:53:32Z</time>
      </trkpt>
      <trkpt lat="45.69381" lon="5.75243">
        <ele>248</ele>
        <time>2017-05-26T16:53:32Z</time>
      </trkpt>
      <trkpt lat="45.69367" lon="5.75243">
        <ele>247</ele>
        <time>2017-05-26T16:53:48Z</time>
      </trkpt>
      <trkpt lat="45.69351" lon="5.75241">
        <ele>247</ele>
        <time>2017-05-26T16:53:48Z</time>
      </trkpt>
      <trkpt lat="45.6934" lon="5.75241">
        <ele>247</ele>
        <time>2017-05-26T16:53:48Z</time>
      </trkpt>
      <trkpt lat="45.69335" lon="5.75241">
        <ele>247</ele>
        <time>2017-05-26T16:53:48Z</time>
      </trkpt>
      <trkpt lat="45.69329" lon="5.7524">
        <ele>247</ele>
        <time>2017-05-26T16:54:04Z</time>
      </trkpt>
      <trkpt lat="45.69322" lon="5.7524">
        <ele>247</ele>
        <time>2017-05-26T16:54:04Z</time>
      </trkpt>
      <trkpt lat="45.69317" lon="5.7524">
        <ele>247</ele>
        <time>2017-05-26T16:54:04Z</time>
      </trkpt>
      <trkpt lat="45.69313" lon="5.75243">
        <ele>247</ele>
        <time>2017-05-26T16:54:04Z</time>
      </trkpt>
      <trkpt lat="45.69307" lon="5.75245">
        <ele>247</ele>
        <time>2017-05-26T16:54:20Z</time>
      </trkpt>
      <trkpt lat="45.69301" lon="5.75247">
        <ele>247</ele>
        <time>2017-05-26T16:54:20Z</time>
      </trkpt>
      <trkpt lat="45.69295" lon="5.75251">
        <ele>247</ele>
        <time>2017-05-26T16:54:20Z</time>
      </trkpt>
      <trkpt lat="45.6929" lon="5.75254">
        <ele>249</ele>
        <time>2017-05-26T16:54:20Z</time>
      </trkpt>
      <trkpt lat="45.69286" lon="5.75258">
        <ele>249</ele>
        <time>2017-05-26T16:54:36Z</time>
      </trkpt>
      <trkpt lat="45.6928" lon="5.75263">
        <ele>249</ele>
        <time>2017-05-26T16:54:36Z</time>
      </trkpt>
      <trkpt lat="45.69275" lon="5.75267">
        <ele>249</ele>
        <time>2017-05-26T16:54:36Z</time>
      </trkpt>
      <trkpt lat="45.6927" lon="5.75273">
        <ele>249</ele>
        <time>2017-05-26T16:54:36Z</time>
      </trkpt>
      <trkpt lat="45.69265" lon="5.7528">
        <ele>249</ele>
        <time>2017-05-26T16:54:52Z</time>
      </trkpt>
      <trkpt lat="45.6926" lon="5.75287">
        <ele>249</ele>
        <time>2017-05-26T16:54:52Z</time>
      </trkpt>
      <trkpt lat="45.69256" lon="5.75292">
        <ele>248</ele>
        <time>2017-05-26T16:54:52Z</time>
      </trkpt>
      <trkpt lat="45.69252" lon="5.75297">
        <ele>248</ele>
        <time>2017-05-26T16:54:52Z</time>
      </trkpt>
      <trkpt lat="45.69245" lon="5.75304">
        <ele>248</ele>
        <time>2017-05-26T16:55:24Z</time>
      </trkpt>
      <trkpt lat="45.69242" lon="5.75298">
        <ele>248</ele>
        <time>2017-05-26T16:55:24Z</time>
      </trkpt>
      <trkpt lat="45.6924" lon="5.7529">
        <ele>249</ele>
        <time>2017-05-26T16:55:24Z</time>
      </trkpt>
      <trkpt lat="45.69239" lon="5.75282">
        <ele>249</ele>
        <time>2017-05-26T16:55:24Z</time>
      </trkpt>
      <trkpt lat="45.69238" lon="5.75274">
        <ele>249</ele>
        <time>2017-05-26T16:55:24Z</time>
      </trkpt>
      <trkpt lat="45.69238" lon="5.75266">
        <ele>249</ele>
        <time>2017-05-26T16:55:40Z</time>
      </trkpt>
      <trkpt lat="45.69238" lon="5.75259">
        <ele>249</ele>
        <time>2017-05-26T16:55:40Z</time>
      </trkpt>
      <trkpt lat="45.69239" lon="5.75251">
        <ele>249</ele>
        <time>2017-05-26T16:55:40Z</time>
      </trkpt>
      <trkpt lat="45.6924" lon="5.75243">
        <ele>249</ele>
        <time>2017-05-26T16:55:40Z</time>
      </trkpt>
      <trkpt lat="45.69241" lon="5.75232">
        <ele>249</ele>
        <time>2017-05-26T16:55:56Z</time>
      </trkpt>
      <trkpt lat="45.69243" lon="5.75219">
        <ele>249</ele>
        <time>2017-05-26T16:55:56Z</time>
      </trkpt>
      <trkpt lat="45.69243" lon="5.75209">
        <ele>249</ele>
        <time>2017-05-26T16:55:56Z</time>
      </trkpt>
      <trkpt lat="45.69244" lon="5.75208">
        <ele>250</ele>
        <time>2017-05-26T16:55:56Z</time>
      </trkpt>
      <trkpt lat="45.69245" lon="5.75206">
        <ele>250</ele>
        <time>2017-05-26T16:56:12Z</time>
      </trkpt>
      <trkpt lat="45.69245" lon="5.75202">
        <ele>250</ele>
        <time>2017-05-26T16:56:12Z</time>
      </trkpt>
      <trkpt lat="45.69247" lon="5.75193">
        <ele>250</ele>
        <time>2017-05-26T16:56:12Z</time>
      </trkpt>
      <trkpt lat="45.69248" lon="5.75183">
        <ele>250</ele>
        <time>2017-05-26T16:56:12Z</time>
      </trkpt>
      <trkpt lat="45.69248" lon="5.75174">
        <ele>250</ele>
        <time>2017-05-26T16:56:28Z</time>
      </trkpt>
      <trkpt lat="45.69249" lon="5.75166">
        <ele>250</ele>
        <time>2017-05-26T16:56:28Z</time>
      </trkpt>
      <trkpt lat="45.69249" lon="5.75157">
        <ele>250</ele>
        <time>2017-05-26T16:56:28Z</time>
      </trkpt>
      <trkpt lat="45.6925" lon="5.75141">
        <ele>250</ele>
        <time>2017-05-26T16:56:28Z</time>
      </trkpt>
      <trkpt lat="45.69253" lon="5.75128">
        <ele>250</ele>
        <time>2017-05-26T16:56:44Z</time>
      </trkpt>
      <trkpt lat="45.69253" lon="5.75123">
        <ele>253</ele>
        <time>2017-05-26T16:56:44Z</time>
      </trkpt>
      <trkpt lat="45.69253" lon="5.75117">
        <ele>253</ele>
        <time>2017-05-26T16:56:44Z</time>
      </trkpt>
      <trkpt lat="45.69252" lon="5.75106">
        <ele>253</ele>
        <time>2017-05-26T16:56:44Z</time>
      </trkpt>
      <trkpt lat="45.69252" lon="5.75096">
        <ele>253</ele>
        <time>2017-05-26T16:57:00Z</time>
      </trkpt>
      <trkpt lat="45.69251" lon="5.75089">
        <ele>253</ele>
        <time>2017-05-26T16:57:00Z</time>
      </trkpt>
      <trkpt lat="45.6925" lon="5.75082">
        <ele>253</ele>
        <time>2017-05-26T16:57:00Z</time>
      </trkpt>
      <trkpt lat="45.6925" lon="5.75071">
        <ele>253</ele>
        <time>2017-05-26T16:57:00Z</time>
      </trkpt>
      <trkpt lat="45.6925" lon="5.75058">
        <ele>253</ele>
        <time>2017-05-26T16:57:16Z</time>
      </trkpt>
      <trkpt lat="45.69248" lon="5.75047">
        <ele>253</ele>
        <time>2017-05-26T16:57:16Z</time>
      </trkpt>
      <trkpt lat="45.69247" lon="5.7504">
        <ele>254</ele>
        <time>2017-05-26T16:57:16Z</time>
      </trkpt>
      <trkpt lat="45.69245" lon="5.7503">
        <ele>254</ele>
        <time>2017-05-26T16:57:16Z</time>
      </trkpt>
      <trkpt lat="45.69243" lon="5.75022">
        <ele>254</ele>
        <time>2017-05-26T16:57:32Z</time>
      </trkpt>
      <trkpt lat="45.6924" lon="5.75014">
        <ele>254</ele>
        <time>2017-05-26T16:57:32Z</time>
      </trkpt>
      <trkpt lat="45.69237" lon="5.75005">
        <ele>254</ele>
        <time>2017-05-26T16:57:32Z</time>
      </trkpt>
      <trkpt lat="45.69234" lon="5.74996">
        <ele>254</ele>
        <time>2017-05-26T16:57:32Z</time>
      </trkpt>
      <trkpt lat="45.69231" lon="5.74989">
        <ele>254</ele>
        <time>2017-05-26T16:57:48Z</time>
      </trkpt>
      <trkpt lat="45.69227" lon="5.74982">
        <ele>254</ele>
        <time>2017-05-26T16:57:48Z</time>
      </trkpt>
      <trkpt lat="45.69222" lon="5.74978">
        <ele>254</ele>
        <time>2017-05-26T16:57:48Z</time>
      </trkpt>
      <trkpt lat="45.69217" lon="5.74974">
        <ele>254</ele>
        <time>2017-05-26T16:57:48Z</time>
      </trkpt>
      <trkpt lat="45.69213" lon="5.7497">
        <ele>254</ele>
        <time>2017-05-26T16:58:04Z</time>
      </trkpt>
      <trkpt lat="45.69207" lon="5.74968">
        <ele>262</ele>
        <time>2017-05-26T16:58:04Z</time>
      </trkpt>
      <trkpt lat="45.69203" lon="5.74964">
        <ele>262</ele>
        <time>2017-05-26T16:58:04Z</time>
      </trkpt>
      <trkpt lat="45.69198" lon="5.7496">
        <ele>262</ele>
        <time>2017-05-26T16:58:04Z</time>
      </trkpt>
      <trkpt lat="45.69194" lon="5.74954">
        <ele>258</ele>
        <time>2017-05-26T16:58:20Z</time>
      </trkpt>
      <trkpt lat="45.69189" lon="5.74948">
        <ele>258</ele>
        <time>2017-05-26T16:58:20Z</time>
      </trkpt>
      <trkpt lat="45.69184" lon="5.74943">
        <ele>258</ele>
        <time>2017-05-26T16:58:20Z</time>
      </trkpt>
      <trkpt lat="45.6918" lon="5.74939">
        <ele>258</ele>
        <time>2017-05-26T16:58:20Z</time>
      </trkpt>
      <trkpt lat="45.69176" lon="5.74934">
        <ele>258</ele>
        <time>2017-05-26T16:58:36Z</time>
      </trkpt>
      <trkpt lat="45.69172" lon="5.74927">
        <ele>258</ele>
        <time>2017-05-26T16:58:36Z</time>
      </trkpt>
      <trkpt lat="45.69169" lon="5.7492">
        <ele>258</ele>
        <time>2017-05-26T16:58:36Z</time>
      </trkpt>
      <trkpt lat="45.69168" lon="5.74912">
        <ele>258</ele>
        <time>2017-05-26T16:58:36Z</time>
      </trkpt>
      <trkpt lat="45.69169" lon="5.74904">
        <ele>258</ele>
        <time>2017-05-26T16:58:52Z</time>
      </trkpt>
      <trkpt lat="45.69168" lon="5.74897">
        <ele>258</ele>
        <time>2017-05-26T16:58:52Z</time>
      </trkpt>
      <trkpt lat="45.69168" lon="5.74887">
        <ele>258</ele>
        <time>2017-05-26T16:58:52Z</time>
      </trkpt>
      <trkpt lat="45.69167" lon="5.74879">
        <ele>258</ele>
        <time>2017-05-26T16:58:52Z</time>
      </trkpt>
      <trkpt lat="45.69166" lon="5.74872">
        <ele>273</ele>
        <time>2017-05-26T16:59:08Z</time>
      </trkpt>
      <trkpt lat="45.69164" lon="5.74866">
        <ele>273</ele>
        <time>2017-05-26T16:59:08Z</time>
      </trkpt>
      <trkpt lat="45.6916" lon="5.7486">
        <ele>273</ele>
        <time>2017-05-26T16:59:08Z</time>
      </trkpt>
      <trkpt lat="45.69156" lon="5.74855">
        <ele>273</ele>
        <time>2017-05-26T16:59:08Z</time>
      </trkpt>
      <trkpt lat="45.69152" lon="5.74848">
        <ele>273</ele>
        <time>2017-05-26T16:59:24Z</time>
      </trkpt>
      <trkpt lat="45.69147" lon="5.74847">
        <ele>273</ele>
        <time>2017-05-26T16:59:24Z</time>
      </trkpt>
      <trkpt lat="45.69141" lon="5.74844">
        <ele>273</ele>
        <time>2017-05-26T16:59:24Z</time>
      </trkpt>
      <trkpt lat="45.69135" lon="5.74841">
        <ele>273</ele>
        <time>2017-05-26T16:59:24Z</time>
      </trkpt>
      <trkpt lat="45.69132" lon="5.74841">
        <ele>273</ele>
        <time>2017-05-26T16:59:40Z</time>
      </trkpt>
      <trkpt lat="45.69128" lon="5.74839">
        <ele>273</ele>
        <time>2017-05-26T16:59:40Z</time>
      </trkpt>
      <trkpt lat="45.69124" lon="5.74837">
        <ele>269</ele>
        <time>2017-05-26T16:59:40Z</time>
      </trkpt>
      <trkpt lat="45.69119" lon="5.74834">
        <ele>269</ele>
        <time>2017-05-26T16:59:40Z</time>
      </trkpt>
      <trkpt lat="45.69112" lon="5.74833">
        <ele>269</ele>
        <time>2017-05-26T16:59:56Z</time>
      </trkpt>
      <trkpt lat="45.69107" lon="5.74828">
        <ele>269</ele>
        <time>2017-05-26T16:59:56Z</time>
      </trkpt>
      <trkpt lat="45.69099" lon="5.74822">
        <ele>269</ele>
        <time>2017-05-26T16:59:56Z</time>
      </trkpt>
      <trkpt lat="45.69093" lon="5.74818">
        <ele>269</ele>
        <time>2017-05-26T16:59:56Z</time>
      </trkpt>
      <trkpt lat="45.69089" lon="5.74817">
        <ele>269</ele>
        <time>2017-05-26T17:00:12Z</time>
      </trkpt>
      <trkpt lat="45.69084" lon="5.74814">
        <ele>269</ele>
        <time>2017-05-26T17:00:12Z</time>
      </trkpt>
      <trkpt lat="45.69079" lon="5.74811">
        <ele>269</ele>
        <time>2017-05-26T17:00:12Z</time>
      </trkpt>
      <trkpt lat="45.69077" lon="5.74806">
        <ele>269</ele>
        <time>2017-05-26T17:00:12Z</time>
      </trkpt>
      <trkpt lat="45.69075" lon="5.74803">
        <ele>269</ele>
        <time>2017-05-26T17:00:28Z</time>
      </trkpt>
      <trkpt lat="45.69072" lon="5.74799">
        <ele>269</ele>
        <time>2017-05-26T17:00:28Z</time>
      </trkpt>
      <trkpt lat="45.69065" lon="5.74796">
        <ele>269</ele>
        <time>2017-05-26T17:00:28Z</time>
      </trkpt>
      <trkpt lat="45.69057" lon="5.74796">
        <ele>269</ele>
        <time>2017-05-26T17:00:28Z</time>
      </trkpt>
      <trkpt lat="45.6905" lon="5.74796">
        <ele>269</ele>
        <time>2017-05-26T17:00:44Z</time>
      </trkpt>
      <trkpt lat="45.69045" lon="5.74796">
        <ele>269</ele>
        <time>2017-05-26T17:00:44Z</time>
      </trkpt>
      <trkpt lat="45.69039" lon="5.74797">
        <ele>270</ele>
        <time>2017-05-26T17:00:44Z</time>
      </trkpt>
      <trkpt lat="45.69033" lon="5.74796">
        <ele>270</ele>
        <time>2017-05-26T17:00:44Z</time>
      </trkpt>
      <trkpt lat="45.69025" lon="5.74794">
        <ele>270</ele>
        <time>2017-05-26T17:01:00Z</time>
      </trkpt>
      <trkpt lat="45.69018" lon="5.74793">
        <ele>270</ele>
        <time>2017-05-26T17:01:00Z</time>
      </trkpt>
      <trkpt lat="45.69011" lon="5.74794">
        <ele>270</ele>
        <time>2017-05-26T17:01:00Z</time>
      </trkpt>
      <trkpt lat="45.69005" lon="5.74794">
        <ele>270</ele>
        <time>2017-05-26T17:01:00Z</time>
      </trkpt>
      <trkpt lat="45.68999" lon="5.7479">
        <ele>282</ele>
        <time>2017-05-26T17:01:16Z</time>
      </trkpt>
      <trkpt lat="45.68994" lon="5.74784">
        <ele>282</ele>
        <time>2017-05-26T17:01:16Z</time>
      </trkpt>
      <trkpt lat="45.68989" lon="5.74779">
        <ele>282</ele>
        <time>2017-05-26T17:01:16Z</time>
      </trkpt>
      <trkpt lat="45.68985" lon="5.74776">
        <ele>282</ele>
        <time>2017-05-26T17:01:16Z</time>
      </trkpt>
      <trkpt lat="45.6898" lon="5.74772">
        <ele>282</ele>
        <time>2017-05-26T17:01:32Z</time>
      </trkpt>
      <trkpt lat="45.68978" lon="5.74769">
        <ele>282</ele>
        <time>2017-05-26T17:01:32Z</time>
      </trkpt>
      <trkpt lat="45.68975" lon="5.74763">
        <ele>282</ele>
        <time>2017-05-26T17:01:32Z</time>
      </trkpt>
      <trkpt lat="45.68971" lon="5.74756">
        <ele>282</ele>
        <time>2017-05-26T17:01:32Z</time>
      </trkpt>
      <trkpt lat="45.6897" lon="5.74752">
        <ele>282</ele>
        <time>2017-05-26T17:01:48Z</time>
      </trkpt>
      <trkpt lat="45.68968" lon="5.74746">
        <ele>282</ele>
        <time>2017-05-26T17:01:48Z</time>
      </trkpt>
      <trkpt lat="45.68966" lon="5.74742">
        <ele>282</ele>
        <time>2017-05-26T17:01:48Z</time>
      </trkpt>
      <trkpt lat="45.68966" lon="5.7474">
        <ele>282</ele>
        <time>2017-05-26T17:01:48Z</time>
      </trkpt>
      <trkpt lat="45.68967" lon="5.74734">
        <ele>282</ele>
        <time>2017-05-26T17:02:04Z</time>
      </trkpt>
      <trkpt lat="45.68967" lon="5.74728">
        <ele>282</ele>
        <time>2017-05-26T17:02:04Z</time>
      </trkpt>
      <trkpt lat="45.68966" lon="5.7472">
        <ele>282</ele>
        <time>2017-05-26T17:02:04Z</time>
      </trkpt>
      <trkpt lat="45.68966" lon="5.74714">
        <ele>282</ele>
        <time>2017-05-26T17:02:04Z</time>
      </trkpt>
      <trkpt lat="45.68966" lon="5.74707">
        <ele>296</ele>
        <time>2017-05-26T17:02:20Z</time>
      </trkpt>
      <trkpt lat="45.68965" lon="5.74702">
        <ele>296</ele>
        <time>2017-05-26T17:02:20Z</time>
      </trkpt>
      <trkpt lat="45.68962" lon="5.74696">
        <ele>296</ele>
        <time>2017-05-26T17:02:20Z</time>
      </trkpt>
      <trkpt lat="45.68955" lon="5.74691">
        <ele>293</ele>
        <time>2017-05-26T17:02:20Z</time>
      </trkpt>
      <trkpt lat="45.68949" lon="5.74686">
        <ele>293</ele>
        <time>2017-05-26T17:02:36Z</time>
      </trkpt>
      <trkpt lat="45.68946" lon="5.74681">
        <ele>293</ele>
        <time>2017-05-26T17:02:36Z</time>
      </trkpt>
      <trkpt lat="45.68946" lon="5.74674">
        <ele>293</ele>
        <time>2017-05-26T17:02:36Z</time>
      </trkpt>
      <trkpt lat="45.68946" lon="5.7467">
        <ele>293</ele>
        <time>2017-05-26T17:02:36Z</time>
      </trkpt>
      <trkpt lat="45.68944" lon="5.74664">
        <ele>293</ele>
        <time>2017-05-26T17:02:52Z</time>
      </trkpt>
      <trkpt lat="45.6894" lon="5.7466">
        <ele>293</ele>
        <time>2017-05-26T17:02:52Z</time>
      </trkpt>
      <trkpt lat="45.68936" lon="5.74656">
        <ele>293</ele>
        <time>2017-05-26T17:02:52Z</time>
      </trkpt>
      <trkpt lat="45.68932" lon="5.74652">
        <ele>293</ele>
        <time>2017-05-26T17:02:52Z</time>
      </trkpt>
      <trkpt lat="45.68927" lon="5.74647">
        <ele>293</ele>
        <time>2017-05-26T17:03:08Z</time>
      </trkpt>
      <trkpt lat="45.68925" lon="5.74642">
        <ele>293</ele>
        <time>2017-05-26T17:03:08Z</time>
      </trkpt>
      <trkpt lat="45.68922" lon="5.74635">
        <ele>293</ele>
        <time>2017-05-26T17:03:08Z</time>
      </trkpt>
      <trkpt lat="45.68918" lon="5.7463">
        <ele>293</ele>
        <time>2017-05-26T17:03:08Z</time>
      </trkpt>
      <trkpt lat="45.68913" lon="5.74625">
        <ele>293</ele>
        <time>2017-05-26T17:03:24Z</time>
      </trkpt>
      <trkpt lat="45.68908" lon="5.74622">
        <ele>304</ele>
        <time>2017-05-26T17:03:24Z</time>
      </trkpt>
      <trkpt lat="45.68903" lon="5.7462">
        <ele>304</ele>
        <time>2017-05-26T17:03:24Z</time>
      </trkpt>
      <trkpt lat="45.68898" lon="5.74618">
        <ele>304</ele>
        <time>2017-05-26T17:03:24Z</time>
      </trkpt>
      <trkpt lat="45.68892" lon="5.74617">
        <ele>304</ele>
        <time>2017-05-26T17:03:40Z</time>
      </trkpt>
      <trkpt lat="45.68887" lon="5.74614">
        <ele>304</ele>
        <time>2017-05-26T17:03:40Z</time>
      </trkpt>
      <trkpt lat="45.68882" lon="5.7461">
        <ele>304</ele>
        <time>2017-05-26T17:03:40Z</time>
      </trkpt>
      <trkpt lat="45.68877" lon="5.74606">
        <ele>304</ele>
        <time>2017-05-26T17:03:40Z</time>
      </trkpt>
      <trkpt lat="45.6887" lon="5.74598">
        <ele>300</ele>
        <time>2017-05-26T17:05:48Z</time>
      </trkpt>
      <trkpt lat="45.68869" lon="5.74597">
        <ele>300</ele>
        <time>2017-05-26T17:05:48Z</time>
      </trkpt>
      <trkpt lat="45.68868" lon="5.74597">
        <ele>300</ele>
        <time>2017-05-26T17:05:48Z</time>
      </trkpt>
      <trkpt lat="45.68866" lon="5.74595">
        <ele>300</ele>
        <time>2017-05-26T17:05:48Z</time>
      </trkpt>
      <trkpt lat="45.68862" lon="5.74592">
        <ele>300</ele>
        <time>2017-05-26T17:05:48Z</time>
      </trkpt>
      <trkpt lat="45.68858" lon="5.74589">
        <ele>300</ele>
        <time>2017-05-26T17:06:04Z</time>
      </trkpt>
      <trkpt lat="45.68853" lon="5.74586">
        <ele>300</ele>
        <time>2017-05-26T17:06:04Z</time>
      </trkpt>
      <trkpt lat="45.68847" lon="5.74582">
        <ele>300</ele>
        <time>2017-05-26T17:06:04Z</time>
      </trkpt>
      <trkpt lat="45.68843" lon="5.74578">
        <ele>300</ele>
        <time>2017-05-26T17:06:04Z</time>
      </trkpt>
      <trkpt lat="45.68838" lon="5.74573">
        <ele>300</ele>
        <time>2017-05-26T17:06:20Z</time>
      </trkpt>
      <trkpt lat="45.68836" lon="5.74569">
        <ele>300</ele>
        <time>2017-05-26T17:06:20Z</time>
      </trkpt>
      <trkpt lat="45.68833" lon="5.74565">
        <ele>300</ele>
        <time>2017-05-26T17:06:20Z</time>
      </trkpt>
      <trkpt lat="45.68829" lon="5.7456">
        <ele>300</ele>
        <time>2017-05-26T17:06:20Z</time>
      </trkpt>
      <trkpt lat="45.68826" lon="5.74553">
        <ele>300</ele>
        <time>2017-05-26T17:06:36Z</time>
      </trkpt>
      <trkpt lat="45.68822" lon="5.74547">
        <ele>300</ele>
        <time>2017-05-26T17:06:36Z</time>
      </trkpt>
      <trkpt lat="45.68817" lon="5.74541">
        <ele>311</ele>
        <time>2017-05-26T17:06:36Z</time>
      </trkpt>
      <trkpt lat="45.68814" lon="5.74535">
        <ele>311</ele>
        <time>2017-05-26T17:06:36Z</time>
      </trkpt>
      <trkpt lat="45.68811" lon="5.74527">
        <ele>311</ele>
        <time>2017-05-26T17:06:52Z</time>
      </trkpt>
      <trkpt lat="45.68808" lon="5.74519">
        <ele>311</ele>
        <time>2017-05-26T17:06:52Z</time>
      </trkpt>
      <trkpt lat="45.68805" lon="5.74512">
        <ele>311</ele>
        <time>2017-05-26T17:06:52Z</time>
      </trkpt>
      <trkpt lat="45.68802" lon="5.74504">
        <ele>311</ele>
        <time>2017-05-26T17:06:52Z</time>
      </trkpt>
      <trkpt lat="45.688" lon="5.74497">
        <ele>311</ele>
        <time>2017-05-26T17:07:08Z</time>
      </trkpt>
      <trkpt lat="45.68795" lon="5.74495">
        <ele>311</ele>
        <time>2017-05-26T17:07:08Z</time>
      </trkpt>
      <trkpt lat="45.6879" lon="5.74489">
        <ele>307</ele>
        <time>2017-05-26T17:07:08Z</time>
      </trkpt>
      <trkpt lat="45.68786" lon="5.74485">
        <ele>307</ele>
        <time>2017-05-26T17:07:08Z</time>
      </trkpt>
      <trkpt lat="45.68781" lon="5.74482">
        <ele>307</ele>
        <time>2017-05-26T17:07:24Z</time>
      </trkpt>
      <trkpt lat="45.68778" lon="5.74475">
        <ele>307</ele>
        <time>2017-05-26T17:07:24Z</time>
      </trkpt>
      <trkpt lat="45.68772" lon="5.7447">
        <ele>307</ele>
        <time>2017-05-26T17:07:24Z</time>
      </trkpt>
      <trkpt lat="45.68767" lon="5.74465">
        <ele>307</ele>
        <time>2017-05-26T17:07:24Z</time>
      </trkpt>
      <trkpt lat="45.68761" lon="5.74464">
        <ele>307</ele>
        <time>2017-05-26T17:07:40Z</time>
      </trkpt>
      <trkpt lat="45.68754" lon="5.74463">
        <ele>307</ele>
        <time>2017-05-26T17:07:40Z</time>
      </trkpt>
      <trkpt lat="45.68748" lon="5.74463">
        <ele>307</ele>
        <time>2017-05-26T17:07:40Z</time>
      </trkpt>
      <trkpt lat="45.68742" lon="5.74467">
        <ele>307</ele>
        <time>2017-05-26T17:07:40Z</time>
      </trkpt>
      <trkpt lat="45.68737" lon="5.74464">
        <ele>307</ele>
        <time>2017-05-26T17:07:56Z</time>
      </trkpt>
      <trkpt lat="45.68733" lon="5.74458">
        <ele>307</ele>
        <time>2017-05-26T17:07:56Z</time>
      </trkpt>
      <trkpt lat="45.68728" lon="5.74456">
        <ele>336</ele>
        <time>2017-05-26T17:07:56Z</time>
      </trkpt>
      <trkpt lat="45.68722" lon="5.74454">
        <ele>336</ele>
        <time>2017-05-26T17:07:56Z</time>
      </trkpt>
      <trkpt lat="45.68717" lon="5.74452">
        <ele>336</ele>
        <time>2017-05-26T17:08:12Z</time>
      </trkpt>
      <trkpt lat="45.68712" lon="5.7445">
        <ele>336</ele>
        <time>2017-05-26T17:08:12Z</time>
      </trkpt>
      <trkpt lat="45.68707" lon="5.74449">
        <ele>335</ele>
        <time>2017-05-26T17:08:12Z</time>
      </trkpt>
      <trkpt lat="45.68702" lon="5.74449">
        <ele>335</ele>
        <time>2017-05-26T17:08:12Z</time>
      </trkpt>
      <trkpt lat="45.68698" lon="5.74448">
        <ele>335</ele>
        <time>2017-05-26T17:08:28Z</time>
      </trkpt>
      <trkpt lat="45.68695" lon="5.74446">
        <ele>335</ele>
        <time>2017-05-26T17:08:28Z</time>
      </trkpt>
      <trkpt lat="45.68691" lon="5.74444">
        <ele>335</ele>
        <time>2017-05-26T17:08:28Z</time>
      </trkpt>
      <trkpt lat="45.68687" lon="5.74439">
        <ele>335</ele>
        <time>2017-05-26T17:08:28Z</time>
      </trkpt>
      <trkpt lat="45.68682" lon="5.74438">
        <ele>335</ele>
        <time>2017-05-26T17:08:44Z</time>
      </trkpt>
      <trkpt lat="45.68676" lon="5.74438">
        <ele>335</ele>
        <time>2017-05-26T17:08:44Z</time>
      </trkpt>
      <trkpt lat="45.68671" lon="5.74437">
        <ele>335</ele>
        <time>2017-05-26T17:08:44Z</time>
      </trkpt>
      <trkpt lat="45.68665" lon="5.74436">
        <ele>335</ele>
        <time>2017-05-26T17:08:44Z</time>
      </trkpt>
      <trkpt lat="45.6866" lon="5.74433">
        <ele>335</ele>
        <time>2017-05-26T17:09:00Z</time>
      </trkpt>
      <trkpt lat="45.68655" lon="5.74431">
        <ele>335</ele>
        <time>2017-05-26T17:09:00Z</time>
      </trkpt>
      <trkpt lat="45.6865" lon="5.74428">
        <ele>335</ele>
        <time>2017-05-26T17:09:00Z</time>
      </trkpt>
      <trkpt lat="45.68644" lon="5.74427">
        <ele>335</ele>
        <time>2017-05-26T17:09:00Z</time>
      </trkpt>
      <trkpt lat="45.68638" lon="5.74427">
        <ele>335</ele>
        <time>2017-05-26T17:09:16Z</time>
      </trkpt>
      <trkpt lat="45.68632" lon="5.74426">
        <ele>335</ele>
        <time>2017-05-26T17:09:16Z</time>
      </trkpt>
      <trkpt lat="45.68626" lon="5.74425">
        <ele>335</ele>
        <time>2017-05-26T17:09:16Z</time>
      </trkpt>
      <trkpt lat="45.68622" lon="5.74424">
        <ele>331</ele>
        <time>2017-05-26T17:09:16Z</time>
      </trkpt>
      <trkpt lat="45.68617" lon="5.74422">
        <ele>331</ele>
        <time>2017-05-26T17:09:32Z</time>
      </trkpt>
      <trkpt lat="45.68611" lon="5.74421">
        <ele>331</ele>
        <time>2017-05-26T17:09:32Z</time>
      </trkpt>
      <trkpt lat="45.68606" lon="5.74418">
        <ele>331</ele>
        <time>2017-05-26T17:09:32Z</time>
      </trkpt>
      <trkpt lat="45.68601" lon="5.74414">
        <ele>331</ele>
        <time>2017-05-26T17:09:32Z</time>
      </trkpt>
      <trkpt lat="45.68597" lon="5.74409">
        <ele>331</ele>
        <time>2017-05-26T17:09:48Z</time>
      </trkpt>
      <trkpt lat="45.68593" lon="5.74405">
        <ele>331</ele>
        <time>2017-05-26T17:09:48Z</time>
      </trkpt>
      <trkpt lat="45.68588" lon="5.74405">
        <ele>331</ele>
        <time>2017-05-26T17:09:48Z</time>
      </trkpt>
      <trkpt lat="45.68581" lon="5.74404">
        <ele>331</ele>
        <time>2017-05-26T17:09:48Z</time>
      </trkpt>
      <trkpt lat="45.68576" lon="5.74406">
        <ele>331</ele>
        <time>2017-05-26T17:10:04Z</time>
      </trkpt>
      <trkpt lat="45.68571" lon="5.74406">
        <ele>331</ele>
        <time>2017-05-26T17:10:04Z</time>
      </trkpt>
      <trkpt lat="45.68565" lon="5.74404">
        <ele>331</ele>
        <time>2017-05-26T17:10:04Z</time>
      </trkpt>
      <trkpt lat="45.68559" lon="5.74398">
        <ele>331</ele>
        <time>2017-05-26T17:10:04Z</time>
      </trkpt>
      <trkpt lat="45.68552" lon="5.74399">
        <ele>331</ele>
        <time>2017-05-26T17:10:20Z</time>
      </trkpt>
      <trkpt lat="45.68547" lon="5.74402">
        <ele>331</ele>
        <time>2017-05-26T17:10:20Z</time>
      </trkpt>
      <trkpt lat="45.68541" lon="5.74403">
        <ele>330</ele>
        <time>2017-05-26T17:10:20Z</time>
      </trkpt>
      <trkpt lat="45.68536" lon="5.74402">
        <ele>330</ele>
        <time>2017-05-26T17:10:20Z</time>
      </trkpt>
      <trkpt lat="45.6853" lon="5.74401">
        <ele>330</ele>
        <time>2017-05-26T17:10:36Z</time>
      </trkpt>
      <trkpt lat="45.68524" lon="5.744">
        <ele>330</ele>
        <time>2017-05-26T17:10:36Z</time>
      </trkpt>
      <trkpt lat="45.68518" lon="5.74401">
        <ele>330</ele>
        <time>2017-05-26T17:10:36Z</time>
      </trkpt>
      <trkpt lat="45.68512" lon="5.74401">
        <ele>330</ele>
        <time>2017-05-26T17:10:36Z</time>
      </trkpt>
      <trkpt lat="45.68507" lon="5.74403">
        <ele>330</ele>
        <time>2017-05-26T17:10:52Z</time>
      </trkpt>
      <trkpt lat="45.68502" lon="5.74404">
        <ele>330</ele>
        <time>2017-05-26T17:10:52Z</time>
      </trkpt>
      <trkpt lat="45.68496" lon="5.74404">
        <ele>330</ele>
        <time>2017-05-26T17:10:52Z</time>
      </trkpt>
      <trkpt lat="45.6849" lon="5.74406">
        <ele>330</ele>
        <time>2017-05-26T17:10:52Z</time>
      </trkpt>
      <trkpt lat="45.68484" lon="5.74407">
        <ele>330</ele>
        <time>2017-05-26T17:11:08Z</time>
      </trkpt>
      <trkpt lat="45.68479" lon="5.74406">
        <ele>330</ele>
        <time>2017-05-26T17:11:08Z</time>
      </trkpt>
      <trkpt lat="45.68474" lon="5.74406">
        <ele>330</ele>
        <time>2017-05-26T17:11:08Z</time>
      </trkpt>
      <trkpt lat="45.68468" lon="5.74406">
        <ele>330</ele>
        <time>2017-05-26T17:11:08Z</time>
      </trkpt>
      <trkpt lat="45.68462" lon="5.74408">
        <ele>330</ele>
        <time>2017-05-26T17:11:24Z</time>
      </trkpt>
      <trkpt lat="45.68456" lon="5.74409">
        <ele>328</ele>
        <time>2017-05-26T17:11:24Z</time>
      </trkpt>
      <trkpt lat="45.6845" lon="5.74409">
        <ele>328</ele>
        <time>2017-05-26T17:11:24Z</time>
      </trkpt>
      <trkpt lat="45.68444" lon="5.74408">
        <ele>328</ele>
        <time>2017-05-26T17:11:24Z</time>
      </trkpt>
      <trkpt lat="45.68438" lon="5.74402">
        <ele>328</ele>
        <time>2017-05-26T17:11:40Z</time>
      </trkpt>
      <trkpt lat="45.68431" lon="5.74399">
        <ele>328</ele>
        <time>2017-05-26T17:11:40Z</time>
      </trkpt>
      <trkpt lat="45.68414" lon="5.74397">
        <ele>328</ele>
        <time>2017-05-26T17:11:40Z</time>
      </trkpt>
      <trkpt lat="45.68391" lon="5.74392">
        <ele>328</ele>
        <time>2017-05-26T17:11:40Z</time>
      </trkpt>
      <trkpt lat="45.6837" lon="5.74386">
        <ele>327</ele>
        <time>2017-05-26T17:11:56Z</time>
      </trkpt>
      <trkpt lat="45.68349" lon="5.74373">
        <ele>340</ele>
        <time>2017-05-26T17:11:56Z</time>
      </trkpt>
      <trkpt lat="45.68334" lon="5.7436">
        <ele>340</ele>
        <time>2017-05-26T17:11:56Z</time>
      </trkpt>
      <trkpt lat="45.68324" lon="5.74358">
        <ele>340</ele>
        <time>2017-05-26T17:11:56Z</time>
      </trkpt>
      <trkpt lat="45.68316" lon="5.74349">
        <ele>340</ele>
        <time>2017-05-26T17:12:12Z</time>
      </trkpt>
      <trkpt lat="45.68311" lon="5.74343">
        <ele>340</ele>
        <time>2017-05-26T17:12:12Z</time>
      </trkpt>
      <trkpt lat="45.68307" lon="5.74339">
        <ele>340</ele>
        <time>2017-05-26T17:12:12Z</time>
      </trkpt>
      <trkpt lat="45.68303" lon="5.74334">
        <ele>340</ele>
        <time>2017-05-26T17:12:12Z</time>
      </trkpt>
      <trkpt lat="45.68298" lon="5.74329">
        <ele>340</ele>
        <time>2017-05-26T17:12:28Z</time>
      </trkpt>
      <trkpt lat="45.68294" lon="5.74321">
        <ele>340</ele>
        <time>2017-05-26T17:12:28Z</time>
      </trkpt>
      <trkpt lat="45.6829" lon="5.74317">
        <ele>329</ele>
        <time>2017-05-26T17:12:28Z</time>
      </trkpt>
      <trkpt lat="45.68287" lon="5.74313">
        <ele>329</ele>
        <time>2017-05-26T17:12:28Z</time>
      </trkpt>
      <trkpt lat="45.68284" lon="5.74309">
        <ele>329</ele>
        <time>2017-05-26T17:12:44Z</time>
      </trkpt>
      <trkpt lat="45.68279" lon="5.74303">
        <ele>329</ele>
        <time>2017-05-26T17:12:44Z</time>
      </trkpt>
      <trkpt lat="45.68272" lon="5.74294">
        <ele>329</ele>
        <time>2017-05-26T17:12:44Z</time>
      </trkpt>
      <trkpt lat="45.68266" lon="5.74285">
        <ele>353</ele>
        <time>2017-05-26T17:12:44Z</time>
      </trkpt>
      <trkpt lat="45.68261" lon="5.74278">
        <ele>353</ele>
        <time>2017-05-26T17:13:00Z</time>
      </trkpt>
      <trkpt lat="45.68256" lon="5.74271">
        <ele>353</ele>
        <time>2017-05-26T17:13:00Z</time>
      </trkpt>
      <trkpt lat="45.6825" lon="5.74268">
        <ele>353</ele>
        <time>2017-05-26T17:13:00Z</time>
      </trkpt>
      <trkpt lat="45.68245" lon="5.74259">
        <ele>353</ele>
        <time>2017-05-26T17:13:00Z</time>
      </trkpt>
      <trkpt lat="45.68242" lon="5.74251">
        <ele>353</ele>
        <time>2017-05-26T17:13:16Z</time>
      </trkpt>
      <trkpt lat="45.68238" lon="5.74248">
        <ele>353</ele>
        <time>2017-05-26T17:13:16Z</time>
      </trkpt>
      <trkpt lat="45.68234" lon="5.74243">
        <ele>353</ele>
        <time>2017-05-26T17:13:16Z</time>
      </trkpt>
      <trkpt lat="45.68229" lon="5.74236">
        <ele>353</ele>
        <time>2017-05-26T17:13:16Z</time>
      </trkpt>
      <trkpt lat="45.68223" lon="5.74227">
        <ele>353</ele>
        <time>2017-05-26T17:13:36Z</time>
      </trkpt>
      <trkpt lat="45.68223" lon="5.74224">
        <ele>353</ele>
        <time>2017-05-26T17:13:36Z</time>
      </trkpt>
      <trkpt lat="45.68221" lon="5.74222">
        <ele>353</ele>
        <time>2017-05-26T17:13:36Z</time>
      </trkpt>
      <trkpt lat="45.6822" lon="5.7422">
        <ele>353</ele>
        <time>2017-05-26T17:13:36Z</time>
      </trkpt>
      <trkpt lat="45.68215" lon="5.74214">
        <ele>353</ele>
        <time>2017-05-26T17:13:36Z</time>
      </trkpt>
      <trkpt lat="45.68211" lon="5.74208">
        <ele>382</ele>
        <time>2017-05-26T17:13:52Z</time>
      </trkpt>
      <trkpt lat="45.68209" lon="5.74205">
        <ele>382</ele>
        <time>2017-05-26T17:13:52Z</time>
      </trkpt>
      <trkpt lat="45.68209" lon="5.742">
        <ele>382</ele>
        <time>2017-05-26T17:13:52Z</time>
      </trkpt>
      <trkpt lat="45.68206" lon="5.74196">
        <ele>362</ele>
        <time>2017-05-26T17:13:52Z</time>
      </trkpt>
      <trkpt lat="45.68199" lon="5.74191">
        <ele>362</ele>
        <time>2017-05-26T17:14:08Z</time>
      </trkpt>
      <trkpt lat="45.68191" lon="5.74186">
        <ele>362</ele>
        <time>2017-05-26T17:14:08Z</time>
      </trkpt>
      <trkpt lat="45.68184" lon="5.74178">
        <ele>362</ele>
        <time>2017-05-26T17:14:08Z</time>
      </trkpt>
      <trkpt lat="45.68176" lon="5.74171">
        <ele>362</ele>
        <time>2017-05-26T17:14:08Z</time>
      </trkpt>
      <trkpt lat="45.6817" lon="5.74166">
        <ele>362</ele>
        <time>2017-05-26T17:14:24Z</time>
      </trkpt>
      <trkpt lat="45.68166" lon="5.74161">
        <ele>362</ele>
        <time>2017-05-26T17:14:24Z</time>
      </trkpt>
      <trkpt lat="45.68162" lon="5.74157">
        <ele>362</ele>
        <time>2017-05-26T17:14:24Z</time>
      </trkpt>
      <trkpt lat="45.68158" lon="5.74153">
        <ele>362</ele>
        <time>2017-05-26T17:14:24Z</time>
      </trkpt>
      <trkpt lat="45.68155" lon="5.74149">
        <ele>362</ele>
        <time>2017-05-26T17:14:40Z</time>
      </trkpt>
      <trkpt lat="45.68149" lon="5.74147">
        <ele>362</ele>
        <time>2017-05-26T17:14:40Z</time>
      </trkpt>
      <trkpt lat="45.68143" lon="5.74146">
        <ele>362</ele>
        <time>2017-05-26T17:14:40Z</time>
      </trkpt>
      <trkpt lat="45.6814" lon="5.74142">
        <ele>362</ele>
        <time>2017-05-26T17:14:40Z</time>
      </trkpt>
      <trkpt lat="45.68136" lon="5.74136">
        <ele>362</ele>
        <time>2017-05-26T17:14:56Z</time>
      </trkpt>
      <trkpt lat="45.68131" lon="5.7413">
        <ele>362</ele>
        <time>2017-05-26T17:14:56Z</time>
      </trkpt>
      <trkpt lat="45.68125" lon="5.74123">
        <ele>383</ele>
        <time>2017-05-26T17:14:56Z</time>
      </trkpt>
      <trkpt lat="45.68117" lon="5.74117">
        <ele>368</ele>
        <time>2017-05-26T17:14:56Z</time>
      </trkpt>
      <trkpt lat="45.68113" lon="5.74113">
        <ele>368</ele>
        <time>2017-05-26T17:15:12Z</time>
      </trkpt>
      <trkpt lat="45.68108" lon="5.74107">
        <ele>368</ele>
        <time>2017-05-26T17:15:12Z</time>
      </trkpt>
      <trkpt lat="45.68102" lon="5.741">
        <ele>368</ele>
        <time>2017-05-26T17:15:12Z</time>
      </trkpt>
      <trkpt lat="45.68096" lon="5.74097">
        <ele>368</ele>
        <time>2017-05-26T17:15:12Z</time>
      </trkpt>
      <trkpt lat="45.68092" lon="5.74095">
        <ele>368</ele>
        <time>2017-05-26T17:15:28Z</time>
      </trkpt>
      <trkpt lat="45.68087" lon="5.74092">
        <ele>368</ele>
        <time>2017-05-26T17:15:28Z</time>
      </trkpt>
      <trkpt lat="45.68083" lon="5.74088">
        <ele>368</ele>
        <time>2017-05-26T17:15:28Z</time>
      </trkpt>
      <trkpt lat="45.68079" lon="5.74083">
        <ele>368</ele>
        <time>2017-05-26T17:15:28Z</time>
      </trkpt>
      <trkpt lat="45.68076" lon="5.74079">
        <ele>368</ele>
        <time>2017-05-26T17:15:44Z</time>
      </trkpt>
      <trkpt lat="45.68071" lon="5.74076">
        <ele>368</ele>
        <time>2017-05-26T17:15:44Z</time>
      </trkpt>
      <trkpt lat="45.68066" lon="5.74071">
        <ele>368</ele>
        <time>2017-05-26T17:15:44Z</time>
      </trkpt>
      <trkpt lat="45.68061" lon="5.74068">
        <ele>368</ele>
        <time>2017-05-26T17:15:44Z</time>
      </trkpt>
      <trkpt lat="45.68057" lon="5.74064">
        <ele>368</ele>
        <time>2017-05-26T17:16:00Z</time>
      </trkpt>
      <trkpt lat="45.68053" lon="5.74059">
        <ele>368</ele>
        <time>2017-05-26T17:16:00Z</time>
      </trkpt>
      <trkpt lat="45.68049" lon="5.74053">
        <ele>368</ele>
        <time>2017-05-26T17:16:00Z</time>
      </trkpt>
      <trkpt lat="45.68047" lon="5.74046">
        <ele>368</ele>
        <time>2017-05-26T17:16:00Z</time>
      </trkpt>
      <trkpt lat="45.68042" lon="5.74035">
        <ele>392</ele>
        <time>2017-05-26T17:17:24Z</time>
      </trkpt>
      <trkpt lat="45.68042" lon="5.74035">
        <ele>392</ele>
        <time>2017-05-26T17:17:24Z</time>
      </trkpt>
      <trkpt lat="45.68042" lon="5.74035">
        <ele>392</ele>
        <time>2017-05-26T17:17:24Z</time>
      </trkpt>
      <trkpt lat="45.68041" lon="5.74033">
        <ele>382</ele>
        <time>2017-05-26T17:17:24Z</time>
      </trkpt>
      <trkpt lat="45.6804" lon="5.74027">
        <ele>382</ele>
        <time>2017-05-26T17:17:24Z</time>
      </trkpt>
      <trkpt lat="45.68034" lon="5.74013">
        <ele>382</ele>
        <time>2017-05-26T17:17:40Z</time>
      </trkpt>
      <trkpt lat="45.68011" lon="5.74007">
        <ele>382</ele>
        <time>2017-05-26T17:17:40Z</time>
      </trkpt>
      <trkpt lat="45.67994" lon="5.73998">
        <ele>382</ele>
        <time>2017-05-26T17:17:40Z</time>
      </trkpt>
      <trkpt lat="45.67972" lon="5.73989">
        <ele>382</ele>
        <time>2017-05-26T17:17:40Z</time>
      </trkpt>
      <trkpt lat="45.67946" lon="5.73974">
        <ele>379</ele>
        <time>2017-05-26T17:17:56Z</time>
      </trkpt>
      <trkpt lat="45.67932" lon="5.73963">
        <ele>379</ele>
        <time>2017-05-26T17:17:56Z</time>
      </trkpt>
      <trkpt lat="45.67917" lon="5.73965">
        <ele>379</ele>
        <time>2017-05-26T17:17:56Z</time>
      </trkpt>
      <trkpt lat="45.67905" lon="5.7396">
        <ele>379</ele>
        <time>2017-05-26T17:17:56Z</time>
      </trkpt>
      <trkpt lat="45.67898" lon="5.73955">
        <ele>399</ele>
        <time>2017-05-26T17:18:12Z</time>
      </trkpt>
      <trkpt lat="45.67894" lon="5.73949">
        <ele>399</ele>
        <time>2017-05-26T17:18:12Z</time>
      </trkpt>
      <trkpt lat="45.6789" lon="5.73945">
        <ele>399</ele>
        <time>2017-05-26T17:18:12Z</time>
      </trkpt>
      <trkpt lat="45.67885" lon="5.7394">
        <ele>399</ele>
        <time>2017-05-26T17:18:12Z</time>
      </trkpt>
      <trkpt lat="45.6788" lon="5.73932">
        <ele>399</ele>
        <time>2017-05-26T17:18:28Z</time>
      </trkpt>
      <trkpt lat="45.67876" lon="5.73926">
        <ele>399</ele>
        <time>2017-05-26T17:18:28Z</time>
      </trkpt>
      <trkpt lat="45.67871" lon="5.73921">
        <ele>395</ele>
        <time>2017-05-26T17:18:28Z</time>
      </trkpt>
      <trkpt lat="45.67869" lon="5.73915">
        <ele>395</ele>
        <time>2017-05-26T17:18:28Z</time>
      </trkpt>
      <trkpt lat="45.67868" lon="5.73908">
        <ele>395</ele>
        <time>2017-05-26T17:18:44Z</time>
      </trkpt>
      <trkpt lat="45.67867" lon="5.73901">
        <ele>395</ele>
        <time>2017-05-26T17:18:44Z</time>
      </trkpt>
      <trkpt lat="45.67867" lon="5.73894">
        <ele>395</ele>
        <time>2017-05-26T17:18:44Z</time>
      </trkpt>
      <trkpt lat="45.67866" lon="5.73885">
        <ele>395</ele>
        <time>2017-05-26T17:18:44Z</time>
      </trkpt>
      <trkpt lat="45.67865" lon="5.73877">
        <ele>395</ele>
        <time>2017-05-26T17:19:00Z</time>
      </trkpt>
      <trkpt lat="45.67865" lon="5.73868">
        <ele>412</ele>
        <time>2017-05-26T17:19:00Z</time>
      </trkpt>
      <trkpt lat="45.67863" lon="5.73861">
        <ele>412</ele>
        <time>2017-05-26T17:19:00Z</time>
      </trkpt>
      <trkpt lat="45.67858" lon="5.73856">
        <ele>412</ele>
        <time>2017-05-26T17:19:00Z</time>
      </trkpt>
      <trkpt lat="45.67851" lon="5.73849">
        <ele>412</ele>
        <time>2017-05-26T17:19:16Z</time>
      </trkpt>
      <trkpt lat="45.67846" lon="5.73838">
        <ele>412</ele>
        <time>2017-05-26T17:19:16Z</time>
      </trkpt>
      <trkpt lat="45.67842" lon="5.7383">
        <ele>412</ele>
        <time>2017-05-26T17:19:16Z</time>
      </trkpt>
      <trkpt lat="45.67835" lon="5.73829">
        <ele>412</ele>
        <time>2017-05-26T17:19:16Z</time>
      </trkpt>
      <trkpt lat="45.67829" lon="5.7383">
        <ele>412</ele>
        <time>2017-05-26T17:19:32Z</time>
      </trkpt>
      <trkpt lat="45.67824" lon="5.73827">
        <ele>412</ele>
        <time>2017-05-26T17:19:32Z</time>
      </trkpt>
      <trkpt lat="45.67821" lon="5.73824">
        <ele>412</ele>
        <time>2017-05-26T17:19:32Z</time>
      </trkpt>
      <trkpt lat="45.67819" lon="5.73818">
        <ele>412</ele>
        <time>2017-05-26T17:19:32Z</time>
      </trkpt>
      <trkpt lat="45.67817" lon="5.73812">
        <ele>412</ele>
        <time>2017-05-26T17:19:48Z</time>
      </trkpt>
      <trkpt lat="45.67817" lon="5.73804">
        <ele>412</ele>
        <time>2017-05-26T17:19:48Z</time>
      </trkpt>
      <trkpt lat="45.67816" lon="5.73798">
        <ele>412</ele>
        <time>2017-05-26T17:19:48Z</time>
      </trkpt>
      <trkpt lat="45.67814" lon="5.73792">
        <ele>412</ele>
        <time>2017-05-26T17:19:48Z</time>
      </trkpt>
      <trkpt lat="45.67806" lon="5.73778">
        <ele>419</ele>
        <time>2017-05-26T17:21:00Z</time>
      </trkpt>
      <trkpt lat="45.67806" lon="5.73778">
        <ele>419</ele>
        <time>2017-05-26T17:21:00Z</time>
      </trkpt>
      <trkpt lat="45.67805" lon="5.73778">
        <ele>419</ele>
        <time>2017-05-26T17:21:00Z</time>
      </trkpt>
      <trkpt lat="45.67802" lon="5.73774">
        <ele>419</ele>
        <time>2017-05-26T17:21:00Z</time>
      </trkpt>
      <trkpt lat="45.67798" lon="5.73767">
        <ele>419</ele>
        <time>2017-05-26T17:21:00Z</time>
      </trkpt>
      <trkpt lat="45.67797" lon="5.73767">
        <ele>419</ele>
        <time>2017-05-26T17:21:24Z</time>
      </trkpt>
      <trkpt lat="45.67795" lon="5.73768">
        <ele>419</ele>
        <time>2017-05-26T17:21:24Z</time>
      </trkpt>
      <trkpt lat="45.67794" lon="5.73767">
        <ele>419</ele>
        <time>2017-05-26T17:21:24Z</time>
      </trkpt>
      <trkpt lat="45.67789" lon="5.73767">
        <ele>426</ele>
        <time>2017-05-26T17:21:24Z</time>
      </trkpt>
      <trkpt lat="45.67782" lon="5.73765">
        <ele>426</ele>
        <time>2017-05-26T17:21:24Z</time>
      </trkpt>
      <trkpt lat="45.67776" lon="5.73758">
        <ele>426</ele>
        <time>2017-05-26T17:21:40Z</time>
      </trkpt>
      <trkpt lat="45.6777" lon="5.73757">
        <ele>426</ele>
        <time>2017-05-26T17:21:40Z</time>
      </trkpt>
      <trkpt lat="45.67764" lon="5.73754">
        <ele>426</ele>
        <time>2017-05-26T17:21:40Z</time>
      </trkpt>
      <trkpt lat="45.67759" lon="5.73746">
        <ele>426</ele>
        <time>2017-05-26T17:21:40Z</time>
      </trkpt>
      <trkpt lat="45.67756" lon="5.73737">
        <ele>426</ele>
        <time>2017-05-26T17:21:56Z</time>
      </trkpt>
      <trkpt lat="45.67754" lon="5.73728">
        <ele>426</ele>
        <time>2017-05-26T17:21:56Z</time>
      </trkpt>
      <trkpt lat="45.67758" lon="5.73707">
        <ele>430</ele>
        <time>2017-05-26T17:21:56Z</time>
      </trkpt>
      <trkpt lat="45.6776" lon="5.73666">
        <ele>430</ele>
        <time>2017-05-26T17:21:56Z</time>
      </trkpt>
      <trkpt lat="45.67756" lon="5.73644">
        <ele>430</ele>
        <time>2017-05-26T17:22:12Z</time>
      </trkpt>
      <trkpt lat="45.67753" lon="5.73627">
        <ele>430</ele>
        <time>2017-05-26T17:22:12Z</time>
      </trkpt>
      <trkpt lat="45.67749" lon="5.73616">
        <ele>436</ele>
        <time>2017-05-26T17:22:12Z</time>
      </trkpt>
      <trkpt lat="45.67743" lon="5.73611">
        <ele>436</ele>
        <time>2017-05-26T17:22:12Z</time>
      </trkpt>
      <trkpt lat="45.67737" lon="5.73607">
        <ele>436</ele>
        <time>2017-05-26T17:22:28Z</time>
      </trkpt>
      <trkpt lat="45.67732" lon="5.73604">
        <ele>436</ele>
        <time>2017-05-26T17:22:28Z</time>
      </trkpt>
      <trkpt lat="45.67727" lon="5.73603">
        <ele>436</ele>
        <time>2017-05-26T17:22:28Z</time>
      </trkpt>
      <trkpt lat="45.67721" lon="5.736">
        <ele>436</ele>
        <time>2017-05-26T17:22:28Z</time>
      </trkpt>
      <trkpt lat="45.67715" lon="5.73598">
        <ele>436</ele>
        <time>2017-05-26T17:22:44Z</time>
      </trkpt>
      <trkpt lat="45.67707" lon="5.73594">
        <ele>436</ele>
        <time>2017-05-26T17:22:44Z</time>
      </trkpt>
      <trkpt lat="45.677" lon="5.73591">
        <ele>436</ele>
        <time>2017-05-26T17:22:44Z</time>
      </trkpt>
      <trkpt lat="45.67695" lon="5.73588">
        <ele>436</ele>
        <time>2017-05-26T17:22:44Z</time>
      </trkpt>
      <trkpt lat="45.67689" lon="5.73584">
        <ele>436</ele>
        <time>2017-05-26T17:23:00Z</time>
      </trkpt>
      <trkpt lat="45.67684" lon="5.73581">
        <ele>436</ele>
        <time>2017-05-26T17:23:00Z</time>
      </trkpt>
      <trkpt lat="45.67678" lon="5.73579">
        <ele>436</ele>
        <time>2017-05-26T17:23:00Z</time>
      </trkpt>
      <trkpt lat="45.67673" lon="5.73577">
        <ele>436</ele>
        <time>2017-05-26T17:23:00Z</time>
      </trkpt>
      <trkpt lat="45.67666" lon="5.73576">
        <ele>436</ele>
        <time>2017-05-26T17:23:16Z</time>
      </trkpt>
      <trkpt lat="45.67659" lon="5.73575">
        <ele>436</ele>
        <time>2017-05-26T17:23:16Z</time>
      </trkpt>
      <trkpt lat="45.67655" lon="5.73575">
        <ele>436</ele>
        <time>2017-05-26T17:23:16Z</time>
      </trkpt>
      <trkpt lat="45.6765" lon="5.73574">
        <ele>436</ele>
        <time>2017-05-26T17:23:16Z</time>
      </trkpt>
      <trkpt lat="45.67644" lon="5.73571">
        <ele>436</ele>
        <time>2017-05-26T17:23:32Z</time>
      </trkpt>
      <trkpt lat="45.67639" lon="5.73567">
        <ele>436</ele>
        <time>2017-05-26T17:23:32Z</time>
      </trkpt>
      <trkpt lat="45.67633" lon="5.73564">
        <ele>436</ele>
        <time>2017-05-26T17:23:32Z</time>
      </trkpt>
      <trkpt lat="45.67627" lon="5.73561">
        <ele>436</ele>
        <time>2017-05-26T17:23:32Z</time>
      </trkpt>
      <trkpt lat="45.67622" lon="5.73558">
        <ele>430</ele>
        <time>2017-05-26T17:23:48Z</time>
      </trkpt>
      <trkpt lat="45.67617" lon="5.73556">
        <ele>430</ele>
        <time>2017-05-26T17:23:48Z</time>
      </trkpt>
      <trkpt lat="45.67613" lon="5.73553">
        <ele>430</ele>
        <time>2017-05-26T17:23:48Z</time>
      </trkpt>
      <trkpt lat="45.67609" lon="5.73548">
        <ele>430</ele>
        <time>2017-05-26T17:23:48Z</time>
      </trkpt>
      <trkpt lat="45.67605" lon="5.73544">
        <ele>430</ele>
        <time>2017-05-26T17:24:04Z</time>
      </trkpt>
      <trkpt lat="45.67601" lon="5.7354">
        <ele>437</ele>
        <time>2017-05-26T17:24:04Z</time>
      </trkpt>
      <trkpt lat="45.67596" lon="5.73535">
        <ele>437</ele>
        <time>2017-05-26T17:24:04Z</time>
      </trkpt>
      <trkpt lat="45.67592" lon="5.73529">
        <ele>437</ele>
        <time>2017-05-26T17:24:04Z</time>
      </trkpt>
      <trkpt lat="45.67588" lon="5.73523">
        <ele>437</ele>
        <time>2017-05-26T17:24:20Z</time>
      </trkpt>
      <trkpt lat="45.67585" lon="5.73516">
        <ele>437</ele>
        <time>2017-05-26T17:24:20Z</time>
      </trkpt>
      <trkpt lat="45.67582" lon="5.73508">
        <ele>437</ele>
        <time>2017-05-26T17:24:20Z</time>
      </trkpt>
      <trkpt lat="45.6758" lon="5.735">
        <ele>437</ele>
        <time>2017-05-26T17:24:20Z</time>
      </trkpt>
      <trkpt lat="45.67577" lon="5.73494">
        <ele>437</ele>
        <time>2017-05-26T17:24:36Z</time>
      </trkpt>
      <trkpt lat="45.67574" lon="5.73488">
        <ele>437</ele>
        <time>2017-05-26T17:24:36Z</time>
      </trkpt>
      <trkpt lat="45.6757" lon="5.73483">
        <ele>437</ele>
        <time>2017-05-26T17:24:36Z</time>
      </trkpt>
      <trkpt lat="45.67566" lon="5.7348">
        <ele>437</ele>
        <time>2017-05-26T17:24:36Z</time>
      </trkpt>
      <trkpt lat="45.67563" lon="5.73475">
        <ele>437</ele>
        <time>2017-05-26T17:24:52Z</time>
      </trkpt>
      <trkpt lat="45.67559" lon="5.7347">
        <ele>437</ele>
        <time>2017-05-26T17:24:52Z</time>
      </trkpt>
      <trkpt lat="45.67554" lon="5.73466">
        <ele>437</ele>
        <time>2017-05-26T17:24:52Z</time>
      </trkpt>
      <trkpt lat="45.67549" lon="5.73462">
        <ele>437</ele>
        <time>2017-05-26T17:24:52Z</time>
      </trkpt>
      <trkpt lat="45.67545" lon="5.73458">
        <ele>437</ele>
        <time>2017-05-26T17:25:08Z</time>
      </trkpt>
      <trkpt lat="45.6754" lon="5.73456">
        <ele>435</ele>
        <time>2017-05-26T17:25:08Z</time>
      </trkpt>
      <trkpt lat="45.67535" lon="5.73453">
        <ele>435</ele>
        <time>2017-05-26T17:25:08Z</time>
      </trkpt>
      <trkpt lat="45.67527" lon="5.73447">
        <ele>435</ele>
        <time>2017-05-26T17:25:08Z</time>
      </trkpt>
      <trkpt lat="45.6752" lon="5.7344">
        <ele>435</ele>
        <time>2017-05-26T17:25:24Z</time>
      </trkpt>
      <trkpt lat="45.67516" lon="5.73434">
        <ele>435</ele>
        <time>2017-05-26T17:25:24Z</time>
      </trkpt>
      <trkpt lat="45.67511" lon="5.7343">
        <ele>435</ele>
        <time>2017-05-26T17:25:24Z</time>
      </trkpt>
      <trkpt lat="45.67507" lon="5.73424">
        <ele>435</ele>
        <time>2017-05-26T17:25:24Z</time>
      </trkpt>
      <trkpt lat="45.67503" lon="5.73419">
        <ele>435</ele>
        <time>2017-05-26T17:25:40Z</time>
      </trkpt>
      <trkpt lat="45.67499" lon="5.73414">
        <ele>435</ele>
        <time>2017-05-26T17:25:40Z</time>
      </trkpt>
      <trkpt lat="45.67495" lon="5.73409">
        <ele>435</ele>
        <time>2017-05-26T17:25:40Z</time>
      </trkpt>
      <trkpt lat="45.67491" lon="5.73404">
        <ele>435</ele>
        <time>2017-05-26T17:25:40Z</time>
      </trkpt>
      <trkpt lat="45.67486" lon="5.73402">
        <ele>435</ele>
        <time>2017-05-26T17:25:56Z</time>
      </trkpt>
      <trkpt lat="45.6748" lon="5.73397">
        <ele>435</ele>
        <time>2017-05-26T17:25:56Z</time>
      </trkpt>
      <trkpt lat="45.67475" lon="5.7339">
        <ele>435</ele>
        <time>2017-05-26T17:25:56Z</time>
      </trkpt>
      <trkpt lat="45.6747" lon="5.73381">
        <ele>435</ele>
        <time>2017-05-26T17:25:56Z</time>
      </trkpt>
      <trkpt lat="45.67466" lon="5.73369">
        <ele>441</ele>
        <time>2017-05-26T17:26:12Z</time>
      </trkpt>
      <trkpt lat="45.67463" lon="5.7336">
        <ele>441</ele>
        <time>2017-05-26T17:26:12Z</time>
      </trkpt>
      <trkpt lat="45.67464" lon="5.73353">
        <ele>441</ele>
        <time>2017-05-26T17:26:12Z</time>
      </trkpt>
      <trkpt lat="45.67465" lon="5.73346">
        <ele>441</ele>
        <time>2017-05-26T17:26:12Z</time>
      </trkpt>
      <trkpt lat="45.67468" lon="5.7334">
        <ele>441</ele>
        <time>2017-05-26T17:26:28Z</time>
      </trkpt>
      <trkpt lat="45.6747" lon="5.73331">
        <ele>441</ele>
        <time>2017-05-26T17:26:28Z</time>
      </trkpt>
      <trkpt lat="45.67472" lon="5.73323">
        <ele>441</ele>
        <time>2017-05-26T17:26:28Z</time>
      </trkpt>
      <trkpt lat="45.67475" lon="5.73317">
        <ele>441</ele>
        <time>2017-05-26T17:26:28Z</time>
      </trkpt>
      <trkpt lat="45.6748" lon="5.73313">
        <ele>441</ele>
        <time>2017-05-26T17:26:44Z</time>
      </trkpt>
      <trkpt lat="45.67487" lon="5.73309">
        <ele>441</ele>
        <time>2017-05-26T17:26:44Z</time>
      </trkpt>
      <trkpt lat="45.67493" lon="5.73308">
        <ele>441</ele>
        <time>2017-05-26T17:26:44Z</time>
      </trkpt>
      <trkpt lat="45.67499" lon="5.73305">
        <ele>441</ele>
        <time>2017-05-26T17:26:44Z</time>
      </trkpt>
      <trkpt lat="45.67503" lon="5.73301">
        <ele>441</ele>
        <time>2017-05-26T17:27:00Z</time>
      </trkpt>
      <trkpt lat="45.67505" lon="5.73297">
        <ele>441</ele>
        <time>2017-05-26T17:27:00Z</time>
      </trkpt>
      <trkpt lat="45.67509" lon="5.73293">
        <ele>441</ele>
        <time>2017-05-26T17:27:00Z</time>
      </trkpt>
      <trkpt lat="45.67512" lon="5.73288">
        <ele>449</ele>
        <time>2017-05-26T17:27:00Z</time>
      </trkpt>
      <trkpt lat="45.67517" lon="5.73283">
        <ele>449</ele>
        <time>2017-05-26T17:27:16Z</time>
      </trkpt>
      <trkpt lat="45.67522" lon="5.73278">
        <ele>449</ele>
        <time>2017-05-26T17:27:16Z</time>
      </trkpt>
      <trkpt lat="45.67527" lon="5.73273">
        <ele>449</ele>
        <time>2017-05-26T17:27:16Z</time>
      </trkpt>
      <trkpt lat="45.6753" lon="5.73264">
        <ele>449</ele>
        <time>2017-05-26T17:27:16Z</time>
      </trkpt>
      <trkpt lat="45.6753" lon="5.73256">
        <ele>449</ele>
        <time>2017-05-26T17:27:32Z</time>
      </trkpt>
      <trkpt lat="45.67531" lon="5.73248">
        <ele>449</ele>
        <time>2017-05-26T17:27:32Z</time>
      </trkpt>
      <trkpt lat="45.67531" lon="5.73242">
        <ele>449</ele>
        <time>2017-05-26T17:27:32Z</time>
      </trkpt>
      <trkpt lat="45.67532" lon="5.73234">
        <ele>449</ele>
        <time>2017-05-26T17:27:32Z</time>
      </trkpt>
      <trkpt lat="45.6753" lon="5.73228">
        <ele>449</ele>
        <time>2017-05-26T17:27:48Z</time>
      </trkpt>
      <trkpt lat="45.67524" lon="5.73223">
        <ele>449</ele>
        <time>2017-05-26T17:27:48Z</time>
      </trkpt>
      <trkpt lat="45.67519" lon="5.73222">
        <ele>449</ele>
        <time>2017-05-26T17:27:48Z</time>
      </trkpt>
      <trkpt lat="45.67513" lon="5.73224">
        <ele>449</ele>
        <time>2017-05-26T17:27:48Z</time>
      </trkpt>
      <trkpt lat="45.67507" lon="5.73222">
        <ele>449</ele>
        <time>2017-05-26T17:28:04Z</time>
      </trkpt>
      <trkpt lat="45.67502" lon="5.73217">
        <ele>449</ele>
        <time>2017-05-26T17:28:04Z</time>
      </trkpt>
      <trkpt lat="45.67497" lon="5.73218">
        <ele>449</ele>
        <time>2017-05-26T17:28:04Z</time>
      </trkpt>
      <trkpt lat="45.67493" lon="5.73221">
        <ele>449</ele>
        <time>2017-05-26T17:28:04Z</time>
      </trkpt>
      <trkpt lat="45.67486" lon="5.73219">
        <ele>449</ele>
        <time>2017-05-26T17:28:20Z</time>
      </trkpt>
      <trkpt lat="45.6748" lon="5.73217">
        <ele>449</ele>
        <time>2017-05-26T17:28:20Z</time>
      </trkpt>
      <trkpt lat="45.67475" lon="5.73212">
        <ele>449</ele>
        <time>2017-05-26T17:28:20Z</time>
      </trkpt>
      <trkpt lat="45.67468" lon="5.73206">
        <ele>458</ele>
        <time>2017-05-26T17:28:20Z</time>
      </trkpt>
      <trkpt lat="45.67462" lon="5.73202">
        <ele>458</ele>
        <time>2017-05-26T17:28:36Z</time>
      </trkpt>
      <trkpt lat="45.67456" lon="5.732">
        <ele>459</ele>
        <time>2017-05-26T17:28:36Z</time>
      </trkpt>
      <trkpt lat="45.6745" lon="5.732">
        <ele>459</ele>
        <time>2017-05-26T17:28:36Z</time>
      </trkpt>
      <trkpt lat="45.67444" lon="5.73202">
        <ele>459</ele>
        <time>2017-05-26T17:28:36Z</time>
      </trkpt>
      <trkpt lat="45.67438" lon="5.732">
        <ele>459</ele>
        <time>2017-05-26T17:28:52Z</time>
      </trkpt>
      <trkpt lat="45.67432" lon="5.73198">
        <ele>459</ele>
        <time>2017-05-26T17:28:52Z</time>
      </trkpt>
      <trkpt lat="45.67427" lon="5.73196">
        <ele>459</ele>
        <time>2017-05-26T17:28:52Z</time>
      </trkpt>
      <trkpt lat="45.67422" lon="5.73194">
        <ele>459</ele>
        <time>2017-05-26T17:28:52Z</time>
      </trkpt>
      <trkpt lat="45.67417" lon="5.73192">
        <ele>459</ele>
        <time>2017-05-26T17:29:08Z</time>
      </trkpt>
      <trkpt lat="45.67411" lon="5.7319">
        <ele>459</ele>
        <time>2017-05-26T17:29:08Z</time>
      </trkpt>
      <trkpt lat="45.67405" lon="5.73187">
        <ele>459</ele>
        <time>2017-05-26T17:29:08Z</time>
      </trkpt>
      <trkpt lat="45.674" lon="5.73184">
        <ele>459</ele>
        <time>2017-05-26T17:29:08Z</time>
      </trkpt>
      <trkpt lat="45.67394" lon="5.73183">
        <ele>459</ele>
        <time>2017-05-26T17:29:24Z</time>
      </trkpt>
      <trkpt lat="45.67389" lon="5.73183">
        <ele>459</ele>
        <time>2017-05-26T17:29:24Z</time>
      </trkpt>
      <trkpt lat="45.67385" lon="5.73181">
        <ele>459</ele>
        <time>2017-05-26T17:29:24Z</time>
      </trkpt>
      <trkpt lat="45.6738" lon="5.73178">
        <ele>459</ele>
        <time>2017-05-26T17:29:24Z</time>
      </trkpt>
      <trkpt lat="45.67375" lon="5.73175">
        <ele>459</ele>
        <time>2017-05-26T17:29:40Z</time>
      </trkpt>
      <trkpt lat="45.67371" lon="5.7317">
        <ele>462</ele>
        <time>2017-05-26T17:29:40Z</time>
      </trkpt>
      <trkpt lat="45.67367" lon="5.73165">
        <ele>462</ele>
        <time>2017-05-26T17:29:40Z</time>
      </trkpt>
      <trkpt lat="45.67362" lon="5.73159">
        <ele>462</ele>
        <time>2017-05-26T17:29:40Z</time>
      </trkpt>
      <trkpt lat="45.67358" lon="5.73154">
        <ele>462</ele>
        <time>2017-05-26T17:29:56Z</time>
      </trkpt>
      <trkpt lat="45.67354" lon="5.73148">
        <ele>462</ele>
        <time>2017-05-26T17:29:56Z</time>
      </trkpt>
      <trkpt lat="45.67349" lon="5.73143">
        <ele>462</ele>
        <time>2017-05-26T17:29:56Z</time>
      </trkpt>
      <trkpt lat="45.67344" lon="5.73141">
        <ele>462</ele>
        <time>2017-05-26T17:29:56Z</time>
      </trkpt>
      <trkpt lat="45.6734" lon="5.73133">
        <ele>462</ele>
        <time>2017-05-26T17:30:12Z</time>
      </trkpt>
      <trkpt lat="45.67335" lon="5.73128">
        <ele>462</ele>
        <time>2017-05-26T17:30:12Z</time>
      </trkpt>
      <trkpt lat="45.67331" lon="5.73123">
        <ele>471</ele>
        <time>2017-05-26T17:30:12Z</time>
      </trkpt>
      <trkpt lat="45.67326" lon="5.73118">
        <ele>471</ele>
        <time>2017-05-26T17:30:12Z</time>
      </trkpt>
      <trkpt lat="45.67321" lon="5.73113">
        <ele>471</ele>
        <time>2017-05-26T17:30:28Z</time>
      </trkpt>
      <trkpt lat="45.67316" lon="5.7311">
        <ele>471</ele>
        <time>2017-05-26T17:30:28Z</time>
      </trkpt>
      <trkpt lat="45.6731" lon="5.73109">
        <ele>471</ele>
        <time>2017-05-26T17:30:28Z</time>
      </trkpt>
      <trkpt lat="45.67305" lon="5.7311">
        <ele>471</ele>
        <time>2017-05-26T17:30:28Z</time>
      </trkpt>
      <trkpt lat="45.673" lon="5.73113">
        <ele>471</ele>
        <time>2017-05-26T17:30:44Z</time>
      </trkpt>
      <trkpt lat="45.67296" lon="5.73115">
        <ele>471</ele>
        <time>2017-05-26T17:30:44Z</time>
      </trkpt>
      <trkpt lat="45.67291" lon="5.73119">
        <ele>470</ele>
        <time>2017-05-26T17:30:44Z</time>
      </trkpt>
      <trkpt lat="45.67285" lon="5.73124">
        <ele>470</ele>
        <time>2017-05-26T17:30:44Z</time>
      </trkpt>
      <trkpt lat="45.67279" lon="5.73129">
        <ele>463</ele>
        <time>2017-05-26T17:31:00Z</time>
      </trkpt>
      <trkpt lat="45.67274" lon="5.73131">
        <ele>463</ele>
        <time>2017-05-26T17:31:00Z</time>
      </trkpt>
      <trkpt lat="45.67269" lon="5.73132">
        <ele>463</ele>
        <time>2017-05-26T17:31:00Z</time>
      </trkpt>
      <trkpt lat="45.67264" lon="5.73133">
        <ele>463</ele>
        <time>2017-05-26T17:31:00Z</time>
      </trkpt>
      <trkpt lat="45.67258" lon="5.73134">
        <ele>463</ele>
        <time>2017-05-26T17:31:16Z</time>
      </trkpt>
      <trkpt lat="45.67253" lon="5.73134">
        <ele>463</ele>
        <time>2017-05-26T17:31:16Z</time>
      </trkpt>
      <trkpt lat="45.67248" lon="5.73134">
        <ele>463</ele>
        <time>2017-05-26T17:31:16Z</time>
      </trkpt>
      <trkpt lat="45.67242" lon="5.73131">
        <ele>463</ele>
        <time>2017-05-26T17:31:16Z</time>
      </trkpt>
      <trkpt lat="45.67235" lon="5.73131">
        <ele>463</ele>
        <time>2017-05-26T17:31:32Z</time>
      </trkpt>
      <trkpt lat="45.67228" lon="5.7313">
        <ele>463</ele>
        <time>2017-05-26T17:31:32Z</time>
      </trkpt>
      <trkpt lat="45.67223" lon="5.73129">
        <ele>463</ele>
        <time>2017-05-26T17:31:32Z</time>
      </trkpt>
      <trkpt lat="45.67217" lon="5.73127">
        <ele>463</ele>
        <time>2017-05-26T17:31:32Z</time>
      </trkpt>
      <trkpt lat="45.67211" lon="5.73124">
        <ele>470</ele>
        <time>2017-05-26T17:31:48Z</time>
      </trkpt>
      <trkpt lat="45.67206" lon="5.73127">
        <ele>466</ele>
        <time>2017-05-26T17:31:48Z</time>
      </trkpt>
      <trkpt lat="45.67201" lon="5.7313">
        <ele>466</ele>
        <time>2017-05-26T17:31:48Z</time>
      </trkpt>
      <trkpt lat="45.67195" lon="5.73132">
        <ele>466</ele>
        <time>2017-05-26T17:31:48Z</time>
      </trkpt>
      <trkpt lat="45.67189" lon="5.73132">
        <ele>466</ele>
        <time>2017-05-26T17:32:04Z</time>
      </trkpt>
      <trkpt lat="45.67183" lon="5.73132">
        <ele>466</ele>
        <time>2017-05-26T17:32:04Z</time>
      </trkpt>
      <trkpt lat="45.67178" lon="5.73132">
        <ele>466</ele>
        <time>2017-05-26T17:32:04Z</time>
      </trkpt>
      <trkpt lat="45.67173" lon="5.73131">
        <ele>466</ele>
        <time>2017-05-26T17:32:04Z</time>
      </trkpt>
      <trkpt lat="45.67172" lon="5.73127">
        <ele>466</ele>
        <time>2017-05-26T17:32:20Z</time>
      </trkpt>
      <trkpt lat="45.67167" lon="5.7312">
        <ele>468</ele>
        <time>2017-05-26T17:32:20Z</time>
      </trkpt>
      <trkpt lat="45.67162" lon="5.73114">
        <ele>468</ele>
        <time>2017-05-26T17:32:20Z</time>
      </trkpt>
      <trkpt lat="45.67156" lon="5.73109">
        <ele>468</ele>
        <time>2017-05-26T17:32:20Z</time>
      </trkpt>
      <trkpt lat="45.6715" lon="5.73099">
        <ele>468</ele>
        <time>2017-05-26T17:32:36Z</time>
      </trkpt>
      <trkpt lat="45.67144" lon="5.73094">
        <ele>468</ele>
        <time>2017-05-26T17:32:36Z</time>
      </trkpt>
      <trkpt lat="45.67138" lon="5.73091">
        <ele>468</ele>
        <time>2017-05-26T17:32:36Z</time>
      </trkpt>
      <trkpt lat="45.67133" lon="5.73087">
        <ele>468</ele>
        <time>2017-05-26T17:32:36Z</time>
      </trkpt>
      <trkpt lat="45.67133" lon="5.73093">
        <ele>468</ele>
        <time>2017-05-26T17:33:00Z</time>
      </trkpt>
      <trkpt lat="45.67134" lon="5.73095">
        <ele>468</ele>
        <time>2017-05-26T17:33:00Z</time>
      </trkpt>
      <trkpt lat="45.67135" lon="5.73096">
        <ele>468</ele>
        <time>2017-05-26T17:33:00Z</time>
      </trkpt>
      <trkpt lat="45.67135" lon="5.731">
        <ele>468</ele>
        <time>2017-05-26T17:33:00Z</time>
      </trkpt>
      <trkpt lat="45.67135" lon="5.73104">
        <ele>468</ele>
        <time>2017-05-26T17:33:00Z</time>
      </trkpt>
      <trkpt lat="45.67133" lon="5.73114">
        <ele>468</ele>
        <time>2017-05-26T17:33:16Z</time>
      </trkpt>
      <trkpt lat="45.67129" lon="5.73121">
        <ele>468</ele>
        <time>2017-05-26T17:33:16Z</time>
      </trkpt>
      <trkpt lat="45.67125" lon="5.73127">
        <ele>469</ele>
        <time>2017-05-26T17:33:16Z</time>
      </trkpt>
      <trkpt lat="45.6712" lon="5.73133">
        <ele>469</ele>
        <time>2017-05-26T17:33:16Z</time>
      </trkpt>
      <trkpt lat="45.67115" lon="5.73141">
        <ele>469</ele>
        <time>2017-05-26T17:33:32Z</time>
      </trkpt>
      <trkpt lat="45.67112" lon="5.73147">
        <ele>469</ele>
        <time>2017-05-26T17:33:32Z</time>
      </trkpt>
      <trkpt lat="45.6711" lon="5.7315">
        <ele>469</ele>
        <time>2017-05-26T17:33:32Z</time>
      </trkpt>
      <trkpt lat="45.67107" lon="5.73155">
        <ele>469</ele>
        <time>2017-05-26T17:33:32Z</time>
      </trkpt>
      <trkpt lat="45.67104" lon="5.73161">
        <ele>469</ele>
        <time>2017-05-26T17:33:48Z</time>
      </trkpt>
      <trkpt lat="45.67099" lon="5.73169">
        <ele>469</ele>
        <time>2017-05-26T17:33:48Z</time>
      </trkpt>
      <trkpt lat="45.67095" lon="5.73177">
        <ele>469</ele>
        <time>2017-05-26T17:33:48Z</time>
      </trkpt>
      <trkpt lat="45.67091" lon="5.73184">
        <ele>469</ele>
        <time>2017-05-26T17:33:48Z</time>
      </trkpt>
      <trkpt lat="45.67087" lon="5.73191">
        <ele>469</ele>
        <time>2017-05-26T17:34:04Z</time>
      </trkpt>
      <trkpt lat="45.67084" lon="5.73197">
        <ele>469</ele>
        <time>2017-05-26T17:34:04Z</time>
      </trkpt>
      <trkpt lat="45.6708" lon="5.73202">
        <ele>469</ele>
        <time>2017-05-26T17:34:04Z</time>
      </trkpt>
      <trkpt lat="45.67077" lon="5.73209">
        <ele>466</ele>
        <time>2017-05-26T17:34:04Z</time>
      </trkpt>
      <trkpt lat="45.67076" lon="5.73218">
        <ele>466</ele>
        <time>2017-05-26T17:34:20Z</time>
      </trkpt>
      <trkpt lat="45.67073" lon="5.73225">
        <ele>466</ele>
        <time>2017-05-26T17:34:20Z</time>
      </trkpt>
      <trkpt lat="45.67071" lon="5.73233">
        <ele>466</ele>
        <time>2017-05-26T17:34:20Z</time>
      </trkpt>
      <trkpt lat="45.67069" lon="5.73239">
        <ele>466</ele>
        <time>2017-05-26T17:34:20Z</time>
      </trkpt>
      <trkpt lat="45.67067" lon="5.73245">
        <ele>466</ele>
        <time>2017-05-26T17:34:36Z</time>
      </trkpt>
      <trkpt lat="45.67064" lon="5.73252">
        <ele>466</ele>
        <time>2017-05-26T17:34:36Z</time>
      </trkpt>
      <trkpt lat="45.67061" lon="5.73259">
        <ele>466</ele>
        <time>2017-05-26T17:34:36Z</time>
      </trkpt>
      <trkpt lat="45.6706" lon="5.73266">
        <ele>466</ele>
        <time>2017-05-26T17:34:36Z</time>
      </trkpt>
      <trkpt lat="45.67059" lon="5.73271">
        <ele>466</ele>
        <time>2017-05-26T17:34:52Z</time>
      </trkpt>
      <trkpt lat="45.67056" lon="5.73278">
        <ele>466</ele>
        <time>2017-05-26T17:34:52Z</time>
      </trkpt>
      <trkpt lat="45.67054" lon="5.73285">
        <ele>466</ele>
        <time>2017-05-26T17:34:52Z</time>
      </trkpt>
      <trkpt lat="45.67051" lon="5.73293">
        <ele>462</ele>
        <time>2017-05-26T17:34:52Z</time>
      </trkpt>
      <trkpt lat="45.6705" lon="5.73301">
        <ele>462</ele>
        <time>2017-05-26T17:35:08Z</time>
      </trkpt>
      <trkpt lat="45.67049" lon="5.73309">
        <ele>462</ele>
        <time>2017-05-26T17:35:08Z</time>
      </trkpt>
      <trkpt lat="45.67049" lon="5.73317">
        <ele>462</ele>
        <time>2017-05-26T17:35:08Z</time>
      </trkpt>
      <trkpt lat="45.67049" lon="5.73324">
        <ele>462</ele>
        <time>2017-05-26T17:35:08Z</time>
      </trkpt>
      <trkpt lat="45.67048" lon="5.73333">
        <ele>462</ele>
        <time>2017-05-26T17:35:24Z</time>
      </trkpt>
      <trkpt lat="45.67045" lon="5.73342">
        <ele>462</ele>
        <time>2017-05-26T17:35:24Z</time>
      </trkpt>
      <trkpt lat="45.67043" lon="5.73351">
        <ele>462</ele>
        <time>2017-05-26T17:35:24Z</time>
      </trkpt>
      <trkpt lat="45.67041" lon="5.73359">
        <ele>467</ele>
        <time>2017-05-26T17:35:24Z</time>
      </trkpt>
      <trkpt lat="45.67039" lon="5.73367">
        <ele>467</ele>
        <time>2017-05-26T17:35:40Z</time>
      </trkpt>
      <trkpt lat="45.67037" lon="5.73374">
        <ele>467</ele>
        <time>2017-05-26T17:35:40Z</time>
      </trkpt>
      <trkpt lat="45.67036" lon="5.73382">
        <ele>476</ele>
        <time>2017-05-26T17:35:40Z</time>
      </trkpt>
      <trkpt lat="45.67036" lon="5.7339">
        <ele>476</ele>
        <time>2017-05-26T17:35:40Z</time>
      </trkpt>
      <trkpt lat="45.67038" lon="5.73397">
        <ele>476</ele>
        <time>2017-05-26T17:35:56Z</time>
      </trkpt>
      <trkpt lat="45.6704" lon="5.73405">
        <ele>476</ele>
        <time>2017-05-26T17:35:56Z</time>
      </trkpt>
      <trkpt lat="45.67043" lon="5.73414">
        <ele>462</ele>
        <time>2017-05-26T17:35:56Z</time>
      </trkpt>
      <trkpt lat="45.67046" lon="5.73422">
        <ele>462</ele>
        <time>2017-05-26T17:35:56Z</time>
      </trkpt>
      <trkpt lat="45.67049" lon="5.73431">
        <ele>462</ele>
        <time>2017-05-26T17:36:12Z</time>
      </trkpt>
      <trkpt lat="45.6705" lon="5.73434">
        <ele>462</ele>
        <time>2017-05-26T17:36:12Z</time>
      </trkpt>
      <trkpt lat="45.67053" lon="5.7344">
        <ele>462</ele>
        <time>2017-05-26T17:36:12Z</time>
      </trkpt>
      <trkpt lat="45.67057" lon="5.73447">
        <ele>462</ele>
        <time>2017-05-26T17:36:12Z</time>
      </trkpt>
      <trkpt lat="45.67061" lon="5.73454">
        <ele>462</ele>
        <time>2017-05-26T17:36:28Z</time>
      </trkpt>
      <trkpt lat="45.67063" lon="5.73464">
        <ele>468</ele>
        <time>2017-05-26T17:36:28Z</time>
      </trkpt>
      <trkpt lat="45.67065" lon="5.73475">
        <ele>468</ele>
        <time>2017-05-26T17:36:28Z</time>
      </trkpt>
      <trkpt lat="45.67067" lon="5.73484">
        <ele>468</ele>
        <time>2017-05-26T17:36:28Z</time>
      </trkpt>
      <trkpt lat="45.67068" lon="5.73493">
        <ele>468</ele>
        <time>2017-05-26T17:36:44Z</time>
      </trkpt>
      <trkpt lat="45.67068" lon="5.73495">
        <ele>468</ele>
        <time>2017-05-26T17:36:44Z</time>
      </trkpt>
      <trkpt lat="45.67069" lon="5.73501">
        <ele>468</ele>
        <time>2017-05-26T17:36:44Z</time>
      </trkpt>
      <trkpt lat="45.67071" lon="5.7351">
        <ele>468</ele>
        <time>2017-05-26T17:36:44Z</time>
      </trkpt>
      <trkpt lat="45.67074" lon="5.73517">
        <ele>468</ele>
        <time>2017-05-26T17:37:00Z</time>
      </trkpt>
      <trkpt lat="45.67076" lon="5.73524">
        <ele>468</ele>
        <time>2017-05-26T17:37:00Z</time>
      </trkpt>
      <trkpt lat="45.67078" lon="5.73533">
        <ele>468</ele>
        <time>2017-05-26T17:37:00Z</time>
      </trkpt>
      <trkpt lat="45.67077" lon="5.73535">
        <ele>468</ele>
        <time>2017-05-26T17:37:00Z</time>
      </trkpt>
      <trkpt lat="45.67074" lon="5.73533">
        <ele>468</ele>
        <time>2017-05-26T17:37:16Z</time>
      </trkpt>
      <trkpt lat="45.67071" lon="5.73529">
        <ele>468</ele>
        <time>2017-05-26T17:37:16Z</time>
      </trkpt>
      <trkpt lat="45.67068" lon="5.73522">
        <ele>468</ele>
        <time>2017-05-26T17:37:16Z</time>
      </trkpt>
      <trkpt lat="45.67063" lon="5.73518">
        <ele>468</ele>
        <time>2017-05-26T17:37:16Z</time>
      </trkpt>
      <trkpt lat="45.6706" lon="5.73515">
        <ele>468</ele>
        <time>2017-05-26T17:37:32Z</time>
      </trkpt>
      <trkpt lat="45.67056" lon="5.73511">
        <ele>468</ele>
        <time>2017-05-26T17:37:32Z</time>
      </trkpt>
      <trkpt lat="45.67051" lon="5.73504">
        <ele>468</ele>
        <time>2017-05-26T17:37:32Z</time>
      </trkpt>
      <trkpt lat="45.67048" lon="5.735">
        <ele>468</ele>
        <time>2017-05-26T17:37:32Z</time>
      </trkpt>
      <trkpt lat="45.67045" lon="5.73496">
        <ele>468</ele>
        <time>2017-05-26T17:37:48Z</time>
      </trkpt>
      <trkpt lat="45.67042" lon="5.73492">
        <ele>468</ele>
        <time>2017-05-26T17:37:48Z</time>
      </trkpt>
      <trkpt lat="45.67035" lon="5.73488">
        <ele>479</ele>
        <time>2017-05-26T17:37:48Z</time>
      </trkpt>
      <trkpt lat="45.67026" lon="5.73481">
        <ele>479</ele>
        <time>2017-05-26T17:37:48Z</time>
      </trkpt>
      <trkpt lat="45.67013" lon="5.73468">
        <ele>479</ele>
        <time>2017-05-26T17:38:04Z</time>
      </trkpt>
      <trkpt lat="45.67007" lon="5.7346">
        <ele>479</ele>
        <time>2017-05-26T17:38:04Z</time>
      </trkpt>
      <trkpt lat="45.67003" lon="5.73454">
        <ele>476</ele>
        <time>2017-05-26T17:38:04Z</time>
      </trkpt>
      <trkpt lat="45.66998" lon="5.73449">
        <ele>476</ele>
        <time>2017-05-26T17:38:04Z</time>
      </trkpt>
      <trkpt lat="45.66992" lon="5.73443">
        <ele>476</ele>
        <time>2017-05-26T17:38:20Z</time>
      </trkpt>
      <trkpt lat="45.66988" lon="5.73438">
        <ele>476</ele>
        <time>2017-05-26T17:38:20Z</time>
      </trkpt>
      <trkpt lat="45.66985" lon="5.73432">
        <ele>476</ele>
        <time>2017-05-26T17:38:20Z</time>
      </trkpt>
      <trkpt lat="45.66982" lon="5.73429">
        <ele>476</ele>
        <time>2017-05-26T17:38:20Z</time>
      </trkpt>
      <trkpt lat="45.66978" lon="5.73424">
        <ele>476</ele>
        <time>2017-05-26T17:38:36Z</time>
      </trkpt>
      <trkpt lat="45.66974" lon="5.73415">
        <ele>476</ele>
        <time>2017-05-26T17:38:36Z</time>
      </trkpt>
      <trkpt lat="45.6697" lon="5.73409">
        <ele>476</ele>
        <time>2017-05-26T17:38:36Z</time>
      </trkpt>
      <trkpt lat="45.66964" lon="5.73402">
        <ele>476</ele>
        <time>2017-05-26T17:38:36Z</time>
      </trkpt>
      <trkpt lat="45.6696" lon="5.73392">
        <ele>476</ele>
        <time>2017-05-26T17:38:52Z</time>
      </trkpt>
      <trkpt lat="45.66953" lon="5.73383">
        <ele>487</ele>
        <time>2017-05-26T17:38:52Z</time>
      </trkpt>
      <trkpt lat="45.66945" lon="5.73377">
        <ele>487</ele>
        <time>2017-05-26T17:38:52Z</time>
      </trkpt>
      <trkpt lat="45.66938" lon="5.73373">
        <ele>482</ele>
        <time>2017-05-26T17:38:52Z</time>
      </trkpt>
      <trkpt lat="45.66931" lon="5.73371">
        <ele>482</ele>
        <time>2017-05-26T17:39:08Z</time>
      </trkpt>
      <trkpt lat="45.66926" lon="5.73367">
        <ele>482</ele>
        <time>2017-05-26T17:39:08Z</time>
      </trkpt>
      <trkpt lat="45.66922" lon="5.73363">
        <ele>482</ele>
        <time>2017-05-26T17:39:08Z</time>
      </trkpt>
      <trkpt lat="45.66917" lon="5.73358">
        <ele>482</ele>
        <time>2017-05-26T17:39:08Z</time>
      </trkpt>
      <trkpt lat="45.66912" lon="5.73351">
        <ele>482</ele>
        <time>2017-05-26T17:39:24Z</time>
      </trkpt>
      <trkpt lat="45.66907" lon="5.73347">
        <ele>482</ele>
        <time>2017-05-26T17:39:24Z</time>
      </trkpt>
      <trkpt lat="45.66902" lon="5.7334">
        <ele>482</ele>
        <time>2017-05-26T17:39:24Z</time>
      </trkpt>
      <trkpt lat="45.66897" lon="5.73336">
        <ele>482</ele>
        <time>2017-05-26T17:39:24Z</time>
      </trkpt>
      <trkpt lat="45.66893" lon="5.73333">
        <ele>482</ele>
        <time>2017-05-26T17:39:40Z</time>
      </trkpt>
      <trkpt lat="45.66889" lon="5.73328">
        <ele>482</ele>
        <time>2017-05-26T17:39:40Z</time>
      </trkpt>
      <trkpt lat="45.66884" lon="5.73325">
        <ele>482</ele>
        <time>2017-05-26T17:39:40Z</time>
      </trkpt>
      <trkpt lat="45.66879" lon="5.73321">
        <ele>482</ele>
        <time>2017-05-26T17:39:40Z</time>
      </trkpt>
      <trkpt lat="45.66871" lon="5.73319">
        <ele>492</ele>
        <time>2017-05-26T17:39:56Z</time>
      </trkpt>
      <trkpt lat="45.66864" lon="5.73318">
        <ele>492</ele>
        <time>2017-05-26T17:39:56Z</time>
      </trkpt>
      <trkpt lat="45.66857" lon="5.73316">
        <ele>492</ele>
        <time>2017-05-26T17:39:56Z</time>
      </trkpt>
      <trkpt lat="45.66851" lon="5.73309">
        <ele>492</ele>
        <time>2017-05-26T17:39:56Z</time>
      </trkpt>
      <trkpt lat="45.66845" lon="5.73302">
        <ele>492</ele>
        <time>2017-05-26T17:40:12Z</time>
      </trkpt>
      <trkpt lat="45.66841" lon="5.73294">
        <ele>492</ele>
        <time>2017-05-26T17:40:12Z</time>
      </trkpt>
      <trkpt lat="45.66835" lon="5.73288">
        <ele>482</ele>
        <time>2017-05-26T17:40:12Z</time>
      </trkpt>
      <trkpt lat="45.66829" lon="5.73284">
        <ele>482</ele>
        <time>2017-05-26T17:40:12Z</time>
      </trkpt>
      <trkpt lat="45.66824" lon="5.73283">
        <ele>482</ele>
        <time>2017-05-26T17:40:44Z</time>
      </trkpt>
      <trkpt lat="45.66827" lon="5.73287">
        <ele>482</ele>
        <time>2017-05-26T17:40:44Z</time>
      </trkpt>
      <trkpt lat="45.66831" lon="5.73293">
        <ele>492</ele>
        <time>2017-05-26T17:40:44Z</time>
      </trkpt>
      <trkpt lat="45.66837" lon="5.733">
        <ele>492</ele>
        <time>2017-05-26T17:40:44Z</time>
      </trkpt>
      <trkpt lat="45.66844" lon="5.73307">
        <ele>492</ele>
        <time>2017-05-26T17:40:44Z</time>
      </trkpt>
      <trkpt lat="45.66846" lon="5.73315">
        <ele>492</ele>
        <time>2017-05-26T17:41:00Z</time>
      </trkpt>
      <trkpt lat="45.6685" lon="5.73321">
        <ele>492</ele>
        <time>2017-05-26T17:41:00Z</time>
      </trkpt>
      <trkpt lat="45.66852" lon="5.73328">
        <ele>492</ele>
        <time>2017-05-26T17:41:00Z</time>
      </trkpt>
      <trkpt lat="45.66854" lon="5.73335">
        <ele>492</ele>
        <time>2017-05-26T17:41:00Z</time>
      </trkpt>
      <trkpt lat="45.66856" lon="5.73342">
        <ele>492</ele>
        <time>2017-05-26T17:41:16Z</time>
      </trkpt>
      <trkpt lat="45.66857" lon="5.73349">
        <ele>492</ele>
        <time>2017-05-26T17:41:16Z</time>
      </trkpt>
      <trkpt lat="45.66857" lon="5.73357">
        <ele>492</ele>
        <time>2017-05-26T17:41:16Z</time>
      </trkpt>
      <trkpt lat="45.66856" lon="5.73365">
        <ele>492</ele>
        <time>2017-05-26T17:41:16Z</time>
      </trkpt>
      <trkpt lat="45.6685" lon="5.73374">
        <ele>492</ele>
        <time>2017-05-26T17:41:32Z</time>
      </trkpt>
      <trkpt lat="45.66844" lon="5.73383">
        <ele>496</ele>
        <time>2017-05-26T17:41:32Z</time>
      </trkpt>
      <trkpt lat="45.66839" lon="5.73389">
        <ele>496</ele>
        <time>2017-05-26T17:41:32Z</time>
      </trkpt>
      <trkpt lat="45.66835" lon="5.73396">
        <ele>496</ele>
        <time>2017-05-26T17:41:32Z</time>
      </trkpt>
      <trkpt lat="45.66831" lon="5.73402">
        <ele>496</ele>
        <time>2017-05-26T17:41:48Z</time>
      </trkpt>
      <trkpt lat="45.66826" lon="5.73406">
        <ele>496</ele>
        <time>2017-05-26T17:41:48Z</time>
      </trkpt>
      <trkpt lat="45.6682" lon="5.73408">
        <ele>496</ele>
        <time>2017-05-26T17:41:48Z</time>
      </trkpt>
      <trkpt lat="45.66813" lon="5.73412">
        <ele>496</ele>
        <time>2017-05-26T17:41:48Z</time>
      </trkpt>
      <trkpt lat="45.66807" lon="5.73415">
        <ele>496</ele>
        <time>2017-05-26T17:42:04Z</time>
      </trkpt>
      <trkpt lat="45.66801" lon="5.73417">
        <ele>496</ele>
        <time>2017-05-26T17:42:04Z</time>
      </trkpt>
      <trkpt lat="45.66796" lon="5.73416">
        <ele>496</ele>
        <time>2017-05-26T17:42:04Z</time>
      </trkpt>
      <trkpt lat="45.66792" lon="5.73414">
        <ele>496</ele>
        <time>2017-05-26T17:42:04Z</time>
      </trkpt>
      <trkpt lat="45.66785" lon="5.73413">
        <ele>504</ele>
        <time>2017-05-26T17:42:20Z</time>
      </trkpt>
      <trkpt lat="45.66778" lon="5.7341">
        <ele>504</ele>
        <time>2017-05-26T17:42:20Z</time>
      </trkpt>
      <trkpt lat="45.6677" lon="5.73409">
        <ele>504</ele>
        <time>2017-05-26T17:42:20Z</time>
      </trkpt>
      <trkpt lat="45.66766" lon="5.73405">
        <ele>504</ele>
        <time>2017-05-26T17:42:20Z</time>
      </trkpt>
      <trkpt lat="45.66761" lon="5.73401">
        <ele>504</ele>
        <time>2017-05-26T17:42:36Z</time>
      </trkpt>
      <trkpt lat="45.66755" lon="5.73402">
        <ele>504</ele>
        <time>2017-05-26T17:42:36Z</time>
      </trkpt>
      <trkpt lat="45.66751" lon="5.73402">
        <ele>504</ele>
        <time>2017-05-26T17:42:36Z</time>
      </trkpt>
      <trkpt lat="45.66745" lon="5.734">
        <ele>504</ele>
        <time>2017-05-26T17:42:36Z</time>
      </trkpt>
      <trkpt lat="45.6674" lon="5.73398">
        <ele>504</ele>
        <time>2017-05-26T17:42:52Z</time>
      </trkpt>
      <trkpt lat="45.66736" lon="5.73396">
        <ele>504</ele>
        <time>2017-05-26T17:42:52Z</time>
      </trkpt>
      <trkpt lat="45.66731" lon="5.73392">
        <ele>504</ele>
        <time>2017-05-26T17:42:52Z</time>
      </trkpt>
      <trkpt lat="45.66726" lon="5.73389">
        <ele>504</ele>
        <time>2017-05-26T17:42:52Z</time>
      </trkpt>
      <trkpt lat="45.66721" lon="5.73384">
        <ele>504</ele>
        <time>2017-05-26T17:43:08Z</time>
      </trkpt>
      <trkpt lat="45.66716" lon="5.7338">
        <ele>504</ele>
        <time>2017-05-26T17:43:08Z</time>
      </trkpt>
      <trkpt lat="45.66709" lon="5.73376">
        <ele>504</ele>
        <time>2017-05-26T17:43:08Z</time>
      </trkpt>
      <trkpt lat="45.66705" lon="5.73369">
        <ele>494</ele>
        <time>2017-05-26T17:43:08Z</time>
      </trkpt>
      <trkpt lat="45.66701" lon="5.73363">
        <ele>494</ele>
        <time>2017-05-26T17:43:24Z</time>
      </trkpt>
      <trkpt lat="45.66697" lon="5.73358">
        <ele>494</ele>
        <time>2017-05-26T17:43:24Z</time>
      </trkpt>
      <trkpt lat="45.66695" lon="5.73351">
        <ele>494</ele>
        <time>2017-05-26T17:43:24Z</time>
      </trkpt>
      <trkpt lat="45.66691" lon="5.73344">
        <ele>494</ele>
        <time>2017-05-26T17:43:24Z</time>
      </trkpt>
      <trkpt lat="45.66687" lon="5.73338">
        <ele>494</ele>
        <time>2017-05-26T17:43:40Z</time>
      </trkpt>
      <trkpt lat="45.6668" lon="5.73328">
        <ele>494</ele>
        <time>2017-05-26T17:43:40Z</time>
      </trkpt>
      <trkpt lat="45.66675" lon="5.73321">
        <ele>494</ele>
        <time>2017-05-26T17:43:40Z</time>
      </trkpt>
      <trkpt lat="45.6667" lon="5.73316">
        <ele>494</ele>
        <time>2017-05-26T17:43:40Z</time>
      </trkpt>
      <trkpt lat="45.66664" lon="5.73308">
        <ele>494</ele>
        <time>2017-05-26T17:43:56Z</time>
      </trkpt>
      <trkpt lat="45.6666" lon="5.73303">
        <ele>494</ele>
        <time>2017-05-26T17:43:56Z</time>
      </trkpt>
      <trkpt lat="45.66655" lon="5.73299">
        <ele>494</ele>
        <time>2017-05-26T17:43:56Z</time>
      </trkpt>
      <trkpt lat="45.66649" lon="5.73294">
        <ele>494</ele>
        <time>2017-05-26T17:43:56Z</time>
      </trkpt>
      <trkpt lat="45.66645" lon="5.73291">
        <ele>489</ele>
        <time>2017-05-26T17:45:00Z</time>
      </trkpt>
      <trkpt lat="45.66647" lon="5.73291">
        <ele>489</ele>
        <time>2017-05-26T17:45:00Z</time>
      </trkpt>
      <trkpt lat="45.66652" lon="5.73293">
        <ele>494</ele>
        <time>2017-05-26T17:45:00Z</time>
      </trkpt>
      <trkpt lat="45.66655" lon="5.73295">
        <ele>494</ele>
        <time>2017-05-26T17:45:00Z</time>
      </trkpt>
      <trkpt lat="45.66654" lon="5.73295">
        <ele>494</ele>
        <time>2017-05-26T17:45:00Z</time>
      </trkpt>
      <trkpt lat="45.66655" lon="5.73298">
        <ele>494</ele>
        <time>2017-05-26T17:45:20Z</time>
      </trkpt>
      <trkpt lat="45.66655" lon="5.73298">
        <ele>494</ele>
        <time>2017-05-26T17:45:20Z</time>
      </trkpt>
      <trkpt lat="45.66657" lon="5.733">
        <ele>494</ele>
        <time>2017-05-26T17:45:20Z</time>
      </trkpt>
      <trkpt lat="45.66661" lon="5.73304">
        <ele>494</ele>
        <time>2017-05-26T17:45:20Z</time>
      </trkpt>
      <trkpt lat="45.6667" lon="5.73309">
        <ele>494</ele>
        <time>2017-05-26T17:45:20Z</time>
      </trkpt>
      <trkpt lat="45.66674" lon="5.73313">
        <ele>494</ele>
        <time>2017-05-26T17:45:36Z</time>
      </trkpt>
      <trkpt lat="45.66677" lon="5.7332">
        <ele>494</ele>
        <time>2017-05-26T17:45:36Z</time>
      </trkpt>
      <trkpt lat="45.66681" lon="5.73322">
        <ele>494</ele>
        <time>2017-05-26T17:45:36Z</time>
      </trkpt>
      <trkpt lat="45.66685" lon="5.73324">
        <ele>494</ele>
        <time>2017-05-26T17:45:36Z</time>
      </trkpt>
      <trkpt lat="45.66689" lon="5.73327">
        <ele>494</ele>
        <time>2017-05-26T17:45:52Z</time>
      </trkpt>
      <trkpt lat="45.66693" lon="5.73332">
        <ele>494</ele>
        <time>2017-05-26T17:45:52Z</time>
      </trkpt>
      <trkpt lat="45.66696" lon="5.73336">
        <ele>494</ele>
        <time>2017-05-26T17:45:52Z</time>
      </trkpt>
      <trkpt lat="45.667" lon="5.73341">
        <ele>494</ele>
        <time>2017-05-26T17:45:52Z</time>
      </trkpt>
      <trkpt lat="45.66703" lon="5.73346">
        <ele>494</ele>
        <time>2017-05-26T17:46:12Z</time>
      </trkpt>
      <trkpt lat="45.66703" lon="5.73346">
        <ele>494</ele>
        <time>2017-05-26T17:46:12Z</time>
      </trkpt>
      <trkpt lat="45.66704" lon="5.73349">
        <ele>494</ele>
        <time>2017-05-26T17:46:12Z</time>
      </trkpt>
      <trkpt lat="45.66708" lon="5.73356">
        <ele>494</ele>
        <time>2017-05-26T17:46:12Z</time>
      </trkpt>
      <trkpt lat="45.66709" lon="5.73361">
        <ele>504</ele>
        <time>2017-05-26T17:46:12Z</time>
      </trkpt>
      <trkpt lat="45.66712" lon="5.73365">
        <ele>504</ele>
        <time>2017-05-26T17:46:28Z</time>
      </trkpt>
      <trkpt lat="45.66715" lon="5.73371">
        <ele>504</ele>
        <time>2017-05-26T17:46:28Z</time>
      </trkpt>
      <trkpt lat="45.66719" lon="5.73377">
        <ele>504</ele>
        <time>2017-05-26T17:46:28Z</time>
      </trkpt>
      <trkpt lat="45.66724" lon="5.73382">
        <ele>504</ele>
        <time>2017-05-26T17:46:28Z</time>
      </trkpt>
      <trkpt lat="45.66728" lon="5.73385">
        <ele>504</ele>
        <time>2017-05-26T17:46:44Z</time>
      </trkpt>
      <trkpt lat="45.66734" lon="5.7339">
        <ele>504</ele>
        <time>2017-05-26T17:46:44Z</time>
      </trkpt>
      <trkpt lat="45.66741" lon="5.73395">
        <ele>504</ele>
        <time>2017-05-26T17:46:44Z</time>
      </trkpt>
      <trkpt lat="45.66748" lon="5.73399">
        <ele>504</ele>
        <time>2017-05-26T17:46:44Z</time>
      </trkpt>
      <trkpt lat="45.66754" lon="5.73402">
        <ele>504</ele>
        <time>2017-05-26T17:47:00Z</time>
      </trkpt>
      <trkpt lat="45.66758" lon="5.73404">
        <ele>504</ele>
        <time>2017-05-26T17:47:00Z</time>
      </trkpt>
      <trkpt lat="45.66761" lon="5.73406">
        <ele>504</ele>
        <time>2017-05-26T17:47:00Z</time>
      </trkpt>
      <trkpt lat="45.66764" lon="5.73406">
        <ele>504</ele>
        <time>2017-05-26T17:47:00Z</time>
      </trkpt>
      <trkpt lat="45.6677" lon="5.73407">
        <ele>504</ele>
        <time>2017-05-26T17:47:16Z</time>
      </trkpt>
      <trkpt lat="45.66778" lon="5.73409">
        <ele>504</ele>
        <time>2017-05-26T17:47:16Z</time>
      </trkpt>
      <trkpt lat="45.66786" lon="5.73413">
        <ele>504</ele>
        <time>2017-05-26T17:47:16Z</time>
      </trkpt>
      <trkpt lat="45.66791" lon="5.73416">
        <ele>504</ele>
        <time>2017-05-26T17:47:16Z</time>
      </trkpt>
      <trkpt lat="45.66795" lon="5.7342">
        <ele>496</ele>
        <time>2017-05-26T17:47:32Z</time>
      </trkpt>
      <trkpt lat="45.66801" lon="5.73421">
        <ele>496</ele>
        <time>2017-05-26T17:47:32Z</time>
      </trkpt>
      <trkpt lat="45.66804" lon="5.73416">
        <ele>496</ele>
        <time>2017-05-26T17:47:32Z</time>
      </trkpt>
      <trkpt lat="45.66808" lon="5.73413">
        <ele>496</ele>
        <time>2017-05-26T17:47:32Z</time>
      </trkpt>
      <trkpt lat="45.66814" lon="5.7341">
        <ele>496</ele>
        <time>2017-05-26T17:47:48Z</time>
      </trkpt>
      <trkpt lat="45.6682" lon="5.73409">
        <ele>496</ele>
        <time>2017-05-26T17:47:48Z</time>
      </trkpt>
      <trkpt lat="45.66825" lon="5.73406">
        <ele>496</ele>
        <time>2017-05-26T17:47:48Z</time>
      </trkpt>
      <trkpt lat="45.6683" lon="5.73401">
        <ele>496</ele>
        <time>2017-05-26T17:47:48Z</time>
      </trkpt>
      <trkpt lat="45.66833" lon="5.73395">
        <ele>496</ele>
        <time>2017-05-26T17:48:04Z</time>
      </trkpt>
      <trkpt lat="45.66837" lon="5.73389">
        <ele>496</ele>
        <time>2017-05-26T17:48:04Z</time>
      </trkpt>
      <trkpt lat="45.6684" lon="5.73382">
        <ele>496</ele>
        <time>2017-05-26T17:48:04Z</time>
      </trkpt>
      <trkpt lat="45.66845" lon="5.73377">
        <ele>496</ele>
        <time>2017-05-26T17:48:04Z</time>
      </trkpt>
      <trkpt lat="45.66848" lon="5.7337">
        <ele>492</ele>
        <time>2017-05-26T17:48:20Z</time>
      </trkpt>
      <trkpt lat="45.66851" lon="5.73363">
        <ele>492</ele>
        <time>2017-05-26T17:48:20Z</time>
      </trkpt>
      <trkpt lat="45.66851" lon="5.73356">
        <ele>492</ele>
        <time>2017-05-26T17:48:20Z</time>
      </trkpt>
      <trkpt lat="45.66851" lon="5.73349">
        <ele>492</ele>
        <time>2017-05-26T17:48:20Z</time>
      </trkpt>
      <trkpt lat="45.66849" lon="5.73341">
        <ele>492</ele>
        <time>2017-05-26T17:48:36Z</time>
      </trkpt>
      <trkpt lat="45.66848" lon="5.73332">
        <ele>492</ele>
        <time>2017-05-26T17:48:36Z</time>
      </trkpt>
      <trkpt lat="45.66846" lon="5.73323">
        <ele>492</ele>
        <time>2017-05-26T17:48:36Z</time>
      </trkpt>
      <trkpt lat="45.66843" lon="5.73316">
        <ele>492</ele>
        <time>2017-05-26T17:48:36Z</time>
      </trkpt>
      <trkpt lat="45.6684" lon="5.73311">
        <ele>492</ele>
        <time>2017-05-26T17:48:52Z</time>
      </trkpt>
      <trkpt lat="45.66838" lon="5.73305">
        <ele>492</ele>
        <time>2017-05-26T17:48:52Z</time>
      </trkpt>
      <trkpt lat="45.66834" lon="5.733">
        <ele>492</ele>
        <time>2017-05-26T17:48:52Z</time>
      </trkpt>
      <trkpt lat="45.66831" lon="5.73295">
        <ele>492</ele>
        <time>2017-05-26T17:48:52Z</time>
      </trkpt>
      <trkpt lat="45.66827" lon="5.7329">
        <ele>482</ele>
        <time>2017-05-26T17:49:08Z</time>
      </trkpt>
      <trkpt lat="45.66822" lon="5.73282">
        <ele>482</ele>
        <time>2017-05-26T17:49:08Z</time>
      </trkpt>
      <trkpt lat="45.66819" lon="5.73274">
        <ele>482</ele>
        <time>2017-05-26T17:49:08Z</time>
      </trkpt>
      <trkpt lat="45.66815" lon="5.73268">
        <ele>482</ele>
        <time>2017-05-26T17:49:08Z</time>
      </trkpt>
      <trkpt lat="45.66811" lon="5.73262">
        <ele>482</ele>
        <time>2017-05-26T17:49:24Z</time>
      </trkpt>
      <trkpt lat="45.66806" lon="5.73258">
        <ele>482</ele>
        <time>2017-05-26T17:49:24Z</time>
      </trkpt>
      <trkpt lat="45.66801" lon="5.73256">
        <ele>482</ele>
        <time>2017-05-26T17:49:24Z</time>
      </trkpt>
      <trkpt lat="45.66801" lon="5.7325">
        <ele>482</ele>
        <time>2017-05-26T17:49:24Z</time>
      </trkpt>
      <trkpt lat="45.66801" lon="5.73241">
        <ele>482</ele>
        <time>2017-05-26T17:49:40Z</time>
      </trkpt>
      <trkpt lat="45.66796" lon="5.73233">
        <ele>482</ele>
        <time>2017-05-26T17:49:40Z</time>
      </trkpt>
      <trkpt lat="45.66791" lon="5.73224">
        <ele>491</ele>
        <time>2017-05-26T17:49:40Z</time>
      </trkpt>
      <trkpt lat="45.66785" lon="5.73214">
        <ele>491</ele>
        <time>2017-05-26T17:49:40Z</time>
      </trkpt>
      <trkpt lat="45.66779" lon="5.73208">
        <ele>483</ele>
        <time>2017-05-26T17:49:56Z</time>
      </trkpt>
      <trkpt lat="45.66774" lon="5.73202">
        <ele>483</ele>
        <time>2017-05-26T17:49:56Z</time>
      </trkpt>
      <trkpt lat="45.66771" lon="5.73198">
        <ele>483</ele>
        <time>2017-05-26T17:49:56Z</time>
      </trkpt>
      <trkpt lat="45.66769" lon="5.73198">
        <ele>483</ele>
        <time>2017-05-26T17:49:56Z</time>
      </trkpt>
      <trkpt lat="45.66768" lon="5.73198">
        <ele>483</ele>
        <time>2017-05-26T17:50:12Z</time>
      </trkpt>
      <trkpt lat="45.66764" lon="5.73195">
        <ele>483</ele>
        <time>2017-05-26T17:50:12Z</time>
      </trkpt>
      <trkpt lat="45.6676" lon="5.73187">
        <ele>483</ele>
        <time>2017-05-26T17:50:12Z</time>
      </trkpt>
      <trkpt lat="45.66754" lon="5.73178">
        <ele>483</ele>
        <time>2017-05-26T17:50:12Z</time>
      </trkpt>
      <trkpt lat="45.6675" lon="5.73172">
        <ele>483</ele>
        <time>2017-05-26T17:50:28Z</time>
      </trkpt>
      <trkpt lat="45.66746" lon="5.73164">
        <ele>483</ele>
        <time>2017-05-26T17:50:28Z</time>
      </trkpt>
      <trkpt lat="45.66741" lon="5.73159">
        <ele>483</ele>
        <time>2017-05-26T17:50:28Z</time>
      </trkpt>
      <trkpt lat="45.66737" lon="5.73152">
        <ele>483</ele>
        <time>2017-05-26T17:50:28Z</time>
      </trkpt>
      <trkpt lat="45.66733" lon="5.73146">
        <ele>483</ele>
        <time>2017-05-26T17:50:44Z</time>
      </trkpt>
      <trkpt lat="45.6673" lon="5.73137">
        <ele>483</ele>
        <time>2017-05-26T17:50:44Z</time>
      </trkpt>
      <trkpt lat="45.66727" lon="5.73132">
        <ele>483</ele>
        <time>2017-05-26T17:50:44Z</time>
      </trkpt>
      <trkpt lat="45.66727" lon="5.73128">
        <ele>483</ele>
        <time>2017-05-26T17:50:44Z</time>
      </trkpt>
      <trkpt lat="45.66724" lon="5.73118">
        <ele>480</ele>
        <time>2017-05-26T17:51:12Z</time>
      </trkpt>
      <trkpt lat="45.66723" lon="5.73118">
        <ele>480</ele>
        <time>2017-05-26T17:51:12Z</time>
      </trkpt>
      <trkpt lat="45.66723" lon="5.73118">
        <ele>480</ele>
        <time>2017-05-26T17:51:12Z</time>
      </trkpt>
      <trkpt lat="45.66722" lon="5.73116">
        <ele>480</ele>
        <time>2017-05-26T17:51:12Z</time>
      </trkpt>
      <trkpt lat="45.66718" lon="5.73106">
        <ele>480</ele>
        <time>2017-05-26T17:51:12Z</time>
      </trkpt>
      <trkpt lat="45.66716" lon="5.73095">
        <ele>480</ele>
        <time>2017-05-26T17:51:28Z</time>
      </trkpt>
      <trkpt lat="45.66714" lon="5.73085">
        <ele>480</ele>
        <time>2017-05-26T17:51:28Z</time>
      </trkpt>
      <trkpt lat="45.6671" lon="5.73079">
        <ele>480</ele>
        <time>2017-05-26T17:51:28Z</time>
      </trkpt>
      <trkpt lat="45.66704" lon="5.73079">
        <ele>481</ele>
        <time>2017-05-26T17:51:28Z</time>
      </trkpt>
      <trkpt lat="45.66699" lon="5.73078">
        <ele>481</ele>
        <time>2017-05-26T17:51:44Z</time>
      </trkpt>
      <trkpt lat="45.66697" lon="5.73075">
        <ele>481</ele>
        <time>2017-05-26T17:51:44Z</time>
      </trkpt>
      <trkpt lat="45.66696" lon="5.73073">
        <ele>481</ele>
        <time>2017-05-26T17:51:44Z</time>
      </trkpt>
      <trkpt lat="45.66691" lon="5.73066">
        <ele>481</ele>
        <time>2017-05-26T17:51:44Z</time>
      </trkpt>
      <trkpt lat="45.66683" lon="5.73062">
        <ele>481</ele>
        <time>2017-05-26T17:52:00Z</time>
      </trkpt>
      <trkpt lat="45.66676" lon="5.73059">
        <ele>481</ele>
        <time>2017-05-26T17:52:00Z</time>
      </trkpt>
      <trkpt lat="45.66671" lon="5.73058">
        <ele>481</ele>
        <time>2017-05-26T17:52:00Z</time>
      </trkpt>
      <trkpt lat="45.66666" lon="5.73056">
        <ele>481</ele>
        <time>2017-05-26T17:52:00Z</time>
      </trkpt>
      <trkpt lat="45.6666" lon="5.73053">
        <ele>481</ele>
        <time>2017-05-26T17:52:16Z</time>
      </trkpt>
      <trkpt lat="45.66655" lon="5.73053">
        <ele>481</ele>
        <time>2017-05-26T17:52:16Z</time>
      </trkpt>
      <trkpt lat="45.66649" lon="5.73052">
        <ele>481</ele>
        <time>2017-05-26T17:52:16Z</time>
      </trkpt>
      <trkpt lat="45.66644" lon="5.7305">
        <ele>481</ele>
        <time>2017-05-26T17:52:16Z</time>
      </trkpt>
      <trkpt lat="45.66638" lon="5.73048">
        <ele>481</ele>
        <time>2017-05-26T17:52:32Z</time>
      </trkpt>
      <trkpt lat="45.66632" lon="5.73045">
        <ele>481</ele>
        <time>2017-05-26T17:52:32Z</time>
      </trkpt>
      <trkpt lat="45.66626" lon="5.73042">
        <ele>481</ele>
        <time>2017-05-26T17:52:32Z</time>
      </trkpt>
      <trkpt lat="45.6662" lon="5.73042">
        <ele>487</ele>
        <time>2017-05-26T17:52:32Z</time>
      </trkpt>
      <trkpt lat="45.66615" lon="5.7304">
        <ele>485</ele>
        <time>2017-05-26T17:52:48Z</time>
      </trkpt>
      <trkpt lat="45.66609" lon="5.73037">
        <ele>485</ele>
        <time>2017-05-26T17:52:48Z</time>
      </trkpt>
      <trkpt lat="45.66603" lon="5.73034">
        <ele>485</ele>
        <time>2017-05-26T17:52:48Z</time>
      </trkpt>
      <trkpt lat="45.66597" lon="5.73031">
        <ele>485</ele>
        <time>2017-05-26T17:52:48Z</time>
      </trkpt>
      <trkpt lat="45.66591" lon="5.73029">
        <ele>485</ele>
        <time>2017-05-26T17:53:04Z</time>
      </trkpt>
      <trkpt lat="45.66585" lon="5.73026">
        <ele>485</ele>
        <time>2017-05-26T17:53:04Z</time>
      </trkpt>
      <trkpt lat="45.66579" lon="5.73023">
        <ele>485</ele>
        <time>2017-05-26T17:53:04Z</time>
      </trkpt>
      <trkpt lat="45.66573" lon="5.73021">
        <ele>485</ele>
        <time>2017-05-26T17:53:04Z</time>
      </trkpt>
      <trkpt lat="45.66567" lon="5.73019">
        <ele>485</ele>
        <time>2017-05-26T17:53:20Z</time>
      </trkpt>
      <trkpt lat="45.66562" lon="5.73018">
        <ele>485</ele>
        <time>2017-05-26T17:53:20Z</time>
      </trkpt>
      <trkpt lat="45.66557" lon="5.73017">
        <ele>485</ele>
        <time>2017-05-26T17:53:20Z</time>
      </trkpt>
      <trkpt lat="45.66552" lon="5.73014">
        <ele>485</ele>
        <time>2017-05-26T17:53:20Z</time>
      </trkpt>
      <trkpt lat="45.66546" lon="5.7301">
        <ele>485</ele>
        <time>2017-05-26T17:54:08Z</time>
      </trkpt>
      <trkpt lat="45.6654" lon="5.73006">
        <ele>491</ele>
        <time>2017-05-26T17:54:08Z</time>
      </trkpt>
      <trkpt lat="45.6649" lon="5.7295">
        <ele>490</ele>
        <time>2017-05-26T17:54:08Z</time>
      </trkpt>
      <trkpt lat="45.66487" lon="5.72951">
        <ele>490</ele>
        <time>2017-05-26T17:54:08Z</time>
      </trkpt>
      <trkpt lat="45.66484" lon="5.72949">
        <ele>490</ele>
        <time>2017-05-26T17:54:24Z</time>
      </trkpt>
      <trkpt lat="45.6648" lon="5.72947">
        <ele>490</ele>
        <time>2017-05-26T17:54:24Z</time>
      </trkpt>
      <trkpt lat="45.66476" lon="5.72944">
        <ele>490</ele>
        <time>2017-05-26T17:54:24Z</time>
      </trkpt>
      <trkpt lat="45.66472" lon="5.72945">
        <ele>490</ele>
        <time>2017-05-26T17:54:24Z</time>
      </trkpt>
      <trkpt lat="45.66468" lon="5.72944">
        <ele>490</ele>
        <time>2017-05-26T17:54:40Z</time>
      </trkpt>
      <trkpt lat="45.66466" lon="5.72934">
        <ele>490</ele>
        <time>2017-05-26T17:54:40Z</time>
      </trkpt>
      <trkpt lat="45.66461" lon="5.72925">
        <ele>490</ele>
        <time>2017-05-26T17:54:40Z</time>
      </trkpt>
      <trkpt lat="45.66455" lon="5.72928">
        <ele>495</ele>
        <time>2017-05-26T17:54:40Z</time>
      </trkpt>
      <trkpt lat="45.66451" lon="5.72935">
        <ele>495</ele>
        <time>2017-05-26T17:55:00Z</time>
      </trkpt>
      <trkpt lat="45.66447" lon="5.7294">
        <ele>495</ele>
        <time>2017-05-26T17:55:00Z</time>
      </trkpt>
      <trkpt lat="45.66447" lon="5.72942">
        <ele>495</ele>
        <time>2017-05-26T17:55:00Z</time>
      </trkpt>
      <trkpt lat="45.66445" lon="5.72943">
        <ele>495</ele>
        <time>2017-05-26T17:55:00Z</time>
      </trkpt>
      <trkpt lat="45.66442" lon="5.72943">
        <ele>495</ele>
        <time>2017-05-26T17:55:00Z</time>
      </trkpt>
      <trkpt lat="45.66438" lon="5.72944">
        <ele>495</ele>
        <time>2017-05-26T17:55:16Z</time>
      </trkpt>
      <trkpt lat="45.66432" lon="5.72944">
        <ele>495</ele>
        <time>2017-05-26T17:55:16Z</time>
      </trkpt>
      <trkpt lat="45.66427" lon="5.7294">
        <ele>495</ele>
        <time>2017-05-26T17:55:16Z</time>
      </trkpt>
      <trkpt lat="45.66424" lon="5.72936">
        <ele>495</ele>
        <time>2017-05-26T17:55:16Z</time>
      </trkpt>
      <trkpt lat="45.66421" lon="5.72934">
        <ele>495</ele>
        <time>2017-05-26T17:55:32Z</time>
      </trkpt>
      <trkpt lat="45.66417" lon="5.72928">
        <ele>495</ele>
        <time>2017-05-26T17:55:32Z</time>
      </trkpt>
      <trkpt lat="45.66413" lon="5.7292">
        <ele>495</ele>
        <time>2017-05-26T17:55:32Z</time>
      </trkpt>
      <trkpt lat="45.66411" lon="5.72912">
        <ele>495</ele>
        <time>2017-05-26T17:55:32Z</time>
      </trkpt>
      <trkpt lat="45.66408" lon="5.72906">
        <ele>495</ele>
        <time>2017-05-26T17:55:48Z</time>
      </trkpt>
      <trkpt lat="45.66407" lon="5.72898">
        <ele>495</ele>
        <time>2017-05-26T17:55:48Z</time>
      </trkpt>
      <trkpt lat="45.66405" lon="5.72891">
        <ele>495</ele>
        <time>2017-05-26T17:55:48Z</time>
      </trkpt>
      <trkpt lat="45.664" lon="5.72885">
        <ele>495</ele>
        <time>2017-05-26T17:55:48Z</time>
      </trkpt>
      <trkpt lat="45.66396" lon="5.7288">
        <ele>495</ele>
        <time>2017-05-26T17:56:04Z</time>
      </trkpt>
      <trkpt lat="45.66392" lon="5.72876">
        <ele>495</ele>
        <time>2017-05-26T17:56:04Z</time>
      </trkpt>
      <trkpt lat="45.66388" lon="5.72874">
        <ele>497</ele>
        <time>2017-05-26T17:56:04Z</time>
      </trkpt>
      <trkpt lat="45.66385" lon="5.72871">
        <ele>497</ele>
        <time>2017-05-26T17:56:04Z</time>
      </trkpt>
      <trkpt lat="45.66384" lon="5.7287">
        <ele>497</ele>
        <time>2017-05-26T17:56:24Z</time>
      </trkpt>
      <trkpt lat="45.66384" lon="5.72868">
        <ele>497</ele>
        <time>2017-05-26T17:56:24Z</time>
      </trkpt>
      <trkpt lat="45.66381" lon="5.72864">
        <ele>497</ele>
        <time>2017-05-26T17:56:24Z</time>
      </trkpt>
      <trkpt lat="45.66378" lon="5.7286">
        <ele>497</ele>
        <time>2017-05-26T17:56:24Z</time>
      </trkpt>
      <trkpt lat="45.66373" lon="5.72857">
        <ele>505</ele>
        <time>2017-05-26T17:56:24Z</time>
      </trkpt>
      <trkpt lat="45.66372" lon="5.72856">
        <ele>505</ele>
        <time>2017-05-26T17:56:40Z</time>
      </trkpt>
      <trkpt lat="45.66363" lon="5.72854">
        <ele>505</ele>
        <time>2017-05-26T17:56:40Z</time>
      </trkpt>
      <trkpt lat="45.66357" lon="5.72851">
        <ele>505</ele>
        <time>2017-05-26T17:56:40Z</time>
      </trkpt>
      <trkpt lat="45.66352" lon="5.72846">
        <ele>505</ele>
        <time>2017-05-26T17:56:40Z</time>
      </trkpt>
      <trkpt lat="45.66349" lon="5.72838">
        <ele>505</ele>
        <time>2017-05-26T17:56:56Z</time>
      </trkpt>
      <trkpt lat="45.66347" lon="5.72834">
        <ele>505</ele>
        <time>2017-05-26T17:56:56Z</time>
      </trkpt>
      <trkpt lat="45.66344" lon="5.72827">
        <ele>505</ele>
        <time>2017-05-26T17:56:56Z</time>
      </trkpt>
      <trkpt lat="45.66337" lon="5.72815">
        <ele>505</ele>
        <time>2017-05-26T17:56:56Z</time>
      </trkpt>
      <trkpt lat="45.66322" lon="5.72801">
        <ele>505</ele>
        <time>2017-05-26T17:57:12Z</time>
      </trkpt>
      <trkpt lat="45.66299" lon="5.72788">
        <ele>511</ele>
        <time>2017-05-26T17:57:12Z</time>
      </trkpt>
      <trkpt lat="45.66279" lon="5.7278">
        <ele>527</ele>
        <time>2017-05-26T17:57:12Z</time>
      </trkpt>
      <trkpt lat="45.66258" lon="5.72768">
        <ele>527</ele>
        <time>2017-05-26T17:57:12Z</time>
      </trkpt>
      <trkpt lat="45.66242" lon="5.7275">
        <ele>527</ele>
        <time>2017-05-26T17:57:28Z</time>
      </trkpt>
      <trkpt lat="45.66224" lon="5.72725">
        <ele>527</ele>
        <time>2017-05-26T17:57:28Z</time>
      </trkpt>
      <trkpt lat="45.6621" lon="5.72694">
        <ele>539</ele>
        <time>2017-05-26T17:57:28Z</time>
      </trkpt>
      <trkpt lat="45.66207" lon="5.72663">
        <ele>531</ele>
        <time>2017-05-26T17:57:28Z</time>
      </trkpt>
      <trkpt lat="45.66208" lon="5.72625">
        <ele>539</ele>
        <time>2017-05-26T17:57:44Z</time>
      </trkpt>
      <trkpt lat="45.66226" lon="5.72607">
        <ele>545</ele>
        <time>2017-05-26T17:57:44Z</time>
      </trkpt>
      <trkpt lat="45.66252" lon="5.72598">
        <ele>545</ele>
        <time>2017-05-26T17:57:44Z</time>
      </trkpt>
      <trkpt lat="45.66269" lon="5.72587">
        <ele>545</ele>
        <time>2017-05-26T17:57:44Z</time>
      </trkpt>
      <trkpt lat="45.66285" lon="5.7257">
        <ele>545</ele>
        <time>2017-05-26T17:58:00Z</time>
      </trkpt>
      <trkpt lat="45.66298" lon="5.72559">
        <ele>538</ele>
        <time>2017-05-26T17:58:00Z</time>
      </trkpt>
      <trkpt lat="45.66307" lon="5.72547">
        <ele>538</ele>
        <time>2017-05-26T17:58:00Z</time>
      </trkpt>
      <trkpt lat="45.6632" lon="5.7252">
        <ele>548</ele>
        <time>2017-05-26T17:58:00Z</time>
      </trkpt>
      <trkpt lat="45.66329" lon="5.72494">
        <ele>548</ele>
        <time>2017-05-26T17:58:16Z</time>
      </trkpt>
      <trkpt lat="45.66338" lon="5.72465">
        <ele>548</ele>
        <time>2017-05-26T17:58:16Z</time>
      </trkpt>
      <trkpt lat="45.66346" lon="5.72443">
        <ele>555</ele>
        <time>2017-05-26T17:58:16Z</time>
      </trkpt>
      <trkpt lat="45.66345" lon="5.72441">
        <ele>555</ele>
        <time>2017-05-26T17:58:16Z</time>
      </trkpt>
      <trkpt lat="45.66344" lon="5.72429">
        <ele>555</ele>
        <time>2017-05-26T17:58:32Z</time>
      </trkpt>
      <trkpt lat="45.66345" lon="5.72418">
        <ele>555</ele>
        <time>2017-05-26T17:58:32Z</time>
      </trkpt>
      <trkpt lat="45.66346" lon="5.72411">
        <ele>555</ele>
        <time>2017-05-26T17:58:32Z</time>
      </trkpt>
      <trkpt lat="45.66342" lon="5.72408">
        <ele>555</ele>
        <time>2017-05-26T17:58:32Z</time>
      </trkpt>
      <trkpt lat="45.66338" lon="5.72402">
        <ele>555</ele>
        <time>2017-05-26T17:58:48Z</time>
      </trkpt>
      <trkpt lat="45.66334" lon="5.72397">
        <ele>555</ele>
        <time>2017-05-26T17:58:48Z</time>
      </trkpt>
      <trkpt lat="45.66329" lon="5.72395">
        <ele>555</ele>
        <time>2017-05-26T17:58:48Z</time>
      </trkpt>
      <trkpt lat="45.66323" lon="5.72394">
        <ele>555</ele>
        <time>2017-05-26T17:58:48Z</time>
      </trkpt>
      <trkpt lat="45.66318" lon="5.7239">
        <ele>555</ele>
        <time>2017-05-26T17:59:04Z</time>
      </trkpt>
      <trkpt lat="45.66316" lon="5.72383">
        <ele>555</ele>
        <time>2017-05-26T17:59:04Z</time>
      </trkpt>
      <trkpt lat="45.66313" lon="5.72384">
        <ele>555</ele>
        <time>2017-05-26T17:59:04Z</time>
      </trkpt>
      <trkpt lat="45.66308" lon="5.72379">
        <ele>555</ele>
        <time>2017-05-26T17:59:04Z</time>
      </trkpt>
      <trkpt lat="45.66305" lon="5.72372">
        <ele>564</ele>
        <time>2017-05-26T17:59:24Z</time>
      </trkpt>
      <trkpt lat="45.66303" lon="5.72369">
        <ele>564</ele>
        <time>2017-05-26T17:59:24Z</time>
      </trkpt>
      <trkpt lat="45.66303" lon="5.72365">
        <ele>564</ele>
        <time>2017-05-26T17:59:24Z</time>
      </trkpt>
      <trkpt lat="45.66303" lon="5.72362">
        <ele>564</ele>
        <time>2017-05-26T17:59:24Z</time>
      </trkpt>
      <trkpt lat="45.663" lon="5.72353">
        <ele>564</ele>
        <time>2017-05-26T17:59:24Z</time>
      </trkpt>
      <trkpt lat="45.6629" lon="5.72337">
        <ele>565</ele>
        <time>2017-05-26T17:59:52Z</time>
      </trkpt>
      <trkpt lat="45.66291" lon="5.72333">
        <ele>565</ele>
        <time>2017-05-26T17:59:52Z</time>
      </trkpt>
      <trkpt lat="45.66291" lon="5.7233">
        <ele>565</ele>
        <time>2017-05-26T17:59:52Z</time>
      </trkpt>
      <trkpt lat="45.6629" lon="5.72327">
        <ele>565</ele>
        <time>2017-05-26T17:59:52Z</time>
      </trkpt>
      <trkpt lat="45.66288" lon="5.72325">
        <ele>565</ele>
        <time>2017-05-26T17:59:52Z</time>
      </trkpt>
      <trkpt lat="45.66285" lon="5.72324">
        <ele>565</ele>
        <time>2017-05-26T18:00:08Z</time>
      </trkpt>
      <trkpt lat="45.66283" lon="5.72324">
        <ele>565</ele>
        <time>2017-05-26T18:00:08Z</time>
      </trkpt>
      <trkpt lat="45.66275" lon="5.72326">
        <ele>565</ele>
        <time>2017-05-26T18:00:08Z</time>
      </trkpt>
      <trkpt lat="45.66262" lon="5.72325">
        <ele>565</ele>
        <time>2017-05-26T18:00:08Z</time>
      </trkpt>
      <trkpt lat="45.6625" lon="5.72325">
        <ele>565</ele>
        <time>2017-05-26T18:00:24Z</time>
      </trkpt>
      <trkpt lat="45.66241" lon="5.72322">
        <ele>565</ele>
        <time>2017-05-26T18:00:24Z</time>
      </trkpt>
      <trkpt lat="45.66234" lon="5.72317">
        <ele>565</ele>
        <time>2017-05-26T18:00:24Z</time>
      </trkpt>
      <trkpt lat="45.6623" lon="5.72309">
        <ele>565</ele>
        <time>2017-05-26T18:00:24Z</time>
      </trkpt>
      <trkpt lat="45.66227" lon="5.72301">
        <ele>565</ele>
        <time>2017-05-26T18:00:40Z</time>
      </trkpt>
      <trkpt lat="45.66227" lon="5.72293">
        <ele>565</ele>
        <time>2017-05-26T18:00:40Z</time>
      </trkpt>
      <trkpt lat="45.66231" lon="5.72286">
        <ele>580</ele>
        <time>2017-05-26T18:00:40Z</time>
      </trkpt>
      <trkpt lat="45.66234" lon="5.7228">
        <ele>580</ele>
        <time>2017-05-26T18:00:40Z</time>
      </trkpt>
      <trkpt lat="45.66235" lon="5.72275">
        <ele>580</ele>
        <time>2017-05-26T18:00:56Z</time>
      </trkpt>
      <trkpt lat="45.66237" lon="5.72273">
        <ele>580</ele>
        <time>2017-05-26T18:00:56Z</time>
      </trkpt>
      <trkpt lat="45.66239" lon="5.7227">
        <ele>580</ele>
        <time>2017-05-26T18:00:56Z</time>
      </trkpt>
      <trkpt lat="45.66246" lon="5.72268">
        <ele>580</ele>
        <time>2017-05-26T18:00:56Z</time>
      </trkpt>
      <trkpt lat="45.66252" lon="5.72264">
        <ele>580</ele>
        <time>2017-05-26T18:01:12Z</time>
      </trkpt>
      <trkpt lat="45.66256" lon="5.72263">
        <ele>580</ele>
        <time>2017-05-26T18:01:12Z</time>
      </trkpt>
      <trkpt lat="45.66261" lon="5.7226">
        <ele>580</ele>
        <time>2017-05-26T18:01:12Z</time>
      </trkpt>
      <trkpt lat="45.66264" lon="5.72256">
        <ele>580</ele>
        <time>2017-05-26T18:01:12Z</time>
      </trkpt>
      <trkpt lat="45.66268" lon="5.72255">
        <ele>580</ele>
        <time>2017-05-26T18:01:28Z</time>
      </trkpt>
      <trkpt lat="45.66273" lon="5.72258">
        <ele>580</ele>
        <time>2017-05-26T18:01:28Z</time>
      </trkpt>
      <trkpt lat="45.66278" lon="5.72257">
        <ele>580</ele>
        <time>2017-05-26T18:01:28Z</time>
      </trkpt>
      <trkpt lat="45.66283" lon="5.72257">
        <ele>580</ele>
        <time>2017-05-26T18:01:28Z</time>
      </trkpt>
      <trkpt lat="45.6629" lon="5.72255">
        <ele>580</ele>
        <time>2017-05-26T18:01:44Z</time>
      </trkpt>
      <trkpt lat="45.66297" lon="5.72253">
        <ele>578</ele>
        <time>2017-05-26T18:01:44Z</time>
      </trkpt>
      <trkpt lat="45.66303" lon="5.72249">
        <ele>578</ele>
        <time>2017-05-26T18:01:44Z</time>
      </trkpt>
      <trkpt lat="45.66305" lon="5.72243">
        <ele>578</ele>
        <time>2017-05-26T18:01:44Z</time>
      </trkpt>
      <trkpt lat="45.6631" lon="5.7224">
        <ele>578</ele>
        <time>2017-05-26T18:02:00Z</time>
      </trkpt>
      <trkpt lat="45.66315" lon="5.72238">
        <ele>578</ele>
        <time>2017-05-26T18:02:00Z</time>
      </trkpt>
      <trkpt lat="45.66319" lon="5.72234">
        <ele>578</ele>
        <time>2017-05-26T18:02:00Z</time>
      </trkpt>
      <trkpt lat="45.66324" lon="5.7223">
        <ele>578</ele>
        <time>2017-05-26T18:02:00Z</time>
      </trkpt>
      <trkpt lat="45.66331" lon="5.72227">
        <ele>578</ele>
        <time>2017-05-26T18:02:16Z</time>
      </trkpt>
      <trkpt lat="45.66337" lon="5.72224">
        <ele>578</ele>
        <time>2017-05-26T18:02:16Z</time>
      </trkpt>
      <trkpt lat="45.66344" lon="5.72222">
        <ele>578</ele>
        <time>2017-05-26T18:02:16Z</time>
      </trkpt>
      <trkpt lat="45.66352" lon="5.72218">
        <ele>578</ele>
        <time>2017-05-26T18:02:16Z</time>
      </trkpt>
      <trkpt lat="45.66357" lon="5.72216">
        <ele>578</ele>
        <time>2017-05-26T18:02:32Z</time>
      </trkpt>
      <trkpt lat="45.66362" lon="5.72213">
        <ele>578</ele>
        <time>2017-05-26T18:02:32Z</time>
      </trkpt>
      <trkpt lat="45.66364" lon="5.7221">
        <ele>578</ele>
        <time>2017-05-26T18:02:32Z</time>
      </trkpt>
      <trkpt lat="45.66365" lon="5.72206">
        <ele>591</ele>
        <time>2017-05-26T18:02:32Z</time>
      </trkpt>
      <trkpt lat="45.66365" lon="5.72201">
        <ele>591</ele>
        <time>2017-05-26T18:02:48Z</time>
      </trkpt>
      <trkpt lat="45.66364" lon="5.72198">
        <ele>591</ele>
        <time>2017-05-26T18:02:48Z</time>
      </trkpt>
      <trkpt lat="45.66361" lon="5.72197">
        <ele>591</ele>
        <time>2017-05-26T18:02:48Z</time>
      </trkpt>
      <trkpt lat="45.66356" lon="5.72196">
        <ele>591</ele>
        <time>2017-05-26T18:02:48Z</time>
      </trkpt>
      <trkpt lat="45.66352" lon="5.72194">
        <ele>591</ele>
        <time>2017-05-26T18:03:04Z</time>
      </trkpt>
      <trkpt lat="45.66348" lon="5.72189">
        <ele>591</ele>
        <time>2017-05-26T18:03:04Z</time>
      </trkpt>
      <trkpt lat="45.66348" lon="5.72185">
        <ele>591</ele>
        <time>2017-05-26T18:03:04Z</time>
      </trkpt>
      <trkpt lat="45.66345" lon="5.72181">
        <ele>591</ele>
        <time>2017-05-26T18:03:04Z</time>
      </trkpt>
      <trkpt lat="45.66342" lon="5.72173">
        <ele>591</ele>
        <time>2017-05-26T18:03:20Z</time>
      </trkpt>
      <trkpt lat="45.6634" lon="5.72167">
        <ele>591</ele>
        <time>2017-05-26T18:03:20Z</time>
      </trkpt>
      <trkpt lat="45.6634" lon="5.72161">
        <ele>591</ele>
        <time>2017-05-26T18:03:20Z</time>
      </trkpt>
      <trkpt lat="45.66338" lon="5.72153">
        <ele>591</ele>
        <time>2017-05-26T18:03:20Z</time>
      </trkpt>
      <trkpt lat="45.66337" lon="5.72147">
        <ele>591</ele>
        <time>2017-05-26T18:03:36Z</time>
      </trkpt>
      <trkpt lat="45.66335" lon="5.72138">
        <ele>591</ele>
        <time>2017-05-26T18:03:36Z</time>
      </trkpt>
      <trkpt lat="45.66333" lon="5.72129">
        <ele>591</ele>
        <time>2017-05-26T18:03:36Z</time>
      </trkpt>
      <trkpt lat="45.66331" lon="5.72123">
        <ele>593</ele>
        <time>2017-05-26T18:03:36Z</time>
      </trkpt>
      <trkpt lat="45.66331" lon="5.72114">
        <ele>593</ele>
        <time>2017-05-26T18:03:52Z</time>
      </trkpt>
      <trkpt lat="45.66329" lon="5.72108">
        <ele>593</ele>
        <time>2017-05-26T18:03:52Z</time>
      </trkpt>
      <trkpt lat="45.66325" lon="5.721">
        <ele>593</ele>
        <time>2017-05-26T18:03:52Z</time>
      </trkpt>
      <trkpt lat="45.66324" lon="5.72092">
        <ele>593</ele>
        <time>2017-05-26T18:03:52Z</time>
      </trkpt>
      <trkpt lat="45.66322" lon="5.72085">
        <ele>593</ele>
        <time>2017-05-26T18:04:08Z</time>
      </trkpt>
      <trkpt lat="45.66326" lon="5.72081">
        <ele>593</ele>
        <time>2017-05-26T18:04:08Z</time>
      </trkpt>
      <trkpt lat="45.66327" lon="5.72075">
        <ele>593</ele>
        <time>2017-05-26T18:04:08Z</time>
      </trkpt>
      <trkpt lat="45.66323" lon="5.72067">
        <ele>593</ele>
        <time>2017-05-26T18:04:08Z</time>
      </trkpt>
      <trkpt lat="45.66316" lon="5.72059">
        <ele>593</ele>
        <time>2017-05-26T18:04:24Z</time>
      </trkpt>
      <trkpt lat="45.66315" lon="5.72051">
        <ele>593</ele>
        <time>2017-05-26T18:04:24Z</time>
      </trkpt>
      <trkpt lat="45.66317" lon="5.72047">
        <ele>593</ele>
        <time>2017-05-26T18:04:24Z</time>
      </trkpt>
      <trkpt lat="45.66315" lon="5.72042">
        <ele>593</ele>
        <time>2017-05-26T18:04:24Z</time>
      </trkpt>
      <trkpt lat="45.66317" lon="5.72037">
        <ele>586</ele>
        <time>2017-05-26T18:04:40Z</time>
      </trkpt>
      <trkpt lat="45.66317" lon="5.72029">
        <ele>586</ele>
        <time>2017-05-26T18:04:40Z</time>
      </trkpt>
      <trkpt lat="45.66316" lon="5.7202">
        <ele>586</ele>
        <time>2017-05-26T18:04:40Z</time>
      </trkpt>
      <trkpt lat="45.66312" lon="5.7201">
        <ele>586</ele>
        <time>2017-05-26T18:04:40Z</time>
      </trkpt>
      <trkpt lat="45.6631" lon="5.71998">
        <ele>586</ele>
        <time>2017-05-26T18:04:56Z</time>
      </trkpt>
      <trkpt lat="45.66311" lon="5.71988">
        <ele>586</ele>
        <time>2017-05-26T18:04:56Z</time>
      </trkpt>
      <trkpt lat="45.6631" lon="5.71981">
        <ele>586</ele>
        <time>2017-05-26T18:04:56Z</time>
      </trkpt>
      <trkpt lat="45.66312" lon="5.71977">
        <ele>586</ele>
        <time>2017-05-26T18:04:56Z</time>
      </trkpt>
      <trkpt lat="45.66318" lon="5.7197">
        <ele>586</ele>
        <time>2017-05-26T18:05:20Z</time>
      </trkpt>
      <trkpt lat="45.66322" lon="5.71969">
        <ele>586</ele>
        <time>2017-05-26T18:05:20Z</time>
      </trkpt>
      <trkpt lat="45.66322" lon="5.71968">
        <ele>586</ele>
        <time>2017-05-26T18:05:20Z</time>
      </trkpt>
      <trkpt lat="45.66323" lon="5.71967">
        <ele>586</ele>
        <time>2017-05-26T18:05:20Z</time>
      </trkpt>
      <trkpt lat="45.66324" lon="5.71966">
        <ele>586</ele>
        <time>2017-05-26T18:05:20Z</time>
      </trkpt>
      <trkpt lat="45.66324" lon="5.71965">
        <ele>586</ele>
        <time>2017-05-26T18:05:36Z</time>
      </trkpt>
      <trkpt lat="45.66324" lon="5.71965">
        <ele>586</ele>
        <time>2017-05-26T18:05:36Z</time>
      </trkpt>
      <trkpt lat="45.6633" lon="5.71962">
        <ele>586</ele>
        <time>2017-05-26T18:05:36Z</time>
      </trkpt>
      <trkpt lat="45.66335" lon="5.71955">
        <ele>587</ele>
        <time>2017-05-26T18:05:36Z</time>
      </trkpt>
      <trkpt lat="45.6634" lon="5.71951">
        <ele>587</ele>
        <time>2017-05-26T18:05:52Z</time>
      </trkpt>
      <trkpt lat="45.66345" lon="5.71949">
        <ele>587</ele>
        <time>2017-05-26T18:05:52Z</time>
      </trkpt>
      <trkpt lat="45.66351" lon="5.71945">
        <ele>587</ele>
        <time>2017-05-26T18:05:52Z</time>
      </trkpt>
      <trkpt lat="45.66353" lon="5.71937">
        <ele>587</ele>
        <time>2017-05-26T18:05:52Z</time>
      </trkpt>
      <trkpt lat="45.66355" lon="5.71931">
        <ele>587</ele>
        <time>2017-05-26T18:06:08Z</time>
      </trkpt>
      <trkpt lat="45.66357" lon="5.71924">
        <ele>587</ele>
        <time>2017-05-26T18:06:08Z</time>
      </trkpt>
      <trkpt lat="45.66353" lon="5.71916">
        <ele>587</ele>
        <time>2017-05-26T18:06:08Z</time>
      </trkpt>
      <trkpt lat="45.66347" lon="5.71908">
        <ele>587</ele>
        <time>2017-05-26T18:06:08Z</time>
      </trkpt>
      <trkpt lat="45.66346" lon="5.71903">
        <ele>587</ele>
        <time>2017-05-26T18:06:28Z</time>
      </trkpt>
      <trkpt lat="45.66347" lon="5.71901">
        <ele>587</ele>
        <time>2017-05-26T18:06:28Z</time>
      </trkpt>
      <trkpt lat="45.66348" lon="5.71896">
        <ele>587</ele>
        <time>2017-05-26T18:06:28Z</time>
      </trkpt>
      <trkpt lat="45.6635" lon="5.71892">
        <ele>587</ele>
        <time>2017-05-26T18:06:28Z</time>
      </trkpt>
      <trkpt lat="45.66354" lon="5.71892">
        <ele>587</ele>
        <time>2017-05-26T18:06:28Z</time>
      </trkpt>
      <trkpt lat="45.66357" lon="5.71892">
        <ele>587</ele>
        <time>2017-05-26T18:06:44Z</time>
      </trkpt>
      <trkpt lat="45.66365" lon="5.71891">
        <ele>587</ele>
        <time>2017-05-26T18:06:44Z</time>
      </trkpt>
      <trkpt lat="45.66372" lon="5.71889">
        <ele>587</ele>
        <time>2017-05-26T18:06:44Z</time>
      </trkpt>
      <trkpt lat="45.66376" lon="5.71886">
        <ele>575</ele>
        <time>2017-05-26T18:06:44Z</time>
      </trkpt>
      <trkpt lat="45.6638" lon="5.71881">
        <ele>575</ele>
        <time>2017-05-26T18:07:00Z</time>
      </trkpt>
      <trkpt lat="45.66383" lon="5.71875">
        <ele>575</ele>
        <time>2017-05-26T18:07:00Z</time>
      </trkpt>
      <trkpt lat="45.66389" lon="5.7187">
        <ele>579</ele>
        <time>2017-05-26T18:07:00Z</time>
      </trkpt>
      <trkpt lat="45.66395" lon="5.71865">
        <ele>579</ele>
        <time>2017-05-26T18:07:00Z</time>
      </trkpt>
      <trkpt lat="45.66397" lon="5.71861">
        <ele>579</ele>
        <time>2017-05-26T18:07:16Z</time>
      </trkpt>
      <trkpt lat="45.66402" lon="5.71855">
        <ele>579</ele>
        <time>2017-05-26T18:07:16Z</time>
      </trkpt>
      <trkpt lat="45.66403" lon="5.71849">
        <ele>579</ele>
        <time>2017-05-26T18:07:16Z</time>
      </trkpt>
      <trkpt lat="45.66407" lon="5.71844">
        <ele>579</ele>
        <time>2017-05-26T18:07:16Z</time>
      </trkpt>
      <trkpt lat="45.66411" lon="5.71838">
        <ele>579</ele>
        <time>2017-05-26T18:07:32Z</time>
      </trkpt>
      <trkpt lat="45.66413" lon="5.71831">
        <ele>579</ele>
        <time>2017-05-26T18:07:32Z</time>
      </trkpt>
      <trkpt lat="45.66419" lon="5.71825">
        <ele>579</ele>
        <time>2017-05-26T18:07:32Z</time>
      </trkpt>
      <trkpt lat="45.66424" lon="5.71817">
        <ele>579</ele>
        <time>2017-05-26T18:07:32Z</time>
      </trkpt>
      <trkpt lat="45.66423" lon="5.71809">
        <ele>579</ele>
        <time>2017-05-26T18:07:48Z</time>
      </trkpt>
      <trkpt lat="45.66424" lon="5.71803">
        <ele>579</ele>
        <time>2017-05-26T18:07:48Z</time>
      </trkpt>
      <trkpt lat="45.66423" lon="5.71798">
        <ele>579</ele>
        <time>2017-05-26T18:07:48Z</time>
      </trkpt>
      <trkpt lat="45.66422" lon="5.71789">
        <ele>584</ele>
        <time>2017-05-26T18:07:48Z</time>
      </trkpt>
      <trkpt lat="45.66421" lon="5.71779">
        <ele>584</ele>
        <time>2017-05-26T18:08:04Z</time>
      </trkpt>
      <trkpt lat="45.66422" lon="5.7177">
        <ele>584</ele>
        <time>2017-05-26T18:08:04Z</time>
      </trkpt>
      <trkpt lat="45.66422" lon="5.71762">
        <ele>584</ele>
        <time>2017-05-26T18:08:04Z</time>
      </trkpt>
      <trkpt lat="45.66427" lon="5.71756">
        <ele>584</ele>
        <time>2017-05-26T18:08:04Z</time>
      </trkpt>
      <trkpt lat="45.66433" lon="5.71754">
        <ele>584</ele>
        <time>2017-05-26T18:08:24Z</time>
      </trkpt>
      <trkpt lat="45.66437" lon="5.71751">
        <ele>584</ele>
        <time>2017-05-26T18:08:24Z</time>
      </trkpt>
      <trkpt lat="45.66439" lon="5.71748">
        <ele>584</ele>
        <time>2017-05-26T18:08:24Z</time>
      </trkpt>
      <trkpt lat="45.6644" lon="5.71748">
        <ele>584</ele>
        <time>2017-05-26T18:08:24Z</time>
      </trkpt>
      <trkpt lat="45.66446" lon="5.71749">
        <ele>584</ele>
        <time>2017-05-26T18:08:24Z</time>
      </trkpt>
      <trkpt lat="45.66451" lon="5.71754">
        <ele>584</ele>
        <time>2017-05-26T18:08:40Z</time>
      </trkpt>
      <trkpt lat="45.66454" lon="5.71757">
        <ele>584</ele>
        <time>2017-05-26T18:08:40Z</time>
      </trkpt>
      <trkpt lat="45.66459" lon="5.71758">
        <ele>572</ele>
        <time>2017-05-26T18:08:40Z</time>
      </trkpt>
      <trkpt lat="45.66464" lon="5.71759">
        <ele>572</ele>
        <time>2017-05-26T18:08:40Z</time>
      </trkpt>
      <trkpt lat="45.66466" lon="5.71764">
        <ele>572</ele>
        <time>2017-05-26T18:08:56Z</time>
      </trkpt>
      <trkpt lat="45.66467" lon="5.7177">
        <ele>572</ele>
        <time>2017-05-26T18:08:56Z</time>
      </trkpt>
      <trkpt lat="45.66468" lon="5.71773">
        <ele>572</ele>
        <time>2017-05-26T18:08:56Z</time>
      </trkpt>
      <trkpt lat="45.66469" lon="5.71778">
        <ele>572</ele>
        <time>2017-05-26T18:08:56Z</time>
      </trkpt>
      <trkpt lat="45.66475" lon="5.7178">
        <ele>572</ele>
        <time>2017-05-26T18:09:12Z</time>
      </trkpt>
      <trkpt lat="45.66479" lon="5.71784">
        <ele>572</ele>
        <time>2017-05-26T18:09:12Z</time>
      </trkpt>
      <trkpt lat="45.66485" lon="5.71789">
        <ele>572</ele>
        <time>2017-05-26T18:09:12Z</time>
      </trkpt>
      <trkpt lat="45.66487" lon="5.71792">
        <ele>568</ele>
        <time>2017-05-26T18:09:12Z</time>
      </trkpt>
      <trkpt lat="45.66493" lon="5.71797">
        <ele>568</ele>
        <time>2017-05-26T18:09:28Z</time>
      </trkpt>
      <trkpt lat="45.66498" lon="5.71799">
        <ele>568</ele>
        <time>2017-05-26T18:09:28Z</time>
      </trkpt>
      <trkpt lat="45.66505" lon="5.71802">
        <ele>568</ele>
        <time>2017-05-26T18:09:28Z</time>
      </trkpt>
      <trkpt lat="45.66512" lon="5.71804">
        <ele>568</ele>
        <time>2017-05-26T18:09:28Z</time>
      </trkpt>
      <trkpt lat="45.66522" lon="5.7181">
        <ele>568</ele>
        <time>2017-05-26T18:10:12Z</time>
      </trkpt>
      <trkpt lat="45.66523" lon="5.7181">
        <ele>568</ele>
        <time>2017-05-26T18:10:12Z</time>
      </trkpt>
      <trkpt lat="45.66523" lon="5.7181">
        <ele>568</ele>
        <time>2017-05-26T18:10:12Z</time>
      </trkpt>
      <trkpt lat="45.66523" lon="5.7181">
        <ele>568</ele>
        <time>2017-05-26T18:10:12Z</time>
      </trkpt>
      <trkpt lat="45.66526" lon="5.71811">
        <ele>568</ele>
        <time>2017-05-26T18:10:12Z</time>
      </trkpt>
      <trkpt lat="45.6653" lon="5.71811">
        <ele>568</ele>
        <time>2017-05-26T18:10:28Z</time>
      </trkpt>
      <trkpt lat="45.66536" lon="5.71811">
        <ele>568</ele>
        <time>2017-05-26T18:10:28Z</time>
      </trkpt>
      <trkpt lat="45.66543" lon="5.71812">
        <ele>567</ele>
        <time>2017-05-26T18:10:28Z</time>
      </trkpt>
      <trkpt lat="45.66554" lon="5.7181">
        <ele>567</ele>
        <time>2017-05-26T18:10:28Z</time>
      </trkpt>
      <trkpt lat="45.66563" lon="5.71807">
        <ele>567</ele>
        <time>2017-05-26T18:10:44Z</time>
      </trkpt>
      <trkpt lat="45.66569" lon="5.71807">
        <ele>567</ele>
        <time>2017-05-26T18:10:44Z</time>
      </trkpt>
      <trkpt lat="45.66579" lon="5.71809">
        <ele>567</ele>
        <time>2017-05-26T18:10:44Z</time>
      </trkpt>
      <trkpt lat="45.6659" lon="5.71808">
        <ele>567</ele>
        <time>2017-05-26T18:10:44Z</time>
      </trkpt>
      <trkpt lat="45.66599" lon="5.71811">
        <ele>567</ele>
        <time>2017-05-26T18:11:00Z</time>
      </trkpt>
      <trkpt lat="45.66606" lon="5.71812">
        <ele>567</ele>
        <time>2017-05-26T18:11:00Z</time>
      </trkpt>
      <trkpt lat="45.66613" lon="5.71812">
        <ele>567</ele>
        <time>2017-05-26T18:11:00Z</time>
      </trkpt>
      <trkpt lat="45.66617" lon="5.71814">
        <ele>567</ele>
        <time>2017-05-26T18:11:00Z</time>
      </trkpt>
      <trkpt lat="45.66621" lon="5.71814">
        <ele>567</ele>
        <time>2017-05-26T18:11:16Z</time>
      </trkpt>
      <trkpt lat="45.66626" lon="5.71814">
        <ele>574</ele>
        <time>2017-05-26T18:11:16Z</time>
      </trkpt>
      <trkpt lat="45.6663" lon="5.71815">
        <ele>574</ele>
        <time>2017-05-26T18:11:16Z</time>
      </trkpt>
      <trkpt lat="45.66635" lon="5.71817">
        <ele>574</ele>
        <time>2017-05-26T18:11:16Z</time>
      </trkpt>
      <trkpt lat="45.66641" lon="5.71822">
        <ele>574</ele>
        <time>2017-05-26T18:11:32Z</time>
      </trkpt>
      <trkpt lat="45.66649" lon="5.71822">
        <ele>574</ele>
        <time>2017-05-26T18:11:32Z</time>
      </trkpt>
      <trkpt lat="45.66655" lon="5.71822">
        <ele>574</ele>
        <time>2017-05-26T18:11:32Z</time>
      </trkpt>
      <trkpt lat="45.6666" lon="5.71822">
        <ele>574</ele>
        <time>2017-05-26T18:11:32Z</time>
      </trkpt>
      <trkpt lat="45.66666" lon="5.71822">
        <ele>574</ele>
        <time>2017-05-26T18:11:48Z</time>
      </trkpt>
      <trkpt lat="45.66673" lon="5.71823">
        <ele>574</ele>
        <time>2017-05-26T18:11:48Z</time>
      </trkpt>
      <trkpt lat="45.66677" lon="5.71819">
        <ele>574</ele>
        <time>2017-05-26T18:11:48Z</time>
      </trkpt>
      <trkpt lat="45.66682" lon="5.71808">
        <ele>574</ele>
        <time>2017-05-26T18:11:48Z</time>
      </trkpt>
      <trkpt lat="45.66684" lon="5.71799">
        <ele>574</ele>
        <time>2017-05-26T18:12:08Z</time>
      </trkpt>
      <trkpt lat="45.66684" lon="5.71793">
        <ele>574</ele>
        <time>2017-05-26T18:12:08Z</time>
      </trkpt>
      <trkpt lat="45.66683" lon="5.7179">
        <ele>580</ele>
        <time>2017-05-26T18:12:08Z</time>
      </trkpt>
      <trkpt lat="45.66682" lon="5.71789">
        <ele>580</ele>
        <time>2017-05-26T18:12:08Z</time>
      </trkpt>
      <trkpt lat="45.66681" lon="5.71784">
        <ele>580</ele>
        <time>2017-05-26T18:12:08Z</time>
      </trkpt>
      <trkpt lat="45.66668" lon="5.71769">
        <ele>580</ele>
        <time>2017-05-26T18:17:16Z</time>
      </trkpt>
      <trkpt lat="45.66668" lon="5.71768">
        <ele>580</ele>
        <time>2017-05-26T18:17:16Z</time>
      </trkpt>
      <trkpt lat="45.66668" lon="5.71768">
        <ele>580</ele>
        <time>2017-05-26T18:17:16Z</time>
      </trkpt>
      <trkpt lat="45.66668" lon="5.71768">
        <ele>580</ele>
        <time>2017-05-26T18:17:16Z</time>
      </trkpt>
      <trkpt lat="45.66668" lon="5.71766">
        <ele>580</ele>
        <time>2017-05-26T18:17:16Z</time>
      </trkpt>
      <trkpt lat="45.66668" lon="5.71759">
        <ele>580</ele>
        <time>2017-05-26T18:17:32Z</time>
      </trkpt>
      <trkpt lat="45.66671" lon="5.71753">
        <ele>580</ele>
        <time>2017-05-26T18:17:32Z</time>
      </trkpt>
      <trkpt lat="45.66677" lon="5.71745">
        <ele>580</ele>
        <time>2017-05-26T18:17:32Z</time>
      </trkpt>
      <trkpt lat="45.66677" lon="5.71741">
        <ele>580</ele>
        <time>2017-05-26T18:17:32Z</time>
      </trkpt>
      <trkpt lat="45.66674" lon="5.71736">
        <ele>580</ele>
        <time>2017-05-26T18:17:48Z</time>
      </trkpt>
      <trkpt lat="45.66673" lon="5.71731">
        <ele>580</ele>
        <time>2017-05-26T18:17:48Z</time>
      </trkpt>
      <trkpt lat="45.66673" lon="5.71726">
        <ele>580</ele>
        <time>2017-05-26T18:17:48Z</time>
      </trkpt>
      <trkpt lat="45.66674" lon="5.7172">
        <ele>580</ele>
        <time>2017-05-26T18:17:48Z</time>
      </trkpt>
      <trkpt lat="45.66674" lon="5.71709">
        <ele>580</ele>
        <time>2017-05-26T18:18:16Z</time>
      </trkpt>
      <trkpt lat="45.66674" lon="5.71706">
        <ele>573</ele>
        <time>2017-05-26T18:18:16Z</time>
      </trkpt>
      <trkpt lat="45.66673" lon="5.71699">
        <ele>573</ele>
        <time>2017-05-26T18:18:16Z</time>
      </trkpt>
      <trkpt lat="45.66669" lon="5.71691">
        <ele>573</ele>
        <time>2017-05-26T18:18:16Z</time>
      </trkpt>
      <trkpt lat="45.66664" lon="5.71687">
        <ele>573</ele>
        <time>2017-05-26T18:18:16Z</time>
      </trkpt>
      <trkpt lat="45.66654" lon="5.71674">
        <ele>573</ele>
        <time>2017-05-26T18:18:32Z</time>
      </trkpt>
      <trkpt lat="45.66649" lon="5.71665">
        <ele>573</ele>
        <time>2017-05-26T18:18:32Z</time>
      </trkpt>
      <trkpt lat="45.66649" lon="5.71662">
        <ele>573</ele>
        <time>2017-05-26T18:18:32Z</time>
      </trkpt>
      <trkpt lat="45.66646" lon="5.71655">
        <ele>573</ele>
        <time>2017-05-26T18:18:32Z</time>
      </trkpt>
      <trkpt lat="45.66644" lon="5.71651">
        <ele>573</ele>
        <time>2017-05-26T18:18:48Z</time>
      </trkpt>
      <trkpt lat="45.66642" lon="5.71646">
        <ele>573</ele>
        <time>2017-05-26T18:18:48Z</time>
      </trkpt>
      <trkpt lat="45.66642" lon="5.71641">
        <ele>573</ele>
        <time>2017-05-26T18:18:48Z</time>
      </trkpt>
      <trkpt lat="45.66637" lon="5.71636">
        <ele>573</ele>
        <time>2017-05-26T18:18:48Z</time>
      </trkpt>
      <trkpt lat="45.66634" lon="5.71632">
        <ele>573</ele>
        <time>2017-05-26T18:19:04Z</time>
      </trkpt>
      <trkpt lat="45.66628" lon="5.71624">
        <ele>558</ele>
        <time>2017-05-26T18:19:04Z</time>
      </trkpt>
      <trkpt lat="45.66621" lon="5.71617">
        <ele>561</ele>
        <time>2017-05-26T18:19:04Z</time>
      </trkpt>
      <trkpt lat="45.66613" lon="5.71608">
        <ele>561</ele>
        <time>2017-05-26T18:19:04Z</time>
      </trkpt>
      <trkpt lat="45.66609" lon="5.71604">
        <ele>561</ele>
        <time>2017-05-26T18:19:24Z</time>
      </trkpt>
      <trkpt lat="45.6661" lon="5.71603">
        <ele>561</ele>
        <time>2017-05-26T18:19:24Z</time>
      </trkpt>
      <trkpt lat="45.66609" lon="5.716">
        <ele>561</ele>
        <time>2017-05-26T18:19:24Z</time>
      </trkpt>
      <trkpt lat="45.66606" lon="5.71596">
        <ele>561</ele>
        <time>2017-05-26T18:19:24Z</time>
      </trkpt>
      <trkpt lat="45.66603" lon="5.71592">
        <ele>561</ele>
        <time>2017-05-26T18:19:24Z</time>
      </trkpt>
      <trkpt lat="45.66601" lon="5.71587">
        <ele>561</ele>
        <time>2017-05-26T18:19:40Z</time>
      </trkpt>
      <trkpt lat="45.66597" lon="5.71582">
        <ele>561</ele>
        <time>2017-05-26T18:19:40Z</time>
      </trkpt>
      <trkpt lat="45.6659" lon="5.71581">
        <ele>561</ele>
        <time>2017-05-26T18:19:40Z</time>
      </trkpt>
      <trkpt lat="45.66583" lon="5.71577">
        <ele>561</ele>
        <time>2017-05-26T18:19:40Z</time>
      </trkpt>
      <trkpt lat="45.66579" lon="5.71577">
        <ele>561</ele>
        <time>2017-05-26T18:19:56Z</time>
      </trkpt>
      <trkpt lat="45.66575" lon="5.71576">
        <ele>561</ele>
        <time>2017-05-26T18:19:56Z</time>
      </trkpt>
      <trkpt lat="45.66573" lon="5.71575">
        <ele>561</ele>
        <time>2017-05-26T18:19:56Z</time>
      </trkpt>
      <trkpt lat="45.66569" lon="5.71573">
        <ele>561</ele>
        <time>2017-05-26T18:19:56Z</time>
      </trkpt>
      <trkpt lat="45.66559" lon="5.71572">
        <ele>561</ele>
        <time>2017-05-26T18:20:12Z</time>
      </trkpt>
      <trkpt lat="45.66554" lon="5.71574">
        <ele>561</ele>
        <time>2017-05-26T18:20:12Z</time>
      </trkpt>
      <trkpt lat="45.66546" lon="5.71567">
        <ele>561</ele>
        <time>2017-05-26T18:20:12Z</time>
      </trkpt>
      <trkpt lat="45.66531" lon="5.71564">
        <ele>577</ele>
        <time>2017-05-26T18:20:12Z</time>
      </trkpt>
      <trkpt lat="45.66516" lon="5.71561">
        <ele>577</ele>
        <time>2017-05-26T18:20:28Z</time>
      </trkpt>
      <trkpt lat="45.66501" lon="5.71543">
        <ele>577</ele>
        <time>2017-05-26T18:20:28Z</time>
      </trkpt>
      <trkpt lat="45.66487" lon="5.71527">
        <ele>570</ele>
        <time>2017-05-26T18:20:28Z</time>
      </trkpt>
      <trkpt lat="45.66475" lon="5.71515">
        <ele>570</ele>
        <time>2017-05-26T18:20:28Z</time>
      </trkpt>
      <trkpt lat="45.66465" lon="5.7151">
        <ele>570</ele>
        <time>2017-05-26T18:20:44Z</time>
      </trkpt>
      <trkpt lat="45.66454" lon="5.71501">
        <ele>593</ele>
        <time>2017-05-26T18:20:44Z</time>
      </trkpt>
      <trkpt lat="45.66447" lon="5.71494">
        <ele>593</ele>
        <time>2017-05-26T18:20:44Z</time>
      </trkpt>
      <trkpt lat="45.66441" lon="5.71489">
        <ele>593</ele>
        <time>2017-05-26T18:20:44Z</time>
      </trkpt>
      <trkpt lat="45.66433" lon="5.71485">
        <ele>593</ele>
        <time>2017-05-26T18:21:00Z</time>
      </trkpt>
      <trkpt lat="45.66426" lon="5.71484">
        <ele>593</ele>
        <time>2017-05-26T18:21:00Z</time>
      </trkpt>
      <trkpt lat="45.66418" lon="5.7148">
        <ele>593</ele>
        <time>2017-05-26T18:21:00Z</time>
      </trkpt>
      <trkpt lat="45.66409" lon="5.71475">
        <ele>593</ele>
        <time>2017-05-26T18:21:00Z</time>
      </trkpt>
      <trkpt lat="45.66402" lon="5.71468">
        <ele>593</ele>
        <time>2017-05-26T18:21:16Z</time>
      </trkpt>
      <trkpt lat="45.66395" lon="5.71458">
        <ele>593</ele>
        <time>2017-05-26T18:21:16Z</time>
      </trkpt>
      <trkpt lat="45.66389" lon="5.71449">
        <ele>582</ele>
        <time>2017-05-26T18:21:16Z</time>
      </trkpt>
      <trkpt lat="45.66385" lon="5.71444">
        <ele>582</ele>
        <time>2017-05-26T18:21:16Z</time>
      </trkpt>
      <trkpt lat="45.66383" lon="5.71443">
        <ele>582</ele>
        <time>2017-05-26T18:21:32Z</time>
      </trkpt>
      <trkpt lat="45.6638" lon="5.7144">
        <ele>582</ele>
        <time>2017-05-26T18:21:32Z</time>
      </trkpt>
      <trkpt lat="45.66376" lon="5.71437">
        <ele>582</ele>
        <time>2017-05-26T18:21:32Z</time>
      </trkpt>
      <trkpt lat="45.66369" lon="5.71431">
        <ele>593</ele>
        <time>2017-05-26T18:21:32Z</time>
      </trkpt>
      <trkpt lat="45.66361" lon="5.71427">
        <ele>593</ele>
        <time>2017-05-26T18:21:48Z</time>
      </trkpt>
      <trkpt lat="45.66353" lon="5.71422">
        <ele>593</ele>
        <time>2017-05-26T18:21:48Z</time>
      </trkpt>
      <trkpt lat="45.66346" lon="5.71422">
        <ele>593</ele>
        <time>2017-05-26T18:21:48Z</time>
      </trkpt>
      <trkpt lat="45.66342" lon="5.71425">
        <ele>593</ele>
        <time>2017-05-26T18:21:48Z</time>
      </trkpt>
      <trkpt lat="45.66334" lon="5.71421">
        <ele>593</ele>
        <time>2017-05-26T18:22:04Z</time>
      </trkpt>
      <trkpt lat="45.66328" lon="5.71419">
        <ele>593</ele>
        <time>2017-05-26T18:22:04Z</time>
      </trkpt>
      <trkpt lat="45.66321" lon="5.71413">
        <ele>593</ele>
        <time>2017-05-26T18:22:04Z</time>
      </trkpt>
      <trkpt lat="45.66304" lon="5.71403">
        <ele>593</ele>
        <time>2017-05-26T18:22:04Z</time>
      </trkpt>
      <trkpt lat="45.66293" lon="5.71393">
        <ele>593</ele>
        <time>2017-05-26T18:22:20Z</time>
      </trkpt>
      <trkpt lat="45.66277" lon="5.71393">
        <ele>602</ele>
        <time>2017-05-26T18:22:20Z</time>
      </trkpt>
      <trkpt lat="45.66262" lon="5.71379">
        <ele>602</ele>
        <time>2017-05-26T18:22:20Z</time>
      </trkpt>
      <trkpt lat="45.66252" lon="5.71364">
        <ele>606</ele>
        <time>2017-05-26T18:22:20Z</time>
      </trkpt>
      <trkpt lat="45.66222" lon="5.71353">
        <ele>606</ele>
        <time>2017-05-26T18:22:36Z</time>
      </trkpt>
      <trkpt lat="45.66214" lon="5.71346">
        <ele>606</ele>
        <time>2017-05-26T18:22:36Z</time>
      </trkpt>
      <trkpt lat="45.66207" lon="5.7134">
        <ele>617</ele>
        <time>2017-05-26T18:22:36Z</time>
      </trkpt>
      <trkpt lat="45.66196" lon="5.71332">
        <ele>617</ele>
        <time>2017-05-26T18:22:36Z</time>
      </trkpt>
      <trkpt lat="45.66185" lon="5.7133">
        <ele>617</ele>
        <time>2017-05-26T18:22:52Z</time>
      </trkpt>
      <trkpt lat="45.66175" lon="5.71326">
        <ele>617</ele>
        <time>2017-05-26T18:22:52Z</time>
      </trkpt>
      <trkpt lat="45.66164" lon="5.71326">
        <ele>617</ele>
        <time>2017-05-26T18:22:52Z</time>
      </trkpt>
      <trkpt lat="45.66151" lon="5.71326">
        <ele>617</ele>
        <time>2017-05-26T18:22:52Z</time>
      </trkpt>
      <trkpt lat="45.66136" lon="5.71319">
        <ele>617</ele>
        <time>2017-05-26T18:23:08Z</time>
      </trkpt>
      <trkpt lat="45.66121" lon="5.71309">
        <ele>623</ele>
        <time>2017-05-26T18:23:08Z</time>
      </trkpt>
      <trkpt lat="45.66104" lon="5.71305">
        <ele>623</ele>
        <time>2017-05-26T18:23:08Z</time>
      </trkpt>
      <trkpt lat="45.66091" lon="5.71303">
        <ele>623</ele>
        <time>2017-05-26T18:23:08Z</time>
      </trkpt>
      <trkpt lat="45.6608" lon="5.71302">
        <ele>623</ele>
        <time>2017-05-26T18:23:24Z</time>
      </trkpt>
      <trkpt lat="45.66068" lon="5.71299">
        <ele>623</ele>
        <time>2017-05-26T18:23:24Z</time>
      </trkpt>
      <trkpt lat="45.66059" lon="5.71298">
        <ele>623</ele>
        <time>2017-05-26T18:23:24Z</time>
      </trkpt>
      <trkpt lat="45.66049" lon="5.71297">
        <ele>623</ele>
        <time>2017-05-26T18:23:24Z</time>
      </trkpt>
      <trkpt lat="45.66043" lon="5.713">
        <ele>623</ele>
        <time>2017-05-26T18:23:40Z</time>
      </trkpt>
      <trkpt lat="45.66036" lon="5.71303">
        <ele>632</ele>
        <time>2017-05-26T18:23:40Z</time>
      </trkpt>
      <trkpt lat="45.6603" lon="5.71309">
        <ele>632</ele>
        <time>2017-05-26T18:23:40Z</time>
      </trkpt>
      <trkpt lat="45.66028" lon="5.71316">
        <ele>632</ele>
        <time>2017-05-26T18:23:40Z</time>
      </trkpt>
      <trkpt lat="45.66024" lon="5.71324">
        <ele>632</ele>
        <time>2017-05-26T18:23:56Z</time>
      </trkpt>
      <trkpt lat="45.6602" lon="5.71329">
        <ele>632</ele>
        <time>2017-05-26T18:23:56Z</time>
      </trkpt>
      <trkpt lat="45.66015" lon="5.71335">
        <ele>632</ele>
        <time>2017-05-26T18:23:56Z</time>
      </trkpt>
      <trkpt lat="45.6601" lon="5.71339">
        <ele>632</ele>
        <time>2017-05-26T18:23:56Z</time>
      </trkpt>
      <trkpt lat="45.66011" lon="5.71344">
        <ele>632</ele>
        <time>2017-05-26T18:24:12Z</time>
      </trkpt>
      <trkpt lat="45.6601" lon="5.71347">
        <ele>632</ele>
        <time>2017-05-26T18:24:12Z</time>
      </trkpt>
      <trkpt lat="45.6601" lon="5.71354">
        <ele>632</ele>
        <time>2017-05-26T18:24:12Z</time>
      </trkpt>
      <trkpt lat="45.66009" lon="5.71362">
        <ele>632</ele>
        <time>2017-05-26T18:24:12Z</time>
      </trkpt>
      <trkpt lat="45.66009" lon="5.71371">
        <ele>632</ele>
        <time>2017-05-26T18:24:28Z</time>
      </trkpt>
      <trkpt lat="45.66008" lon="5.71379">
        <ele>635</ele>
        <time>2017-05-26T18:24:28Z</time>
      </trkpt>
      <trkpt lat="45.66006" lon="5.71387">
        <ele>635</ele>
        <time>2017-05-26T18:24:28Z</time>
      </trkpt>
      <trkpt lat="45.66005" lon="5.71397">
        <ele>635</ele>
        <time>2017-05-26T18:24:28Z</time>
      </trkpt>
      <trkpt lat="45.66004" lon="5.714">
        <ele>635</ele>
        <time>2017-05-26T18:24:44Z</time>
      </trkpt>
      <trkpt lat="45.65999" lon="5.71405">
        <ele>635</ele>
        <time>2017-05-26T18:24:44Z</time>
      </trkpt>
      <trkpt lat="45.65998" lon="5.71416">
        <ele>635</ele>
        <time>2017-05-26T18:24:44Z</time>
      </trkpt>
      <trkpt lat="45.65996" lon="5.71427">
        <ele>635</ele>
        <time>2017-05-26T18:24:44Z</time>
      </trkpt>
      <trkpt lat="45.65989" lon="5.71429">
        <ele>635</ele>
        <time>2017-05-26T18:25:00Z</time>
      </trkpt>
      <trkpt lat="45.65983" lon="5.71424">
        <ele>635</ele>
        <time>2017-05-26T18:25:00Z</time>
      </trkpt>
      <trkpt lat="45.6598" lon="5.71415">
        <ele>635</ele>
        <time>2017-05-26T18:25:00Z</time>
      </trkpt>
      <trkpt lat="45.65978" lon="5.71408">
        <ele>635</ele>
        <time>2017-05-26T18:25:00Z</time>
      </trkpt>
      <trkpt lat="45.65981" lon="5.71402">
        <ele>635</ele>
        <time>2017-05-26T18:26:00Z</time>
      </trkpt>
      <trkpt lat="45.65979" lon="5.71397">
        <ele>635</ele>
        <time>2017-05-26T18:26:00Z</time>
      </trkpt>
      <trkpt lat="45.65982" lon="5.71386">
        <ele>635</ele>
        <time>2017-05-26T18:26:00Z</time>
      </trkpt>
      <trkpt lat="45.65977" lon="5.71368">
        <ele>632</ele>
        <time>2017-05-26T18:26:00Z</time>
      </trkpt>
      <trkpt lat="45.65961" lon="5.71333">
        <ele>632</ele>
        <time>2017-05-26T18:26:00Z</time>
      </trkpt>
      <trkpt lat="45.65942" lon="5.71313">
        <ele>640</ele>
        <time>2017-05-26T18:26:16Z</time>
      </trkpt>
      <trkpt lat="45.65936" lon="5.71299">
        <ele>640</ele>
        <time>2017-05-26T18:26:16Z</time>
      </trkpt>
      <trkpt lat="45.65917" lon="5.7127">
        <ele>640</ele>
        <time>2017-05-26T18:26:16Z</time>
      </trkpt>
      <trkpt lat="45.65904" lon="5.71238">
        <ele>640</ele>
        <time>2017-05-26T18:26:16Z</time>
      </trkpt>
      <trkpt lat="45.65881" lon="5.71205">
        <ele>639</ele>
        <time>2017-05-26T18:26:32Z</time>
      </trkpt>
      <trkpt lat="45.65875" lon="5.7118">
        <ele>639</ele>
        <time>2017-05-26T18:26:32Z</time>
      </trkpt>
      <trkpt lat="45.6587" lon="5.71173">
        <ele>647</ele>
        <time>2017-05-26T18:26:32Z</time>
      </trkpt>
      <trkpt lat="45.65856" lon="5.71177">
        <ele>647</ele>
        <time>2017-05-26T18:26:32Z</time>
      </trkpt>
      <trkpt lat="45.6585" lon="5.71183">
        <ele>647</ele>
        <time>2017-05-26T18:26:48Z</time>
      </trkpt>
      <trkpt lat="45.65847" lon="5.71184">
        <ele>647</ele>
        <time>2017-05-26T18:26:48Z</time>
      </trkpt>
      <trkpt lat="45.65842" lon="5.71182">
        <ele>647</ele>
        <time>2017-05-26T18:26:48Z</time>
      </trkpt>
      <trkpt lat="45.65839" lon="5.71183">
        <ele>647</ele>
        <time>2017-05-26T18:26:48Z</time>
      </trkpt>
      <trkpt lat="45.65835" lon="5.71183">
        <ele>647</ele>
        <time>2017-05-26T18:27:04Z</time>
      </trkpt>
      <trkpt lat="45.65827" lon="5.71184">
        <ele>647</ele>
        <time>2017-05-26T18:27:04Z</time>
      </trkpt>
      <trkpt lat="45.65819" lon="5.71188">
        <ele>647</ele>
        <time>2017-05-26T18:27:04Z</time>
      </trkpt>
      <trkpt lat="45.65815" lon="5.71194">
        <ele>647</ele>
        <time>2017-05-26T18:27:04Z</time>
      </trkpt>
      <trkpt lat="45.65813" lon="5.71199">
        <ele>647</ele>
        <time>2017-05-26T18:27:24Z</time>
      </trkpt>
      <trkpt lat="45.65814" lon="5.71202">
        <ele>647</ele>
        <time>2017-05-26T18:27:24Z</time>
      </trkpt>
      <trkpt lat="45.65814" lon="5.71206">
        <ele>647</ele>
        <time>2017-05-26T18:27:24Z</time>
      </trkpt>
      <trkpt lat="45.65814" lon="5.71211">
        <ele>650</ele>
        <time>2017-05-26T18:27:24Z</time>
      </trkpt>
      <trkpt lat="45.65816" lon="5.71217">
        <ele>650</ele>
        <time>2017-05-26T18:27:24Z</time>
      </trkpt>
      <trkpt lat="45.65816" lon="5.71225">
        <ele>650</ele>
        <time>2017-05-26T18:27:40Z</time>
      </trkpt>
      <trkpt lat="45.65816" lon="5.71229">
        <ele>650</ele>
        <time>2017-05-26T18:27:40Z</time>
      </trkpt>
      <trkpt lat="45.65814" lon="5.71237">
        <ele>650</ele>
        <time>2017-05-26T18:27:40Z</time>
      </trkpt>
      <trkpt lat="45.65815" lon="5.7125">
        <ele>650</ele>
        <time>2017-05-26T18:27:40Z</time>
      </trkpt>
      <trkpt lat="45.65818" lon="5.71257">
        <ele>650</ele>
        <time>2017-05-26T18:27:56Z</time>
      </trkpt>
      <trkpt lat="45.65819" lon="5.71266">
        <ele>650</ele>
        <time>2017-05-26T18:27:56Z</time>
      </trkpt>
      <trkpt lat="45.65821" lon="5.71274">
        <ele>650</ele>
        <time>2017-05-26T18:27:56Z</time>
      </trkpt>
      <trkpt lat="45.65826" lon="5.7128">
        <ele>650</ele>
        <time>2017-05-26T18:27:56Z</time>
      </trkpt>
      <trkpt lat="45.6583" lon="5.71283">
        <ele>650</ele>
        <time>2017-05-26T18:28:12Z</time>
      </trkpt>
      <trkpt lat="45.65832" lon="5.71289">
        <ele>650</ele>
        <time>2017-05-26T18:28:12Z</time>
      </trkpt>
      <trkpt lat="45.65833" lon="5.71295">
        <ele>654</ele>
        <time>2017-05-26T18:28:12Z</time>
      </trkpt>
      <trkpt lat="45.65836" lon="5.71298">
        <ele>654</ele>
        <time>2017-05-26T18:28:12Z</time>
      </trkpt>
      <trkpt lat="45.6584" lon="5.71303">
        <ele>654</ele>
        <time>2017-05-26T18:28:28Z</time>
      </trkpt>
      <trkpt lat="45.65843" lon="5.71308">
        <ele>654</ele>
        <time>2017-05-26T18:28:28Z</time>
      </trkpt>
      <trkpt lat="45.65846" lon="5.71313">
        <ele>654</ele>
        <time>2017-05-26T18:28:28Z</time>
      </trkpt>
      <trkpt lat="45.65849" lon="5.7132">
        <ele>654</ele>
        <time>2017-05-26T18:28:28Z</time>
      </trkpt>
      <trkpt lat="45.65852" lon="5.7133">
        <ele>654</ele>
        <time>2017-05-26T18:28:44Z</time>
      </trkpt>
      <trkpt lat="45.65856" lon="5.71339">
        <ele>654</ele>
        <time>2017-05-26T18:28:44Z</time>
      </trkpt>
      <trkpt lat="45.65856" lon="5.71349">
        <ele>654</ele>
        <time>2017-05-26T18:28:44Z</time>
      </trkpt>
      <trkpt lat="45.65856" lon="5.71367">
        <ele>654</ele>
        <time>2017-05-26T18:28:44Z</time>
      </trkpt>
      <trkpt lat="45.65858" lon="5.71372">
        <ele>654</ele>
        <time>2017-05-26T18:29:00Z</time>
      </trkpt>
      <trkpt lat="45.65861" lon="5.71377">
        <ele>663</ele>
        <time>2017-05-26T18:29:00Z</time>
      </trkpt>
      <trkpt lat="45.65863" lon="5.71381">
        <ele>663</ele>
        <time>2017-05-26T18:29:00Z</time>
      </trkpt>
      <trkpt lat="45.65868" lon="5.71384">
        <ele>663</ele>
        <time>2017-05-26T18:29:00Z</time>
      </trkpt>
      <trkpt lat="45.65871" lon="5.71383">
        <ele>663</ele>
        <time>2017-05-26T18:29:16Z</time>
      </trkpt>
      <trkpt lat="45.65875" lon="5.71382">
        <ele>647</ele>
        <time>2017-05-26T18:29:16Z</time>
      </trkpt>
      <trkpt lat="45.65879" lon="5.71385">
        <ele>647</ele>
        <time>2017-05-26T18:29:16Z</time>
      </trkpt>
      <trkpt lat="45.65883" lon="5.71391">
        <ele>647</ele>
        <time>2017-05-26T18:29:16Z</time>
      </trkpt>
      <trkpt lat="45.65888" lon="5.71395">
        <ele>647</ele>
        <time>2017-05-26T18:29:32Z</time>
      </trkpt>
      <trkpt lat="45.65891" lon="5.71398">
        <ele>647</ele>
        <time>2017-05-26T18:29:32Z</time>
      </trkpt>
      <trkpt lat="45.65894" lon="5.71403">
        <ele>647</ele>
        <time>2017-05-26T18:29:32Z</time>
      </trkpt>
      <trkpt lat="45.65897" lon="5.71409">
        <ele>647</ele>
        <time>2017-05-26T18:29:32Z</time>
      </trkpt>
      <trkpt lat="45.65898" lon="5.71415">
        <ele>647</ele>
        <time>2017-05-26T18:29:48Z</time>
      </trkpt>
      <trkpt lat="45.65897" lon="5.71424">
        <ele>647</ele>
        <time>2017-05-26T18:29:48Z</time>
      </trkpt>
      <trkpt lat="45.65894" lon="5.7143">
        <ele>647</ele>
        <time>2017-05-26T18:29:48Z</time>
      </trkpt>
      <trkpt lat="45.65891" lon="5.71434">
        <ele>647</ele>
        <time>2017-05-26T18:29:48Z</time>
      </trkpt>
      <trkpt lat="45.65885" lon="5.71436">
        <ele>647</ele>
        <time>2017-05-26T18:30:04Z</time>
      </trkpt>
      <trkpt lat="45.65879" lon="5.71437">
        <ele>647</ele>
        <time>2017-05-26T18:30:04Z</time>
      </trkpt>
      <trkpt lat="45.65874" lon="5.71443">
        <ele>663</ele>
        <time>2017-05-26T18:30:04Z</time>
      </trkpt>
      <trkpt lat="45.65872" lon="5.71452">
        <ele>663</ele>
        <time>2017-05-26T18:30:04Z</time>
      </trkpt>
      <trkpt lat="45.65873" lon="5.71459">
        <ele>673</ele>
        <time>2017-05-26T18:30:20Z</time>
      </trkpt>
      <trkpt lat="45.65876" lon="5.71465">
        <ele>656</ele>
        <time>2017-05-26T18:30:20Z</time>
      </trkpt>
      <trkpt lat="45.65877" lon="5.71472">
        <ele>656</ele>
        <time>2017-05-26T18:30:20Z</time>
      </trkpt>
      <trkpt lat="45.6588" lon="5.71476">
        <ele>656</ele>
        <time>2017-05-26T18:30:20Z</time>
      </trkpt>
      <trkpt lat="45.65882" lon="5.71484">
        <ele>656</ele>
        <time>2017-05-26T18:30:36Z</time>
      </trkpt>
      <trkpt lat="45.65885" lon="5.71491">
        <ele>656</ele>
        <time>2017-05-26T18:30:36Z</time>
      </trkpt>
      <trkpt lat="45.65888" lon="5.715">
        <ele>656</ele>
        <time>2017-05-26T18:30:36Z</time>
      </trkpt>
      <trkpt lat="45.65891" lon="5.71506">
        <ele>656</ele>
        <time>2017-05-26T18:30:36Z</time>
      </trkpt>
      <trkpt lat="45.65895" lon="5.71513">
        <ele>656</ele>
        <time>2017-05-26T18:30:52Z</time>
      </trkpt>
      <trkpt lat="45.65897" lon="5.71519">
        <ele>656</ele>
        <time>2017-05-26T18:30:52Z</time>
      </trkpt>
      <trkpt lat="45.65901" lon="5.71523">
        <ele>656</ele>
        <time>2017-05-26T18:30:52Z</time>
      </trkpt>
      <trkpt lat="45.65905" lon="5.71528">
        <ele>656</ele>
        <time>2017-05-26T18:30:52Z</time>
      </trkpt>
      <trkpt lat="45.65908" lon="5.71534">
        <ele>656</ele>
        <time>2017-05-26T18:31:08Z</time>
      </trkpt>
      <trkpt lat="45.65912" lon="5.7154">
        <ele>656</ele>
        <time>2017-05-26T18:31:08Z</time>
      </trkpt>
      <trkpt lat="45.65913" lon="5.71544">
        <ele>665</ele>
        <time>2017-05-26T18:31:08Z</time>
      </trkpt>
      <trkpt lat="45.6591" lon="5.71547">
        <ele>665</ele>
        <time>2017-05-26T18:31:08Z</time>
      </trkpt>
      <trkpt lat="45.65909" lon="5.71548">
        <ele>665</ele>
        <time>2017-05-26T18:31:28Z</time>
      </trkpt>
      <trkpt lat="45.65909" lon="5.71548">
        <ele>665</ele>
        <time>2017-05-26T18:31:28Z</time>
      </trkpt>
      <trkpt lat="45.65908" lon="5.71546">
        <ele>665</ele>
        <time>2017-05-26T18:31:28Z</time>
      </trkpt>
      <trkpt lat="45.65907" lon="5.71546">
        <ele>665</ele>
        <time>2017-05-26T18:31:28Z</time>
      </trkpt>
      <trkpt lat="45.659" lon="5.71541">
        <ele>656</ele>
        <time>2017-05-26T18:31:28Z</time>
      </trkpt>
      <trkpt lat="45.65888" lon="5.71532">
        <ele>656</ele>
        <time>2017-05-26T18:31:44Z</time>
      </trkpt>
      <trkpt lat="45.6588" lon="5.71529">
        <ele>656</ele>
        <time>2017-05-26T18:31:44Z</time>
      </trkpt>
      <trkpt lat="45.65873" lon="5.71525">
        <ele>673</ele>
        <time>2017-05-26T18:31:44Z</time>
      </trkpt>
      <trkpt lat="45.65869" lon="5.71525">
        <ele>673</ele>
        <time>2017-05-26T18:31:44Z</time>
      </trkpt>
      <trkpt lat="45.65861" lon="5.7152">
        <ele>673</ele>
        <time>2017-05-26T18:32:00Z</time>
      </trkpt>
      <trkpt lat="45.65853" lon="5.71512">
        <ele>673</ele>
        <time>2017-05-26T18:32:00Z</time>
      </trkpt>
      <trkpt lat="45.65835" lon="5.71499">
        <ele>673</ele>
        <time>2017-05-26T18:32:00Z</time>
      </trkpt>
      <trkpt lat="45.65821" lon="5.7149">
        <ele>673</ele>
        <time>2017-05-26T18:32:00Z</time>
      </trkpt>
      <trkpt lat="45.65808" lon="5.71472">
        <ele>673</ele>
        <time>2017-05-26T18:32:16Z</time>
      </trkpt>
      <trkpt lat="45.65792" lon="5.71458">
        <ele>663</ele>
        <time>2017-05-26T18:32:16Z</time>
      </trkpt>
      <trkpt lat="45.65771" lon="5.71437">
        <ele>680</ele>
        <time>2017-05-26T18:32:16Z</time>
      </trkpt>
      <trkpt lat="45.6576" lon="5.71426">
        <ele>680</ele>
        <time>2017-05-26T18:32:16Z</time>
      </trkpt>
      <trkpt lat="45.65746" lon="5.71412">
        <ele>680</ele>
        <time>2017-05-26T18:32:32Z</time>
      </trkpt>
      <trkpt lat="45.65737" lon="5.71397">
        <ele>680</ele>
        <time>2017-05-26T18:32:32Z</time>
      </trkpt>
      <trkpt lat="45.65731" lon="5.7139">
        <ele>680</ele>
        <time>2017-05-26T18:32:32Z</time>
      </trkpt>
      <trkpt lat="45.65723" lon="5.71375">
        <ele>670</ele>
        <time>2017-05-26T18:32:32Z</time>
      </trkpt>
      <trkpt lat="45.65717" lon="5.71366">
        <ele>670</ele>
        <time>2017-05-26T18:32:48Z</time>
      </trkpt>
      <trkpt lat="45.65712" lon="5.71356">
        <ele>670</ele>
        <time>2017-05-26T18:32:48Z</time>
      </trkpt>
      <trkpt lat="45.65699" lon="5.71346">
        <ele>690</ele>
        <time>2017-05-26T18:32:48Z</time>
      </trkpt>
      <trkpt lat="45.65692" lon="5.71335">
        <ele>690</ele>
        <time>2017-05-26T18:32:48Z</time>
      </trkpt>
      <trkpt lat="45.65685" lon="5.71328">
        <ele>690</ele>
        <time>2017-05-26T18:33:04Z</time>
      </trkpt>
      <trkpt lat="45.6567" lon="5.71312">
        <ele>690</ele>
        <time>2017-05-26T18:33:04Z</time>
      </trkpt>
      <trkpt lat="45.65653" lon="5.71301">
        <ele>690</ele>
        <time>2017-05-26T18:33:04Z</time>
      </trkpt>
      <trkpt lat="45.65639" lon="5.71288">
        <ele>682</ele>
        <time>2017-05-26T18:33:04Z</time>
      </trkpt>
      <trkpt lat="45.65627" lon="5.71273">
        <ele>682</ele>
        <time>2017-05-26T18:33:20Z</time>
      </trkpt>
      <trkpt lat="45.65613" lon="5.71258">
        <ele>700</ele>
        <time>2017-05-26T18:33:20Z</time>
      </trkpt>
      <trkpt lat="45.65595" lon="5.7125">
        <ele>700</ele>
        <time>2017-05-26T18:33:20Z</time>
      </trkpt>
      <trkpt lat="45.6558" lon="5.71252">
        <ele>700</ele>
        <time>2017-05-26T18:33:20Z</time>
      </trkpt>
      <trkpt lat="45.65569" lon="5.71247">
        <ele>700</ele>
        <time>2017-05-26T18:34:04Z</time>
      </trkpt>
      <trkpt lat="45.65562" lon="5.71245">
        <ele>700</ele>
        <time>2017-05-26T18:34:04Z</time>
      </trkpt>
      <trkpt lat="45.65557" lon="5.71245">
        <ele>700</ele>
        <time>2017-05-26T18:34:04Z</time>
      </trkpt>
      <trkpt lat="45.6549" lon="5.71276">
        <ele>716</ele>
        <time>2017-05-26T18:34:04Z</time>
      </trkpt>
      <trkpt lat="45.65495" lon="5.71267">
        <ele>716</ele>
        <time>2017-05-26T18:34:36Z</time>
      </trkpt>
      <trkpt lat="45.65489" lon="5.71269">
        <ele>716</ele>
        <time>2017-05-26T18:34:36Z</time>
      </trkpt>
      <trkpt lat="45.65482" lon="5.71268">
        <ele>716</ele>
        <time>2017-05-26T18:34:36Z</time>
      </trkpt>
      <trkpt lat="45.65477" lon="5.71263">
        <ele>716</ele>
        <time>2017-05-26T18:34:36Z</time>
      </trkpt>
      <trkpt lat="45.65469" lon="5.71259">
        <ele>716</ele>
        <time>2017-05-26T18:34:36Z</time>
      </trkpt>
      <trkpt lat="45.6546" lon="5.71248">
        <ele>716</ele>
        <time>2017-05-26T18:34:52Z</time>
      </trkpt>
      <trkpt lat="45.65449" lon="5.71238">
        <ele>739</ele>
        <time>2017-05-26T18:34:52Z</time>
      </trkpt>
      <trkpt lat="45.65443" lon="5.71231">
        <ele>739</ele>
        <time>2017-05-26T18:34:52Z</time>
      </trkpt>
      <trkpt lat="45.65438" lon="5.71234">
        <ele>739</ele>
        <time>2017-05-26T18:34:52Z</time>
      </trkpt>
      <trkpt lat="45.65429" lon="5.71242">
        <ele>739</ele>
        <time>2017-05-26T18:35:08Z</time>
      </trkpt>
      <trkpt lat="45.65415" lon="5.7125">
        <ele>739</ele>
        <time>2017-05-26T18:35:08Z</time>
      </trkpt>
      <trkpt lat="45.65404" lon="5.71251">
        <ele>739</ele>
        <time>2017-05-26T18:35:08Z</time>
      </trkpt>
      <trkpt lat="45.65399" lon="5.71248">
        <ele>739</ele>
        <time>2017-05-26T18:35:08Z</time>
      </trkpt>
      <trkpt lat="45.65393" lon="5.71245">
        <ele>739</ele>
        <time>2017-05-26T18:35:24Z</time>
      </trkpt>
      <trkpt lat="45.65384" lon="5.71243">
        <ele>739</ele>
        <time>2017-05-26T18:35:24Z</time>
      </trkpt>
      <trkpt lat="45.65378" lon="5.71242">
        <ele>739</ele>
        <time>2017-05-26T18:35:24Z</time>
      </trkpt>
      <trkpt lat="45.65373" lon="5.71244">
        <ele>746</ele>
        <time>2017-05-26T18:35:24Z</time>
      </trkpt>
      <trkpt lat="45.65369" lon="5.71245">
        <ele>746</ele>
        <time>2017-05-26T18:35:40Z</time>
      </trkpt>
      <trkpt lat="45.65364" lon="5.71246">
        <ele>746</ele>
        <time>2017-05-26T18:35:40Z</time>
      </trkpt>
      <trkpt lat="45.65358" lon="5.71246">
        <ele>746</ele>
        <time>2017-05-26T18:35:40Z</time>
      </trkpt>
      <trkpt lat="45.65353" lon="5.71246">
        <ele>746</ele>
        <time>2017-05-26T18:35:40Z</time>
      </trkpt>
      <trkpt lat="45.6535" lon="5.71249">
        <ele>746</ele>
        <time>2017-05-26T18:35:56Z</time>
      </trkpt>
      <trkpt lat="45.65345" lon="5.7125">
        <ele>746</ele>
        <time>2017-05-26T18:35:56Z</time>
      </trkpt>
      <trkpt lat="45.6534" lon="5.71253">
        <ele>746</ele>
        <time>2017-05-26T18:35:56Z</time>
      </trkpt>
      <trkpt lat="45.65336" lon="5.71257">
        <ele>746</ele>
        <time>2017-05-26T18:35:56Z</time>
      </trkpt>
      <trkpt lat="45.65331" lon="5.7126">
        <ele>746</ele>
        <time>2017-05-26T18:36:12Z</time>
      </trkpt>
      <trkpt lat="45.65324" lon="5.71259">
        <ele>746</ele>
        <time>2017-05-26T18:36:12Z</time>
      </trkpt>
      <trkpt lat="45.65318" lon="5.7126">
        <ele>746</ele>
        <time>2017-05-26T18:36:12Z</time>
      </trkpt>
      <trkpt lat="45.65313" lon="5.71262">
        <ele>746</ele>
        <time>2017-05-26T18:36:12Z</time>
      </trkpt>
      <trkpt lat="45.65308" lon="5.71264">
        <ele>746</ele>
        <time>2017-05-26T18:36:28Z</time>
      </trkpt>
      <trkpt lat="45.65303" lon="5.71266">
        <ele>746</ele>
        <time>2017-05-26T18:36:28Z</time>
      </trkpt>
      <trkpt lat="45.65298" lon="5.71269">
        <ele>746</ele>
        <time>2017-05-26T18:36:28Z</time>
      </trkpt>
      <trkpt lat="45.65293" lon="5.7127">
        <ele>746</ele>
        <time>2017-05-26T18:36:28Z</time>
      </trkpt>
      <trkpt lat="45.65289" lon="5.71273">
        <ele>741</ele>
        <time>2017-05-26T18:36:44Z</time>
      </trkpt>
      <trkpt lat="45.65284" lon="5.71275">
        <ele>741</ele>
        <time>2017-05-26T18:36:44Z</time>
      </trkpt>
      <trkpt lat="45.65278" lon="5.71278">
        <ele>741</ele>
        <time>2017-05-26T18:36:44Z</time>
      </trkpt>
      <trkpt lat="45.65272" lon="5.7128">
        <ele>741</ele>
        <time>2017-05-26T18:36:44Z</time>
      </trkpt>
      <trkpt lat="45.65266" lon="5.71285">
        <ele>741</ele>
        <time>2017-05-26T18:37:00Z</time>
      </trkpt>
      <trkpt lat="45.65261" lon="5.71288">
        <ele>741</ele>
        <time>2017-05-26T18:37:00Z</time>
      </trkpt>
      <trkpt lat="45.65256" lon="5.71291">
        <ele>741</ele>
        <time>2017-05-26T18:37:00Z</time>
      </trkpt>
      <trkpt lat="45.65251" lon="5.71288">
        <ele>741</ele>
        <time>2017-05-26T18:37:00Z</time>
      </trkpt>
      <trkpt lat="45.65246" lon="5.71287">
        <ele>741</ele>
        <time>2017-05-26T18:37:20Z</time>
      </trkpt>
      <trkpt lat="45.65245" lon="5.71289">
        <ele>741</ele>
        <time>2017-05-26T18:37:20Z</time>
      </trkpt>
      <trkpt lat="45.65242" lon="5.71289">
        <ele>741</ele>
        <time>2017-05-26T18:37:20Z</time>
      </trkpt>
      <trkpt lat="45.65238" lon="5.71286">
        <ele>741</ele>
        <time>2017-05-26T18:37:20Z</time>
      </trkpt>
      <trkpt lat="45.65233" lon="5.71287">
        <ele>741</ele>
        <time>2017-05-26T18:37:20Z</time>
      </trkpt>
      <trkpt lat="45.65229" lon="5.7129">
        <ele>741</ele>
        <time>2017-05-26T18:37:36Z</time>
      </trkpt>
      <trkpt lat="45.65223" lon="5.713">
        <ele>743</ele>
        <time>2017-05-26T18:37:36Z</time>
      </trkpt>
      <trkpt lat="45.65216" lon="5.7131">
        <ele>743</ele>
        <time>2017-05-26T18:37:36Z</time>
      </trkpt>
      <trkpt lat="45.6521" lon="5.71317">
        <ele>743</ele>
        <time>2017-05-26T18:37:36Z</time>
      </trkpt>
      <trkpt lat="45.65206" lon="5.71323">
        <ele>740</ele>
        <time>2017-05-26T18:37:52Z</time>
      </trkpt>
      <trkpt lat="45.65201" lon="5.71325">
        <ele>740</ele>
        <time>2017-05-26T18:37:52Z</time>
      </trkpt>
      <trkpt lat="45.65198" lon="5.71328">
        <ele>740</ele>
        <time>2017-05-26T18:37:52Z</time>
      </trkpt>
      <trkpt lat="45.65197" lon="5.71326">
        <ele>740</ele>
        <time>2017-05-26T18:37:52Z</time>
      </trkpt>
      <trkpt lat="45.65195" lon="5.71322">
        <ele>740</ele>
        <time>2017-05-26T18:38:12Z</time>
      </trkpt>
      <trkpt lat="45.65193" lon="5.71318">
        <ele>740</ele>
        <time>2017-05-26T18:38:12Z</time>
      </trkpt>
      <trkpt lat="45.65193" lon="5.71316">
        <ele>740</ele>
        <time>2017-05-26T18:38:12Z</time>
      </trkpt>
      <trkpt lat="45.65193" lon="5.71315">
        <ele>740</ele>
        <time>2017-05-26T18:38:12Z</time>
      </trkpt>
      <trkpt lat="45.6519" lon="5.71308">
        <ele>740</ele>
        <time>2017-05-26T18:38:12Z</time>
      </trkpt>
      <trkpt lat="45.65188" lon="5.71295">
        <ele>740</ele>
        <time>2017-05-26T18:38:28Z</time>
      </trkpt>
      <trkpt lat="45.65183" lon="5.71288">
        <ele>740</ele>
        <time>2017-05-26T18:38:28Z</time>
      </trkpt>
      <trkpt lat="45.65178" lon="5.71283">
        <ele>740</ele>
        <time>2017-05-26T18:38:28Z</time>
      </trkpt>
      <trkpt lat="45.65173" lon="5.71279">
        <ele>740</ele>
        <time>2017-05-26T18:38:28Z</time>
      </trkpt>
      <trkpt lat="45.65165" lon="5.71278">
        <ele>740</ele>
        <time>2017-05-26T18:38:44Z</time>
      </trkpt>
      <trkpt lat="45.65158" lon="5.71282">
        <ele>740</ele>
        <time>2017-05-26T18:38:44Z</time>
      </trkpt>
      <trkpt lat="45.65156" lon="5.71287">
        <ele>740</ele>
        <time>2017-05-26T18:38:44Z</time>
      </trkpt>
      <trkpt lat="45.65153" lon="5.71293">
        <ele>740</ele>
        <time>2017-05-26T18:38:44Z</time>
      </trkpt>
      <trkpt lat="45.65152" lon="5.71298">
        <ele>740</ele>
        <time>2017-05-26T18:39:00Z</time>
      </trkpt>
      <trkpt lat="45.6515" lon="5.71305">
        <ele>740</ele>
        <time>2017-05-26T18:39:00Z</time>
      </trkpt>
      <trkpt lat="45.65152" lon="5.71311">
        <ele>740</ele>
        <time>2017-05-26T18:39:00Z</time>
      </trkpt>
      <trkpt lat="45.65152" lon="5.71319">
        <ele>740</ele>
        <time>2017-05-26T18:39:00Z</time>
      </trkpt>
      <trkpt lat="45.65152" lon="5.71326">
        <ele>740</ele>
        <time>2017-05-26T18:39:16Z</time>
      </trkpt>
      <trkpt lat="45.65152" lon="5.71332">
        <ele>740</ele>
        <time>2017-05-26T18:39:16Z</time>
      </trkpt>
      <trkpt lat="45.65152" lon="5.71336">
        <ele>740</ele>
        <time>2017-05-26T18:39:16Z</time>
      </trkpt>
      <trkpt lat="45.6515" lon="5.71341">
        <ele>740</ele>
        <time>2017-05-26T18:39:16Z</time>
      </trkpt>
      <trkpt lat="45.65148" lon="5.71346">
        <ele>740</ele>
        <time>2017-05-26T18:39:32Z</time>
      </trkpt>
      <trkpt lat="45.65144" lon="5.71351">
        <ele>740</ele>
        <time>2017-05-26T18:39:32Z</time>
      </trkpt>
      <trkpt lat="45.65141" lon="5.71358">
        <ele>740</ele>
        <time>2017-05-26T18:39:32Z</time>
      </trkpt>
      <trkpt lat="45.65135" lon="5.71365">
        <ele>740</ele>
        <time>2017-05-26T18:39:32Z</time>
      </trkpt>
      <trkpt lat="45.65131" lon="5.71373">
        <ele>740</ele>
        <time>2017-05-26T18:39:48Z</time>
      </trkpt>
      <trkpt lat="45.65127" lon="5.71382">
        <ele>740</ele>
        <time>2017-05-26T18:39:48Z</time>
      </trkpt>
      <trkpt lat="45.65124" lon="5.71395">
        <ele>739</ele>
        <time>2017-05-26T18:39:48Z</time>
      </trkpt>
      <trkpt lat="45.6512" lon="5.71407">
        <ele>739</ele>
        <time>2017-05-26T18:39:48Z</time>
      </trkpt>
      <trkpt lat="45.65117" lon="5.71413">
        <ele>739</ele>
        <time>2017-05-26T18:40:04Z</time>
      </trkpt>
      <trkpt lat="45.65113" lon="5.7142">
        <ele>739</ele>
        <time>2017-05-26T18:40:04Z</time>
      </trkpt>
      <trkpt lat="45.65113" lon="5.71429">
        <ele>739</ele>
        <time>2017-05-26T18:40:04Z</time>
      </trkpt>
      <trkpt lat="45.65112" lon="5.71439">
        <ele>739</ele>
        <time>2017-05-26T18:40:04Z</time>
      </trkpt>
      <trkpt lat="45.65109" lon="5.71447">
        <ele>739</ele>
        <time>2017-05-26T18:40:24Z</time>
      </trkpt>
      <trkpt lat="45.65108" lon="5.71455">
        <ele>739</ele>
        <time>2017-05-26T18:40:24Z</time>
      </trkpt>
      <trkpt lat="45.65107" lon="5.71457">
        <ele>739</ele>
        <time>2017-05-26T18:40:24Z</time>
      </trkpt>
      <trkpt lat="45.65103" lon="5.71457">
        <ele>739</ele>
        <time>2017-05-26T18:40:24Z</time>
      </trkpt>
      <trkpt lat="45.651" lon="5.71463">
        <ele>740</ele>
        <time>2017-05-26T18:40:24Z</time>
      </trkpt>
      <trkpt lat="45.65095" lon="5.71469">
        <ele>740</ele>
        <time>2017-05-26T18:40:40Z</time>
      </trkpt>
      <trkpt lat="45.65091" lon="5.71474">
        <ele>740</ele>
        <time>2017-05-26T18:40:40Z</time>
      </trkpt>
      <trkpt lat="45.65086" lon="5.71479">
        <ele>740</ele>
        <time>2017-05-26T18:40:40Z</time>
      </trkpt>
      <trkpt lat="45.65084" lon="5.71486">
        <ele>740</ele>
        <time>2017-05-26T18:40:40Z</time>
      </trkpt>
      <trkpt lat="45.65081" lon="5.7149">
        <ele>740</ele>
        <time>2017-05-26T18:40:56Z</time>
      </trkpt>
      <trkpt lat="45.65077" lon="5.7149">
        <ele>740</ele>
        <time>2017-05-26T18:40:56Z</time>
      </trkpt>
      <trkpt lat="45.6507" lon="5.71493">
        <ele>740</ele>
        <time>2017-05-26T18:40:56Z</time>
      </trkpt>
      <trkpt lat="45.65064" lon="5.71495">
        <ele>740</ele>
        <time>2017-05-26T18:40:56Z</time>
      </trkpt>
      <trkpt lat="45.65058" lon="5.71497">
        <ele>740</ele>
        <time>2017-05-26T18:41:12Z</time>
      </trkpt>
      <trkpt lat="45.65051" lon="5.71494">
        <ele>740</ele>
        <time>2017-05-26T18:41:12Z</time>
      </trkpt>
      <trkpt lat="45.65045" lon="5.71492">
        <ele>740</ele>
        <time>2017-05-26T18:41:12Z</time>
      </trkpt>
      <trkpt lat="45.65042" lon="5.71495">
        <ele>744</ele>
        <time>2017-05-26T18:41:12Z</time>
      </trkpt>
      <trkpt lat="45.65038" lon="5.71501">
        <ele>744</ele>
        <time>2017-05-26T18:41:28Z</time>
      </trkpt>
      <trkpt lat="45.65032" lon="5.71505">
        <ele>744</ele>
        <time>2017-05-26T18:41:28Z</time>
      </trkpt>
      <trkpt lat="45.65026" lon="5.71508">
        <ele>744</ele>
        <time>2017-05-26T18:41:28Z</time>
      </trkpt>
      <trkpt lat="45.65021" lon="5.71512">
        <ele>744</ele>
        <time>2017-05-26T18:41:28Z</time>
      </trkpt>
      <trkpt lat="45.65016" lon="5.71518">
        <ele>744</ele>
        <time>2017-05-26T18:41:44Z</time>
      </trkpt>
      <trkpt lat="45.65012" lon="5.71527">
        <ele>744</ele>
        <time>2017-05-26T18:41:44Z</time>
      </trkpt>
      <trkpt lat="45.65009" lon="5.71536">
        <ele>744</ele>
        <time>2017-05-26T18:41:44Z</time>
      </trkpt>
      <trkpt lat="45.65004" lon="5.71544">
        <ele>742</ele>
        <time>2017-05-26T18:41:44Z</time>
      </trkpt>
      <trkpt lat="45.64999" lon="5.71549">
        <ele>742</ele>
        <time>2017-05-26T18:42:00Z</time>
      </trkpt>
      <trkpt lat="45.64995" lon="5.71554">
        <ele>742</ele>
        <time>2017-05-26T18:42:00Z</time>
      </trkpt>
      <trkpt lat="45.64992" lon="5.71557">
        <ele>742</ele>
        <time>2017-05-26T18:42:00Z</time>
      </trkpt>
      <trkpt lat="45.64986" lon="5.71561">
        <ele>742</ele>
        <time>2017-05-26T18:42:00Z</time>
      </trkpt>
      <trkpt lat="45.64981" lon="5.71565">
        <ele>742</ele>
        <time>2017-05-26T18:42:16Z</time>
      </trkpt>
      <trkpt lat="45.64975" lon="5.71568">
        <ele>742</ele>
        <time>2017-05-26T18:42:16Z</time>
      </trkpt>
      <trkpt lat="45.64971" lon="5.71572">
        <ele>742</ele>
        <time>2017-05-26T18:42:16Z</time>
      </trkpt>
      <trkpt lat="45.64967" lon="5.71577">
        <ele>742</ele>
        <time>2017-05-26T18:42:16Z</time>
      </trkpt>
      <trkpt lat="45.64964" lon="5.71583">
        <ele>742</ele>
        <time>2017-05-26T18:42:32Z</time>
      </trkpt>
      <trkpt lat="45.64959" lon="5.71588">
        <ele>742</ele>
        <time>2017-05-26T18:42:32Z</time>
      </trkpt>
      <trkpt lat="45.64954" lon="5.71593">
        <ele>738</ele>
        <time>2017-05-26T18:42:32Z</time>
      </trkpt>
      <trkpt lat="45.6495" lon="5.71602">
        <ele>738</ele>
        <time>2017-05-26T18:42:32Z</time>
      </trkpt>
      <trkpt lat="45.64943" lon="5.71611">
        <ele>738</ele>
        <time>2017-05-26T18:42:48Z</time>
      </trkpt>
      <trkpt lat="45.64936" lon="5.71612">
        <ele>738</ele>
        <time>2017-05-26T18:42:48Z</time>
      </trkpt>
      <trkpt lat="45.6493" lon="5.71616">
        <ele>738</ele>
        <time>2017-05-26T18:42:48Z</time>
      </trkpt>
      <trkpt lat="45.64924" lon="5.71626">
        <ele>732</ele>
        <time>2017-05-26T18:42:48Z</time>
      </trkpt>
      <trkpt lat="45.64918" lon="5.7163">
        <ele>732</ele>
        <time>2017-05-26T18:43:04Z</time>
      </trkpt>
      <trkpt lat="45.64912" lon="5.71637">
        <ele>732</ele>
        <time>2017-05-26T18:43:04Z</time>
      </trkpt>
      <trkpt lat="45.64908" lon="5.71647">
        <ele>732</ele>
        <time>2017-05-26T18:43:04Z</time>
      </trkpt>
      <trkpt lat="45.64905" lon="5.71654">
        <ele>732</ele>
        <time>2017-05-26T18:43:04Z</time>
      </trkpt>
      <trkpt lat="45.64901" lon="5.7166">
        <ele>732</ele>
        <time>2017-05-26T18:43:20Z</time>
      </trkpt>
      <trkpt lat="45.64898" lon="5.71665">
        <ele>732</ele>
        <time>2017-05-26T18:43:20Z</time>
      </trkpt>
      <trkpt lat="45.64894" lon="5.71669">
        <ele>732</ele>
        <time>2017-05-26T18:43:20Z</time>
      </trkpt>
      <trkpt lat="45.6489" lon="5.71673">
        <ele>732</ele>
        <time>2017-05-26T18:43:20Z</time>
      </trkpt>
      <trkpt lat="45.64885" lon="5.71676">
        <ele>732</ele>
        <time>2017-05-26T18:43:36Z</time>
      </trkpt>
      <trkpt lat="45.64881" lon="5.71681">
        <ele>732</ele>
        <time>2017-05-26T18:43:36Z</time>
      </trkpt>
      <trkpt lat="45.64878" lon="5.71684">
        <ele>732</ele>
        <time>2017-05-26T18:43:36Z</time>
      </trkpt>
      <trkpt lat="45.64878" lon="5.71684">
        <ele>732</ele>
        <time>2017-05-26T18:43:36Z</time>
      </trkpt>
      <trkpt lat="45.64877" lon="5.71686">
        <ele>732</ele>
        <time>2017-05-26T18:43:52Z</time>
      </trkpt>
      <trkpt lat="45.64875" lon="5.71691">
        <ele>732</ele>
        <time>2017-05-26T18:43:52Z</time>
      </trkpt>
      <trkpt lat="45.64873" lon="5.71696">
        <ele>734</ele>
        <time>2017-05-26T18:43:52Z</time>
      </trkpt>
      <trkpt lat="45.64871" lon="5.71701">
        <ele>734</ele>
        <time>2017-05-26T18:43:52Z</time>
      </trkpt>
      <trkpt lat="45.64868" lon="5.71707">
        <ele>734</ele>
        <time>2017-05-26T18:44:08Z</time>
      </trkpt>
      <trkpt lat="45.64863" lon="5.71712">
        <ele>722</ele>
        <time>2017-05-26T18:44:08Z</time>
      </trkpt>
      <trkpt lat="45.64855" lon="5.71716">
        <ele>722</ele>
        <time>2017-05-26T18:44:08Z</time>
      </trkpt>
      <trkpt lat="45.64851" lon="5.7173">
        <ele>722</ele>
        <time>2017-05-26T18:44:08Z</time>
      </trkpt>
      <trkpt lat="45.64846" lon="5.71741">
        <ele>722</ele>
        <time>2017-05-26T18:44:24Z</time>
      </trkpt>
      <trkpt lat="45.64843" lon="5.71748">
        <ele>722</ele>
        <time>2017-05-26T18:44:24Z</time>
      </trkpt>
      <trkpt lat="45.64839" lon="5.71755">
        <ele>722</ele>
        <time>2017-05-26T18:44:24Z</time>
      </trkpt>
      <trkpt lat="45.64836" lon="5.71761">
        <ele>722</ele>
        <time>2017-05-26T18:44:24Z</time>
      </trkpt>
      <trkpt lat="45.64829" lon="5.71766">
        <ele>722</ele>
        <time>2017-05-26T18:44:40Z</time>
      </trkpt>
      <trkpt lat="45.64822" lon="5.71773">
        <ele>722</ele>
        <time>2017-05-26T18:44:40Z</time>
      </trkpt>
      <trkpt lat="45.64818" lon="5.7178">
        <ele>722</ele>
        <time>2017-05-26T18:44:40Z</time>
      </trkpt>
      <trkpt lat="45.64812" lon="5.71783">
        <ele>722</ele>
        <time>2017-05-26T18:44:40Z</time>
      </trkpt>
      <trkpt lat="45.64807" lon="5.71788">
        <ele>722</ele>
        <time>2017-05-26T18:44:56Z</time>
      </trkpt>
      <trkpt lat="45.64804" lon="5.71795">
        <ele>715</ele>
        <time>2017-05-26T18:44:56Z</time>
      </trkpt>
      <trkpt lat="45.64798" lon="5.71801">
        <ele>715</ele>
        <time>2017-05-26T18:44:56Z</time>
      </trkpt>
      <trkpt lat="45.64793" lon="5.71806">
        <ele>715</ele>
        <time>2017-05-26T18:44:56Z</time>
      </trkpt>
      <trkpt lat="45.64789" lon="5.7181">
        <ele>720</ele>
        <time>2017-05-26T18:45:12Z</time>
      </trkpt>
      <trkpt lat="45.64785" lon="5.71813">
        <ele>720</ele>
        <time>2017-05-26T18:45:12Z</time>
      </trkpt>
      <trkpt lat="45.64783" lon="5.71817">
        <ele>720</ele>
        <time>2017-05-26T18:45:12Z</time>
      </trkpt>
      <trkpt lat="45.64779" lon="5.71819">
        <ele>720</ele>
        <time>2017-05-26T18:45:12Z</time>
      </trkpt>
      <trkpt lat="45.64776" lon="5.71824">
        <ele>720</ele>
        <time>2017-05-26T18:45:28Z</time>
      </trkpt>
      <trkpt lat="45.64773" lon="5.7183">
        <ele>720</ele>
        <time>2017-05-26T18:45:28Z</time>
      </trkpt>
      <trkpt lat="45.64769" lon="5.71834">
        <ele>720</ele>
        <time>2017-05-26T18:45:28Z</time>
      </trkpt>
      <trkpt lat="45.64764" lon="5.71838">
        <ele>720</ele>
        <time>2017-05-26T18:45:28Z</time>
      </trkpt>
      <trkpt lat="45.64759" lon="5.71844">
        <ele>720</ele>
        <time>2017-05-26T18:45:44Z</time>
      </trkpt>
      <trkpt lat="45.64754" lon="5.71847">
        <ele>720</ele>
        <time>2017-05-26T18:45:44Z</time>
      </trkpt>
      <trkpt lat="45.64749" lon="5.71853">
        <ele>720</ele>
        <time>2017-05-26T18:45:44Z</time>
      </trkpt>
      <trkpt lat="45.64744" lon="5.71857">
        <ele>720</ele>
        <time>2017-05-26T18:45:44Z</time>
      </trkpt>
      <trkpt lat="45.6474" lon="5.7186">
        <ele>720</ele>
        <time>2017-05-26T18:46:00Z</time>
      </trkpt>
      <trkpt lat="45.64736" lon="5.71863">
        <ele>720</ele>
        <time>2017-05-26T18:46:00Z</time>
      </trkpt>
      <trkpt lat="45.64731" lon="5.71866">
        <ele>720</ele>
        <time>2017-05-26T18:46:00Z</time>
      </trkpt>
      <trkpt lat="45.64725" lon="5.7187">
        <ele>720</ele>
        <time>2017-05-26T18:46:00Z</time>
      </trkpt>
      <trkpt lat="45.64721" lon="5.71872">
        <ele>720</ele>
        <time>2017-05-26T18:46:16Z</time>
      </trkpt>
      <trkpt lat="45.64716" lon="5.71874">
        <ele>720</ele>
        <time>2017-05-26T18:46:16Z</time>
      </trkpt>
      <trkpt lat="45.6471" lon="5.71872">
        <ele>720</ele>
        <time>2017-05-26T18:46:16Z</time>
      </trkpt>
      <trkpt lat="45.64703" lon="5.71868">
        <ele>730</ele>
        <time>2017-05-26T18:46:16Z</time>
      </trkpt>
      <trkpt lat="45.64699" lon="5.71867">
        <ele>730</ele>
        <time>2017-05-26T18:46:32Z</time>
      </trkpt>
      <trkpt lat="45.64695" lon="5.71865">
        <ele>730</ele>
        <time>2017-05-26T18:46:32Z</time>
      </trkpt>
      <trkpt lat="45.6469" lon="5.71862">
        <ele>730</ele>
        <time>2017-05-26T18:46:32Z</time>
      </trkpt>
      <trkpt lat="45.64682" lon="5.71861">
        <ele>730</ele>
        <time>2017-05-26T18:46:32Z</time>
      </trkpt>
      <trkpt lat="45.64675" lon="5.71859">
        <ele>730</ele>
        <time>2017-05-26T18:46:48Z</time>
      </trkpt>
      <trkpt lat="45.64669" lon="5.71862">
        <ele>730</ele>
        <time>2017-05-26T18:46:48Z</time>
      </trkpt>
      <trkpt lat="45.64662" lon="5.71865">
        <ele>730</ele>
        <time>2017-05-26T18:46:48Z</time>
      </trkpt>
      <trkpt lat="45.64656" lon="5.71869">
        <ele>730</ele>
        <time>2017-05-26T18:46:48Z</time>
      </trkpt>
      <trkpt lat="45.64652" lon="5.71869">
        <ele>730</ele>
        <time>2017-05-26T18:47:04Z</time>
      </trkpt>
      <trkpt lat="45.64646" lon="5.71871">
        <ele>730</ele>
        <time>2017-05-26T18:47:04Z</time>
      </trkpt>
      <trkpt lat="45.6464" lon="5.71875">
        <ele>716</ele>
        <time>2017-05-26T18:47:04Z</time>
      </trkpt>
      <trkpt lat="45.64635" lon="5.7188">
        <ele>716</ele>
        <time>2017-05-26T18:47:04Z</time>
      </trkpt>
      <trkpt lat="45.6463" lon="5.71881">
        <ele>716</ele>
        <time>2017-05-26T18:47:20Z</time>
      </trkpt>
      <trkpt lat="45.64625" lon="5.71882">
        <ele>716</ele>
        <time>2017-05-26T18:47:20Z</time>
      </trkpt>
      <trkpt lat="45.64622" lon="5.71887">
        <ele>723</ele>
        <time>2017-05-26T18:47:20Z</time>
      </trkpt>
      <trkpt lat="45.64613" lon="5.71891">
        <ele>723</ele>
        <time>2017-05-26T18:47:20Z</time>
      </trkpt>
      <trkpt lat="45.646" lon="5.71904">
        <ele>723</ele>
        <time>2017-05-26T18:47:36Z</time>
      </trkpt>
      <trkpt lat="45.64588" lon="5.7191">
        <ele>723</ele>
        <time>2017-05-26T18:47:36Z</time>
      </trkpt>
      <trkpt lat="45.64574" lon="5.71917">
        <ele>723</ele>
        <time>2017-05-26T18:47:36Z</time>
      </trkpt>
      <trkpt lat="45.64557" lon="5.71923">
        <ele>723</ele>
        <time>2017-05-26T18:47:36Z</time>
      </trkpt>
      <trkpt lat="45.64536" lon="5.71928">
        <ele>730</ele>
        <time>2017-05-26T18:47:52Z</time>
      </trkpt>
      <trkpt lat="45.64518" lon="5.71936">
        <ele>730</ele>
        <time>2017-05-26T18:47:52Z</time>
      </trkpt>
      <trkpt lat="45.64505" lon="5.71938">
        <ele>730</ele>
        <time>2017-05-26T18:47:52Z</time>
      </trkpt>
      <trkpt lat="45.64498" lon="5.71937">
        <ele>730</ele>
        <time>2017-05-26T18:47:52Z</time>
      </trkpt>
      <trkpt lat="45.64491" lon="5.71938">
        <ele>730</ele>
        <time>2017-05-26T18:48:08Z</time>
      </trkpt>
      <trkpt lat="45.64484" lon="5.7194">
        <ele>730</ele>
        <time>2017-05-26T18:48:08Z</time>
      </trkpt>
      <trkpt lat="45.64478" lon="5.71943">
        <ele>730</ele>
        <time>2017-05-26T18:48:08Z</time>
      </trkpt>
      <trkpt lat="45.64471" lon="5.71945">
        <ele>730</ele>
        <time>2017-05-26T18:48:08Z</time>
      </trkpt>
      <trkpt lat="45.64465" lon="5.71947">
        <ele>730</ele>
        <time>2017-05-26T18:48:24Z</time>
      </trkpt>
      <trkpt lat="45.64459" lon="5.71947">
        <ele>730</ele>
        <time>2017-05-26T18:48:24Z</time>
      </trkpt>
      <trkpt lat="45.64454" lon="5.71946">
        <ele>732</ele>
        <time>2017-05-26T18:48:24Z</time>
      </trkpt>
      <trkpt lat="45.64448" lon="5.71945">
        <ele>732</ele>
        <time>2017-05-26T18:48:24Z</time>
      </trkpt>
      <trkpt lat="45.64437" lon="5.71946">
        <ele>732</ele>
        <time>2017-05-26T18:48:40Z</time>
      </trkpt>
      <trkpt lat="45.64431" lon="5.71949">
        <ele>732</ele>
        <time>2017-05-26T18:48:40Z</time>
      </trkpt>
      <trkpt lat="45.64427" lon="5.71952">
        <ele>732</ele>
        <time>2017-05-26T18:48:40Z</time>
      </trkpt>
      <trkpt lat="45.64421" lon="5.71952">
        <ele>732</ele>
        <time>2017-05-26T18:48:40Z</time>
      </trkpt>
      <trkpt lat="45.64414" lon="5.71953">
        <ele>732</ele>
        <time>2017-05-26T18:48:56Z</time>
      </trkpt>
      <trkpt lat="45.64409" lon="5.71954">
        <ele>732</ele>
        <time>2017-05-26T18:48:56Z</time>
      </trkpt>
      <trkpt lat="45.64403" lon="5.71956">
        <ele>732</ele>
        <time>2017-05-26T18:48:56Z</time>
      </trkpt>
      <trkpt lat="45.64398" lon="5.7196">
        <ele>719</ele>
        <time>2017-05-26T18:48:56Z</time>
      </trkpt>
      <trkpt lat="45.64395" lon="5.71962">
        <ele>719</ele>
        <time>2017-05-26T18:49:12Z</time>
      </trkpt>
      <trkpt lat="45.6439" lon="5.71965">
        <ele>719</ele>
        <time>2017-05-26T18:49:12Z</time>
      </trkpt>
      <trkpt lat="45.64384" lon="5.71968">
        <ele>719</ele>
        <time>2017-05-26T18:49:12Z</time>
      </trkpt>
      <trkpt lat="45.64378" lon="5.71967">
        <ele>719</ele>
        <time>2017-05-26T18:49:12Z</time>
      </trkpt>
      <trkpt lat="45.64374" lon="5.71964">
        <ele>720</ele>
        <time>2017-05-26T18:49:28Z</time>
      </trkpt>
      <trkpt lat="45.64371" lon="5.71958">
        <ele>730</ele>
        <time>2017-05-26T18:49:28Z</time>
      </trkpt>
      <trkpt lat="45.6437" lon="5.71957">
        <ele>730</ele>
        <time>2017-05-26T18:49:28Z</time>
      </trkpt>
      <trkpt lat="45.64368" lon="5.71953">
        <ele>730</ele>
        <time>2017-05-26T18:49:28Z</time>
      </trkpt>
      <trkpt lat="45.64364" lon="5.71945">
        <ele>730</ele>
        <time>2017-05-26T18:49:44Z</time>
      </trkpt>
      <trkpt lat="45.6436" lon="5.71939">
        <ele>730</ele>
        <time>2017-05-26T18:49:44Z</time>
      </trkpt>
      <trkpt lat="45.64356" lon="5.71934">
        <ele>730</ele>
        <time>2017-05-26T18:49:44Z</time>
      </trkpt>
      <trkpt lat="45.64351" lon="5.71932">
        <ele>730</ele>
        <time>2017-05-26T18:49:44Z</time>
      </trkpt>
      <trkpt lat="45.64345" lon="5.71926">
        <ele>730</ele>
        <time>2017-05-26T18:50:08Z</time>
      </trkpt>
      <trkpt lat="45.64345" lon="5.71925">
        <ele>730</ele>
        <time>2017-05-26T18:50:08Z</time>
      </trkpt>
      <trkpt lat="45.64344" lon="5.71924">
        <ele>730</ele>
        <time>2017-05-26T18:50:08Z</time>
      </trkpt>
      <trkpt lat="45.64343" lon="5.71922">
        <ele>730</ele>
        <time>2017-05-26T18:50:08Z</time>
      </trkpt>
      <trkpt lat="45.64344" lon="5.71916">
        <ele>730</ele>
        <time>2017-05-26T18:50:08Z</time>
      </trkpt>
      <trkpt lat="45.64342" lon="5.71909">
        <ele>730</ele>
        <time>2017-05-26T18:50:24Z</time>
      </trkpt>
      <trkpt lat="45.64338" lon="5.71902">
        <ele>730</ele>
        <time>2017-05-26T18:50:24Z</time>
      </trkpt>
      <trkpt lat="45.64334" lon="5.71893">
        <ele>730</ele>
        <time>2017-05-26T18:50:24Z</time>
      </trkpt>
      <trkpt lat="45.64329" lon="5.71883">
        <ele>730</ele>
        <time>2017-05-26T18:50:24Z</time>
      </trkpt>
      <trkpt lat="45.64323" lon="5.71874">
        <ele>739</ele>
        <time>2017-05-26T18:50:40Z</time>
      </trkpt>
      <trkpt lat="45.64317" lon="5.71868">
        <ele>739</ele>
        <time>2017-05-26T18:50:40Z</time>
      </trkpt>
      <trkpt lat="45.64312" lon="5.71863">
        <ele>739</ele>
        <time>2017-05-26T18:50:40Z</time>
      </trkpt>
      <trkpt lat="45.64307" lon="5.71859">
        <ele>739</ele>
        <time>2017-05-26T18:50:40Z</time>
      </trkpt>
      <trkpt lat="45.64302" lon="5.71856">
        <ele>739</ele>
        <time>2017-05-26T18:50:56Z</time>
      </trkpt>
      <trkpt lat="45.64295" lon="5.71852">
        <ele>739</ele>
        <time>2017-05-26T18:50:56Z</time>
      </trkpt>
      <trkpt lat="45.64287" lon="5.71849">
        <ele>737</ele>
        <time>2017-05-26T18:50:56Z</time>
      </trkpt>
      <trkpt lat="45.64278" lon="5.71849">
        <ele>737</ele>
        <time>2017-05-26T18:50:56Z</time>
      </trkpt>
      <trkpt lat="45.64272" lon="5.71853">
        <ele>737</ele>
        <time>2017-05-26T18:51:12Z</time>
      </trkpt>
      <trkpt lat="45.64268" lon="5.71856">
        <ele>737</ele>
        <time>2017-05-26T18:51:12Z</time>
      </trkpt>
      <trkpt lat="45.64262" lon="5.71857">
        <ele>737</ele>
        <time>2017-05-26T18:51:12Z</time>
      </trkpt>
      <trkpt lat="45.64259" lon="5.71856">
        <ele>737</ele>
        <time>2017-05-26T18:51:12Z</time>
      </trkpt>
      <trkpt lat="45.64258" lon="5.71854">
        <ele>737</ele>
        <time>2017-05-26T18:51:28Z</time>
      </trkpt>
      <trkpt lat="45.64257" lon="5.71854">
        <ele>737</ele>
        <time>2017-05-26T18:51:28Z</time>
      </trkpt>
      <trkpt lat="45.64254" lon="5.7186">
        <ele>737</ele>
        <time>2017-05-26T18:51:28Z</time>
      </trkpt>
      <trkpt lat="45.64246" lon="5.71861">
        <ele>737</ele>
        <time>2017-05-26T18:51:28Z</time>
      </trkpt>
      <trkpt lat="45.64239" lon="5.71862">
        <ele>737</ele>
        <time>2017-05-26T18:51:44Z</time>
      </trkpt>
      <trkpt lat="45.64232" lon="5.71861">
        <ele>737</ele>
        <time>2017-05-26T18:51:44Z</time>
      </trkpt>
      <trkpt lat="45.64228" lon="5.71861">
        <ele>737</ele>
        <time>2017-05-26T18:51:44Z</time>
      </trkpt>
      <trkpt lat="45.64222" lon="5.71862">
        <ele>737</ele>
        <time>2017-05-26T18:51:44Z</time>
      </trkpt>
      <trkpt lat="45.64218" lon="5.71864">
        <ele>737</ele>
        <time>2017-05-26T18:52:00Z</time>
      </trkpt>
      <trkpt lat="45.64214" lon="5.71867">
        <ele>737</ele>
        <time>2017-05-26T18:52:00Z</time>
      </trkpt>
      <trkpt lat="45.6421" lon="5.7187">
        <ele>737</ele>
        <time>2017-05-26T18:52:00Z</time>
      </trkpt>
      <trkpt lat="45.64204" lon="5.71871">
        <ele>737</ele>
        <time>2017-05-26T18:52:00Z</time>
      </trkpt>
      <trkpt lat="45.64197" lon="5.71873">
        <ele>737</ele>
        <time>2017-05-26T18:52:16Z</time>
      </trkpt>
      <trkpt lat="45.64191" lon="5.71875">
        <ele>724</ele>
        <time>2017-05-26T18:52:16Z</time>
      </trkpt>
      <trkpt lat="45.64186" lon="5.71875">
        <ele>724</ele>
        <time>2017-05-26T18:52:16Z</time>
      </trkpt>
      <trkpt lat="45.6418" lon="5.71876">
        <ele>724</ele>
        <time>2017-05-26T18:52:16Z</time>
      </trkpt>
      <trkpt lat="45.64174" lon="5.71877">
        <ele>724</ele>
        <time>2017-05-26T18:52:32Z</time>
      </trkpt>
      <trkpt lat="45.64169" lon="5.71878">
        <ele>724</ele>
        <time>2017-05-26T18:52:32Z</time>
      </trkpt>
      <trkpt lat="45.64164" lon="5.7188">
        <ele>724</ele>
        <time>2017-05-26T18:52:32Z</time>
      </trkpt>
      <trkpt lat="45.64158" lon="5.71883">
        <ele>724</ele>
        <time>2017-05-26T18:52:32Z</time>
      </trkpt>
      <trkpt lat="45.64153" lon="5.71886">
        <ele>724</ele>
        <time>2017-05-26T18:52:48Z</time>
      </trkpt>
      <trkpt lat="45.64147" lon="5.71887">
        <ele>724</ele>
        <time>2017-05-26T18:52:48Z</time>
      </trkpt>
      <trkpt lat="45.64141" lon="5.71887">
        <ele>724</ele>
        <time>2017-05-26T18:52:48Z</time>
      </trkpt>
      <trkpt lat="45.64136" lon="5.71885">
        <ele>724</ele>
        <time>2017-05-26T18:52:48Z</time>
      </trkpt>
      <trkpt lat="45.64131" lon="5.7188">
        <ele>724</ele>
        <time>2017-05-26T18:53:04Z</time>
      </trkpt>
      <trkpt lat="45.64127" lon="5.71876">
        <ele>724</ele>
        <time>2017-05-26T18:53:04Z</time>
      </trkpt>
      <trkpt lat="45.64122" lon="5.71873">
        <ele>737</ele>
        <time>2017-05-26T18:53:04Z</time>
      </trkpt>
      <trkpt lat="45.64117" lon="5.7187">
        <ele>737</ele>
        <time>2017-05-26T18:53:04Z</time>
      </trkpt>
      <trkpt lat="45.64111" lon="5.71869">
        <ele>737</ele>
        <time>2017-05-26T18:53:20Z</time>
      </trkpt>
      <trkpt lat="45.64106" lon="5.71868">
        <ele>737</ele>
        <time>2017-05-26T18:53:20Z</time>
      </trkpt>
      <trkpt lat="45.641" lon="5.71865">
        <ele>737</ele>
        <time>2017-05-26T18:53:20Z</time>
      </trkpt>
      <trkpt lat="45.64097" lon="5.71862">
        <ele>737</ele>
        <time>2017-05-26T18:53:20Z</time>
      </trkpt>
      <trkpt lat="45.64096" lon="5.71861">
        <ele>737</ele>
        <time>2017-05-26T18:53:36Z</time>
      </trkpt>
      <trkpt lat="45.64091" lon="5.71858">
        <ele>737</ele>
        <time>2017-05-26T18:53:36Z</time>
      </trkpt>
      <trkpt lat="45.64086" lon="5.71855">
        <ele>737</ele>
        <time>2017-05-26T18:53:36Z</time>
      </trkpt>
      <trkpt lat="45.6408" lon="5.71852">
        <ele>737</ele>
        <time>2017-05-26T18:53:36Z</time>
      </trkpt>
      <trkpt lat="45.64073" lon="5.71847">
        <ele>737</ele>
        <time>2017-05-26T18:53:52Z</time>
      </trkpt>
      <trkpt lat="45.64066" lon="5.71845">
        <ele>737</ele>
        <time>2017-05-26T18:53:52Z</time>
      </trkpt>
      <trkpt lat="45.6406" lon="5.71847">
        <ele>737</ele>
        <time>2017-05-26T18:53:52Z</time>
      </trkpt>
      <trkpt lat="45.64054" lon="5.71849">
        <ele>737</ele>
        <time>2017-05-26T18:53:52Z</time>
      </trkpt>
      <trkpt lat="45.64048" lon="5.7185">
        <ele>737</ele>
        <time>2017-05-26T18:54:08Z</time>
      </trkpt>
      <trkpt lat="45.64045" lon="5.71853">
        <ele>737</ele>
        <time>2017-05-26T18:54:08Z</time>
      </trkpt>
      <trkpt lat="45.64042" lon="5.71855">
        <ele>737</ele>
        <time>2017-05-26T18:54:08Z</time>
      </trkpt>
      <trkpt lat="45.64038" lon="5.71852">
        <ele>736</ele>
        <time>2017-05-26T18:54:08Z</time>
      </trkpt>
      <trkpt lat="45.64035" lon="5.71845">
        <ele>736</ele>
        <time>2017-05-26T18:54:24Z</time>
      </trkpt>
      <trkpt lat="45.64033" lon="5.71837">
        <ele>736</ele>
        <time>2017-05-26T18:54:24Z</time>
      </trkpt>
      <trkpt lat="45.64031" lon="5.71829">
        <ele>736</ele>
        <time>2017-05-26T18:54:24Z</time>
      </trkpt>
      <trkpt lat="45.6403" lon="5.71821">
        <ele>736</ele>
        <time>2017-05-26T18:54:24Z</time>
      </trkpt>
      <trkpt lat="45.64028" lon="5.71814">
        <ele>736</ele>
        <time>2017-05-26T18:54:40Z</time>
      </trkpt>
      <trkpt lat="45.64029" lon="5.71807">
        <ele>736</ele>
        <time>2017-05-26T18:54:40Z</time>
      </trkpt>
      <trkpt lat="45.64027" lon="5.71794">
        <ele>736</ele>
        <time>2017-05-26T18:54:40Z</time>
      </trkpt>
      <trkpt lat="45.64025" lon="5.71789">
        <ele>747</ele>
        <time>2017-05-26T18:54:40Z</time>
      </trkpt>
      <trkpt lat="45.64024" lon="5.71787">
        <ele>747</ele>
        <time>2017-05-26T18:54:56Z</time>
      </trkpt>
      <trkpt lat="45.64023" lon="5.71785">
        <ele>747</ele>
        <time>2017-05-26T18:54:56Z</time>
      </trkpt>
      <trkpt lat="45.64017" lon="5.71777">
        <ele>747</ele>
        <time>2017-05-26T18:54:56Z</time>
      </trkpt>
      <trkpt lat="45.64012" lon="5.7177">
        <ele>747</ele>
        <time>2017-05-26T18:54:56Z</time>
      </trkpt>
      <trkpt lat="45.64006" lon="5.71765">
        <ele>747</ele>
        <time>2017-05-26T18:55:12Z</time>
      </trkpt>
      <trkpt lat="45.64" lon="5.71759">
        <ele>747</ele>
        <time>2017-05-26T18:55:12Z</time>
      </trkpt>
      <trkpt lat="45.63995" lon="5.71753">
        <ele>747</ele>
        <time>2017-05-26T18:55:12Z</time>
      </trkpt>
      <trkpt lat="45.63989" lon="5.71748">
        <ele>747</ele>
        <time>2017-05-26T18:55:12Z</time>
      </trkpt>
      <trkpt lat="45.63984" lon="5.71742">
        <ele>747</ele>
        <time>2017-05-26T18:55:28Z</time>
      </trkpt>
      <trkpt lat="45.63978" lon="5.71737">
        <ele>747</ele>
        <time>2017-05-26T18:55:28Z</time>
      </trkpt>
      <trkpt lat="45.63973" lon="5.71732">
        <ele>747</ele>
        <time>2017-05-26T18:55:28Z</time>
      </trkpt>
      <trkpt lat="45.63968" lon="5.71726">
        <ele>747</ele>
        <time>2017-05-26T18:55:28Z</time>
      </trkpt>
      <trkpt lat="45.63963" lon="5.71722">
        <ele>747</ele>
        <time>2017-05-26T18:55:44Z</time>
      </trkpt>
      <trkpt lat="45.63959" lon="5.71718">
        <ele>747</ele>
        <time>2017-05-26T18:55:44Z</time>
      </trkpt>
      <trkpt lat="45.63955" lon="5.71714">
        <ele>746</ele>
        <time>2017-05-26T18:55:44Z</time>
      </trkpt>
      <trkpt lat="45.63951" lon="5.7171">
        <ele>746</ele>
        <time>2017-05-26T18:55:44Z</time>
      </trkpt>
      <trkpt lat="45.63947" lon="5.71706">
        <ele>757</ele>
        <time>2017-05-26T18:56:00Z</time>
      </trkpt>
      <trkpt lat="45.63941" lon="5.717">
        <ele>757</ele>
        <time>2017-05-26T18:56:00Z</time>
      </trkpt>
      <trkpt lat="45.63934" lon="5.71692">
        <ele>757</ele>
        <time>2017-05-26T18:56:00Z</time>
      </trkpt>
      <trkpt lat="45.63928" lon="5.71687">
        <ele>757</ele>
        <time>2017-05-26T18:56:00Z</time>
      </trkpt>
      <trkpt lat="45.63924" lon="5.71685">
        <ele>757</ele>
        <time>2017-05-26T18:56:16Z</time>
      </trkpt>
      <trkpt lat="45.63919" lon="5.71682">
        <ele>757</ele>
        <time>2017-05-26T18:56:16Z</time>
      </trkpt>
      <trkpt lat="45.63913" lon="5.71678">
        <ele>757</ele>
        <time>2017-05-26T18:56:16Z</time>
      </trkpt>
      <trkpt lat="45.63909" lon="5.71674">
        <ele>757</ele>
        <time>2017-05-26T18:56:16Z</time>
      </trkpt>
      <trkpt lat="45.63905" lon="5.71671">
        <ele>757</ele>
        <time>2017-05-26T18:56:32Z</time>
      </trkpt>
      <trkpt lat="45.639" lon="5.71667">
        <ele>757</ele>
        <time>2017-05-26T18:56:32Z</time>
      </trkpt>
      <trkpt lat="45.63894" lon="5.71665">
        <ele>757</ele>
        <time>2017-05-26T18:56:32Z</time>
      </trkpt>
      <trkpt lat="45.63888" lon="5.71664">
        <ele>757</ele>
        <time>2017-05-26T18:56:32Z</time>
      </trkpt>
      <trkpt lat="45.63881" lon="5.71664">
        <ele>757</ele>
        <time>2017-05-26T18:56:48Z</time>
      </trkpt>
      <trkpt lat="45.63874" lon="5.71665">
        <ele>760</ele>
        <time>2017-05-26T18:56:48Z</time>
      </trkpt>
      <trkpt lat="45.63868" lon="5.71666">
        <ele>760</ele>
        <time>2017-05-26T18:56:48Z</time>
      </trkpt>
      <trkpt lat="45.63863" lon="5.7167">
        <ele>760</ele>
        <time>2017-05-26T18:56:48Z</time>
      </trkpt>
      <trkpt lat="45.63862" lon="5.71671">
        <ele>760</ele>
        <time>2017-05-26T18:57:32Z</time>
      </trkpt>
      <trkpt lat="45.63823" lon="5.71638">
        <ele>760</ele>
        <time>2017-05-26T18:57:32Z</time>
      </trkpt>
      <trkpt lat="45.63822" lon="5.71629">
        <ele>760</ele>
        <time>2017-05-26T18:57:32Z</time>
      </trkpt>
      <trkpt lat="45.6382" lon="5.71614">
        <ele>768</ele>
        <time>2017-05-26T18:57:32Z</time>
      </trkpt>
      <trkpt lat="45.63819" lon="5.71603">
        <ele>768</ele>
        <time>2017-05-26T18:57:48Z</time>
      </trkpt>
      <trkpt lat="45.63819" lon="5.71594">
        <ele>768</ele>
        <time>2017-05-26T18:57:48Z</time>
      </trkpt>
      <trkpt lat="45.63818" lon="5.71586">
        <ele>768</ele>
        <time>2017-05-26T18:57:48Z</time>
      </trkpt>
      <trkpt lat="45.63818" lon="5.71583">
        <ele>768</ele>
        <time>2017-05-26T18:57:48Z</time>
      </trkpt>
      <trkpt lat="45.63815" lon="5.71581">
        <ele>768</ele>
        <time>2017-05-26T18:58:08Z</time>
      </trkpt>
      <trkpt lat="45.63813" lon="5.71581">
        <ele>768</ele>
        <time>2017-05-26T18:58:08Z</time>
      </trkpt>
      <trkpt lat="45.63811" lon="5.7158">
        <ele>768</ele>
        <time>2017-05-26T18:58:08Z</time>
      </trkpt>
      <trkpt lat="45.63807" lon="5.71578">
        <ele>768</ele>
        <time>2017-05-26T18:58:08Z</time>
      </trkpt>
      <trkpt lat="45.63803" lon="5.71576">
        <ele>768</ele>
        <time>2017-05-26T18:58:08Z</time>
      </trkpt>
      <trkpt lat="45.63797" lon="5.71573">
        <ele>768</ele>
        <time>2017-05-26T18:58:24Z</time>
      </trkpt>
      <trkpt lat="45.63791" lon="5.71569">
        <ele>766</ele>
        <time>2017-05-26T18:58:24Z</time>
      </trkpt>
      <trkpt lat="45.63785" lon="5.71564">
        <ele>766</ele>
        <time>2017-05-26T18:58:24Z</time>
      </trkpt>
      <trkpt lat="45.6378" lon="5.71561">
        <ele>766</ele>
        <time>2017-05-26T18:58:24Z</time>
      </trkpt>
      <trkpt lat="45.63775" lon="5.71557">
        <ele>766</ele>
        <time>2017-05-26T18:58:40Z</time>
      </trkpt>
      <trkpt lat="45.63772" lon="5.71555">
        <ele>766</ele>
        <time>2017-05-26T18:58:40Z</time>
      </trkpt>
      <trkpt lat="45.63768" lon="5.71552">
        <ele>766</ele>
        <time>2017-05-26T18:58:40Z</time>
      </trkpt>
      <trkpt lat="45.63765" lon="5.71547">
        <ele>766</ele>
        <time>2017-05-26T18:58:40Z</time>
      </trkpt>
      <trkpt lat="45.63763" lon="5.7154">
        <ele>772</ele>
        <time>2017-05-26T18:58:56Z</time>
      </trkpt>
      <trkpt lat="45.63763" lon="5.71533">
        <ele>772</ele>
        <time>2017-05-26T18:58:56Z</time>
      </trkpt>
      <trkpt lat="45.63764" lon="5.71527">
        <ele>772</ele>
        <time>2017-05-26T18:58:56Z</time>
      </trkpt>
      <trkpt lat="45.63762" lon="5.71518">
        <ele>772</ele>
        <time>2017-05-26T18:58:56Z</time>
      </trkpt>
      <trkpt lat="45.63761" lon="5.71511">
        <ele>772</ele>
        <time>2017-05-26T18:59:12Z</time>
      </trkpt>
      <trkpt lat="45.63761" lon="5.71504">
        <ele>772</ele>
        <time>2017-05-26T18:59:12Z</time>
      </trkpt>
      <trkpt lat="45.63761" lon="5.71497">
        <ele>772</ele>
        <time>2017-05-26T18:59:12Z</time>
      </trkpt>
      <trkpt lat="45.6376" lon="5.71489">
        <ele>772</ele>
        <time>2017-05-26T18:59:12Z</time>
      </trkpt>
      <trkpt lat="45.6376" lon="5.71481">
        <ele>772</ele>
        <time>2017-05-26T18:59:28Z</time>
      </trkpt>
      <trkpt lat="45.6376" lon="5.71476">
        <ele>772</ele>
        <time>2017-05-26T18:59:28Z</time>
      </trkpt>
      <trkpt lat="45.6376" lon="5.71471">
        <ele>772</ele>
        <time>2017-05-26T18:59:28Z</time>
      </trkpt>
      <trkpt lat="45.63761" lon="5.71465">
        <ele>772</ele>
        <time>2017-05-26T18:59:28Z</time>
      </trkpt>
      <trkpt lat="45.6376" lon="5.71463">
        <ele>772</ele>
        <time>2017-05-26T18:59:44Z</time>
      </trkpt>
      <trkpt lat="45.63759" lon="5.71457">
        <ele>778</ele>
        <time>2017-05-26T18:59:44Z</time>
      </trkpt>
      <trkpt lat="45.63758" lon="5.71452">
        <ele>778</ele>
        <time>2017-05-26T18:59:44Z</time>
      </trkpt>
      <trkpt lat="45.63756" lon="5.71449">
        <ele>778</ele>
        <time>2017-05-26T18:59:44Z</time>
      </trkpt>
      <trkpt lat="45.63755" lon="5.71445">
        <ele>778</ele>
        <time>2017-05-26T19:00:00Z</time>
      </trkpt>
      <trkpt lat="45.63753" lon="5.71436">
        <ele>778</ele>
        <time>2017-05-26T19:00:00Z</time>
      </trkpt>
      <trkpt lat="45.6375" lon="5.71425">
        <ele>778</ele>
        <time>2017-05-26T19:00:00Z</time>
      </trkpt>
      <trkpt lat="45.63749" lon="5.71414">
        <ele>778</ele>
        <time>2017-05-26T19:00:00Z</time>
      </trkpt>
      <trkpt lat="45.63747" lon="5.71404">
        <ele>778</ele>
        <time>2017-05-26T19:00:16Z</time>
      </trkpt>
      <trkpt lat="45.63746" lon="5.71394">
        <ele>778</ele>
        <time>2017-05-26T19:00:16Z</time>
      </trkpt>
      <trkpt lat="45.63745" lon="5.71386">
        <ele>778</ele>
        <time>2017-05-26T19:00:16Z</time>
      </trkpt>
      <trkpt lat="45.63745" lon="5.71378">
        <ele>778</ele>
        <time>2017-05-26T19:00:16Z</time>
      </trkpt>
      <trkpt lat="45.63743" lon="5.71372">
        <ele>789</ele>
        <time>2017-05-26T19:00:32Z</time>
      </trkpt>
      <trkpt lat="45.63739" lon="5.71365">
        <ele>789</ele>
        <time>2017-05-26T19:00:32Z</time>
      </trkpt>
      <trkpt lat="45.63733" lon="5.71357">
        <ele>789</ele>
        <time>2017-05-26T19:00:32Z</time>
      </trkpt>
      <trkpt lat="45.63728" lon="5.71349">
        <ele>789</ele>
        <time>2017-05-26T19:00:32Z</time>
      </trkpt>
      <trkpt lat="45.63724" lon="5.71343">
        <ele>789</ele>
        <time>2017-05-26T19:00:48Z</time>
      </trkpt>
      <trkpt lat="45.63722" lon="5.71336">
        <ele>789</ele>
        <time>2017-05-26T19:00:48Z</time>
      </trkpt>
      <trkpt lat="45.6372" lon="5.7133">
        <ele>789</ele>
        <time>2017-05-26T19:00:48Z</time>
      </trkpt>
      <trkpt lat="45.63718" lon="5.71323">
        <ele>789</ele>
        <time>2017-05-26T19:00:48Z</time>
      </trkpt>
      <trkpt lat="45.63714" lon="5.71319">
        <ele>789</ele>
        <time>2017-05-26T19:01:04Z</time>
      </trkpt>
      <trkpt lat="45.63709" lon="5.71314">
        <ele>789</ele>
        <time>2017-05-26T19:01:04Z</time>
      </trkpt>
      <trkpt lat="45.63704" lon="5.7131">
        <ele>791</ele>
        <time>2017-05-26T19:01:04Z</time>
      </trkpt>
      <trkpt lat="45.63699" lon="5.71307">
        <ele>791</ele>
        <time>2017-05-26T19:01:04Z</time>
      </trkpt>
      <trkpt lat="45.63694" lon="5.71305">
        <ele>791</ele>
        <time>2017-05-26T19:01:20Z</time>
      </trkpt>
      <trkpt lat="45.63688" lon="5.71304">
        <ele>791</ele>
        <time>2017-05-26T19:01:20Z</time>
      </trkpt>
      <trkpt lat="45.63683" lon="5.71304">
        <ele>791</ele>
        <time>2017-05-26T19:01:20Z</time>
      </trkpt>
      <trkpt lat="45.63678" lon="5.71309">
        <ele>791</ele>
        <time>2017-05-26T19:01:20Z</time>
      </trkpt>
      <trkpt lat="45.63671" lon="5.71312">
        <ele>791</ele>
        <time>2017-05-26T19:01:36Z</time>
      </trkpt>
      <trkpt lat="45.63668" lon="5.71316">
        <ele>791</ele>
        <time>2017-05-26T19:01:36Z</time>
      </trkpt>
      <trkpt lat="45.63665" lon="5.71319">
        <ele>791</ele>
        <time>2017-05-26T19:01:36Z</time>
      </trkpt>
      <trkpt lat="45.63661" lon="5.71319">
        <ele>791</ele>
        <time>2017-05-26T19:01:36Z</time>
      </trkpt>
      <trkpt lat="45.63659" lon="5.71314">
        <ele>791</ele>
        <time>2017-05-26T19:01:52Z</time>
      </trkpt>
      <trkpt lat="45.63658" lon="5.71309">
        <ele>791</ele>
        <time>2017-05-26T19:01:52Z</time>
      </trkpt>
      <trkpt lat="45.63658" lon="5.71305">
        <ele>791</ele>
        <time>2017-05-26T19:01:52Z</time>
      </trkpt>
      <trkpt lat="45.63657" lon="5.713">
        <ele>791</ele>
        <time>2017-05-26T19:01:52Z</time>
      </trkpt>
      <trkpt lat="45.63657" lon="5.71294">
        <ele>791</ele>
        <time>2017-05-26T19:02:08Z</time>
      </trkpt>
      <trkpt lat="45.63656" lon="5.71285">
        <ele>808</ele>
        <time>2017-05-26T19:02:08Z</time>
      </trkpt>
      <trkpt lat="45.63655" lon="5.71277">
        <ele>808</ele>
        <time>2017-05-26T19:02:08Z</time>
      </trkpt>
      <trkpt lat="45.63654" lon="5.71275">
        <ele>808</ele>
        <time>2017-05-26T19:02:08Z</time>
      </trkpt>
      <trkpt lat="45.63651" lon="5.7127">
        <ele>808</ele>
        <time>2017-05-26T19:02:24Z</time>
      </trkpt>
      <trkpt lat="45.63644" lon="5.71261">
        <ele>808</ele>
        <time>2017-05-26T19:02:24Z</time>
      </trkpt>
      <trkpt lat="45.63637" lon="5.71253">
        <ele>808</ele>
        <time>2017-05-26T19:02:24Z</time>
      </trkpt>
      <trkpt lat="45.63632" lon="5.71252">
        <ele>808</ele>
        <time>2017-05-26T19:02:24Z</time>
      </trkpt>
      <trkpt lat="45.63628" lon="5.71253">
        <ele>808</ele>
        <time>2017-05-26T19:02:40Z</time>
      </trkpt>
      <trkpt lat="45.63625" lon="5.71255">
        <ele>809</ele>
        <time>2017-05-26T19:02:40Z</time>
      </trkpt>
      <trkpt lat="45.63621" lon="5.71258">
        <ele>809</ele>
        <time>2017-05-26T19:02:40Z</time>
      </trkpt>
      <trkpt lat="45.63617" lon="5.71253">
        <ele>809</ele>
        <time>2017-05-26T19:02:40Z</time>
      </trkpt>
      <trkpt lat="45.63614" lon="5.71247">
        <ele>809</ele>
        <time>2017-05-26T19:02:56Z</time>
      </trkpt>
      <trkpt lat="45.63609" lon="5.71241">
        <ele>809</ele>
        <time>2017-05-26T19:02:56Z</time>
      </trkpt>
      <trkpt lat="45.63607" lon="5.71239">
        <ele>809</ele>
        <time>2017-05-26T19:02:56Z</time>
      </trkpt>
      <trkpt lat="45.63605" lon="5.71235">
        <ele>809</ele>
        <time>2017-05-26T19:02:56Z</time>
      </trkpt>
      <trkpt lat="45.63601" lon="5.71229">
        <ele>809</ele>
        <time>2017-05-26T19:03:12Z</time>
      </trkpt>
      <trkpt lat="45.63596" lon="5.71225">
        <ele>809</ele>
        <time>2017-05-26T19:03:12Z</time>
      </trkpt>
      <trkpt lat="45.6359" lon="5.71221">
        <ele>809</ele>
        <time>2017-05-26T19:03:12Z</time>
      </trkpt>
      <trkpt lat="45.63581" lon="5.71213">
        <ele>809</ele>
        <time>2017-05-26T19:03:12Z</time>
      </trkpt>
      <trkpt lat="45.63573" lon="5.71212">
        <ele>809</ele>
        <time>2017-05-26T19:03:28Z</time>
      </trkpt>
      <trkpt lat="45.63562" lon="5.71208">
        <ele>821</ele>
        <time>2017-05-26T19:03:28Z</time>
      </trkpt>
      <trkpt lat="45.63554" lon="5.71207">
        <ele>821</ele>
        <time>2017-05-26T19:03:28Z</time>
      </trkpt>
      <trkpt lat="45.63549" lon="5.71208">
        <ele>809</ele>
        <time>2017-05-26T19:03:28Z</time>
      </trkpt>
      <trkpt lat="45.63544" lon="5.7121">
        <ele>809</ele>
        <time>2017-05-26T19:03:44Z</time>
      </trkpt>
      <trkpt lat="45.6354" lon="5.71211">
        <ele>806</ele>
        <time>2017-05-26T19:03:44Z</time>
      </trkpt>
      <trkpt lat="45.63535" lon="5.71211">
        <ele>806</ele>
        <time>2017-05-26T19:03:44Z</time>
      </trkpt>
      <trkpt lat="45.6353" lon="5.71211">
        <ele>806</ele>
        <time>2017-05-26T19:03:44Z</time>
      </trkpt>
      <trkpt lat="45.63525" lon="5.71212">
        <ele>806</ele>
        <time>2017-05-26T19:04:00Z</time>
      </trkpt>
      <trkpt lat="45.63521" lon="5.71211">
        <ele>806</ele>
        <time>2017-05-26T19:04:00Z</time>
      </trkpt>
      <trkpt lat="45.63517" lon="5.71212">
        <ele>806</ele>
        <time>2017-05-26T19:04:00Z</time>
      </trkpt>
      <trkpt lat="45.63512" lon="5.71216">
        <ele>806</ele>
        <time>2017-05-26T19:04:00Z</time>
      </trkpt>
      <trkpt lat="45.63509" lon="5.71219">
        <ele>806</ele>
        <time>2017-05-26T19:04:16Z</time>
      </trkpt>
      <trkpt lat="45.63505" lon="5.71227">
        <ele>806</ele>
        <time>2017-05-26T19:04:16Z</time>
      </trkpt>
      <trkpt lat="45.63502" lon="5.71237">
        <ele>806</ele>
        <time>2017-05-26T19:04:16Z</time>
      </trkpt>
      <trkpt lat="45.63498" lon="5.71248">
        <ele>806</ele>
        <time>2017-05-26T19:04:16Z</time>
      </trkpt>
      <trkpt lat="45.63492" lon="5.71253">
        <ele>806</ele>
        <time>2017-05-26T19:04:32Z</time>
      </trkpt>
      <trkpt lat="45.63484" lon="5.71257">
        <ele>806</ele>
        <time>2017-05-26T19:04:32Z</time>
      </trkpt>
      <trkpt lat="45.63478" lon="5.7126">
        <ele>806</ele>
        <time>2017-05-26T19:04:32Z</time>
      </trkpt>
      <trkpt lat="45.63474" lon="5.71262">
        <ele>806</ele>
        <time>2017-05-26T19:04:32Z</time>
      </trkpt>
      <trkpt lat="45.6347" lon="5.71259">
        <ele>806</ele>
        <time>2017-05-26T19:04:48Z</time>
      </trkpt>
      <trkpt lat="45.63464" lon="5.71254">
        <ele>806</ele>
        <time>2017-05-26T19:04:48Z</time>
      </trkpt>
      <trkpt lat="45.63457" lon="5.71252">
        <ele>799</ele>
        <time>2017-05-26T19:04:48Z</time>
      </trkpt>
      <trkpt lat="45.63453" lon="5.71254">
        <ele>799</ele>
        <time>2017-05-26T19:04:48Z</time>
      </trkpt>
      <trkpt lat="45.63448" lon="5.71257">
        <ele>799</ele>
        <time>2017-05-26T19:05:04Z</time>
      </trkpt>
      <trkpt lat="45.63442" lon="5.71261">
        <ele>799</ele>
        <time>2017-05-26T19:05:04Z</time>
      </trkpt>
      <trkpt lat="45.63437" lon="5.71263">
        <ele>799</ele>
        <time>2017-05-26T19:05:04Z</time>
      </trkpt>
      <trkpt lat="45.63432" lon="5.71268">
        <ele>799</ele>
        <time>2017-05-26T19:05:04Z</time>
      </trkpt>
      <trkpt lat="45.63428" lon="5.71273">
        <ele>799</ele>
        <time>2017-05-26T19:05:20Z</time>
      </trkpt>
      <trkpt lat="45.63427" lon="5.71277">
        <ele>799</ele>
        <time>2017-05-26T19:05:20Z</time>
      </trkpt>
      <trkpt lat="45.63424" lon="5.71281">
        <ele>799</ele>
        <time>2017-05-26T19:05:20Z</time>
      </trkpt>
      <trkpt lat="45.63421" lon="5.71287">
        <ele>799</ele>
        <time>2017-05-26T19:05:20Z</time>
      </trkpt>
      <trkpt lat="45.63417" lon="5.71287">
        <ele>799</ele>
        <time>2017-05-26T19:05:36Z</time>
      </trkpt>
      <trkpt lat="45.63412" lon="5.71288">
        <ele>799</ele>
        <time>2017-05-26T19:05:36Z</time>
      </trkpt>
      <trkpt lat="45.63408" lon="5.71292">
        <ele>795</ele>
        <time>2017-05-26T19:05:36Z</time>
      </trkpt>
      <trkpt lat="45.63401" lon="5.71294">
        <ele>795</ele>
        <time>2017-05-26T19:05:36Z</time>
      </trkpt>
      <trkpt lat="45.63394" lon="5.71301">
        <ele>795</ele>
        <time>2017-05-26T19:05:52Z</time>
      </trkpt>
      <trkpt lat="45.63386" lon="5.71308">
        <ele>795</ele>
        <time>2017-05-26T19:05:52Z</time>
      </trkpt>
      <trkpt lat="45.63383" lon="5.71314">
        <ele>795</ele>
        <time>2017-05-26T19:05:52Z</time>
      </trkpt>
      <trkpt lat="45.6338" lon="5.7132">
        <ele>795</ele>
        <time>2017-05-26T19:05:52Z</time>
      </trkpt>
      <trkpt lat="45.63376" lon="5.71326">
        <ele>795</ele>
        <time>2017-05-26T19:06:08Z</time>
      </trkpt>
      <trkpt lat="45.63372" lon="5.71326">
        <ele>784</ele>
        <time>2017-05-26T19:06:08Z</time>
      </trkpt>
      <trkpt lat="45.63367" lon="5.71323">
        <ele>784</ele>
        <time>2017-05-26T19:06:08Z</time>
      </trkpt>
      <trkpt lat="45.63361" lon="5.7132">
        <ele>784</ele>
        <time>2017-05-26T19:06:08Z</time>
      </trkpt>
      <trkpt lat="45.63357" lon="5.71317">
        <ele>784</ele>
        <time>2017-05-26T19:06:24Z</time>
      </trkpt>
      <trkpt lat="45.63354" lon="5.71317">
        <ele>784</ele>
        <time>2017-05-26T19:06:24Z</time>
      </trkpt>
      <trkpt lat="45.63351" lon="5.71314">
        <ele>784</ele>
        <time>2017-05-26T19:06:24Z</time>
      </trkpt>
      <trkpt lat="45.63347" lon="5.71311">
        <ele>784</ele>
        <time>2017-05-26T19:06:24Z</time>
      </trkpt>
      <trkpt lat="45.63342" lon="5.71309">
        <ele>784</ele>
        <time>2017-05-26T19:06:40Z</time>
      </trkpt>
      <trkpt lat="45.63336" lon="5.71309">
        <ele>784</ele>
        <time>2017-05-26T19:06:40Z</time>
      </trkpt>
      <trkpt lat="45.63331" lon="5.71311">
        <ele>784</ele>
        <time>2017-05-26T19:06:40Z</time>
      </trkpt>
      <trkpt lat="45.63327" lon="5.71316">
        <ele>784</ele>
        <time>2017-05-26T19:06:40Z</time>
      </trkpt>
      <trkpt lat="45.63324" lon="5.71321">
        <ele>784</ele>
        <time>2017-05-26T19:06:56Z</time>
      </trkpt>
      <trkpt lat="45.6332" lon="5.71326">
        <ele>784</ele>
        <time>2017-05-26T19:06:56Z</time>
      </trkpt>
      <trkpt lat="45.63316" lon="5.71331">
        <ele>784</ele>
        <time>2017-05-26T19:06:56Z</time>
      </trkpt>
      <trkpt lat="45.63312" lon="5.71338">
        <ele>784</ele>
        <time>2017-05-26T19:06:56Z</time>
      </trkpt>
      <trkpt lat="45.6331" lon="5.71344">
        <ele>784</ele>
        <time>2017-05-26T19:07:12Z</time>
      </trkpt>
      <trkpt lat="45.63307" lon="5.7135">
        <ele>784</ele>
        <time>2017-05-26T19:07:12Z</time>
      </trkpt>
      <trkpt lat="45.63304" lon="5.71358">
        <ele>784</ele>
        <time>2017-05-26T19:07:12Z</time>
      </trkpt>
      <trkpt lat="45.63303" lon="5.7137">
        <ele>784</ele>
        <time>2017-05-26T19:07:12Z</time>
      </trkpt>
      <trkpt lat="45.63304" lon="5.71387">
        <ele>783</ele>
        <time>2017-05-26T19:07:28Z</time>
      </trkpt>
      <trkpt lat="45.63305" lon="5.71395">
        <ele>783</ele>
        <time>2017-05-26T19:07:28Z</time>
      </trkpt>
      <trkpt lat="45.63306" lon="5.71403">
        <ele>783</ele>
        <time>2017-05-26T19:07:28Z</time>
      </trkpt>
      <trkpt lat="45.63307" lon="5.71411">
        <ele>783</ele>
        <time>2017-05-26T19:07:28Z</time>
      </trkpt>
      <trkpt lat="45.63307" lon="5.71419">
        <ele>783</ele>
        <time>2017-05-26T19:07:44Z</time>
      </trkpt>
      <trkpt lat="45.63309" lon="5.71427">
        <ele>783</ele>
        <time>2017-05-26T19:07:44Z</time>
      </trkpt>
      <trkpt lat="45.63311" lon="5.71433">
        <ele>783</ele>
        <time>2017-05-26T19:07:44Z</time>
      </trkpt>
      <trkpt lat="45.63315" lon="5.71438">
        <ele>783</ele>
        <time>2017-05-26T19:07:44Z</time>
      </trkpt>
      <trkpt lat="45.63317" lon="5.71446">
        <ele>783</ele>
        <time>2017-05-26T19:08:00Z</time>
      </trkpt>
      <trkpt lat="45.63319" lon="5.71452">
        <ele>783</ele>
        <time>2017-05-26T19:08:00Z</time>
      </trkpt>
      <trkpt lat="45.63321" lon="5.71459">
        <ele>782</ele>
        <time>2017-05-26T19:08:00Z</time>
      </trkpt>
      <trkpt lat="45.63324" lon="5.71465">
        <ele>782</ele>
        <time>2017-05-26T19:08:00Z</time>
      </trkpt>
      <trkpt lat="45.63326" lon="5.71471">
        <ele>782</ele>
        <time>2017-05-26T19:08:16Z</time>
      </trkpt>
      <trkpt lat="45.63329" lon="5.71479">
        <ele>782</ele>
        <time>2017-05-26T19:08:16Z</time>
      </trkpt>
      <trkpt lat="45.6333" lon="5.71489">
        <ele>782</ele>
        <time>2017-05-26T19:08:16Z</time>
      </trkpt>
      <trkpt lat="45.6333" lon="5.71497">
        <ele>782</ele>
        <time>2017-05-26T19:08:16Z</time>
      </trkpt>
      <trkpt lat="45.6333" lon="5.71505">
        <ele>782</ele>
        <time>2017-05-26T19:08:32Z</time>
      </trkpt>
      <trkpt lat="45.6333" lon="5.71513">
        <ele>782</ele>
        <time>2017-05-26T19:08:32Z</time>
      </trkpt>
      <trkpt lat="45.6333" lon="5.7152">
        <ele>782</ele>
        <time>2017-05-26T19:08:32Z</time>
      </trkpt>
      <trkpt lat="45.63329" lon="5.71528">
        <ele>782</ele>
        <time>2017-05-26T19:08:32Z</time>
      </trkpt>
      <trkpt lat="45.63328" lon="5.71535">
        <ele>782</ele>
        <time>2017-05-26T19:08:48Z</time>
      </trkpt>
      <trkpt lat="45.63328" lon="5.71542">
        <ele>782</ele>
        <time>2017-05-26T19:08:48Z</time>
      </trkpt>
      <trkpt lat="45.63328" lon="5.71548">
        <ele>779</ele>
        <time>2017-05-26T19:08:48Z</time>
      </trkpt>
      <trkpt lat="45.63328" lon="5.71549">
        <ele>779</ele>
        <time>2017-05-26T19:08:48Z</time>
      </trkpt>
      <trkpt lat="45.63329" lon="5.71552">
        <ele>779</ele>
        <time>2017-05-26T19:09:08Z</time>
      </trkpt>
      <trkpt lat="45.63328" lon="5.71555">
        <ele>779</ele>
        <time>2017-05-26T19:09:08Z</time>
      </trkpt>
      <trkpt lat="45.63328" lon="5.71557">
        <ele>779</ele>
        <time>2017-05-26T19:09:08Z</time>
      </trkpt>
      <trkpt lat="45.63328" lon="5.71561">
        <ele>779</ele>
        <time>2017-05-26T19:09:08Z</time>
      </trkpt>
      <trkpt lat="45.63329" lon="5.71566">
        <ele>779</ele>
        <time>2017-05-26T19:09:08Z</time>
      </trkpt>
      <trkpt lat="45.6333" lon="5.71577">
        <ele>779</ele>
        <time>2017-05-26T19:09:24Z</time>
      </trkpt>
      <trkpt lat="45.63331" lon="5.71586">
        <ele>779</ele>
        <time>2017-05-26T19:09:24Z</time>
      </trkpt>
      <trkpt lat="45.63331" lon="5.71595">
        <ele>779</ele>
        <time>2017-05-26T19:09:24Z</time>
      </trkpt>
      <trkpt lat="45.6333" lon="5.71606">
        <ele>779</ele>
        <time>2017-05-26T19:09:24Z</time>
      </trkpt>
      <trkpt lat="45.63332" lon="5.71614">
        <ele>779</ele>
        <time>2017-05-26T19:09:40Z</time>
      </trkpt>
      <trkpt lat="45.63332" lon="5.71622">
        <ele>779</ele>
        <time>2017-05-26T19:09:40Z</time>
      </trkpt>
      <trkpt lat="45.63331" lon="5.71632">
        <ele>772</ele>
        <time>2017-05-26T19:09:40Z</time>
      </trkpt>
      <trkpt lat="45.6333" lon="5.71643">
        <ele>772</ele>
        <time>2017-05-26T19:09:40Z</time>
      </trkpt>
      <trkpt lat="45.63327" lon="5.7166">
        <ele>772</ele>
        <time>2017-05-26T19:09:56Z</time>
      </trkpt>
      <trkpt lat="45.63327" lon="5.71673">
        <ele>772</ele>
        <time>2017-05-26T19:09:56Z</time>
      </trkpt>
      <trkpt lat="45.63327" lon="5.71682">
        <ele>772</ele>
        <time>2017-05-26T19:09:56Z</time>
      </trkpt>
      <trkpt lat="45.63328" lon="5.71691">
        <ele>772</ele>
        <time>2017-05-26T19:09:56Z</time>
      </trkpt>
      <trkpt lat="45.63328" lon="5.717">
        <ele>772</ele>
        <time>2017-05-26T19:10:12Z</time>
      </trkpt>
      <trkpt lat="45.63327" lon="5.71707">
        <ele>772</ele>
        <time>2017-05-26T19:10:12Z</time>
      </trkpt>
      <trkpt lat="45.63325" lon="5.71715">
        <ele>759</ele>
        <time>2017-05-26T19:10:12Z</time>
      </trkpt>
      <trkpt lat="45.63322" lon="5.71724">
        <ele>759</ele>
        <time>2017-05-26T19:10:12Z</time>
      </trkpt>
      <trkpt lat="45.63318" lon="5.71735">
        <ele>759</ele>
        <time>2017-05-26T19:10:28Z</time>
      </trkpt>
      <trkpt lat="45.63316" lon="5.71744">
        <ele>759</ele>
        <time>2017-05-26T19:10:28Z</time>
      </trkpt>
      <trkpt lat="45.63313" lon="5.71753">
        <ele>759</ele>
        <time>2017-05-26T19:10:28Z</time>
      </trkpt>
      <trkpt lat="45.63312" lon="5.71759">
        <ele>759</ele>
        <time>2017-05-26T19:10:28Z</time>
      </trkpt>
      <trkpt lat="45.63311" lon="5.71767">
        <ele>759</ele>
        <time>2017-05-26T19:10:44Z</time>
      </trkpt>
      <trkpt lat="45.63308" lon="5.71776">
        <ele>759</ele>
        <time>2017-05-26T19:10:44Z</time>
      </trkpt>
      <trkpt lat="45.63305" lon="5.71784">
        <ele>759</ele>
        <time>2017-05-26T19:10:44Z</time>
      </trkpt>
      <trkpt lat="45.63303" lon="5.71791">
        <ele>759</ele>
        <time>2017-05-26T19:10:44Z</time>
      </trkpt>
      <trkpt lat="45.633" lon="5.71797">
        <ele>739</ele>
        <time>2017-05-26T19:11:00Z</time>
      </trkpt>
      <trkpt lat="45.63296" lon="5.71802">
        <ele>739</ele>
        <time>2017-05-26T19:11:00Z</time>
      </trkpt>
      <trkpt lat="45.63292" lon="5.71807">
        <ele>739</ele>
        <time>2017-05-26T19:11:00Z</time>
      </trkpt>
      <trkpt lat="45.63289" lon="5.71813">
        <ele>741</ele>
        <time>2017-05-26T19:11:00Z</time>
      </trkpt>
      <trkpt lat="45.63286" lon="5.71819">
        <ele>741</ele>
        <time>2017-05-26T19:11:16Z</time>
      </trkpt>
      <trkpt lat="45.63283" lon="5.71826">
        <ele>741</ele>
        <time>2017-05-26T19:11:16Z</time>
      </trkpt>
      <trkpt lat="45.6328" lon="5.71834">
        <ele>741</ele>
        <time>2017-05-26T19:11:16Z</time>
      </trkpt>
      <trkpt lat="45.63277" lon="5.71841">
        <ele>741</ele>
        <time>2017-05-26T19:11:16Z</time>
      </trkpt>
      <trkpt lat="45.63274" lon="5.71848">
        <ele>741</ele>
        <time>2017-05-26T19:11:32Z</time>
      </trkpt>
      <trkpt lat="45.6327" lon="5.71853">
        <ele>741</ele>
        <time>2017-05-26T19:11:32Z</time>
      </trkpt>
      <trkpt lat="45.63268" lon="5.71858">
        <ele>741</ele>
        <time>2017-05-26T19:11:32Z</time>
      </trkpt>
      <trkpt lat="45.63266" lon="5.71863">
        <ele>741</ele>
        <time>2017-05-26T19:11:32Z</time>
      </trkpt>
      <trkpt lat="45.63265" lon="5.71866">
        <ele>741</ele>
        <time>2017-05-26T19:11:48Z</time>
      </trkpt>
      <trkpt lat="45.63263" lon="5.71872">
        <ele>741</ele>
        <time>2017-05-26T19:11:48Z</time>
      </trkpt>
      <trkpt lat="45.63259" lon="5.71875">
        <ele>741</ele>
        <time>2017-05-26T19:11:48Z</time>
      </trkpt>
      <trkpt lat="45.63254" lon="5.71879">
        <ele>728</ele>
        <time>2017-05-26T19:11:48Z</time>
      </trkpt>
      <trkpt lat="45.63249" lon="5.71884">
        <ele>728</ele>
        <time>2017-05-26T19:12:04Z</time>
      </trkpt>
      <trkpt lat="45.63243" lon="5.7189">
        <ele>728</ele>
        <time>2017-05-26T19:12:04Z</time>
      </trkpt>
      <trkpt lat="45.63236" lon="5.71904">
        <ele>728</ele>
        <time>2017-05-26T19:12:04Z</time>
      </trkpt>
      <trkpt lat="45.63226" lon="5.71911">
        <ele>728</ele>
        <time>2017-05-26T19:12:04Z</time>
      </trkpt>
      <trkpt lat="45.63217" lon="5.71919">
        <ele>728</ele>
        <time>2017-05-26T19:12:20Z</time>
      </trkpt>
      <trkpt lat="45.6321" lon="5.71926">
        <ele>728</ele>
        <time>2017-05-26T19:12:20Z</time>
      </trkpt>
      <trkpt lat="45.63205" lon="5.7193">
        <ele>741</ele>
        <time>2017-05-26T19:12:20Z</time>
      </trkpt>
      <trkpt lat="45.63202" lon="5.71934">
        <ele>741</ele>
        <time>2017-05-26T19:12:20Z</time>
      </trkpt>
      <trkpt lat="45.63201" lon="5.71939">
        <ele>741</ele>
        <time>2017-05-26T19:12:36Z</time>
      </trkpt>
      <trkpt lat="45.63198" lon="5.71944">
        <ele>741</ele>
        <time>2017-05-26T19:12:36Z</time>
      </trkpt>
      <trkpt lat="45.63194" lon="5.71949">
        <ele>741</ele>
        <time>2017-05-26T19:12:36Z</time>
      </trkpt>
      <trkpt lat="45.63191" lon="5.71952">
        <ele>741</ele>
        <time>2017-05-26T19:12:36Z</time>
      </trkpt>
      <trkpt lat="45.63187" lon="5.71955">
        <ele>741</ele>
        <time>2017-05-26T19:12:52Z</time>
      </trkpt>
      <trkpt lat="45.63184" lon="5.71958">
        <ele>728</ele>
        <time>2017-05-26T19:12:52Z</time>
      </trkpt>
      <trkpt lat="45.63182" lon="5.71962">
        <ele>728</ele>
        <time>2017-05-26T19:12:52Z</time>
      </trkpt>
      <trkpt lat="45.63179" lon="5.71964">
        <ele>728</ele>
        <time>2017-05-26T19:12:52Z</time>
      </trkpt>
      <trkpt lat="45.63176" lon="5.71968">
        <ele>728</ele>
        <time>2017-05-26T19:13:08Z</time>
      </trkpt>
      <trkpt lat="45.6317" lon="5.71975">
        <ele>728</ele>
        <time>2017-05-26T19:13:08Z</time>
      </trkpt>
      <trkpt lat="45.63163" lon="5.71981">
        <ele>728</ele>
        <time>2017-05-26T19:13:08Z</time>
      </trkpt>
      <trkpt lat="45.63154" lon="5.71985">
        <ele>728</ele>
        <time>2017-05-26T19:13:08Z</time>
      </trkpt>
      <trkpt lat="45.63149" lon="5.71988">
        <ele>728</ele>
        <time>2017-05-26T19:13:24Z</time>
      </trkpt>
      <trkpt lat="45.63146" lon="5.71992">
        <ele>728</ele>
        <time>2017-05-26T19:13:24Z</time>
      </trkpt>
      <trkpt lat="45.63142" lon="5.71994">
        <ele>728</ele>
        <time>2017-05-26T19:13:24Z</time>
      </trkpt>
      <trkpt lat="45.63138" lon="5.71997">
        <ele>728</ele>
        <time>2017-05-26T19:13:24Z</time>
      </trkpt>
      <trkpt lat="45.63134" lon="5.71999">
        <ele>728</ele>
        <time>2017-05-26T19:13:40Z</time>
      </trkpt>
      <trkpt lat="45.6313" lon="5.72003">
        <ele>728</ele>
        <time>2017-05-26T19:13:40Z</time>
      </trkpt>
      <trkpt lat="45.63124" lon="5.72007">
        <ele>734</ele>
        <time>2017-05-26T19:13:40Z</time>
      </trkpt>
      <trkpt lat="45.63118" lon="5.7201">
        <ele>734</ele>
        <time>2017-05-26T19:13:40Z</time>
      </trkpt>
      <trkpt lat="45.6311" lon="5.72013">
        <ele>734</ele>
        <time>2017-05-26T19:13:56Z</time>
      </trkpt>
      <trkpt lat="45.63103" lon="5.72015">
        <ele>734</ele>
        <time>2017-05-26T19:13:56Z</time>
      </trkpt>
      <trkpt lat="45.63097" lon="5.72018">
        <ele>734</ele>
        <time>2017-05-26T19:13:56Z</time>
      </trkpt>
      <trkpt lat="45.63088" lon="5.72021">
        <ele>734</ele>
        <time>2017-05-26T19:13:56Z</time>
      </trkpt>
      <trkpt lat="45.63081" lon="5.72022">
        <ele>734</ele>
        <time>2017-05-26T19:14:12Z</time>
      </trkpt>
      <trkpt lat="45.63076" lon="5.72024">
        <ele>734</ele>
        <time>2017-05-26T19:14:12Z</time>
      </trkpt>
      <trkpt lat="45.63072" lon="5.72026">
        <ele>734</ele>
        <time>2017-05-26T19:14:12Z</time>
      </trkpt>
      <trkpt lat="45.63068" lon="5.72024">
        <ele>734</ele>
        <time>2017-05-26T19:14:12Z</time>
      </trkpt>
      <trkpt lat="45.63063" lon="5.72024">
        <ele>734</ele>
        <time>2017-05-26T19:14:28Z</time>
      </trkpt>
      <trkpt lat="45.63057" lon="5.72025">
        <ele>734</ele>
        <time>2017-05-26T19:14:28Z</time>
      </trkpt>
      <trkpt lat="45.63053" lon="5.7203">
        <ele>734</ele>
        <time>2017-05-26T19:14:28Z</time>
      </trkpt>
      <trkpt lat="45.63048" lon="5.72033">
        <ele>734</ele>
        <time>2017-05-26T19:14:28Z</time>
      </trkpt>
      <trkpt lat="45.63043" lon="5.72035">
        <ele>734</ele>
        <time>2017-05-26T19:14:44Z</time>
      </trkpt>
      <trkpt lat="45.63039" lon="5.72038">
        <ele>740</ele>
        <time>2017-05-26T19:14:44Z</time>
      </trkpt>
      <trkpt lat="45.63036" lon="5.72041">
        <ele>740</ele>
        <time>2017-05-26T19:14:44Z</time>
      </trkpt>
      <trkpt lat="45.63032" lon="5.72047">
        <ele>721</ele>
        <time>2017-05-26T19:14:44Z</time>
      </trkpt>
      <trkpt lat="45.63028" lon="5.72051">
        <ele>721</ele>
        <time>2017-05-26T19:15:00Z</time>
      </trkpt>
      <trkpt lat="45.63024" lon="5.72055">
        <ele>721</ele>
        <time>2017-05-26T19:15:00Z</time>
      </trkpt>
      <trkpt lat="45.6302" lon="5.72059">
        <ele>721</ele>
        <time>2017-05-26T19:15:00Z</time>
      </trkpt>
      <trkpt lat="45.63017" lon="5.72062">
        <ele>721</ele>
        <time>2017-05-26T19:15:00Z</time>
      </trkpt>
      <trkpt lat="45.63015" lon="5.72064">
        <ele>721</ele>
        <time>2017-05-26T19:15:16Z</time>
      </trkpt>
      <trkpt lat="45.63014" lon="5.72068">
        <ele>721</ele>
        <time>2017-05-26T19:15:16Z</time>
      </trkpt>
      <trkpt lat="45.63009" lon="5.72076">
        <ele>721</ele>
        <time>2017-05-26T19:15:16Z</time>
      </trkpt>
      <trkpt lat="45.63005" lon="5.72084">
        <ele>721</ele>
        <time>2017-05-26T19:15:16Z</time>
      </trkpt>
      <trkpt lat="45.63001" lon="5.72091">
        <ele>721</ele>
        <time>2017-05-26T19:15:32Z</time>
      </trkpt>
      <trkpt lat="45.62996" lon="5.72097">
        <ele>721</ele>
        <time>2017-05-26T19:15:32Z</time>
      </trkpt>
      <trkpt lat="45.62992" lon="5.72103">
        <ele>721</ele>
        <time>2017-05-26T19:15:32Z</time>
      </trkpt>
      <trkpt lat="45.6299" lon="5.72106">
        <ele>721</ele>
        <time>2017-05-26T19:15:32Z</time>
      </trkpt>
      <trkpt lat="45.62989" lon="5.72111">
        <ele>721</ele>
        <time>2017-05-26T19:15:48Z</time>
      </trkpt>
      <trkpt lat="45.62987" lon="5.72114">
        <ele>721</ele>
        <time>2017-05-26T19:15:48Z</time>
      </trkpt>
      <trkpt lat="45.62983" lon="5.72118">
        <ele>721</ele>
        <time>2017-05-26T19:15:48Z</time>
      </trkpt>
      <trkpt lat="45.62979" lon="5.72124">
        <ele>721</ele>
        <time>2017-05-26T19:15:48Z</time>
      </trkpt>
      <trkpt lat="45.62975" lon="5.7213">
        <ele>701</ele>
        <time>2017-05-26T19:16:04Z</time>
      </trkpt>
      <trkpt lat="45.62972" lon="5.72137">
        <ele>701</ele>
        <time>2017-05-26T19:16:04Z</time>
      </trkpt>
      <trkpt lat="45.62969" lon="5.72144">
        <ele>701</ele>
        <time>2017-05-26T19:16:04Z</time>
      </trkpt>
      <trkpt lat="45.62965" lon="5.72152">
        <ele>701</ele>
        <time>2017-05-26T19:16:04Z</time>
      </trkpt>
      <trkpt lat="45.6296" lon="5.7216">
        <ele>701</ele>
        <time>2017-05-26T19:16:20Z</time>
      </trkpt>
      <trkpt lat="45.62956" lon="5.72166">
        <ele>711</ele>
        <time>2017-05-26T19:16:20Z</time>
      </trkpt>
      <trkpt lat="45.62953" lon="5.72172">
        <ele>711</ele>
        <time>2017-05-26T19:16:20Z</time>
      </trkpt>
      <trkpt lat="45.62951" lon="5.72175">
        <ele>711</ele>
        <time>2017-05-26T19:16:20Z</time>
      </trkpt>
      <trkpt lat="45.62949" lon="5.7218">
        <ele>711</ele>
        <time>2017-05-26T19:16:36Z</time>
      </trkpt>
      <trkpt lat="45.62946" lon="5.72185">
        <ele>711</ele>
        <time>2017-05-26T19:16:36Z</time>
      </trkpt>
      <trkpt lat="45.62942" lon="5.72192">
        <ele>711</ele>
        <time>2017-05-26T19:16:36Z</time>
      </trkpt>
      <trkpt lat="45.62935" lon="5.72203">
        <ele>711</ele>
        <time>2017-05-26T19:16:36Z</time>
      </trkpt>
      <trkpt lat="45.62925" lon="5.7222">
        <ele>694</ele>
        <time>2017-05-26T19:16:58Z</time>
      </trkpt>
      <trkpt lat="45.62922" lon="5.72235">
        <ele>694</ele>
        <time>2017-05-26T19:16:58Z</time>
      </trkpt>
      <trkpt lat="45.62921" lon="5.72244">
        <ele>694</ele>
        <time>2017-05-26T19:16:58Z</time>
      </trkpt>
      <trkpt lat="45.6292" lon="5.72247">
        <ele>694</ele>
        <time>2017-05-26T19:17:09Z</time>
      </trkpt>
      <trkpt lat="45.62899" lon="5.72303">
        <ele>680</ele>
        <time>2017-05-26T19:17:36Z</time>
      </trkpt>
      <trkpt lat="45.62895" lon="5.72315">
        <ele>680</ele>
        <time>2017-05-26T19:17:36Z</time>
      </trkpt>
      <trkpt lat="45.62889" lon="5.72328">
        <ele>680</ele>
        <time>2017-05-26T19:17:36Z</time>
      </trkpt>
      <trkpt lat="45.62887" lon="5.72334">
        <ele>680</ele>
        <time>2017-05-26T19:17:36Z</time>
      </trkpt>
      <trkpt lat="45.62883" lon="5.72339">
        <ele>680</ele>
        <time>2017-05-26T19:17:52Z</time>
      </trkpt>
      <trkpt lat="45.62879" lon="5.72343">
        <ele>680</ele>
        <time>2017-05-26T19:17:52Z</time>
      </trkpt>
      <trkpt lat="45.62877" lon="5.72347">
        <ele>680</ele>
        <time>2017-05-26T19:17:52Z</time>
      </trkpt>
      <trkpt lat="45.62874" lon="5.72351">
        <ele>691</ele>
        <time>2017-05-26T19:17:52Z</time>
      </trkpt>
      <trkpt lat="45.62871" lon="5.72356">
        <ele>691</ele>
        <time>2017-05-26T19:18:08Z</time>
      </trkpt>
      <trkpt lat="45.62868" lon="5.72362">
        <ele>691</ele>
        <time>2017-05-26T19:18:08Z</time>
      </trkpt>
      <trkpt lat="45.62865" lon="5.72368">
        <ele>691</ele>
        <time>2017-05-26T19:18:08Z</time>
      </trkpt>
      <trkpt lat="45.6286" lon="5.72381">
        <ele>677</ele>
        <time>2017-05-26T19:18:08Z</time>
      </trkpt>
      <trkpt lat="45.62852" lon="5.72391">
        <ele>677</ele>
        <time>2017-05-26T19:18:24Z</time>
      </trkpt>
      <trkpt lat="45.62846" lon="5.72401">
        <ele>677</ele>
        <time>2017-05-26T19:18:24Z</time>
      </trkpt>
      <trkpt lat="45.62842" lon="5.72407">
        <ele>677</ele>
        <time>2017-05-26T19:18:24Z</time>
      </trkpt>
      <trkpt lat="45.62838" lon="5.72413">
        <ele>677</ele>
        <time>2017-05-26T19:18:24Z</time>
      </trkpt>
      <trkpt lat="45.62834" lon="5.72416">
        <ele>677</ele>
        <time>2017-05-26T19:18:40Z</time>
      </trkpt>
      <trkpt lat="45.6283" lon="5.7242">
        <ele>677</ele>
        <time>2017-05-26T19:18:40Z</time>
      </trkpt>
      <trkpt lat="45.62826" lon="5.72424">
        <ele>677</ele>
        <time>2017-05-26T19:18:40Z</time>
      </trkpt>
      <trkpt lat="45.62822" lon="5.72427">
        <ele>677</ele>
        <time>2017-05-26T19:18:40Z</time>
      </trkpt>
      <trkpt lat="45.62818" lon="5.72432">
        <ele>677</ele>
        <time>2017-05-26T19:18:56Z</time>
      </trkpt>
      <trkpt lat="45.62813" lon="5.72434">
        <ele>677</ele>
        <time>2017-05-26T19:18:56Z</time>
      </trkpt>
      <trkpt lat="45.62808" lon="5.72437">
        <ele>677</ele>
        <time>2017-05-26T19:18:56Z</time>
      </trkpt>
      <trkpt lat="45.62804" lon="5.7244">
        <ele>677</ele>
        <time>2017-05-26T19:18:56Z</time>
      </trkpt>
      <trkpt lat="45.628" lon="5.72442">
        <ele>677</ele>
        <time>2017-05-26T19:19:12Z</time>
      </trkpt>
      <trkpt lat="45.62793" lon="5.72444">
        <ele>677</ele>
        <time>2017-05-26T19:19:12Z</time>
      </trkpt>
      <trkpt lat="45.62779" lon="5.72451">
        <ele>689</ele>
        <time>2017-05-26T19:19:12Z</time>
      </trkpt>
      <trkpt lat="45.62767" lon="5.72458">
        <ele>689</ele>
        <time>2017-05-26T19:19:12Z</time>
      </trkpt>
      <trkpt lat="45.6276" lon="5.72461">
        <ele>675</ele>
        <time>2017-05-26T19:19:28Z</time>
      </trkpt>
      <trkpt lat="45.62754" lon="5.72465">
        <ele>675</ele>
        <time>2017-05-26T19:19:28Z</time>
      </trkpt>
      <trkpt lat="45.62749" lon="5.72469">
        <ele>675</ele>
        <time>2017-05-26T19:19:28Z</time>
      </trkpt>
      <trkpt lat="45.62742" lon="5.72473">
        <ele>675</ele>
        <time>2017-05-26T19:19:28Z</time>
      </trkpt>
      <trkpt lat="45.62734" lon="5.72476">
        <ele>675</ele>
        <time>2017-05-26T19:19:44Z</time>
      </trkpt>
      <trkpt lat="45.62728" lon="5.72475">
        <ele>675</ele>
        <time>2017-05-26T19:19:44Z</time>
      </trkpt>
      <trkpt lat="45.62724" lon="5.72476">
        <ele>675</ele>
        <time>2017-05-26T19:19:44Z</time>
      </trkpt>
      <trkpt lat="45.6272" lon="5.72479">
        <ele>675</ele>
        <time>2017-05-26T19:19:44Z</time>
      </trkpt>
      <trkpt lat="45.62715" lon="5.72482">
        <ele>675</ele>
        <time>2017-05-26T19:20:00Z</time>
      </trkpt>
      <trkpt lat="45.6271" lon="5.72485">
        <ele>675</ele>
        <time>2017-05-26T19:20:00Z</time>
      </trkpt>
      <trkpt lat="45.62706" lon="5.72489">
        <ele>686</ele>
        <time>2017-05-26T19:20:00Z</time>
      </trkpt>
      <trkpt lat="45.62701" lon="5.72493">
        <ele>686</ele>
        <time>2017-05-26T19:20:00Z</time>
      </trkpt>
      <trkpt lat="45.62696" lon="5.72497">
        <ele>686</ele>
        <time>2017-05-26T19:20:16Z</time>
      </trkpt>
      <trkpt lat="45.62693" lon="5.72502">
        <ele>686</ele>
        <time>2017-05-26T19:20:16Z</time>
      </trkpt>
      <trkpt lat="45.6269" lon="5.72506">
        <ele>686</ele>
        <time>2017-05-26T19:20:16Z</time>
      </trkpt>
      <trkpt lat="45.62686" lon="5.7251">
        <ele>686</ele>
        <time>2017-05-26T19:20:16Z</time>
      </trkpt>
      <trkpt lat="45.62681" lon="5.72515">
        <ele>686</ele>
        <time>2017-05-26T19:20:32Z</time>
      </trkpt>
      <trkpt lat="45.62676" lon="5.7252">
        <ele>686</ele>
        <time>2017-05-26T19:20:32Z</time>
      </trkpt>
      <trkpt lat="45.62672" lon="5.72523">
        <ele>686</ele>
        <time>2017-05-26T19:20:32Z</time>
      </trkpt>
      <trkpt lat="45.62668" lon="5.72526">
        <ele>686</ele>
        <time>2017-05-26T19:20:32Z</time>
      </trkpt>
      <trkpt lat="45.62664" lon="5.72528">
        <ele>686</ele>
        <time>2017-05-26T19:20:48Z</time>
      </trkpt>
      <trkpt lat="45.62661" lon="5.72532">
        <ele>686</ele>
        <time>2017-05-26T19:20:48Z</time>
      </trkpt>
      <trkpt lat="45.62657" lon="5.72533">
        <ele>686</ele>
        <time>2017-05-26T19:20:48Z</time>
      </trkpt>
      <trkpt lat="45.62654" lon="5.72538">
        <ele>686</ele>
        <time>2017-05-26T19:20:48Z</time>
      </trkpt>
      <trkpt lat="45.62651" lon="5.72545">
        <ele>669</ele>
        <time>2017-05-26T19:21:04Z</time>
      </trkpt>
      <trkpt lat="45.62646" lon="5.72551">
        <ele>669</ele>
        <time>2017-05-26T19:21:04Z</time>
      </trkpt>
      <trkpt lat="45.62641" lon="5.72557">
        <ele>669</ele>
        <time>2017-05-26T19:21:04Z</time>
      </trkpt>
      <trkpt lat="45.62636" lon="5.7256">
        <ele>669</ele>
        <time>2017-05-26T19:21:04Z</time>
      </trkpt>
      <trkpt lat="45.62632" lon="5.72564">
        <ele>669</ele>
        <time>2017-05-26T19:21:20Z</time>
      </trkpt>
      <trkpt lat="45.62627" lon="5.72569">
        <ele>669</ele>
        <time>2017-05-26T19:21:20Z</time>
      </trkpt>
      <trkpt lat="45.62623" lon="5.72574">
        <ele>679</ele>
        <time>2017-05-26T19:21:20Z</time>
      </trkpt>
      <trkpt lat="45.62619" lon="5.72579">
        <ele>679</ele>
        <time>2017-05-26T19:21:20Z</time>
      </trkpt>
      <trkpt lat="45.62614" lon="5.72582">
        <ele>679</ele>
        <time>2017-05-26T19:21:36Z</time>
      </trkpt>
      <trkpt lat="45.6261" lon="5.72585">
        <ele>679</ele>
        <time>2017-05-26T19:21:36Z</time>
      </trkpt>
      <trkpt lat="45.62606" lon="5.72585">
        <ele>679</ele>
        <time>2017-05-26T19:21:36Z</time>
      </trkpt>
      <trkpt lat="45.62601" lon="5.72587">
        <ele>679</ele>
        <time>2017-05-26T19:21:36Z</time>
      </trkpt>
      <trkpt lat="45.62595" lon="5.72593">
        <ele>679</ele>
        <time>2017-05-26T19:23:28Z</time>
      </trkpt>
      <trkpt lat="45.62594" lon="5.72593">
        <ele>679</ele>
        <time>2017-05-26T19:23:28Z</time>
      </trkpt>
      <trkpt lat="45.62594" lon="5.72593">
        <ele>679</ele>
        <time>2017-05-26T19:23:28Z</time>
      </trkpt>
      <trkpt lat="45.62594" lon="5.72593">
        <ele>679</ele>
        <time>2017-05-26T19:23:28Z</time>
      </trkpt>
      <trkpt lat="45.62592" lon="5.72595">
        <ele>679</ele>
        <time>2017-05-26T19:23:28Z</time>
      </trkpt>
      <trkpt lat="45.62587" lon="5.72599">
        <ele>679</ele>
        <time>2017-05-26T19:23:44Z</time>
      </trkpt>
      <trkpt lat="45.62583" lon="5.72602">
        <ele>679</ele>
        <time>2017-05-26T19:23:44Z</time>
      </trkpt>
      <trkpt lat="45.62579" lon="5.72605">
        <ele>679</ele>
        <time>2017-05-26T19:23:44Z</time>
      </trkpt>
      <trkpt lat="45.62574" lon="5.72609">
        <ele>679</ele>
        <time>2017-05-26T19:23:44Z</time>
      </trkpt>
      <trkpt lat="45.62569" lon="5.72613">
        <ele>679</ele>
        <time>2017-05-26T19:24:00Z</time>
      </trkpt>
      <trkpt lat="45.62564" lon="5.72617">
        <ele>679</ele>
        <time>2017-05-26T19:24:00Z</time>
      </trkpt>
      <trkpt lat="45.62561" lon="5.72616">
        <ele>679</ele>
        <time>2017-05-26T19:24:00Z</time>
      </trkpt>
      <trkpt lat="45.62559" lon="5.72617">
        <ele>679</ele>
        <time>2017-05-26T19:24:00Z</time>
      </trkpt>
      <trkpt lat="45.62552" lon="5.72619">
        <ele>679</ele>
        <time>2017-05-26T19:24:24Z</time>
      </trkpt>
      <trkpt lat="45.6255" lon="5.72622">
        <ele>679</ele>
        <time>2017-05-26T19:24:24Z</time>
      </trkpt>
      <trkpt lat="45.62554" lon="5.72626">
        <ele>659</ele>
        <time>2017-05-26T19:24:24Z</time>
      </trkpt>
      <trkpt lat="45.62559" lon="5.72627">
        <ele>659</ele>
        <time>2017-05-26T19:24:24Z</time>
      </trkpt>
      <trkpt lat="45.62563" lon="5.72628">
        <ele>659</ele>
        <time>2017-05-26T19:24:24Z</time>
      </trkpt>
      <trkpt lat="45.62567" lon="5.7263">
        <ele>659</ele>
        <time>2017-05-26T19:24:48Z</time>
      </trkpt>
      <trkpt lat="45.62568" lon="5.72631">
        <ele>659</ele>
        <time>2017-05-26T19:24:48Z</time>
      </trkpt>
      <trkpt lat="45.62569" lon="5.72631">
        <ele>659</ele>
        <time>2017-05-26T19:24:48Z</time>
      </trkpt>
      <trkpt lat="45.62573" lon="5.72631">
        <ele>659</ele>
        <time>2017-05-26T19:24:48Z</time>
      </trkpt>
      <trkpt lat="45.62578" lon="5.72628">
        <ele>659</ele>
        <time>2017-05-26T19:24:48Z</time>
      </trkpt>
      <trkpt lat="45.62583" lon="5.72626">
        <ele>659</ele>
        <time>2017-05-26T19:25:04Z</time>
      </trkpt>
      <trkpt lat="45.62588" lon="5.72625">
        <ele>659</ele>
        <time>2017-05-26T19:25:04Z</time>
      </trkpt>
      <trkpt lat="45.62593" lon="5.72625">
        <ele>659</ele>
        <time>2017-05-26T19:25:04Z</time>
      </trkpt>
      <trkpt lat="45.62598" lon="5.72624">
        <ele>679</ele>
        <time>2017-05-26T19:25:04Z</time>
      </trkpt>
      <trkpt lat="45.62603" lon="5.72622">
        <ele>679</ele>
        <time>2017-05-26T19:25:20Z</time>
      </trkpt>
      <trkpt lat="45.62609" lon="5.72621">
        <ele>679</ele>
        <time>2017-05-26T19:25:20Z</time>
      </trkpt>
      <trkpt lat="45.62614" lon="5.7262">
        <ele>679</ele>
        <time>2017-05-26T19:25:20Z</time>
      </trkpt>
      <trkpt lat="45.62619" lon="5.72619">
        <ele>679</ele>
        <time>2017-05-26T19:25:20Z</time>
      </trkpt>
      <trkpt lat="45.62624" lon="5.72618">
        <ele>679</ele>
        <time>2017-05-26T19:25:36Z</time>
      </trkpt>
      <trkpt lat="45.62629" lon="5.72617">
        <ele>669</ele>
        <time>2017-05-26T19:25:36Z</time>
      </trkpt>
      <trkpt lat="45.62635" lon="5.72617">
        <ele>669</ele>
        <time>2017-05-26T19:25:36Z</time>
      </trkpt>
      <trkpt lat="45.6264" lon="5.72616">
        <ele>669</ele>
        <time>2017-05-26T19:25:36Z</time>
      </trkpt>
      <trkpt lat="45.62644" lon="5.72616">
        <ele>669</ele>
        <time>2017-05-26T19:25:52Z</time>
      </trkpt>
      <trkpt lat="45.62649" lon="5.72615">
        <ele>669</ele>
        <time>2017-05-26T19:25:52Z</time>
      </trkpt>
      <trkpt lat="45.62653" lon="5.72616">
        <ele>669</ele>
        <time>2017-05-26T19:25:52Z</time>
      </trkpt>
      <trkpt lat="45.62654" lon="5.72618">
        <ele>669</ele>
        <time>2017-05-26T19:25:52Z</time>
      </trkpt>
      <trkpt lat="45.62652" lon="5.72621">
        <ele>669</ele>
        <time>2017-05-26T19:26:16Z</time>
      </trkpt>
      <trkpt lat="45.62652" lon="5.72621">
        <ele>669</ele>
        <time>2017-05-26T19:26:16Z</time>
      </trkpt>
      <trkpt lat="45.62649" lon="5.72622">
        <ele>669</ele>
        <time>2017-05-26T19:26:16Z</time>
      </trkpt>
      <trkpt lat="45.62647" lon="5.72625">
        <ele>653</ele>
        <time>2017-05-26T19:26:16Z</time>
      </trkpt>
      <trkpt lat="45.62644" lon="5.72628">
        <ele>653</ele>
        <time>2017-05-26T19:26:16Z</time>
      </trkpt>
      <trkpt lat="45.62642" lon="5.7263">
        <ele>653</ele>
        <time>2017-05-26T19:26:36Z</time>
      </trkpt>
      <trkpt lat="45.62639" lon="5.72633">
        <ele>653</ele>
        <time>2017-05-26T19:26:36Z</time>
      </trkpt>
      <trkpt lat="45.62636" lon="5.72635">
        <ele>653</ele>
        <time>2017-05-26T19:26:36Z</time>
      </trkpt>
      <trkpt lat="45.62634" lon="5.72637">
        <ele>653</ele>
        <time>2017-05-26T19:26:36Z</time>
      </trkpt>
      <trkpt lat="45.62634" lon="5.72638">
        <ele>653</ele>
        <time>2017-05-26T19:26:36Z</time>
      </trkpt>
      <trkpt lat="45.62635" lon="5.72638">
        <ele>653</ele>
        <time>2017-05-26T19:27:08Z</time>
      </trkpt>
      <trkpt lat="45.62634" lon="5.72637">
        <ele>653</ele>
        <time>2017-05-26T19:27:08Z</time>
      </trkpt>
      <trkpt lat="45.62631" lon="5.72639">
        <ele>653</ele>
        <time>2017-05-26T19:27:08Z</time>
      </trkpt>
      <trkpt lat="45.62627" lon="5.72643">
        <ele>653</ele>
        <time>2017-05-26T19:27:08Z</time>
      </trkpt>
      <trkpt lat="45.62623" lon="5.72643">
        <ele>659</ele>
        <time>2017-05-26T19:27:08Z</time>
      </trkpt>
    </trkseg>
  </trk>
</gpx>